<?xml version="1.0" encoding="UTF-8" standalone="no" ?>
<gpx xmlns="http://www.topografix.com/GPX/1/1" xmlns:xsi="http://www.w3.org/2001/XMLSchema-instance" xsi:schemaLocation="http://www.topografix.com/GPX/1/1 http://www.topografix.com/GPX/1/1/gpx.xsd" version="1.1" creator="VisuGPX - https://www.visugpx.com">
  <metadata>
    <name>26 Hostun - 2022-03-13</name>
  </metadata>
  <trk>
    <name><![CDATA[Sortie à vélo]]></name>
    <trkseg>
      <trkpt lat="45.00759" lon="5.09171">
        <ele>216.394758</ele>
        <time>2022-03-12T07:57:26.145Z</time>
      </trkpt>
      <trkpt lat="45.0077" lon="5.09188">
        <ele>216.394758</ele>
        <time>2022-03-12T07:59:44.325Z</time>
      </trkpt>
      <trkpt lat="45.00762" lon="5.09196">
        <ele>216.394758</ele>
        <time>2022-03-12T07:59:48.321Z</time>
      </trkpt>
      <trkpt lat="45.00754" lon="5.09202">
        <ele>216.394758</ele>
        <time>2022-03-12T07:59:52.323Z</time>
      </trkpt>
      <trkpt lat="45.00748" lon="5.09192">
        <ele>216.394758</ele>
        <time>2022-03-12T07:59:55.324Z</time>
      </trkpt>
      <trkpt lat="45.00743" lon="5.09181">
        <ele>216.394758</ele>
        <time>2022-03-12T07:59:58.325Z</time>
      </trkpt>
      <trkpt lat="45.00737" lon="5.09169">
        <ele>216.394758</ele>
        <time>2022-03-12T08:00:01.325Z</time>
      </trkpt>
      <trkpt lat="45.00732" lon="5.09156">
        <ele>216.394758</ele>
        <time>2022-03-12T08:00:04.324Z</time>
      </trkpt>
      <trkpt lat="45.00727" lon="5.09144">
        <ele>216.394758</ele>
        <time>2022-03-12T08:00:07.322Z</time>
      </trkpt>
      <trkpt lat="45.0072" lon="5.09132">
        <ele>216.296793</ele>
        <time>2022-03-12T08:00:10.315Z</time>
      </trkpt>
      <trkpt lat="45.00712" lon="5.09121">
        <ele>216.096169</ele>
        <time>2022-03-12T08:00:13.328Z</time>
      </trkpt>
      <trkpt lat="45.00704" lon="5.09111">
        <ele>215.905622</ele>
        <time>2022-03-12T08:00:16.331Z</time>
      </trkpt>
      <trkpt lat="45.00699" lon="5.09098">
        <ele>215.718415</ele>
        <time>2022-03-12T08:00:19.332Z</time>
      </trkpt>
      <trkpt lat="45.00696" lon="5.09085">
        <ele>215.547774</ele>
        <time>2022-03-12T08:00:22.323Z</time>
      </trkpt>
      <trkpt lat="45.00695" lon="5.09072">
        <ele>215.368329</ele>
        <time>2022-03-12T08:00:25.332Z</time>
      </trkpt>
      <trkpt lat="45.00695" lon="5.09057">
        <ele>215.183952</ele>
        <time>2022-03-12T08:00:28.327Z</time>
      </trkpt>
      <trkpt lat="45.00695" lon="5.09043">
        <ele>215.004914</ele>
        <time>2022-03-12T08:00:31.332Z</time>
      </trkpt>
      <trkpt lat="45.00694" lon="5.09029">
        <ele>214.815413</ele>
        <time>2022-03-12T08:00:34.328Z</time>
      </trkpt>
      <trkpt lat="45.00691" lon="5.09014">
        <ele>214.62071</ele>
        <time>2022-03-12T08:00:37.322Z</time>
      </trkpt>
      <trkpt lat="45.0069" lon="5.08998">
        <ele>214.416692</ele>
        <time>2022-03-12T08:00:40.318Z</time>
      </trkpt>
      <trkpt lat="45.00687" lon="5.08982">
        <ele>214.2011</ele>
        <time>2022-03-12T08:00:43.327Z</time>
      </trkpt>
      <trkpt lat="45.00684" lon="5.08969">
        <ele>214.028079</ele>
        <time>2022-03-12T08:00:45.337Z</time>
      </trkpt>
      <trkpt lat="45.00679" lon="5.08951">
        <ele>213.781599</ele>
        <time>2022-03-12T08:00:48.324Z</time>
      </trkpt>
      <trkpt lat="45.00677" lon="5.08938">
        <ele>213.608857</ele>
        <time>2022-03-12T08:00:50.317Z</time>
      </trkpt>
      <trkpt lat="45.00673" lon="5.08926">
        <ele>213.432772</ele>
        <time>2022-03-12T08:00:52.322Z</time>
      </trkpt>
      <trkpt lat="45.0067" lon="5.08913">
        <ele>213.264612</ele>
        <time>2022-03-12T08:00:54.324Z</time>
      </trkpt>
      <trkpt lat="45.00667" lon="5.089">
        <ele>213.109515</ele>
        <time>2022-03-12T08:00:56.327Z</time>
      </trkpt>
      <trkpt lat="45.00665" lon="5.08887">
        <ele>213.060474</ele>
        <time>2022-03-12T08:00:58.323Z</time>
      </trkpt>
      <trkpt lat="45.00662" lon="5.08875">
        <ele>213.010828</ele>
        <time>2022-03-12T08:01:00.328Z</time>
      </trkpt>
      <trkpt lat="45.00659" lon="5.08861">
        <ele>212.957961</ele>
        <time>2022-03-12T08:01:02.327Z</time>
      </trkpt>
      <trkpt lat="45.00656" lon="5.08848">
        <ele>212.909517</ele>
        <time>2022-03-12T08:01:04.329Z</time>
      </trkpt>
      <trkpt lat="45.00653" lon="5.08835">
        <ele>212.859346</ele>
        <time>2022-03-12T08:01:06.319Z</time>
      </trkpt>
      <trkpt lat="45.0065" lon="5.08823">
        <ele>212.81236</ele>
        <time>2022-03-12T08:01:08.324Z</time>
      </trkpt>
      <trkpt lat="45.00647" lon="5.08807">
        <ele>212.749217</ele>
        <time>2022-03-12T08:01:11.327Z</time>
      </trkpt>
      <trkpt lat="45.00648" lon="5.08794">
        <ele>212.700871</ele>
        <time>2022-03-12T08:01:14.324Z</time>
      </trkpt>
      <trkpt lat="45.00649" lon="5.08778">
        <ele>212.643678</ele>
        <time>2022-03-12T08:01:17.322Z</time>
      </trkpt>
      <trkpt lat="45.00639" lon="5.08769">
        <ele>212.582822</ele>
        <time>2022-03-12T08:01:20.317Z</time>
      </trkpt>
      <trkpt lat="45.00628" lon="5.08765">
        <ele>212.519863</ele>
        <time>2022-03-12T08:01:23.325Z</time>
      </trkpt>
      <trkpt lat="45.00616" lon="5.08758">
        <ele>212.45695</ele>
        <time>2022-03-12T08:01:26.325Z</time>
      </trkpt>
      <trkpt lat="45.00605" lon="5.08753">
        <ele>212.395572</ele>
        <time>2022-03-12T08:01:29.322Z</time>
      </trkpt>
      <trkpt lat="45.00594" lon="5.08747">
        <ele>212.334558</ele>
        <time>2022-03-12T08:01:32.318Z</time>
      </trkpt>
      <trkpt lat="45.00585" lon="5.0874">
        <ele>212.277894</ele>
        <time>2022-03-12T08:01:35.317Z</time>
      </trkpt>
      <trkpt lat="45.00574" lon="5.08731">
        <ele>212.2157</ele>
        <time>2022-03-12T08:01:38.325Z</time>
      </trkpt>
      <trkpt lat="45.00566" lon="5.08726">
        <ele>212.218203</ele>
        <time>2022-03-12T08:01:40.317Z</time>
      </trkpt>
      <trkpt lat="45.00555" lon="5.08718">
        <ele>212.402973</ele>
        <time>2022-03-12T08:01:43.328Z</time>
      </trkpt>
      <trkpt lat="45.00542" lon="5.08711">
        <ele>212.599518</ele>
        <time>2022-03-12T08:01:46.320Z</time>
      </trkpt>
      <trkpt lat="45.0053" lon="5.08706">
        <ele>212.780352</ele>
        <time>2022-03-12T08:01:49.326Z</time>
      </trkpt>
      <trkpt lat="45.0052" lon="5.08696">
        <ele>212.963656</ele>
        <time>2022-03-12T08:01:52.320Z</time>
      </trkpt>
      <trkpt lat="45.00509" lon="5.08687">
        <ele>213.144405</ele>
        <time>2022-03-12T08:01:55.320Z</time>
      </trkpt>
      <trkpt lat="45.00499" lon="5.08677">
        <ele>213.318664</ele>
        <time>2022-03-12T08:01:58.323Z</time>
      </trkpt>
      <trkpt lat="45.0049" lon="5.08667">
        <ele>213.483696</ele>
        <time>2022-03-12T08:02:01.322Z</time>
      </trkpt>
      <trkpt lat="45.00481" lon="5.08655">
        <ele>213.662251</ele>
        <time>2022-03-12T08:02:04.328Z</time>
      </trkpt>
      <trkpt lat="45.00472" lon="5.08644">
        <ele>213.842475</ele>
        <time>2022-03-12T08:02:07.329Z</time>
      </trkpt>
      <trkpt lat="45.00463" lon="5.08632">
        <ele>214.019506</ele>
        <time>2022-03-12T08:02:10.335Z</time>
      </trkpt>
      <trkpt lat="45.00455" lon="5.0862">
        <ele>214.192433</ele>
        <time>2022-03-12T08:02:13.334Z</time>
      </trkpt>
      <trkpt lat="45.00446" lon="5.08608">
        <ele>214.37343</ele>
        <time>2022-03-12T08:02:16.324Z</time>
      </trkpt>
      <trkpt lat="45.00436" lon="5.08598">
        <ele>214.548883</ele>
        <time>2022-03-12T08:02:19.320Z</time>
      </trkpt>
      <trkpt lat="45.00427" lon="5.08587">
        <ele>214.721656</ele>
        <time>2022-03-12T08:02:22.325Z</time>
      </trkpt>
      <trkpt lat="45.00418" lon="5.08577">
        <ele>215.302153</ele>
        <time>2022-03-12T08:02:25.332Z</time>
      </trkpt>
      <trkpt lat="45.00409" lon="5.08566">
        <ele>216.154847</ele>
        <time>2022-03-12T08:02:28.323Z</time>
      </trkpt>
      <trkpt lat="45.00401" lon="5.08556">
        <ele>217.000821</ele>
        <time>2022-03-12T08:02:31.319Z</time>
      </trkpt>
      <trkpt lat="45.00394" lon="5.08546">
        <ele>217.755931</ele>
        <time>2022-03-12T08:02:34.324Z</time>
      </trkpt>
      <trkpt lat="45.00387" lon="5.08537">
        <ele>218.476816</ele>
        <time>2022-03-12T08:02:37.321Z</time>
      </trkpt>
      <trkpt lat="45.0038" lon="5.08529">
        <ele>219.211988</ele>
        <time>2022-03-12T08:02:40.330Z</time>
      </trkpt>
      <trkpt lat="45.00371" lon="5.08518">
        <ele>220.121878</ele>
        <time>2022-03-12T08:02:44.326Z</time>
      </trkpt>
      <trkpt lat="45.00362" lon="5.08508">
        <ele>220.945483</ele>
        <time>2022-03-12T08:02:48.329Z</time>
      </trkpt>
      <trkpt lat="45.00354" lon="5.085">
        <ele>221.704428</ele>
        <time>2022-03-12T08:02:52.319Z</time>
      </trkpt>
      <trkpt lat="45.00348" lon="5.08489">
        <ele>222.465385</ele>
        <time>2022-03-12T08:02:56.319Z</time>
      </trkpt>
      <trkpt lat="45.00341" lon="5.08481">
        <ele>223.152466</ele>
        <time>2022-03-12T08:03:00.320Z</time>
      </trkpt>
      <trkpt lat="45.00333" lon="5.08473">
        <ele>223.880925</ele>
        <time>2022-03-12T08:03:04.324Z</time>
      </trkpt>
      <trkpt lat="45.00326" lon="5.08464">
        <ele>224.600939</ele>
        <time>2022-03-12T08:03:08.320Z</time>
      </trkpt>
      <trkpt lat="45.0032" lon="5.08455">
        <ele>225.30055</ele>
        <time>2022-03-12T08:03:12.317Z</time>
      </trkpt>
      <trkpt lat="45.00311" lon="5.08448">
        <ele>226.050682</ele>
        <time>2022-03-12T08:03:16.318Z</time>
      </trkpt>
      <trkpt lat="45.003" lon="5.08445">
        <ele>226.935541</ele>
        <time>2022-03-12T08:03:21.321Z</time>
      </trkpt>
      <trkpt lat="45.0029" lon="5.08441">
        <ele>227.693747</ele>
        <time>2022-03-12T08:03:25.316Z</time>
      </trkpt>
      <trkpt lat="45.00281" lon="5.08436">
        <ele>228.423943</ele>
        <time>2022-03-12T08:03:29.321Z</time>
      </trkpt>
      <trkpt lat="45.0027" lon="5.08434">
        <ele>229.350384</ele>
        <time>2022-03-12T08:03:34.313Z</time>
      </trkpt>
      <trkpt lat="45.00261" lon="5.08433">
        <ele>230.118715</ele>
        <time>2022-03-12T08:03:38.330Z</time>
      </trkpt>
      <trkpt lat="45.00251" lon="5.08431">
        <ele>230.966591</ele>
        <time>2022-03-12T08:03:42.327Z</time>
      </trkpt>
      <trkpt lat="45.00242" lon="5.08429">
        <ele>231.777724</ele>
        <time>2022-03-12T08:03:46.325Z</time>
      </trkpt>
      <trkpt lat="45.00232" lon="5.08427">
        <ele>232.633994</ele>
        <time>2022-03-12T08:03:50.325Z</time>
      </trkpt>
      <trkpt lat="45.00222" lon="5.08426">
        <ele>233.508928</ele>
        <time>2022-03-12T08:03:54.318Z</time>
      </trkpt>
      <trkpt lat="45.00212" lon="5.08426">
        <ele>234.340584</ele>
        <time>2022-03-12T08:03:58.313Z</time>
      </trkpt>
      <trkpt lat="45.00202" lon="5.08425">
        <ele>235.191465</ele>
        <time>2022-03-12T08:04:02.316Z</time>
      </trkpt>
      <trkpt lat="45.00192" lon="5.08422">
        <ele>236.000269</ele>
        <time>2022-03-12T08:04:06.330Z</time>
      </trkpt>
      <trkpt lat="45.00183" lon="5.08422">
        <ele>236.78987</ele>
        <time>2022-03-12T08:04:10.313Z</time>
      </trkpt>
      <trkpt lat="45.00174" lon="5.0842">
        <ele>237.558201</ele>
        <time>2022-03-12T08:04:14.329Z</time>
      </trkpt>
      <trkpt lat="45.00163" lon="5.08418">
        <ele>238.483312</ele>
        <time>2022-03-12T08:04:19.317Z</time>
      </trkpt>
      <trkpt lat="45.00154" lon="5.08417">
        <ele>239.249207</ele>
        <time>2022-03-12T08:04:23.325Z</time>
      </trkpt>
      <trkpt lat="45.00143" lon="5.08414">
        <ele>240.234775</ele>
        <time>2022-03-12T08:04:28.323Z</time>
      </trkpt>
      <trkpt lat="45.00134" lon="5.08415">
        <ele>241.015151</ele>
        <time>2022-03-12T08:04:32.321Z</time>
      </trkpt>
      <trkpt lat="45.00122" lon="5.08416">
        <ele>241.966616</ele>
        <time>2022-03-12T08:04:37.330Z</time>
      </trkpt>
      <trkpt lat="45.00111" lon="5.08417">
        <ele>242.912587</ele>
        <time>2022-03-12T08:04:42.330Z</time>
      </trkpt>
      <trkpt lat="45.00102" lon="5.08419">
        <ele>243.714608</ele>
        <time>2022-03-12T08:04:46.329Z</time>
      </trkpt>
      <trkpt lat="45.00091" lon="5.0842">
        <ele>243.605095</ele>
        <time>2022-03-12T08:04:51.328Z</time>
      </trkpt>
      <trkpt lat="45.00081" lon="5.08419">
        <ele>243.398503</ele>
        <time>2022-03-12T08:04:56.319Z</time>
      </trkpt>
      <trkpt lat="45.00072" lon="5.0842">
        <ele>243.212663</ele>
        <time>2022-03-12T08:05:00.320Z</time>
      </trkpt>
      <trkpt lat="45.00063" lon="5.08419">
        <ele>243.020298</ele>
        <time>2022-03-12T08:05:04.318Z</time>
      </trkpt>
      <trkpt lat="45.00053" lon="5.0842">
        <ele>242.809094</ele>
        <time>2022-03-12T08:05:10.327Z</time>
      </trkpt>
      <trkpt lat="45.00044" lon="5.08425">
        <ele>242.609454</ele>
        <time>2022-03-12T08:05:14.321Z</time>
      </trkpt>
      <trkpt lat="45.00034" lon="5.08427">
        <ele>242.403855</ele>
        <time>2022-03-12T08:05:17.321Z</time>
      </trkpt>
      <trkpt lat="45.00021" lon="5.08427">
        <ele>242.141386</ele>
        <time>2022-03-12T08:05:20.328Z</time>
      </trkpt>
      <trkpt lat="45.00011" lon="5.08423">
        <ele>241.929704</ele>
        <time>2022-03-12T08:05:22.322Z</time>
      </trkpt>
      <trkpt lat="45.00002" lon="5.0842">
        <ele>241.725728</ele>
        <time>2022-03-12T08:05:24.329Z</time>
      </trkpt>
      <trkpt lat="44.99991" lon="5.08417">
        <ele>241.496461</ele>
        <time>2022-03-12T08:05:26.323Z</time>
      </trkpt>
      <trkpt lat="44.9998" lon="5.08413">
        <ele>241.271043</ele>
        <time>2022-03-12T08:05:28.324Z</time>
      </trkpt>
      <trkpt lat="44.9997" lon="5.08409">
        <ele>241.041381</ele>
        <time>2022-03-12T08:05:30.321Z</time>
      </trkpt>
      <trkpt lat="44.99958" lon="5.08405">
        <ele>240.80088</ele>
        <time>2022-03-12T08:05:32.327Z</time>
      </trkpt>
      <trkpt lat="44.99947" lon="5.08403">
        <ele>240.567216</ele>
        <time>2022-03-12T08:05:34.327Z</time>
      </trkpt>
      <trkpt lat="44.99936" lon="5.08401">
        <ele>240.342332</ele>
        <time>2022-03-12T08:05:36.322Z</time>
      </trkpt>
      <trkpt lat="44.99926" lon="5.08398">
        <ele>240.12145</ele>
        <time>2022-03-12T08:05:38.326Z</time>
      </trkpt>
      <trkpt lat="44.99917" lon="5.08395">
        <ele>240.043518</ele>
        <time>2022-03-12T08:05:40.327Z</time>
      </trkpt>
      <trkpt lat="44.99904" lon="5.08388">
        <ele>239.969352</ele>
        <time>2022-03-12T08:05:43.321Z</time>
      </trkpt>
      <trkpt lat="44.99893" lon="5.08382">
        <ele>239.903703</ele>
        <time>2022-03-12T08:05:46.321Z</time>
      </trkpt>
      <trkpt lat="44.99883" lon="5.08378">
        <ele>239.841112</ele>
        <time>2022-03-12T08:05:49.324Z</time>
      </trkpt>
      <trkpt lat="44.99871" lon="5.08373">
        <ele>239.771448</ele>
        <time>2022-03-12T08:05:52.322Z</time>
      </trkpt>
      <trkpt lat="44.9986" lon="5.08367">
        <ele>239.705529</ele>
        <time>2022-03-12T08:05:55.323Z</time>
      </trkpt>
      <trkpt lat="44.99847" lon="5.08362">
        <ele>239.631135</ele>
        <time>2022-03-12T08:05:58.318Z</time>
      </trkpt>
      <trkpt lat="44.99839" lon="5.08357">
        <ele>239.578864</ele>
        <time>2022-03-12T08:06:00.324Z</time>
      </trkpt>
      <trkpt lat="44.9983" lon="5.08351">
        <ele>239.522878</ele>
        <time>2022-03-12T08:06:02.323Z</time>
      </trkpt>
      <trkpt lat="44.99821" lon="5.08344">
        <ele>239.467928</ele>
        <time>2022-03-12T08:06:04.333Z</time>
      </trkpt>
      <trkpt lat="44.99813" lon="5.08336">
        <ele>239.412099</ele>
        <time>2022-03-12T08:06:06.321Z</time>
      </trkpt>
      <trkpt lat="44.99805" lon="5.08328">
        <ele>239.35627</ele>
        <time>2022-03-12T08:06:08.332Z</time>
      </trkpt>
      <trkpt lat="44.99797" lon="5.08319">
        <ele>239.302928</ele>
        <time>2022-03-12T08:06:10.327Z</time>
      </trkpt>
      <trkpt lat="44.9979" lon="5.08311">
        <ele>239.249467</ele>
        <time>2022-03-12T08:06:12.332Z</time>
      </trkpt>
      <trkpt lat="44.99783" lon="5.08302">
        <ele>239.197551</ele>
        <time>2022-03-12T08:06:14.335Z</time>
      </trkpt>
      <trkpt lat="44.99776" lon="5.08294">
        <ele>239.144931</ele>
        <time>2022-03-12T08:06:16.330Z</time>
      </trkpt>
      <trkpt lat="44.99768" lon="5.08286">
        <ele>239.093162</ele>
        <time>2022-03-12T08:06:18.327Z</time>
      </trkpt>
      <trkpt lat="44.99761" lon="5.08278">
        <ele>238.924284</ele>
        <time>2022-03-12T08:06:20.323Z</time>
      </trkpt>
      <trkpt lat="44.99754" lon="5.0827">
        <ele>238.69219</ele>
        <time>2022-03-12T08:06:22.319Z</time>
      </trkpt>
      <trkpt lat="44.99747" lon="5.08263">
        <ele>238.458298</ele>
        <time>2022-03-12T08:06:24.325Z</time>
      </trkpt>
      <trkpt lat="44.99739" lon="5.08255">
        <ele>238.221259</ele>
        <time>2022-03-12T08:06:26.339Z</time>
      </trkpt>
      <trkpt lat="44.99732" lon="5.08248">
        <ele>237.987296</ele>
        <time>2022-03-12T08:06:28.320Z</time>
      </trkpt>
      <trkpt lat="44.99724" lon="5.0824">
        <ele>237.735578</ele>
        <time>2022-03-12T08:06:30.322Z</time>
      </trkpt>
      <trkpt lat="44.99716" lon="5.08233">
        <ele>237.500412</ele>
        <time>2022-03-12T08:06:32.320Z</time>
      </trkpt>
      <trkpt lat="44.99709" lon="5.08226">
        <ele>237.267403</ele>
        <time>2022-03-12T08:06:34.320Z</time>
      </trkpt>
      <trkpt lat="44.99697" lon="5.0822">
        <ele>236.939524</ele>
        <time>2022-03-12T08:06:37.315Z</time>
      </trkpt>
      <trkpt lat="44.99688" lon="5.08222">
        <ele>236.705472</ele>
        <time>2022-03-12T08:06:39.325Z</time>
      </trkpt>
      <trkpt lat="44.99677" lon="5.08227">
        <ele>236.418686</ele>
        <time>2022-03-12T08:06:41.328Z</time>
      </trkpt>
      <trkpt lat="44.99665" lon="5.08232">
        <ele>236.110645</ele>
        <time>2022-03-12T08:06:43.320Z</time>
      </trkpt>
      <trkpt lat="44.99653" lon="5.08238">
        <ele>235.767307</ele>
        <time>2022-03-12T08:06:45.330Z</time>
      </trkpt>
      <trkpt lat="44.9964" lon="5.08243">
        <ele>235.426609</ele>
        <time>2022-03-12T08:06:47.329Z</time>
      </trkpt>
      <trkpt lat="44.99627" lon="5.08249">
        <ele>235.0796</ele>
        <time>2022-03-12T08:06:49.328Z</time>
      </trkpt>
      <trkpt lat="44.99615" lon="5.08255">
        <ele>234.744631</ele>
        <time>2022-03-12T08:06:51.328Z</time>
      </trkpt>
      <trkpt lat="44.99603" lon="5.0826">
        <ele>234.440084</ele>
        <time>2022-03-12T08:06:53.329Z</time>
      </trkpt>
      <trkpt lat="44.99592" lon="5.08265">
        <ele>234.305694</ele>
        <time>2022-03-12T08:06:55.328Z</time>
      </trkpt>
      <trkpt lat="44.99581" lon="5.0827">
        <ele>234.174019</ele>
        <time>2022-03-12T08:06:57.312Z</time>
      </trkpt>
      <trkpt lat="44.99571" lon="5.08275">
        <ele>234.048984</ele>
        <time>2022-03-12T08:06:59.318Z</time>
      </trkpt>
      <trkpt lat="44.99561" lon="5.0828">
        <ele>233.9231</ele>
        <time>2022-03-12T08:07:01.323Z</time>
      </trkpt>
      <trkpt lat="44.99551" lon="5.08284">
        <ele>233.803256</ele>
        <time>2022-03-12T08:07:03.321Z</time>
      </trkpt>
      <trkpt lat="44.99541" lon="5.08289">
        <ele>233.686192</ele>
        <time>2022-03-12T08:07:05.316Z</time>
      </trkpt>
      <trkpt lat="44.99532" lon="5.08294">
        <ele>233.566661</ele>
        <time>2022-03-12T08:07:07.326Z</time>
      </trkpt>
      <trkpt lat="44.99522" lon="5.08299">
        <ele>233.452023</ele>
        <time>2022-03-12T08:07:09.328Z</time>
      </trkpt>
      <trkpt lat="44.99514" lon="5.08304">
        <ele>233.341716</ele>
        <time>2022-03-12T08:07:11.327Z</time>
      </trkpt>
      <trkpt lat="44.99505" lon="5.08308">
        <ele>233.233967</ele>
        <time>2022-03-12T08:07:13.318Z</time>
      </trkpt>
      <trkpt lat="44.99492" lon="5.08315">
        <ele>233.075901</ele>
        <time>2022-03-12T08:07:16.328Z</time>
      </trkpt>
      <trkpt lat="44.9948" lon="5.08323">
        <ele>232.919675</ele>
        <time>2022-03-12T08:07:19.322Z</time>
      </trkpt>
      <trkpt lat="44.99467" lon="5.08329">
        <ele>232.763674</ele>
        <time>2022-03-12T08:07:22.320Z</time>
      </trkpt>
      <trkpt lat="44.99456" lon="5.08336">
        <ele>232.61805</ele>
        <time>2022-03-12T08:07:25.333Z</time>
      </trkpt>
      <trkpt lat="44.99444" lon="5.08341">
        <ele>232.476353</ele>
        <time>2022-03-12T08:07:28.324Z</time>
      </trkpt>
      <trkpt lat="44.99433" lon="5.08345">
        <ele>232.381128</ele>
        <time>2022-03-12T08:07:31.324Z</time>
      </trkpt>
      <trkpt lat="44.99421" lon="5.08348">
        <ele>232.498314</ele>
        <time>2022-03-12T08:07:34.319Z</time>
      </trkpt>
      <trkpt lat="44.9941" lon="5.08351">
        <ele>232.613016</ele>
        <time>2022-03-12T08:07:37.340Z</time>
      </trkpt>
      <trkpt lat="44.99399" lon="5.08353">
        <ele>232.727161</ele>
        <time>2022-03-12T08:07:40.329Z</time>
      </trkpt>
      <trkpt lat="44.99387" lon="5.08356">
        <ele>232.846049</ele>
        <time>2022-03-12T08:07:43.327Z</time>
      </trkpt>
      <trkpt lat="44.99375" lon="5.08358">
        <ele>232.968619</ele>
        <time>2022-03-12T08:07:46.331Z</time>
      </trkpt>
      <trkpt lat="44.99363" lon="5.0836">
        <ele>233.085296</ele>
        <time>2022-03-12T08:07:49.323Z</time>
      </trkpt>
      <trkpt lat="44.99352" lon="5.08361">
        <ele>233.200702</ele>
        <time>2022-03-12T08:07:52.335Z</time>
      </trkpt>
      <trkpt lat="44.9934" lon="5.08363">
        <ele>233.315557</ele>
        <time>2022-03-12T08:07:55.323Z</time>
      </trkpt>
      <trkpt lat="44.99329" lon="5.08366">
        <ele>233.432672</ele>
        <time>2022-03-12T08:07:58.328Z</time>
      </trkpt>
      <trkpt lat="44.99317" lon="5.08367">
        <ele>233.548019</ele>
        <time>2022-03-12T08:08:01.335Z</time>
      </trkpt>
      <trkpt lat="44.99306" lon="5.08367">
        <ele>233.663</ele>
        <time>2022-03-12T08:08:04.332Z</time>
      </trkpt>
      <trkpt lat="44.99293" lon="5.08366">
        <ele>233.787029</ele>
        <time>2022-03-12T08:08:07.320Z</time>
      </trkpt>
      <trkpt lat="44.9928" lon="5.08365">
        <ele>233.917439</ele>
        <time>2022-03-12T08:08:10.328Z</time>
      </trkpt>
      <trkpt lat="44.99267" lon="5.08363">
        <ele>234.051243</ele>
        <time>2022-03-12T08:08:13.328Z</time>
      </trkpt>
      <trkpt lat="44.99258" lon="5.08361">
        <ele>234.143759</ele>
        <time>2022-03-12T08:08:15.320Z</time>
      </trkpt>
      <trkpt lat="44.99249" lon="5.0836">
        <ele>233.786177</ele>
        <time>2022-03-12T08:08:17.330Z</time>
      </trkpt>
      <trkpt lat="44.99239" lon="5.0836">
        <ele>233.303444</ele>
        <time>2022-03-12T08:08:19.324Z</time>
      </trkpt>
      <trkpt lat="44.9923" lon="5.08359">
        <ele>232.820711</ele>
        <time>2022-03-12T08:08:21.321Z</time>
      </trkpt>
      <trkpt lat="44.9922" lon="5.08358">
        <ele>232.316173</ele>
        <time>2022-03-12T08:08:23.323Z</time>
      </trkpt>
      <trkpt lat="44.9921" lon="5.08356">
        <ele>231.806898</ele>
        <time>2022-03-12T08:08:25.326Z</time>
      </trkpt>
      <trkpt lat="44.992" lon="5.08355">
        <ele>231.282145</ele>
        <time>2022-03-12T08:08:27.327Z</time>
      </trkpt>
      <trkpt lat="44.99188" lon="5.08354">
        <ele>230.711256</ele>
        <time>2022-03-12T08:08:29.326Z</time>
      </trkpt>
      <trkpt lat="44.99176" lon="5.08353">
        <ele>230.101258</ele>
        <time>2022-03-12T08:08:31.335Z</time>
      </trkpt>
      <trkpt lat="44.99163" lon="5.08351">
        <ele>229.439923</ele>
        <time>2022-03-12T08:08:33.328Z</time>
      </trkpt>
      <trkpt lat="44.9915" lon="5.0835">
        <ele>228.738318</ele>
        <time>2022-03-12T08:08:35.326Z</time>
      </trkpt>
      <trkpt lat="44.99136" lon="5.08348">
        <ele>228.025271</ele>
        <time>2022-03-12T08:08:37.334Z</time>
      </trkpt>
      <trkpt lat="44.99121" lon="5.08346">
        <ele>227.269721</ele>
        <time>2022-03-12T08:08:39.324Z</time>
      </trkpt>
      <trkpt lat="44.99105" lon="5.08343">
        <ele>226.476779</ele>
        <time>2022-03-12T08:08:41.328Z</time>
      </trkpt>
      <trkpt lat="44.99089" lon="5.08339">
        <ele>225.65726</ele>
        <time>2022-03-12T08:08:43.327Z</time>
      </trkpt>
      <trkpt lat="44.99074" lon="5.08334">
        <ele>224.930952</ele>
        <time>2022-03-12T08:08:45.327Z</time>
      </trkpt>
      <trkpt lat="44.99058" lon="5.0833">
        <ele>224.512248</ele>
        <time>2022-03-12T08:08:47.332Z</time>
      </trkpt>
      <trkpt lat="44.99043" lon="5.08326">
        <ele>224.107983</ele>
        <time>2022-03-12T08:08:49.313Z</time>
      </trkpt>
      <trkpt lat="44.99029" lon="5.08321">
        <ele>223.722913</ele>
        <time>2022-03-12T08:08:51.332Z</time>
      </trkpt>
      <trkpt lat="44.99017" lon="5.08312">
        <ele>223.363476</ele>
        <time>2022-03-12T08:08:53.325Z</time>
      </trkpt>
      <trkpt lat="44.9901" lon="5.08298">
        <ele>223.031832</ele>
        <time>2022-03-12T08:08:55.327Z</time>
      </trkpt>
      <trkpt lat="44.99006" lon="5.0828">
        <ele>222.685368</ele>
        <time>2022-03-12T08:08:57.326Z</time>
      </trkpt>
      <trkpt lat="44.99003" lon="5.08262">
        <ele>222.334403</ele>
        <time>2022-03-12T08:08:59.336Z</time>
      </trkpt>
      <trkpt lat="44.99" lon="5.08244">
        <ele>222.001059</ele>
        <time>2022-03-12T08:09:01.321Z</time>
      </trkpt>
      <trkpt lat="44.98997" lon="5.08227">
        <ele>221.661634</ele>
        <time>2022-03-12T08:09:03.329Z</time>
      </trkpt>
      <trkpt lat="44.98994" lon="5.08209">
        <ele>221.324653</ele>
        <time>2022-03-12T08:09:05.324Z</time>
      </trkpt>
      <trkpt lat="44.98991" lon="5.08192">
        <ele>220.993125</ele>
        <time>2022-03-12T08:09:07.323Z</time>
      </trkpt>
      <trkpt lat="44.98989" lon="5.08174">
        <ele>220.659013</ele>
        <time>2022-03-12T08:09:09.327Z</time>
      </trkpt>
      <trkpt lat="44.98986" lon="5.08158">
        <ele>220.334748</ele>
        <time>2022-03-12T08:09:11.327Z</time>
      </trkpt>
      <trkpt lat="44.98982" lon="5.08141">
        <ele>220.259261</ele>
        <time>2022-03-12T08:09:13.323Z</time>
      </trkpt>
      <trkpt lat="44.9898" lon="5.08125">
        <ele>220.241133</ele>
        <time>2022-03-12T08:09:15.331Z</time>
      </trkpt>
      <trkpt lat="44.98977" lon="5.08109">
        <ele>220.223247</ele>
        <time>2022-03-12T08:09:17.322Z</time>
      </trkpt>
      <trkpt lat="44.98974" lon="5.08094">
        <ele>220.205677</ele>
        <time>2022-03-12T08:09:19.331Z</time>
      </trkpt>
      <trkpt lat="44.98971" lon="5.08078">
        <ele>220.18858</ele>
        <time>2022-03-12T08:09:21.330Z</time>
      </trkpt>
      <trkpt lat="44.98969" lon="5.08063">
        <ele>220.170808</ele>
        <time>2022-03-12T08:09:23.323Z</time>
      </trkpt>
      <trkpt lat="44.98966" lon="5.08048">
        <ele>220.153847</ele>
        <time>2022-03-12T08:09:25.328Z</time>
      </trkpt>
      <trkpt lat="44.98963" lon="5.08032">
        <ele>220.136508</ele>
        <time>2022-03-12T08:09:27.330Z</time>
      </trkpt>
      <trkpt lat="44.98958" lon="5.08018">
        <ele>220.11972</ele>
        <time>2022-03-12T08:09:29.326Z</time>
      </trkpt>
      <trkpt lat="44.98953" lon="5.08006">
        <ele>220.103734</ele>
        <time>2022-03-12T08:09:31.327Z</time>
      </trkpt>
      <trkpt lat="44.98945" lon="5.07996">
        <ele>220.087869</ele>
        <time>2022-03-12T08:09:33.330Z</time>
      </trkpt>
      <trkpt lat="44.98937" lon="5.07988">
        <ele>220.072084</ele>
        <time>2022-03-12T08:09:35.326Z</time>
      </trkpt>
      <trkpt lat="44.98928" lon="5.07982">
        <ele>220.057306</ele>
        <time>2022-03-12T08:09:37.326Z</time>
      </trkpt>
      <trkpt lat="44.98919" lon="5.07978">
        <ele>220.042755</ele>
        <time>2022-03-12T08:09:39.326Z</time>
      </trkpt>
      <trkpt lat="44.9891" lon="5.07976">
        <ele>220.028857</ele>
        <time>2022-03-12T08:09:41.326Z</time>
      </trkpt>
      <trkpt lat="44.98898" lon="5.07972">
        <ele>220.009266</ele>
        <time>2022-03-12T08:09:44.324Z</time>
      </trkpt>
      <trkpt lat="44.98887" lon="5.07967">
        <ele>220.024462</ele>
        <time>2022-03-12T08:09:47.328Z</time>
      </trkpt>
      <trkpt lat="44.98876" lon="5.07963">
        <ele>220.12279</ele>
        <time>2022-03-12T08:09:50.325Z</time>
      </trkpt>
      <trkpt lat="44.98866" lon="5.07954">
        <ele>220.228493</ele>
        <time>2022-03-12T08:09:53.325Z</time>
      </trkpt>
      <trkpt lat="44.98856" lon="5.07944">
        <ele>220.333461</ele>
        <time>2022-03-12T08:09:56.326Z</time>
      </trkpt>
      <trkpt lat="44.98847" lon="5.07933">
        <ele>220.437354</ele>
        <time>2022-03-12T08:09:59.321Z</time>
      </trkpt>
      <trkpt lat="44.98838" lon="5.0792">
        <ele>220.544828</ele>
        <time>2022-03-12T08:10:02.326Z</time>
      </trkpt>
      <trkpt lat="44.9883" lon="5.07907">
        <ele>220.653132</ele>
        <time>2022-03-12T08:10:05.324Z</time>
      </trkpt>
      <trkpt lat="44.98821" lon="5.07894">
        <ele>220.760593</ele>
        <time>2022-03-12T08:10:08.332Z</time>
      </trkpt>
      <trkpt lat="44.98813" lon="5.07881">
        <ele>220.871746</ele>
        <time>2022-03-12T08:10:11.329Z</time>
      </trkpt>
      <trkpt lat="44.98804" lon="5.07867">
        <ele>220.984993</ele>
        <time>2022-03-12T08:10:14.322Z</time>
      </trkpt>
      <trkpt lat="44.98795" lon="5.07853">
        <ele>221.102122</ele>
        <time>2022-03-12T08:10:17.323Z</time>
      </trkpt>
      <trkpt lat="44.98789" lon="5.07843">
        <ele>221.181282</ele>
        <time>2022-03-12T08:10:19.335Z</time>
      </trkpt>
      <trkpt lat="44.98781" lon="5.07829">
        <ele>221.294267</ele>
        <time>2022-03-12T08:10:22.329Z</time>
      </trkpt>
      <trkpt lat="44.98772" lon="5.07815">
        <ele>221.406679</ele>
        <time>2022-03-12T08:10:25.326Z</time>
      </trkpt>
      <trkpt lat="44.98763" lon="5.07802">
        <ele>221.520951</ele>
        <time>2022-03-12T08:10:28.325Z</time>
      </trkpt>
      <trkpt lat="44.98755" lon="5.07788">
        <ele>221.687534</ele>
        <time>2022-03-12T08:10:31.331Z</time>
      </trkpt>
      <trkpt lat="44.98746" lon="5.07774">
        <ele>221.882853</ele>
        <time>2022-03-12T08:10:34.322Z</time>
      </trkpt>
      <trkpt lat="44.98737" lon="5.07761">
        <ele>222.079195</ele>
        <time>2022-03-12T08:10:37.317Z</time>
      </trkpt>
      <trkpt lat="44.98731" lon="5.07751">
        <ele>222.214781</ele>
        <time>2022-03-12T08:10:39.333Z</time>
      </trkpt>
      <trkpt lat="44.98722" lon="5.07737">
        <ele>222.414593</ele>
        <time>2022-03-12T08:10:42.334Z</time>
      </trkpt>
      <trkpt lat="44.98716" lon="5.07728">
        <ele>222.5514</ele>
        <time>2022-03-12T08:10:44.320Z</time>
      </trkpt>
      <trkpt lat="44.98707" lon="5.07714">
        <ele>222.750309</ele>
        <time>2022-03-12T08:10:47.327Z</time>
      </trkpt>
      <trkpt lat="44.98701" lon="5.07705">
        <ele>222.885568</ele>
        <time>2022-03-12T08:10:49.330Z</time>
      </trkpt>
      <trkpt lat="44.98695" lon="5.07695">
        <ele>223.020363</ele>
        <time>2022-03-12T08:10:51.331Z</time>
      </trkpt>
      <trkpt lat="44.98686" lon="5.07681">
        <ele>223.219994</ele>
        <time>2022-03-12T08:10:54.327Z</time>
      </trkpt>
      <trkpt lat="44.98675" lon="5.07671">
        <ele>223.408933</ele>
        <time>2022-03-12T08:10:57.333Z</time>
      </trkpt>
      <trkpt lat="44.98664" lon="5.07677">
        <ele>223.585359</ele>
        <time>2022-03-12T08:11:00.325Z</time>
      </trkpt>
      <trkpt lat="44.98656" lon="5.0769">
        <ele>223.773241</ele>
        <time>2022-03-12T08:11:03.321Z</time>
      </trkpt>
      <trkpt lat="44.98648" lon="5.07704">
        <ele>223.959376</ele>
        <time>2022-03-12T08:11:06.323Z</time>
      </trkpt>
      <trkpt lat="44.98641" lon="5.07717">
        <ele>224.138239</ele>
        <time>2022-03-12T08:11:09.329Z</time>
      </trkpt>
      <trkpt lat="44.98634" lon="5.07731">
        <ele>224.259114</ele>
        <time>2022-03-12T08:11:12.331Z</time>
      </trkpt>
      <trkpt lat="44.98628" lon="5.07744">
        <ele>224.284944</ele>
        <time>2022-03-12T08:11:15.340Z</time>
      </trkpt>
      <trkpt lat="44.98621" lon="5.07758">
        <ele>224.31116</ele>
        <time>2022-03-12T08:11:18.322Z</time>
      </trkpt>
      <trkpt lat="44.98614" lon="5.07773">
        <ele>224.338015</ele>
        <time>2022-03-12T08:11:21.322Z</time>
      </trkpt>
      <trkpt lat="44.98607" lon="5.07787">
        <ele>224.365401</ele>
        <time>2022-03-12T08:11:24.322Z</time>
      </trkpt>
      <trkpt lat="44.986" lon="5.07801">
        <ele>224.392384</ele>
        <time>2022-03-12T08:11:27.327Z</time>
      </trkpt>
      <trkpt lat="44.98591" lon="5.07814">
        <ele>224.421086</ele>
        <time>2022-03-12T08:11:30.320Z</time>
      </trkpt>
      <trkpt lat="44.98579" lon="5.07822">
        <ele>224.450001</ele>
        <time>2022-03-12T08:11:33.324Z</time>
      </trkpt>
      <trkpt lat="44.98567" lon="5.07824">
        <ele>224.476845</ele>
        <time>2022-03-12T08:11:36.321Z</time>
      </trkpt>
      <trkpt lat="44.98556" lon="5.07822">
        <ele>224.501178</ele>
        <time>2022-03-12T08:11:39.332Z</time>
      </trkpt>
      <trkpt lat="44.98545" lon="5.07817">
        <ele>224.525309</ele>
        <time>2022-03-12T08:11:42.321Z</time>
      </trkpt>
      <trkpt lat="44.98535" lon="5.07812">
        <ele>224.548942</ele>
        <time>2022-03-12T08:11:45.326Z</time>
      </trkpt>
      <trkpt lat="44.98525" lon="5.07807">
        <ele>224.57311</ele>
        <time>2022-03-12T08:11:48.325Z</time>
      </trkpt>
      <trkpt lat="44.98515" lon="5.07801">
        <ele>224.597262</ele>
        <time>2022-03-12T08:11:51.331Z</time>
      </trkpt>
      <trkpt lat="44.98504" lon="5.07796">
        <ele>224.62282</ele>
        <time>2022-03-12T08:11:54.326Z</time>
      </trkpt>
      <trkpt lat="44.98493" lon="5.0779">
        <ele>224.672907</ele>
        <time>2022-03-12T08:11:57.327Z</time>
      </trkpt>
      <trkpt lat="44.98482" lon="5.07785">
        <ele>225.012815</ele>
        <time>2022-03-12T08:12:00.320Z</time>
      </trkpt>
      <trkpt lat="44.98471" lon="5.07779">
        <ele>225.357595</ele>
        <time>2022-03-12T08:12:03.326Z</time>
      </trkpt>
      <trkpt lat="44.98459" lon="5.07773">
        <ele>225.709642</ele>
        <time>2022-03-12T08:12:06.328Z</time>
      </trkpt>
      <trkpt lat="44.98448" lon="5.07767">
        <ele>226.04955</ele>
        <time>2022-03-12T08:12:09.328Z</time>
      </trkpt>
      <trkpt lat="44.98438" lon="5.07761">
        <ele>226.382371</ele>
        <time>2022-03-12T08:12:12.320Z</time>
      </trkpt>
      <trkpt lat="44.98428" lon="5.07755">
        <ele>226.698358</ele>
        <time>2022-03-12T08:12:15.327Z</time>
      </trkpt>
      <trkpt lat="44.98417" lon="5.07748">
        <ele>227.03544</ele>
        <time>2022-03-12T08:12:18.328Z</time>
      </trkpt>
      <trkpt lat="44.98406" lon="5.07742">
        <ele>227.36941</ele>
        <time>2022-03-12T08:12:21.327Z</time>
      </trkpt>
      <trkpt lat="44.98395" lon="5.07737">
        <ele>227.71003</ele>
        <time>2022-03-12T08:12:24.323Z</time>
      </trkpt>
      <trkpt lat="44.98384" lon="5.0773">
        <ele>228.05861</ele>
        <time>2022-03-12T08:12:27.322Z</time>
      </trkpt>
      <trkpt lat="44.98373" lon="5.07724">
        <ele>228.417656</ele>
        <time>2022-03-12T08:12:30.327Z</time>
      </trkpt>
      <trkpt lat="44.98362" lon="5.0772">
        <ele>228.743352</ele>
        <time>2022-03-12T08:12:33.328Z</time>
      </trkpt>
      <trkpt lat="44.98351" lon="5.07716">
        <ele>229.072028</ele>
        <time>2022-03-12T08:12:36.333Z</time>
      </trkpt>
      <trkpt lat="44.98339" lon="5.07715">
        <ele>229.417897</ele>
        <time>2022-03-12T08:12:39.332Z</time>
      </trkpt>
      <trkpt lat="44.98328" lon="5.07715">
        <ele>229.745749</ele>
        <time>2022-03-12T08:12:42.327Z</time>
      </trkpt>
      <trkpt lat="44.98316" lon="5.07716">
        <ele>230.022448</ele>
        <time>2022-03-12T08:12:45.331Z</time>
      </trkpt>
      <trkpt lat="44.98303" lon="5.07717">
        <ele>230.28771</ele>
        <time>2022-03-12T08:12:48.330Z</time>
      </trkpt>
      <trkpt lat="44.9829" lon="5.0772">
        <ele>230.562414</ele>
        <time>2022-03-12T08:12:51.328Z</time>
      </trkpt>
      <trkpt lat="44.98277" lon="5.07722">
        <ele>230.816077</ele>
        <time>2022-03-12T08:12:54.327Z</time>
      </trkpt>
      <trkpt lat="44.98265" lon="5.07724">
        <ele>231.068269</ele>
        <time>2022-03-12T08:12:57.329Z</time>
      </trkpt>
      <trkpt lat="44.98252" lon="5.07726">
        <ele>231.341226</ele>
        <time>2022-03-12T08:13:00.325Z</time>
      </trkpt>
      <trkpt lat="44.98239" lon="5.07727">
        <ele>231.607958</ele>
        <time>2022-03-12T08:13:03.326Z</time>
      </trkpt>
      <trkpt lat="44.9823" lon="5.07729">
        <ele>231.798116</ele>
        <time>2022-03-12T08:13:05.333Z</time>
      </trkpt>
      <trkpt lat="44.98221" lon="5.0773">
        <ele>231.984219</ele>
        <time>2022-03-12T08:13:07.322Z</time>
      </trkpt>
      <trkpt lat="44.98208" lon="5.07732">
        <ele>232.247729</ele>
        <time>2022-03-12T08:13:10.316Z</time>
      </trkpt>
      <trkpt lat="44.98195" lon="5.07734">
        <ele>232.513592</ele>
        <time>2022-03-12T08:13:13.324Z</time>
      </trkpt>
      <trkpt lat="44.98182" lon="5.07737">
        <ele>232.78328</ele>
        <time>2022-03-12T08:13:16.321Z</time>
      </trkpt>
      <trkpt lat="44.98169" lon="5.07741">
        <ele>233.049416</ele>
        <time>2022-03-12T08:13:19.321Z</time>
      </trkpt>
      <trkpt lat="44.98156" lon="5.07743">
        <ele>233.313975</ele>
        <time>2022-03-12T08:13:22.322Z</time>
      </trkpt>
      <trkpt lat="44.98144" lon="5.07746">
        <ele>233.559045</ele>
        <time>2022-03-12T08:13:25.322Z</time>
      </trkpt>
      <trkpt lat="44.98131" lon="5.07749">
        <ele>233.673309</ele>
        <time>2022-03-12T08:13:28.325Z</time>
      </trkpt>
      <trkpt lat="44.98119" lon="5.07752">
        <ele>233.787513</ele>
        <time>2022-03-12T08:13:31.320Z</time>
      </trkpt>
      <trkpt lat="44.98107" lon="5.07755">
        <ele>233.898592</ele>
        <time>2022-03-12T08:13:34.330Z</time>
      </trkpt>
      <trkpt lat="44.98095" lon="5.07758">
        <ele>234.011394</ele>
        <time>2022-03-12T08:13:37.322Z</time>
      </trkpt>
      <trkpt lat="44.98082" lon="5.07762">
        <ele>234.124603</ele>
        <time>2022-03-12T08:13:40.327Z</time>
      </trkpt>
      <trkpt lat="44.9807" lon="5.07766">
        <ele>234.236193</ele>
        <time>2022-03-12T08:13:43.329Z</time>
      </trkpt>
      <trkpt lat="44.98058" lon="5.0777">
        <ele>234.347223</ele>
        <time>2022-03-12T08:13:46.331Z</time>
      </trkpt>
      <trkpt lat="44.98047" lon="5.07774">
        <ele>234.455293</ele>
        <time>2022-03-12T08:13:49.317Z</time>
      </trkpt>
      <trkpt lat="44.98035" lon="5.07778">
        <ele>234.566458</ele>
        <time>2022-03-12T08:13:52.324Z</time>
      </trkpt>
      <trkpt lat="44.98022" lon="5.07781">
        <ele>234.681297</ele>
        <time>2022-03-12T08:13:55.316Z</time>
      </trkpt>
      <trkpt lat="44.98011" lon="5.07785">
        <ele>234.790694</ele>
        <time>2022-03-12T08:13:58.323Z</time>
      </trkpt>
      <trkpt lat="44.97999" lon="5.07789">
        <ele>234.899821</ele>
        <time>2022-03-12T08:14:01.323Z</time>
      </trkpt>
      <trkpt lat="44.97987" lon="5.07792">
        <ele>235.008062</ele>
        <time>2022-03-12T08:14:04.326Z</time>
      </trkpt>
      <trkpt lat="44.97975" lon="5.07795">
        <ele>235.116811</ele>
        <time>2022-03-12T08:14:07.328Z</time>
      </trkpt>
      <trkpt lat="44.97963" lon="5.07798">
        <ele>235.261564</ele>
        <time>2022-03-12T08:14:10.319Z</time>
      </trkpt>
      <trkpt lat="44.97951" lon="5.078">
        <ele>235.449731</ele>
        <time>2022-03-12T08:14:13.320Z</time>
      </trkpt>
      <trkpt lat="44.97939" lon="5.07802">
        <ele>235.638926</ele>
        <time>2022-03-12T08:14:16.332Z</time>
      </trkpt>
      <trkpt lat="44.97927" lon="5.07804">
        <ele>235.825053</ele>
        <time>2022-03-12T08:14:19.319Z</time>
      </trkpt>
      <trkpt lat="44.97915" lon="5.07805">
        <ele>236.006255</ele>
        <time>2022-03-12T08:14:22.326Z</time>
      </trkpt>
      <trkpt lat="44.97904" lon="5.07807">
        <ele>236.184598</ele>
        <time>2022-03-12T08:14:25.330Z</time>
      </trkpt>
      <trkpt lat="44.97892" lon="5.07808">
        <ele>236.36231</ele>
        <time>2022-03-12T08:14:28.326Z</time>
      </trkpt>
      <trkpt lat="44.97881" lon="5.0781">
        <ele>236.545256</ele>
        <time>2022-03-12T08:14:31.321Z</time>
      </trkpt>
      <trkpt lat="44.97869" lon="5.07811">
        <ele>236.730665</ele>
        <time>2022-03-12T08:14:34.337Z</time>
      </trkpt>
      <trkpt lat="44.97857" lon="5.07812">
        <ele>236.908898</ele>
        <time>2022-03-12T08:14:37.324Z</time>
      </trkpt>
      <trkpt lat="44.97846" lon="5.07814">
        <ele>237.087482</ele>
        <time>2022-03-12T08:14:40.321Z</time>
      </trkpt>
      <trkpt lat="44.97833" lon="5.07815">
        <ele>237.276037</ele>
        <time>2022-03-12T08:14:43.317Z</time>
      </trkpt>
      <trkpt lat="44.97821" lon="5.07817">
        <ele>237.466882</ele>
        <time>2022-03-12T08:14:46.330Z</time>
      </trkpt>
      <trkpt lat="44.97809" lon="5.07819">
        <ele>237.655863</ele>
        <time>2022-03-12T08:14:49.320Z</time>
      </trkpt>
      <trkpt lat="44.97797" lon="5.0782">
        <ele>237.84321</ele>
        <time>2022-03-12T08:14:52.321Z</time>
      </trkpt>
      <trkpt lat="44.97784" lon="5.07821">
        <ele>238.040912</ele>
        <time>2022-03-12T08:14:55.308Z</time>
      </trkpt>
      <trkpt lat="44.97775" lon="5.07821">
        <ele>238.175598</ele>
        <time>2022-03-12T08:14:57.338Z</time>
      </trkpt>
      <trkpt lat="44.97762" lon="5.07821">
        <ele>238.373087</ele>
        <time>2022-03-12T08:15:00.321Z</time>
      </trkpt>
      <trkpt lat="44.97749" lon="5.0782">
        <ele>238.567868</ele>
        <time>2022-03-12T08:15:03.328Z</time>
      </trkpt>
      <trkpt lat="44.97736" lon="5.07818">
        <ele>238.758723</ele>
        <time>2022-03-12T08:15:06.331Z</time>
      </trkpt>
      <trkpt lat="44.97723" lon="5.07817">
        <ele>238.946409</ele>
        <time>2022-03-12T08:15:09.317Z</time>
      </trkpt>
      <trkpt lat="44.97711" lon="5.07814">
        <ele>239.131896</ele>
        <time>2022-03-12T08:15:12.331Z</time>
      </trkpt>
      <trkpt lat="44.97699" lon="5.07812">
        <ele>239.31713</ele>
        <time>2022-03-12T08:15:15.316Z</time>
      </trkpt>
      <trkpt lat="44.97687" lon="5.0781">
        <ele>239.498759</ele>
        <time>2022-03-12T08:15:18.320Z</time>
      </trkpt>
      <trkpt lat="44.97675" lon="5.07807">
        <ele>239.680896</ele>
        <time>2022-03-12T08:15:21.326Z</time>
      </trkpt>
      <trkpt lat="44.97663" lon="5.07805">
        <ele>239.86411</ele>
        <time>2022-03-12T08:15:24.323Z</time>
      </trkpt>
      <trkpt lat="44.9765" lon="5.07803">
        <ele>240.0527</ele>
        <time>2022-03-12T08:15:27.327Z</time>
      </trkpt>
      <trkpt lat="44.97638" lon="5.07801">
        <ele>240.233875</ele>
        <time>2022-03-12T08:15:30.331Z</time>
      </trkpt>
      <trkpt lat="44.97625" lon="5.07799">
        <ele>240.42622</ele>
        <time>2022-03-12T08:15:33.324Z</time>
      </trkpt>
      <trkpt lat="44.97613" lon="5.07797">
        <ele>240.614427</ele>
        <time>2022-03-12T08:15:36.328Z</time>
      </trkpt>
      <trkpt lat="44.976" lon="5.07795">
        <ele>240.73395</ele>
        <time>2022-03-12T08:15:39.327Z</time>
      </trkpt>
      <trkpt lat="44.97588" lon="5.07792">
        <ele>240.840694</ele>
        <time>2022-03-12T08:15:42.328Z</time>
      </trkpt>
      <trkpt lat="44.97575" lon="5.0779">
        <ele>240.949616</ele>
        <time>2022-03-12T08:15:45.326Z</time>
      </trkpt>
      <trkpt lat="44.97562" lon="5.07787">
        <ele>241.05831</ele>
        <time>2022-03-12T08:15:48.332Z</time>
      </trkpt>
      <trkpt lat="44.97549" lon="5.07783">
        <ele>241.171682</ele>
        <time>2022-03-12T08:15:51.335Z</time>
      </trkpt>
      <trkpt lat="44.9754" lon="5.07781">
        <ele>241.248589</ele>
        <time>2022-03-12T08:15:53.323Z</time>
      </trkpt>
      <trkpt lat="44.97531" lon="5.07779">
        <ele>241.326733</ele>
        <time>2022-03-12T08:15:55.325Z</time>
      </trkpt>
      <trkpt lat="44.97522" lon="5.07777">
        <ele>241.403735</ele>
        <time>2022-03-12T08:15:57.327Z</time>
      </trkpt>
      <trkpt lat="44.97513" lon="5.07774">
        <ele>241.480576</ele>
        <time>2022-03-12T08:15:59.337Z</time>
      </trkpt>
      <trkpt lat="44.975" lon="5.0777">
        <ele>241.591501</ele>
        <time>2022-03-12T08:16:02.324Z</time>
      </trkpt>
      <trkpt lat="44.97487" lon="5.07767">
        <ele>241.705012</ele>
        <time>2022-03-12T08:16:05.328Z</time>
      </trkpt>
      <trkpt lat="44.97474" lon="5.07765">
        <ele>241.817284</ele>
        <time>2022-03-12T08:16:08.325Z</time>
      </trkpt>
      <trkpt lat="44.9746" lon="5.07762">
        <ele>241.929873</ele>
        <time>2022-03-12T08:16:11.320Z</time>
      </trkpt>
      <trkpt lat="44.97451" lon="5.0776">
        <ele>242.0073</ele>
        <time>2022-03-12T08:16:13.331Z</time>
      </trkpt>
      <trkpt lat="44.97443" lon="5.07757">
        <ele>242.083071</ele>
        <time>2022-03-12T08:16:15.321Z</time>
      </trkpt>
      <trkpt lat="44.97429" lon="5.07754">
        <ele>242.232025</ele>
        <time>2022-03-12T08:16:18.323Z</time>
      </trkpt>
      <trkpt lat="44.97416" lon="5.07751">
        <ele>242.45301</ele>
        <time>2022-03-12T08:16:21.331Z</time>
      </trkpt>
      <trkpt lat="44.97407" lon="5.0775">
        <ele>242.6004</ele>
        <time>2022-03-12T08:16:23.320Z</time>
      </trkpt>
      <trkpt lat="44.97398" lon="5.0775">
        <ele>242.7475</ele>
        <time>2022-03-12T08:16:25.333Z</time>
      </trkpt>
      <trkpt lat="44.97389" lon="5.0775">
        <ele>242.894442</ele>
        <time>2022-03-12T08:16:27.330Z</time>
      </trkpt>
      <trkpt lat="44.97376" lon="5.07751">
        <ele>243.108928</ele>
        <time>2022-03-12T08:16:30.323Z</time>
      </trkpt>
      <trkpt lat="44.97363" lon="5.07753">
        <ele>243.320561</ele>
        <time>2022-03-12T08:16:33.328Z</time>
      </trkpt>
      <trkpt lat="44.9735" lon="5.07755">
        <ele>243.525943</ele>
        <time>2022-03-12T08:16:36.330Z</time>
      </trkpt>
      <trkpt lat="44.97338" lon="5.07758">
        <ele>243.723976</ele>
        <time>2022-03-12T08:16:39.329Z</time>
      </trkpt>
      <trkpt lat="44.97327" lon="5.07762">
        <ele>243.919476</ele>
        <time>2022-03-12T08:16:42.325Z</time>
      </trkpt>
      <trkpt lat="44.97316" lon="5.07766">
        <ele>244.105194</ele>
        <time>2022-03-12T08:16:45.323Z</time>
      </trkpt>
      <trkpt lat="44.97306" lon="5.07773">
        <ele>244.287345</ele>
        <time>2022-03-12T08:16:48.325Z</time>
      </trkpt>
      <trkpt lat="44.97297" lon="5.07782">
        <ele>244.46601</ele>
        <time>2022-03-12T08:16:51.332Z</time>
      </trkpt>
      <trkpt lat="44.97289" lon="5.07792">
        <ele>244.646648</ele>
        <time>2022-03-12T08:16:54.322Z</time>
      </trkpt>
      <trkpt lat="44.9728" lon="5.07803">
        <ele>244.833417</ele>
        <time>2022-03-12T08:16:57.326Z</time>
      </trkpt>
      <trkpt lat="44.9727" lon="5.07813">
        <ele>245.029489</ele>
        <time>2022-03-12T08:17:00.320Z</time>
      </trkpt>
      <trkpt lat="44.9726" lon="5.07821">
        <ele>245.156229</ele>
        <time>2022-03-12T08:17:03.326Z</time>
      </trkpt>
      <trkpt lat="44.97249" lon="5.07828">
        <ele>245.245479</ele>
        <time>2022-03-12T08:17:06.329Z</time>
      </trkpt>
      <trkpt lat="44.97238" lon="5.07833">
        <ele>245.332108</ele>
        <time>2022-03-12T08:17:09.330Z</time>
      </trkpt>
      <trkpt lat="44.97226" lon="5.07837">
        <ele>245.418651</ele>
        <time>2022-03-12T08:17:12.328Z</time>
      </trkpt>
      <trkpt lat="44.97215" lon="5.0784">
        <ele>245.504622</ele>
        <time>2022-03-12T08:17:15.308Z</time>
      </trkpt>
      <trkpt lat="44.97204" lon="5.07843">
        <ele>245.586726</ele>
        <time>2022-03-12T08:17:18.330Z</time>
      </trkpt>
      <trkpt lat="44.97193" lon="5.07846">
        <ele>245.673626</ele>
        <time>2022-03-12T08:17:21.319Z</time>
      </trkpt>
      <trkpt lat="44.97184" lon="5.07847">
        <ele>245.741052</ele>
        <time>2022-03-12T08:17:23.318Z</time>
      </trkpt>
      <trkpt lat="44.97171" lon="5.07848">
        <ele>245.83978</ele>
        <time>2022-03-12T08:17:26.320Z</time>
      </trkpt>
      <trkpt lat="44.97158" lon="5.07848">
        <ele>245.936925</ele>
        <time>2022-03-12T08:17:29.325Z</time>
      </trkpt>
      <trkpt lat="44.97145" lon="5.07849">
        <ele>246.030321</ele>
        <time>2022-03-12T08:17:32.323Z</time>
      </trkpt>
      <trkpt lat="44.97133" lon="5.07849">
        <ele>246.121439</ele>
        <time>2022-03-12T08:17:35.312Z</time>
      </trkpt>
      <trkpt lat="44.97121" lon="5.07848">
        <ele>246.211997</ele>
        <time>2022-03-12T08:17:38.328Z</time>
      </trkpt>
      <trkpt lat="44.97108" lon="5.07846">
        <ele>246.304904</ele>
        <time>2022-03-12T08:17:41.318Z</time>
      </trkpt>
      <trkpt lat="44.97096" lon="5.07844">
        <ele>246.395891</ele>
        <time>2022-03-12T08:17:44.323Z</time>
      </trkpt>
      <trkpt lat="44.97084" lon="5.07841">
        <ele>246.568239</ele>
        <time>2022-03-12T08:17:47.324Z</time>
      </trkpt>
      <trkpt lat="44.97072" lon="5.07838">
        <ele>246.819164</ele>
        <time>2022-03-12T08:17:50.336Z</time>
      </trkpt>
      <trkpt lat="44.9706" lon="5.07836">
        <ele>247.053058</ele>
        <time>2022-03-12T08:17:53.325Z</time>
      </trkpt>
      <trkpt lat="44.97049" lon="5.07833">
        <ele>247.284975</ele>
        <time>2022-03-12T08:17:56.328Z</time>
      </trkpt>
      <trkpt lat="44.97037" lon="5.07831">
        <ele>247.528463</ele>
        <time>2022-03-12T08:17:59.323Z</time>
      </trkpt>
      <trkpt lat="44.97025" lon="5.07831">
        <ele>247.77261</ele>
        <time>2022-03-12T08:18:02.325Z</time>
      </trkpt>
      <trkpt lat="44.97013" lon="5.07831">
        <ele>248.008614</ele>
        <time>2022-03-12T08:18:05.320Z</time>
      </trkpt>
      <trkpt lat="44.97001" lon="5.07831">
        <ele>248.248613</ele>
        <time>2022-03-12T08:18:08.320Z</time>
      </trkpt>
      <trkpt lat="44.96989" lon="5.07832">
        <ele>248.489029</ele>
        <time>2022-03-12T08:18:11.322Z</time>
      </trkpt>
      <trkpt lat="44.96977" lon="5.07834">
        <ele>248.724568</ele>
        <time>2022-03-12T08:18:14.321Z</time>
      </trkpt>
      <trkpt lat="44.96966" lon="5.07837">
        <ele>248.948625</ele>
        <time>2022-03-12T08:18:17.330Z</time>
      </trkpt>
      <trkpt lat="44.96956" lon="5.07842">
        <ele>249.17258</ele>
        <time>2022-03-12T08:18:20.334Z</time>
      </trkpt>
      <trkpt lat="44.96945" lon="5.07849">
        <ele>249.399354</ele>
        <time>2022-03-12T08:18:23.326Z</time>
      </trkpt>
      <trkpt lat="44.96936" lon="5.07857">
        <ele>249.608622</ele>
        <time>2022-03-12T08:18:26.317Z</time>
      </trkpt>
      <trkpt lat="44.96928" lon="5.07865">
        <ele>249.820143</ele>
        <time>2022-03-12T08:18:29.339Z</time>
      </trkpt>
      <trkpt lat="44.96918" lon="5.07874">
        <ele>250.046292</ele>
        <time>2022-03-12T08:18:32.316Z</time>
      </trkpt>
      <trkpt lat="44.96909" lon="5.07883">
        <ele>250.205573</ele>
        <time>2022-03-12T08:18:35.323Z</time>
      </trkpt>
      <trkpt lat="44.969" lon="5.07891">
        <ele>250.358916</ele>
        <time>2022-03-12T08:18:38.322Z</time>
      </trkpt>
      <trkpt lat="44.96891" lon="5.079">
        <ele>250.510479</ele>
        <time>2022-03-12T08:18:41.328Z</time>
      </trkpt>
      <trkpt lat="44.96882" lon="5.0791">
        <ele>250.672801</ele>
        <time>2022-03-12T08:18:44.321Z</time>
      </trkpt>
      <trkpt lat="44.96875" lon="5.07922">
        <ele>250.820329</ele>
        <time>2022-03-12T08:18:47.323Z</time>
      </trkpt>
      <trkpt lat="44.9687" lon="5.07934">
        <ele>250.969572</ele>
        <time>2022-03-12T08:18:50.319Z</time>
      </trkpt>
      <trkpt lat="44.96865" lon="5.07948">
        <ele>251.119146</ele>
        <time>2022-03-12T08:18:53.325Z</time>
      </trkpt>
      <trkpt lat="44.96861" lon="5.07961">
        <ele>251.261231</ele>
        <time>2022-03-12T08:18:56.329Z</time>
      </trkpt>
      <trkpt lat="44.96855" lon="5.0797">
        <ele>251.393892</ele>
        <time>2022-03-12T08:18:59.321Z</time>
      </trkpt>
      <trkpt lat="44.96845" lon="5.07971">
        <ele>251.536354</ele>
        <time>2022-03-12T08:19:02.318Z</time>
      </trkpt>
      <trkpt lat="44.96833" lon="5.07968">
        <ele>251.700236</ele>
        <time>2022-03-12T08:19:05.323Z</time>
      </trkpt>
      <trkpt lat="44.96821" lon="5.07966">
        <ele>251.871533</ele>
        <time>2022-03-12T08:19:08.322Z</time>
      </trkpt>
      <trkpt lat="44.96809" lon="5.07963">
        <ele>252.042777</ele>
        <time>2022-03-12T08:19:11.335Z</time>
      </trkpt>
      <trkpt lat="44.96798" lon="5.07958">
        <ele>252.214581</ele>
        <time>2022-03-12T08:19:14.323Z</time>
      </trkpt>
      <trkpt lat="44.96786" lon="5.07952">
        <ele>252.39164</ele>
        <time>2022-03-12T08:19:17.323Z</time>
      </trkpt>
      <trkpt lat="44.96774" lon="5.07946">
        <ele>252.575377</ele>
        <time>2022-03-12T08:19:20.331Z</time>
      </trkpt>
      <trkpt lat="44.96765" lon="5.07942">
        <ele>252.548004</ele>
        <time>2022-03-12T08:19:22.324Z</time>
      </trkpt>
      <trkpt lat="44.96753" lon="5.07936">
        <ele>252.491157</ele>
        <time>2022-03-12T08:19:25.331Z</time>
      </trkpt>
      <trkpt lat="44.96744" lon="5.07931">
        <ele>252.451473</ele>
        <time>2022-03-12T08:19:27.328Z</time>
      </trkpt>
      <trkpt lat="44.96735" lon="5.07927">
        <ele>252.412296</ele>
        <time>2022-03-12T08:19:29.335Z</time>
      </trkpt>
      <trkpt lat="44.96727" lon="5.07923">
        <ele>252.373624</ele>
        <time>2022-03-12T08:19:31.325Z</time>
      </trkpt>
      <trkpt lat="44.96718" lon="5.07919">
        <ele>252.334618</ele>
        <time>2022-03-12T08:19:33.321Z</time>
      </trkpt>
      <trkpt lat="44.96707" lon="5.07912">
        <ele>252.282161</ele>
        <time>2022-03-12T08:19:36.329Z</time>
      </trkpt>
      <trkpt lat="44.96697" lon="5.07905">
        <ele>252.235126</ele>
        <time>2022-03-12T08:19:39.334Z</time>
      </trkpt>
      <trkpt lat="44.96686" lon="5.07897">
        <ele>252.183714</ele>
        <time>2022-03-12T08:19:42.326Z</time>
      </trkpt>
      <trkpt lat="44.96675" lon="5.07889">
        <ele>252.131104</ele>
        <time>2022-03-12T08:19:45.318Z</time>
      </trkpt>
      <trkpt lat="44.96665" lon="5.07882">
        <ele>252.082148</ele>
        <time>2022-03-12T08:19:48.327Z</time>
      </trkpt>
      <trkpt lat="44.96655" lon="5.0788">
        <ele>252.03748</ele>
        <time>2022-03-12T08:19:51.328Z</time>
      </trkpt>
      <trkpt lat="44.96649" lon="5.07892">
        <ele>251.992693</ele>
        <time>2022-03-12T08:19:55.318Z</time>
      </trkpt>
      <trkpt lat="44.96645" lon="5.07908">
        <ele>251.942542</ele>
        <time>2022-03-12T08:19:59.330Z</time>
      </trkpt>
      <trkpt lat="44.96641" lon="5.07921">
        <ele>251.898967</ele>
        <time>2022-03-12T08:20:02.325Z</time>
      </trkpt>
      <trkpt lat="44.96637" lon="5.07934">
        <ele>251.855725</ele>
        <time>2022-03-12T08:20:05.320Z</time>
      </trkpt>
      <trkpt lat="44.96633" lon="5.07949">
        <ele>251.812852</ele>
        <time>2022-03-12T08:20:09.325Z</time>
      </trkpt>
      <trkpt lat="44.9663" lon="5.07962">
        <ele>251.806862</ele>
        <time>2022-03-12T08:20:14.320Z</time>
      </trkpt>
      <trkpt lat="44.96626" lon="5.07975">
        <ele>251.800661</ele>
        <time>2022-03-12T08:20:20.316Z</time>
      </trkpt>
      <trkpt lat="44.96632" lon="5.07962">
        <ele>251.793818</ele>
        <time>2022-03-12T08:20:33.318Z</time>
      </trkpt>
      <trkpt lat="44.96636" lon="5.07945">
        <ele>251.785925</ele>
        <time>2022-03-12T08:20:37.318Z</time>
      </trkpt>
      <trkpt lat="44.9664" lon="5.0793">
        <ele>251.778848</ele>
        <time>2022-03-12T08:20:40.324Z</time>
      </trkpt>
      <trkpt lat="44.96644" lon="5.07915">
        <ele>251.771765</ele>
        <time>2022-03-12T08:20:43.322Z</time>
      </trkpt>
      <trkpt lat="44.96648" lon="5.07901">
        <ele>251.76496</ele>
        <time>2022-03-12T08:20:46.321Z</time>
      </trkpt>
      <trkpt lat="44.96651" lon="5.07889">
        <ele>251.759146</ele>
        <time>2022-03-12T08:20:49.328Z</time>
      </trkpt>
      <trkpt lat="44.9666" lon="5.07883">
        <ele>251.753277</ele>
        <time>2022-03-12T08:20:54.325Z</time>
      </trkpt>
      <trkpt lat="44.9667" lon="5.07889">
        <ele>251.746624</ele>
        <time>2022-03-12T08:20:57.328Z</time>
      </trkpt>
      <trkpt lat="44.96679" lon="5.07896">
        <ele>251.739787</ele>
        <time>2022-03-12T08:21:00.329Z</time>
      </trkpt>
      <trkpt lat="44.96688" lon="5.07903">
        <ele>251.733272</ele>
        <time>2022-03-12T08:21:03.323Z</time>
      </trkpt>
      <trkpt lat="44.96698" lon="5.07911">
        <ele>251.726284</ele>
        <time>2022-03-12T08:21:06.324Z</time>
      </trkpt>
      <trkpt lat="44.96701" lon="5.07924">
        <ele>251.720249</ele>
        <time>2022-03-12T08:21:09.330Z</time>
      </trkpt>
      <trkpt lat="44.96698" lon="5.07936">
        <ele>251.714428</ele>
        <time>2022-03-12T08:21:12.327Z</time>
      </trkpt>
      <trkpt lat="44.96695" lon="5.0795">
        <ele>251.707931</ele>
        <time>2022-03-12T08:21:15.325Z</time>
      </trkpt>
      <trkpt lat="44.96692" lon="5.07965">
        <ele>251.701178</ele>
        <time>2022-03-12T08:21:18.324Z</time>
      </trkpt>
      <trkpt lat="44.9669" lon="5.0798">
        <ele>251.843224</ele>
        <time>2022-03-12T08:21:21.336Z</time>
      </trkpt>
      <trkpt lat="44.96688" lon="5.07994">
        <ele>251.982833</ele>
        <time>2022-03-12T08:21:24.327Z</time>
      </trkpt>
      <trkpt lat="44.96686" lon="5.08008">
        <ele>252.123371</ele>
        <time>2022-03-12T08:21:27.327Z</time>
      </trkpt>
      <trkpt lat="44.96683" lon="5.0802">
        <ele>252.250102</ele>
        <time>2022-03-12T08:21:30.324Z</time>
      </trkpt>
      <trkpt lat="44.9668" lon="5.08034">
        <ele>252.3962</ele>
        <time>2022-03-12T08:21:34.335Z</time>
      </trkpt>
      <trkpt lat="44.96676" lon="5.0805">
        <ele>252.560046</ele>
        <time>2022-03-12T08:21:38.324Z</time>
      </trkpt>
      <trkpt lat="44.96673" lon="5.08064">
        <ele>252.69702</ele>
        <time>2022-03-12T08:21:41.326Z</time>
      </trkpt>
      <trkpt lat="44.9667" lon="5.08076">
        <ele>252.82697</ele>
        <time>2022-03-12T08:21:44.337Z</time>
      </trkpt>
      <trkpt lat="44.96667" lon="5.08089">
        <ele>252.958291</ele>
        <time>2022-03-12T08:21:47.322Z</time>
      </trkpt>
      <trkpt lat="44.96664" lon="5.08101">
        <ele>253.082696</ele>
        <time>2022-03-12T08:21:50.326Z</time>
      </trkpt>
      <trkpt lat="44.96661" lon="5.08113">
        <ele>253.207967</ele>
        <time>2022-03-12T08:21:54.322Z</time>
      </trkpt>
      <trkpt lat="44.96665" lon="5.08101">
        <ele>253.338139</ele>
        <time>2022-03-12T08:22:01.327Z</time>
      </trkpt>
      <trkpt lat="44.9666" lon="5.08089">
        <ele>253.473937</ele>
        <time>2022-03-12T08:22:06.327Z</time>
      </trkpt>
      <trkpt lat="44.96648" lon="5.08084">
        <ele>253.645235</ele>
        <time>2022-03-12T08:22:10.326Z</time>
      </trkpt>
      <trkpt lat="44.96638" lon="5.08079">
        <ele>253.793761</ele>
        <time>2022-03-12T08:22:13.325Z</time>
      </trkpt>
      <trkpt lat="44.96627" lon="5.08074">
        <ele>253.953399</ele>
        <time>2022-03-12T08:22:16.320Z</time>
      </trkpt>
      <trkpt lat="44.96615" lon="5.08068">
        <ele>254.125683</ele>
        <time>2022-03-12T08:22:19.331Z</time>
      </trkpt>
      <trkpt lat="44.96603" lon="5.08063">
        <ele>254.266242</ele>
        <time>2022-03-12T08:22:22.325Z</time>
      </trkpt>
      <trkpt lat="44.96592" lon="5.08058">
        <ele>254.393206</ele>
        <time>2022-03-12T08:22:25.324Z</time>
      </trkpt>
      <trkpt lat="44.9658" lon="5.08058">
        <ele>254.513784</ele>
        <time>2022-03-12T08:22:28.339Z</time>
      </trkpt>
      <trkpt lat="44.96573" lon="5.08072">
        <ele>254.640088</ele>
        <time>2022-03-12T08:22:31.331Z</time>
      </trkpt>
      <trkpt lat="44.96568" lon="5.08088">
        <ele>254.764505</ele>
        <time>2022-03-12T08:22:34.330Z</time>
      </trkpt>
      <trkpt lat="44.96565" lon="5.08103">
        <ele>254.882089</ele>
        <time>2022-03-12T08:22:37.310Z</time>
      </trkpt>
      <trkpt lat="44.9656" lon="5.08117">
        <ele>254.990033</ele>
        <time>2022-03-12T08:22:40.329Z</time>
      </trkpt>
      <trkpt lat="44.96549" lon="5.0812">
        <ele>255.101943</ele>
        <time>2022-03-12T08:22:43.317Z</time>
      </trkpt>
      <trkpt lat="44.96538" lon="5.08115">
        <ele>255.222513</ele>
        <time>2022-03-12T08:22:46.316Z</time>
      </trkpt>
      <trkpt lat="44.96527" lon="5.08111">
        <ele>255.335075</ele>
        <time>2022-03-12T08:22:49.336Z</time>
      </trkpt>
      <trkpt lat="44.96516" lon="5.08109">
        <ele>255.454317</ele>
        <time>2022-03-12T08:22:52.330Z</time>
      </trkpt>
      <trkpt lat="44.96504" lon="5.08106">
        <ele>255.575575</ele>
        <time>2022-03-12T08:22:55.331Z</time>
      </trkpt>
      <trkpt lat="44.96493" lon="5.08102">
        <ele>255.688638</ele>
        <time>2022-03-12T08:22:58.328Z</time>
      </trkpt>
      <trkpt lat="44.96482" lon="5.08101">
        <ele>255.799601</ele>
        <time>2022-03-12T08:23:01.324Z</time>
      </trkpt>
      <trkpt lat="44.96472" lon="5.08106">
        <ele>255.911157</ele>
        <time>2022-03-12T08:23:04.325Z</time>
      </trkpt>
      <trkpt lat="44.96464" lon="5.08118">
        <ele>256.020638</ele>
        <time>2022-03-12T08:23:07.318Z</time>
      </trkpt>
      <trkpt lat="44.96454" lon="5.08123">
        <ele>255.943576</ele>
        <time>2022-03-12T08:23:10.333Z</time>
      </trkpt>
      <trkpt lat="44.96443" lon="5.08121">
        <ele>255.865501</ele>
        <time>2022-03-12T08:23:13.320Z</time>
      </trkpt>
      <trkpt lat="44.96433" lon="5.08119">
        <ele>255.796509</ele>
        <time>2022-03-12T08:23:16.330Z</time>
      </trkpt>
      <trkpt lat="44.96423" lon="5.08113">
        <ele>255.718917</ele>
        <time>2022-03-12T08:23:20.333Z</time>
      </trkpt>
      <trkpt lat="44.9642" lon="5.08099">
        <ele>255.64881</ele>
        <time>2022-03-12T08:23:23.337Z</time>
      </trkpt>
      <trkpt lat="44.9642" lon="5.08083">
        <ele>255.565898</ele>
        <time>2022-03-12T08:23:26.334Z</time>
      </trkpt>
      <trkpt lat="44.96421" lon="5.08065">
        <ele>255.479031</ele>
        <time>2022-03-12T08:23:29.341Z</time>
      </trkpt>
      <trkpt lat="44.96421" lon="5.08052">
        <ele>255.415901</ele>
        <time>2022-03-12T08:23:31.323Z</time>
      </trkpt>
      <trkpt lat="44.96422" lon="5.08039">
        <ele>255.349653</ele>
        <time>2022-03-12T08:23:33.331Z</time>
      </trkpt>
      <trkpt lat="44.96423" lon="5.08026">
        <ele>255.282283</ele>
        <time>2022-03-12T08:23:35.326Z</time>
      </trkpt>
      <trkpt lat="44.96424" lon="5.08012">
        <ele>255.21609</ele>
        <time>2022-03-12T08:23:37.320Z</time>
      </trkpt>
      <trkpt lat="44.96419" lon="5.08001">
        <ele>255.151948</ele>
        <time>2022-03-12T08:23:39.338Z</time>
      </trkpt>
      <trkpt lat="44.96406" lon="5.07999">
        <ele>255.063247</ele>
        <time>2022-03-12T08:23:42.322Z</time>
      </trkpt>
      <trkpt lat="44.96395" lon="5.07993">
        <ele>254.978085</ele>
        <time>2022-03-12T08:23:45.320Z</time>
      </trkpt>
      <trkpt lat="44.96383" lon="5.07988">
        <ele>254.894785</ele>
        <time>2022-03-12T08:23:48.324Z</time>
      </trkpt>
      <trkpt lat="44.96372" lon="5.07983">
        <ele>254.811726</ele>
        <time>2022-03-12T08:23:51.322Z</time>
      </trkpt>
      <trkpt lat="44.96361" lon="5.07978">
        <ele>254.868816</ele>
        <time>2022-03-12T08:23:54.330Z</time>
      </trkpt>
      <trkpt lat="44.9635" lon="5.07973">
        <ele>255.155205</ele>
        <time>2022-03-12T08:23:57.324Z</time>
      </trkpt>
      <trkpt lat="44.96339" lon="5.07968">
        <ele>255.440338</ele>
        <time>2022-03-12T08:24:00.325Z</time>
      </trkpt>
      <trkpt lat="44.96328" lon="5.07964">
        <ele>255.729932</ele>
        <time>2022-03-12T08:24:03.333Z</time>
      </trkpt>
      <trkpt lat="44.96317" lon="5.07959">
        <ele>256.021045</ele>
        <time>2022-03-12T08:24:06.327Z</time>
      </trkpt>
      <trkpt lat="44.96305" lon="5.07955">
        <ele>256.322217</ele>
        <time>2022-03-12T08:24:09.329Z</time>
      </trkpt>
      <trkpt lat="44.96293" lon="5.07953">
        <ele>256.626622</ele>
        <time>2022-03-12T08:24:12.324Z</time>
      </trkpt>
      <trkpt lat="44.96281" lon="5.07953">
        <ele>256.924172</ele>
        <time>2022-03-12T08:24:15.324Z</time>
      </trkpt>
      <trkpt lat="44.96269" lon="5.07956">
        <ele>257.228959</ele>
        <time>2022-03-12T08:24:18.324Z</time>
      </trkpt>
      <trkpt lat="44.96256" lon="5.07961">
        <ele>257.554342</ele>
        <time>2022-03-12T08:24:21.336Z</time>
      </trkpt>
      <trkpt lat="44.96244" lon="5.07966">
        <ele>257.877797</ele>
        <time>2022-03-12T08:24:24.326Z</time>
      </trkpt>
      <trkpt lat="44.96232" lon="5.07971">
        <ele>258.187383</ele>
        <time>2022-03-12T08:24:27.343Z</time>
      </trkpt>
      <trkpt lat="44.96219" lon="5.07975">
        <ele>258.498192</ele>
        <time>2022-03-12T08:24:30.334Z</time>
      </trkpt>
      <trkpt lat="44.96207" lon="5.07978">
        <ele>258.811603</ele>
        <time>2022-03-12T08:24:33.321Z</time>
      </trkpt>
      <trkpt lat="44.96195" lon="5.07979">
        <ele>259.116782</ele>
        <time>2022-03-12T08:24:36.327Z</time>
      </trkpt>
      <trkpt lat="44.96182" lon="5.07976">
        <ele>259.294043</ele>
        <time>2022-03-12T08:24:39.330Z</time>
      </trkpt>
      <trkpt lat="44.9617" lon="5.07971">
        <ele>259.407087</ele>
        <time>2022-03-12T08:24:42.327Z</time>
      </trkpt>
      <trkpt lat="44.96158" lon="5.07965">
        <ele>259.519306</ele>
        <time>2022-03-12T08:24:45.328Z</time>
      </trkpt>
      <trkpt lat="44.9615" lon="5.0796">
        <ele>259.601984</ele>
        <time>2022-03-12T08:24:47.330Z</time>
      </trkpt>
      <trkpt lat="44.96141" lon="5.07955">
        <ele>259.687852</ele>
        <time>2022-03-12T08:24:49.319Z</time>
      </trkpt>
      <trkpt lat="44.96132" lon="5.07951">
        <ele>259.772736</ele>
        <time>2022-03-12T08:24:51.327Z</time>
      </trkpt>
      <trkpt lat="44.96122" lon="5.07948">
        <ele>259.858898</ele>
        <time>2022-03-12T08:24:53.330Z</time>
      </trkpt>
      <trkpt lat="44.96113" lon="5.07946">
        <ele>259.944831</ele>
        <time>2022-03-12T08:24:55.323Z</time>
      </trkpt>
      <trkpt lat="44.96103" lon="5.07944">
        <ele>260.031046</ele>
        <time>2022-03-12T08:24:57.330Z</time>
      </trkpt>
      <trkpt lat="44.96094" lon="5.07944">
        <ele>260.11769</ele>
        <time>2022-03-12T08:24:59.336Z</time>
      </trkpt>
      <trkpt lat="44.96084" lon="5.07944">
        <ele>260.202513</ele>
        <time>2022-03-12T08:25:01.331Z</time>
      </trkpt>
      <trkpt lat="44.96075" lon="5.07945">
        <ele>260.283207</ele>
        <time>2022-03-12T08:25:03.335Z</time>
      </trkpt>
      <trkpt lat="44.96062" lon="5.07948">
        <ele>260.399026</ele>
        <time>2022-03-12T08:25:06.323Z</time>
      </trkpt>
      <trkpt lat="44.9605" lon="5.07952">
        <ele>260.514527</ele>
        <time>2022-03-12T08:25:09.331Z</time>
      </trkpt>
      <trkpt lat="44.96037" lon="5.07956">
        <ele>260.630674</ele>
        <time>2022-03-12T08:25:12.331Z</time>
      </trkpt>
      <trkpt lat="44.96024" lon="5.0796">
        <ele>260.74638</ele>
        <time>2022-03-12T08:25:15.327Z</time>
      </trkpt>
      <trkpt lat="44.96012" lon="5.07964">
        <ele>260.877571</ele>
        <time>2022-03-12T08:25:18.326Z</time>
      </trkpt>
      <trkpt lat="44.96" lon="5.07967">
        <ele>261.054202</ele>
        <time>2022-03-12T08:25:21.327Z</time>
      </trkpt>
      <trkpt lat="44.95988" lon="5.0797">
        <ele>261.225331</ele>
        <time>2022-03-12T08:25:24.329Z</time>
      </trkpt>
      <trkpt lat="44.95976" lon="5.07971">
        <ele>261.394868</ele>
        <time>2022-03-12T08:25:27.329Z</time>
      </trkpt>
      <trkpt lat="44.95963" lon="5.0797">
        <ele>261.570042</ele>
        <time>2022-03-12T08:25:30.329Z</time>
      </trkpt>
      <trkpt lat="44.95952" lon="5.07968">
        <ele>261.737284</ele>
        <time>2022-03-12T08:25:33.329Z</time>
      </trkpt>
      <trkpt lat="44.9594" lon="5.07965">
        <ele>261.907186</ele>
        <time>2022-03-12T08:25:36.329Z</time>
      </trkpt>
      <trkpt lat="44.95928" lon="5.07962">
        <ele>262.079291</ele>
        <time>2022-03-12T08:25:39.327Z</time>
      </trkpt>
      <trkpt lat="44.95916" lon="5.07959">
        <ele>262.251048</ele>
        <time>2022-03-12T08:25:42.335Z</time>
      </trkpt>
      <trkpt lat="44.95904" lon="5.07957">
        <ele>262.421008</ele>
        <time>2022-03-12T08:25:45.327Z</time>
      </trkpt>
      <trkpt lat="44.95892" lon="5.07958">
        <ele>262.586123</ele>
        <time>2022-03-12T08:25:48.333Z</time>
      </trkpt>
      <trkpt lat="44.9588" lon="5.0796">
        <ele>262.752393</ele>
        <time>2022-03-12T08:25:51.334Z</time>
      </trkpt>
      <trkpt lat="44.95868" lon="5.07963">
        <ele>262.924868</ele>
        <time>2022-03-12T08:25:54.332Z</time>
      </trkpt>
      <trkpt lat="44.95857" lon="5.07968">
        <ele>263.099551</ele>
        <time>2022-03-12T08:25:57.330Z</time>
      </trkpt>
      <trkpt lat="44.95845" lon="5.07975">
        <ele>263.282328</ele>
        <time>2022-03-12T08:26:00.341Z</time>
      </trkpt>
      <trkpt lat="44.95832" lon="5.07982">
        <ele>263.360885</ele>
        <time>2022-03-12T08:26:03.320Z</time>
      </trkpt>
      <trkpt lat="44.9582" lon="5.07988">
        <ele>263.356936</ele>
        <time>2022-03-12T08:26:06.329Z</time>
      </trkpt>
      <trkpt lat="44.95809" lon="5.07995">
        <ele>263.353004</ele>
        <time>2022-03-12T08:26:09.330Z</time>
      </trkpt>
      <trkpt lat="44.95797" lon="5.08002">
        <ele>263.349254</ele>
        <time>2022-03-12T08:26:12.331Z</time>
      </trkpt>
      <trkpt lat="44.95786" lon="5.08008">
        <ele>263.345607</ele>
        <time>2022-03-12T08:26:15.321Z</time>
      </trkpt>
      <trkpt lat="44.95775" lon="5.08014">
        <ele>263.341999</ele>
        <time>2022-03-12T08:26:18.318Z</time>
      </trkpt>
      <trkpt lat="44.95764" lon="5.08019">
        <ele>263.338356</ele>
        <time>2022-03-12T08:26:21.330Z</time>
      </trkpt>
      <trkpt lat="44.95753" lon="5.08025">
        <ele>263.334596</ele>
        <time>2022-03-12T08:26:24.333Z</time>
      </trkpt>
      <trkpt lat="44.9574" lon="5.08028">
        <ele>263.330774</ele>
        <time>2022-03-12T08:26:27.333Z</time>
      </trkpt>
      <trkpt lat="44.95727" lon="5.08025">
        <ele>263.326601</ele>
        <time>2022-03-12T08:26:30.331Z</time>
      </trkpt>
      <trkpt lat="44.95718" lon="5.08017">
        <ele>263.323455</ele>
        <time>2022-03-12T08:26:32.329Z</time>
      </trkpt>
      <trkpt lat="44.9571" lon="5.08007">
        <ele>263.320014</ele>
        <time>2022-03-12T08:26:34.337Z</time>
      </trkpt>
      <trkpt lat="44.95701" lon="5.07997">
        <ele>263.316475</ele>
        <time>2022-03-12T08:26:36.334Z</time>
      </trkpt>
      <trkpt lat="44.95692" lon="5.07985">
        <ele>263.312843</ele>
        <time>2022-03-12T08:26:38.325Z</time>
      </trkpt>
      <trkpt lat="44.95684" lon="5.07974">
        <ele>263.309293</ele>
        <time>2022-03-12T08:26:40.327Z</time>
      </trkpt>
      <trkpt lat="44.95676" lon="5.07962">
        <ele>263.178453</ele>
        <time>2022-03-12T08:26:42.324Z</time>
      </trkpt>
      <trkpt lat="44.95668" lon="5.07952">
        <ele>262.968752</ele>
        <time>2022-03-12T08:26:44.336Z</time>
      </trkpt>
      <trkpt lat="44.9566" lon="5.07941">
        <ele>262.76303</ele>
        <time>2022-03-12T08:26:46.326Z</time>
      </trkpt>
      <trkpt lat="44.95652" lon="5.0793">
        <ele>262.554252</ele>
        <time>2022-03-12T08:26:48.324Z</time>
      </trkpt>
      <trkpt lat="44.95645" lon="5.0792">
        <ele>262.349641</ele>
        <time>2022-03-12T08:26:50.334Z</time>
      </trkpt>
      <trkpt lat="44.95637" lon="5.07909">
        <ele>262.150462</ele>
        <time>2022-03-12T08:26:52.316Z</time>
      </trkpt>
      <trkpt lat="44.9563" lon="5.07899">
        <ele>261.954553</ele>
        <time>2022-03-12T08:26:54.333Z</time>
      </trkpt>
      <trkpt lat="44.95623" lon="5.07889">
        <ele>261.764929</ele>
        <time>2022-03-12T08:26:56.320Z</time>
      </trkpt>
      <trkpt lat="44.95617" lon="5.07879">
        <ele>261.578184</ele>
        <time>2022-03-12T08:26:58.332Z</time>
      </trkpt>
      <trkpt lat="44.9561" lon="5.07868">
        <ele>261.392446</ele>
        <time>2022-03-12T08:27:00.322Z</time>
      </trkpt>
      <trkpt lat="44.95604" lon="5.07858">
        <ele>261.209998</ele>
        <time>2022-03-12T08:27:02.324Z</time>
      </trkpt>
      <trkpt lat="44.95597" lon="5.07848">
        <ele>261.024963</ele>
        <time>2022-03-12T08:27:04.329Z</time>
      </trkpt>
      <trkpt lat="44.9559" lon="5.07839">
        <ele>260.836601</ele>
        <time>2022-03-12T08:27:06.337Z</time>
      </trkpt>
      <trkpt lat="44.95582" lon="5.0783">
        <ele>260.644047</ele>
        <time>2022-03-12T08:27:08.327Z</time>
      </trkpt>
      <trkpt lat="44.95574" lon="5.07822">
        <ele>260.44959</ele>
        <time>2022-03-12T08:27:10.326Z</time>
      </trkpt>
      <trkpt lat="44.95566" lon="5.07814">
        <ele>260.258234</ele>
        <time>2022-03-12T08:27:12.322Z</time>
      </trkpt>
      <trkpt lat="44.95557" lon="5.07807">
        <ele>260.066447</ele>
        <time>2022-03-12T08:27:14.329Z</time>
      </trkpt>
      <trkpt lat="44.95548" lon="5.07801">
        <ele>259.880129</ele>
        <time>2022-03-12T08:27:16.330Z</time>
      </trkpt>
      <trkpt lat="44.95539" lon="5.07795">
        <ele>259.955594</ele>
        <time>2022-03-12T08:27:18.326Z</time>
      </trkpt>
      <trkpt lat="44.9553" lon="5.07789">
        <ele>260.052269</ele>
        <time>2022-03-12T08:27:20.325Z</time>
      </trkpt>
      <trkpt lat="44.95521" lon="5.07784">
        <ele>260.146819</ele>
        <time>2022-03-12T08:27:22.334Z</time>
      </trkpt>
      <trkpt lat="44.95512" lon="5.07779">
        <ele>260.238711</ele>
        <time>2022-03-12T08:27:24.326Z</time>
      </trkpt>
      <trkpt lat="44.95502" lon="5.07775">
        <ele>260.331442</ele>
        <time>2022-03-12T08:27:26.328Z</time>
      </trkpt>
      <trkpt lat="44.95493" lon="5.0777">
        <ele>260.421935</ele>
        <time>2022-03-12T08:27:28.331Z</time>
      </trkpt>
      <trkpt lat="44.95485" lon="5.07765">
        <ele>260.5103</ele>
        <time>2022-03-12T08:27:30.335Z</time>
      </trkpt>
      <trkpt lat="44.95476" lon="5.0776">
        <ele>260.598048</ele>
        <time>2022-03-12T08:27:32.329Z</time>
      </trkpt>
      <trkpt lat="44.95468" lon="5.07755">
        <ele>260.687808</ele>
        <time>2022-03-12T08:27:34.336Z</time>
      </trkpt>
      <trkpt lat="44.95459" lon="5.07749">
        <ele>260.779215</ele>
        <time>2022-03-12T08:27:36.325Z</time>
      </trkpt>
      <trkpt lat="44.95451" lon="5.07743">
        <ele>260.867805</ele>
        <time>2022-03-12T08:27:38.325Z</time>
      </trkpt>
      <trkpt lat="44.95442" lon="5.07737">
        <ele>260.956394</ele>
        <time>2022-03-12T08:27:40.330Z</time>
      </trkpt>
      <trkpt lat="44.95434" lon="5.07732">
        <ele>261.045227</ele>
        <time>2022-03-12T08:27:42.333Z</time>
      </trkpt>
      <trkpt lat="44.95425" lon="5.07726">
        <ele>261.133772</ele>
        <time>2022-03-12T08:27:44.330Z</time>
      </trkpt>
      <trkpt lat="44.95417" lon="5.07721">
        <ele>261.220504</ele>
        <time>2022-03-12T08:27:46.325Z</time>
      </trkpt>
      <trkpt lat="44.95408" lon="5.07717">
        <ele>261.307483</ele>
        <time>2022-03-12T08:27:48.332Z</time>
      </trkpt>
      <trkpt lat="44.954" lon="5.07712">
        <ele>261.394167</ele>
        <time>2022-03-12T08:27:50.334Z</time>
      </trkpt>
      <trkpt lat="44.95391" lon="5.07709">
        <ele>261.481772</ele>
        <time>2022-03-12T08:27:52.328Z</time>
      </trkpt>
      <trkpt lat="44.95382" lon="5.07705">
        <ele>261.568641</ele>
        <time>2022-03-12T08:27:54.324Z</time>
      </trkpt>
      <trkpt lat="44.95373" lon="5.07702">
        <ele>261.5586</ele>
        <time>2022-03-12T08:27:56.326Z</time>
      </trkpt>
      <trkpt lat="44.95364" lon="5.077">
        <ele>261.536199</ele>
        <time>2022-03-12T08:27:58.329Z</time>
      </trkpt>
      <trkpt lat="44.95355" lon="5.07697">
        <ele>261.514028</ele>
        <time>2022-03-12T08:28:00.328Z</time>
      </trkpt>
      <trkpt lat="44.95345" lon="5.07695">
        <ele>261.490936</ele>
        <time>2022-03-12T08:28:02.329Z</time>
      </trkpt>
      <trkpt lat="44.95335" lon="5.07692">
        <ele>261.46738</ele>
        <time>2022-03-12T08:28:04.321Z</time>
      </trkpt>
      <trkpt lat="44.95325" lon="5.07689">
        <ele>261.443505</ele>
        <time>2022-03-12T08:28:06.328Z</time>
      </trkpt>
      <trkpt lat="44.95315" lon="5.07685">
        <ele>261.420099</ele>
        <time>2022-03-12T08:28:08.328Z</time>
      </trkpt>
      <trkpt lat="44.95306" lon="5.07681">
        <ele>261.39621</ele>
        <time>2022-03-12T08:28:10.330Z</time>
      </trkpt>
      <trkpt lat="44.95296" lon="5.07677">
        <ele>261.373666</ele>
        <time>2022-03-12T08:28:12.320Z</time>
      </trkpt>
      <trkpt lat="44.95287" lon="5.07673">
        <ele>261.350451</ele>
        <time>2022-03-12T08:28:14.323Z</time>
      </trkpt>
      <trkpt lat="44.95278" lon="5.07668">
        <ele>261.326966</ele>
        <time>2022-03-12T08:28:16.328Z</time>
      </trkpt>
      <trkpt lat="44.95268" lon="5.07662">
        <ele>261.303023</ele>
        <time>2022-03-12T08:28:18.330Z</time>
      </trkpt>
      <trkpt lat="44.95259" lon="5.07656">
        <ele>261.278866</ele>
        <time>2022-03-12T08:28:20.329Z</time>
      </trkpt>
      <trkpt lat="44.95249" lon="5.0765">
        <ele>261.254289</ele>
        <time>2022-03-12T08:28:22.325Z</time>
      </trkpt>
      <trkpt lat="44.9524" lon="5.07643">
        <ele>261.22999</ele>
        <time>2022-03-12T08:28:24.332Z</time>
      </trkpt>
      <trkpt lat="44.95231" lon="5.07637">
        <ele>261.205691</ele>
        <time>2022-03-12T08:28:26.330Z</time>
      </trkpt>
      <trkpt lat="44.95221" lon="5.07631">
        <ele>261.181184</ele>
        <time>2022-03-12T08:28:28.325Z</time>
      </trkpt>
      <trkpt lat="44.95212" lon="5.07625">
        <ele>261.158017</ele>
        <time>2022-03-12T08:28:30.327Z</time>
      </trkpt>
      <trkpt lat="44.95203" lon="5.07619">
        <ele>261.207516</ele>
        <time>2022-03-12T08:28:32.322Z</time>
      </trkpt>
      <trkpt lat="44.95195" lon="5.07613">
        <ele>261.260178</ele>
        <time>2022-03-12T08:28:34.329Z</time>
      </trkpt>
      <trkpt lat="44.95186" lon="5.07608">
        <ele>261.312168</ele>
        <time>2022-03-12T08:28:36.325Z</time>
      </trkpt>
      <trkpt lat="44.95177" lon="5.07603">
        <ele>261.366047</ele>
        <time>2022-03-12T08:28:38.336Z</time>
      </trkpt>
      <trkpt lat="44.95169" lon="5.07597">
        <ele>261.418388</ele>
        <time>2022-03-12T08:28:40.323Z</time>
      </trkpt>
      <trkpt lat="44.9516" lon="5.07592">
        <ele>261.470875</ele>
        <time>2022-03-12T08:28:42.326Z</time>
      </trkpt>
      <trkpt lat="44.95152" lon="5.07586">
        <ele>261.523727</ele>
        <time>2022-03-12T08:28:44.331Z</time>
      </trkpt>
      <trkpt lat="44.95143" lon="5.07581">
        <ele>261.576737</ele>
        <time>2022-03-12T08:28:46.325Z</time>
      </trkpt>
      <trkpt lat="44.95134" lon="5.07576">
        <ele>261.630402</ele>
        <time>2022-03-12T08:28:48.324Z</time>
      </trkpt>
      <trkpt lat="44.95125" lon="5.07571">
        <ele>261.683614</ele>
        <time>2022-03-12T08:28:50.329Z</time>
      </trkpt>
      <trkpt lat="44.95116" lon="5.07566">
        <ele>261.737279</ele>
        <time>2022-03-12T08:28:52.325Z</time>
      </trkpt>
      <trkpt lat="44.95107" lon="5.07561">
        <ele>261.790944</ele>
        <time>2022-03-12T08:28:54.324Z</time>
      </trkpt>
      <trkpt lat="44.95099" lon="5.07556">
        <ele>261.842934</ele>
        <time>2022-03-12T08:28:56.326Z</time>
      </trkpt>
      <trkpt lat="44.9509" lon="5.0755">
        <ele>261.895254</ele>
        <time>2022-03-12T08:28:58.338Z</time>
      </trkpt>
      <trkpt lat="44.95081" lon="5.07545">
        <ele>261.947951</ele>
        <time>2022-03-12T08:29:00.325Z</time>
      </trkpt>
      <trkpt lat="44.95073" lon="5.07539">
        <ele>262.001955</ele>
        <time>2022-03-12T08:29:02.330Z</time>
      </trkpt>
      <trkpt lat="44.95064" lon="5.07532">
        <ele>262.0554</ele>
        <time>2022-03-12T08:29:04.329Z</time>
      </trkpt>
      <trkpt lat="44.95056" lon="5.07526">
        <ele>262.109809</ele>
        <time>2022-03-12T08:29:06.333Z</time>
      </trkpt>
      <trkpt lat="44.95047" lon="5.07519">
        <ele>262.14574</ele>
        <time>2022-03-12T08:29:08.326Z</time>
      </trkpt>
      <trkpt lat="44.95039" lon="5.07512">
        <ele>261.962225</ele>
        <time>2022-03-12T08:29:10.336Z</time>
      </trkpt>
      <trkpt lat="44.95031" lon="5.07503">
        <ele>261.767098</ele>
        <time>2022-03-12T08:29:12.323Z</time>
      </trkpt>
      <trkpt lat="44.95022" lon="5.07495">
        <ele>261.568896</ele>
        <time>2022-03-12T08:29:14.333Z</time>
      </trkpt>
      <trkpt lat="44.95014" lon="5.07486">
        <ele>261.367521</ele>
        <time>2022-03-12T08:29:16.328Z</time>
      </trkpt>
      <trkpt lat="44.95005" lon="5.07477">
        <ele>261.167661</ele>
        <time>2022-03-12T08:29:18.340Z</time>
      </trkpt>
      <trkpt lat="44.94997" lon="5.07468">
        <ele>260.974103</ele>
        <time>2022-03-12T08:29:20.319Z</time>
      </trkpt>
      <trkpt lat="44.94989" lon="5.0746">
        <ele>260.792106</ele>
        <time>2022-03-12T08:29:22.325Z</time>
      </trkpt>
      <trkpt lat="44.94982" lon="5.07451">
        <ele>260.604108</ele>
        <time>2022-03-12T08:29:24.329Z</time>
      </trkpt>
      <trkpt lat="44.94974" lon="5.07443">
        <ele>260.412716</ele>
        <time>2022-03-12T08:29:26.321Z</time>
      </trkpt>
      <trkpt lat="44.94966" lon="5.07433">
        <ele>260.216311</ele>
        <time>2022-03-12T08:29:28.329Z</time>
      </trkpt>
      <trkpt lat="44.94958" lon="5.07424">
        <ele>260.017801</ele>
        <time>2022-03-12T08:29:30.324Z</time>
      </trkpt>
      <trkpt lat="44.9495" lon="5.07414">
        <ele>259.820805</ele>
        <time>2022-03-12T08:29:32.323Z</time>
      </trkpt>
      <trkpt lat="44.94942" lon="5.07405">
        <ele>259.621499</ele>
        <time>2022-03-12T08:29:34.338Z</time>
      </trkpt>
      <trkpt lat="44.94934" lon="5.07395">
        <ele>259.418996</ele>
        <time>2022-03-12T08:29:36.333Z</time>
      </trkpt>
      <trkpt lat="44.94926" lon="5.07384">
        <ele>259.214051</ele>
        <time>2022-03-12T08:29:38.330Z</time>
      </trkpt>
      <trkpt lat="44.94919" lon="5.07372">
        <ele>259.010526</ele>
        <time>2022-03-12T08:29:40.316Z</time>
      </trkpt>
      <trkpt lat="44.94912" lon="5.0736">
        <ele>258.803933</ele>
        <time>2022-03-12T08:29:42.325Z</time>
      </trkpt>
      <trkpt lat="44.94906" lon="5.07347">
        <ele>258.576731</ele>
        <time>2022-03-12T08:29:44.327Z</time>
      </trkpt>
      <trkpt lat="44.94901" lon="5.07334">
        <ele>258.348077</ele>
        <time>2022-03-12T08:29:46.320Z</time>
      </trkpt>
      <trkpt lat="44.94897" lon="5.07319">
        <ele>258.116657</ele>
        <time>2022-03-12T08:29:48.337Z</time>
      </trkpt>
      <trkpt lat="44.94893" lon="5.07304">
        <ele>257.87678</ele>
        <time>2022-03-12T08:29:50.325Z</time>
      </trkpt>
      <trkpt lat="44.94889" lon="5.07289">
        <ele>257.639865</ele>
        <time>2022-03-12T08:29:52.323Z</time>
      </trkpt>
      <trkpt lat="44.94885" lon="5.07274">
        <ele>257.404283</ele>
        <time>2022-03-12T08:29:54.338Z</time>
      </trkpt>
      <trkpt lat="44.9488" lon="5.0726">
        <ele>257.164107</ele>
        <time>2022-03-12T08:29:56.336Z</time>
      </trkpt>
      <trkpt lat="44.94873" lon="5.07248">
        <ele>256.930839</ele>
        <time>2022-03-12T08:29:58.322Z</time>
      </trkpt>
      <trkpt lat="44.94864" lon="5.07237">
        <ele>256.689188</ele>
        <time>2022-03-12T08:30:00.329Z</time>
      </trkpt>
      <trkpt lat="44.94856" lon="5.07227">
        <ele>256.456113</ele>
        <time>2022-03-12T08:30:02.338Z</time>
      </trkpt>
      <trkpt lat="44.94847" lon="5.07217">
        <ele>256.220071</ele>
        <time>2022-03-12T08:30:04.334Z</time>
      </trkpt>
      <trkpt lat="44.94838" lon="5.07209">
        <ele>255.99698</ele>
        <time>2022-03-12T08:30:06.343Z</time>
      </trkpt>
      <trkpt lat="44.94829" lon="5.072">
        <ele>255.773034</ele>
        <time>2022-03-12T08:30:08.333Z</time>
      </trkpt>
      <trkpt lat="44.94821" lon="5.07191">
        <ele>255.555893</ele>
        <time>2022-03-12T08:30:10.336Z</time>
      </trkpt>
      <trkpt lat="44.94813" lon="5.07183">
        <ele>255.342871</ele>
        <time>2022-03-12T08:30:12.331Z</time>
      </trkpt>
      <trkpt lat="44.94805" lon="5.07174">
        <ele>255.125777</ele>
        <time>2022-03-12T08:30:14.328Z</time>
      </trkpt>
      <trkpt lat="44.94796" lon="5.07167">
        <ele>254.93407</ele>
        <time>2022-03-12T08:30:16.324Z</time>
      </trkpt>
      <trkpt lat="44.94787" lon="5.07159">
        <ele>254.809651</ele>
        <time>2022-03-12T08:30:18.333Z</time>
      </trkpt>
      <trkpt lat="44.94779" lon="5.07151">
        <ele>254.688374</ele>
        <time>2022-03-12T08:30:20.334Z</time>
      </trkpt>
      <trkpt lat="44.94771" lon="5.07143">
        <ele>254.563242</ele>
        <time>2022-03-12T08:30:22.341Z</time>
      </trkpt>
      <trkpt lat="44.94762" lon="5.07136">
        <ele>254.436152</ele>
        <time>2022-03-12T08:30:24.329Z</time>
      </trkpt>
      <trkpt lat="44.94752" lon="5.07128">
        <ele>254.303555</ele>
        <time>2022-03-12T08:30:26.322Z</time>
      </trkpt>
      <trkpt lat="44.94743" lon="5.07121">
        <ele>254.171604</ele>
        <time>2022-03-12T08:30:28.333Z</time>
      </trkpt>
      <trkpt lat="44.94733" lon="5.07114">
        <ele>254.036989</ele>
        <time>2022-03-12T08:30:30.316Z</time>
      </trkpt>
      <trkpt lat="44.94724" lon="5.07107">
        <ele>253.90387</ele>
        <time>2022-03-12T08:30:32.326Z</time>
      </trkpt>
      <trkpt lat="44.94714" lon="5.071">
        <ele>253.771581</ele>
        <time>2022-03-12T08:30:34.332Z</time>
      </trkpt>
      <trkpt lat="44.94704" lon="5.07094">
        <ele>253.640391</ele>
        <time>2022-03-12T08:30:36.326Z</time>
      </trkpt>
      <trkpt lat="44.94695" lon="5.07088">
        <ele>253.507719</ele>
        <time>2022-03-12T08:30:38.336Z</time>
      </trkpt>
      <trkpt lat="44.94685" lon="5.07081">
        <ele>253.374684</ele>
        <time>2022-03-12T08:30:40.324Z</time>
      </trkpt>
      <trkpt lat="44.94675" lon="5.07075">
        <ele>253.239794</ele>
        <time>2022-03-12T08:30:42.326Z</time>
      </trkpt>
      <trkpt lat="44.94665" lon="5.07068">
        <ele>253.106759</ele>
        <time>2022-03-12T08:30:44.325Z</time>
      </trkpt>
      <trkpt lat="44.94656" lon="5.07062">
        <ele>252.976692</ele>
        <time>2022-03-12T08:30:46.323Z</time>
      </trkpt>
      <trkpt lat="44.94646" lon="5.07055">
        <ele>252.844666</ele>
        <time>2022-03-12T08:30:48.324Z</time>
      </trkpt>
      <trkpt lat="44.94636" lon="5.07048">
        <ele>252.724502</ele>
        <time>2022-03-12T08:30:50.334Z</time>
      </trkpt>
      <trkpt lat="44.94627" lon="5.07041">
        <ele>252.632625</ele>
        <time>2022-03-12T08:30:52.324Z</time>
      </trkpt>
      <trkpt lat="44.94617" lon="5.07034">
        <ele>252.541102</ele>
        <time>2022-03-12T08:30:54.342Z</time>
      </trkpt>
      <trkpt lat="44.94607" lon="5.07028">
        <ele>252.448566</ele>
        <time>2022-03-12T08:30:56.332Z</time>
      </trkpt>
      <trkpt lat="44.94598" lon="5.07021">
        <ele>252.3563</ele>
        <time>2022-03-12T08:30:58.336Z</time>
      </trkpt>
      <trkpt lat="44.94588" lon="5.07015">
        <ele>252.264282</ele>
        <time>2022-03-12T08:31:00.326Z</time>
      </trkpt>
      <trkpt lat="44.94578" lon="5.07008">
        <ele>252.171232</ele>
        <time>2022-03-12T08:31:02.334Z</time>
      </trkpt>
      <trkpt lat="44.94569" lon="5.07001">
        <ele>252.080197</ele>
        <time>2022-03-12T08:31:04.327Z</time>
      </trkpt>
      <trkpt lat="44.94559" lon="5.06995">
        <ele>251.990758</ele>
        <time>2022-03-12T08:31:06.329Z</time>
      </trkpt>
      <trkpt lat="44.9455" lon="5.06988">
        <ele>251.905423</ele>
        <time>2022-03-12T08:31:08.323Z</time>
      </trkpt>
      <trkpt lat="44.94542" lon="5.06981">
        <ele>251.822731</ele>
        <time>2022-03-12T08:31:10.331Z</time>
      </trkpt>
      <trkpt lat="44.94534" lon="5.06973">
        <ele>251.739453</ele>
        <time>2022-03-12T08:31:12.322Z</time>
      </trkpt>
      <trkpt lat="44.94527" lon="5.06963">
        <ele>251.654008</ele>
        <time>2022-03-12T08:31:14.321Z</time>
      </trkpt>
      <trkpt lat="44.94519" lon="5.06952">
        <ele>251.562609</ele>
        <time>2022-03-12T08:31:16.333Z</time>
      </trkpt>
      <trkpt lat="44.94513" lon="5.0694">
        <ele>251.469548</ele>
        <time>2022-03-12T08:31:18.325Z</time>
      </trkpt>
      <trkpt lat="44.94507" lon="5.06926">
        <ele>251.375679</ele>
        <time>2022-03-12T08:31:20.337Z</time>
      </trkpt>
      <trkpt lat="44.94502" lon="5.06913">
        <ele>251.283802</ele>
        <time>2022-03-12T08:31:22.327Z</time>
      </trkpt>
      <trkpt lat="44.94495" lon="5.06901">
        <ele>251.156308</ele>
        <time>2022-03-12T08:31:24.330Z</time>
      </trkpt>
      <trkpt lat="44.94488" lon="5.06891">
        <ele>250.953518</ele>
        <time>2022-03-12T08:31:26.319Z</time>
      </trkpt>
      <trkpt lat="44.94479" lon="5.06883">
        <ele>250.751121</ele>
        <time>2022-03-12T08:31:28.322Z</time>
      </trkpt>
      <trkpt lat="44.94471" lon="5.06875">
        <ele>250.547573</ele>
        <time>2022-03-12T08:31:30.322Z</time>
      </trkpt>
      <trkpt lat="44.94462" lon="5.0687">
        <ele>250.357782</ele>
        <time>2022-03-12T08:31:32.322Z</time>
      </trkpt>
      <trkpt lat="44.9445" lon="5.06864">
        <ele>250.108368</ele>
        <time>2022-03-12T08:31:35.324Z</time>
      </trkpt>
      <trkpt lat="44.94441" lon="5.06856">
        <ele>249.899158</ele>
        <time>2022-03-12T08:31:38.329Z</time>
      </trkpt>
      <trkpt lat="44.94432" lon="5.06845">
        <ele>249.676802</ele>
        <time>2022-03-12T08:31:41.324Z</time>
      </trkpt>
      <trkpt lat="44.94426" lon="5.0683">
        <ele>249.430909</ele>
        <time>2022-03-12T08:31:44.332Z</time>
      </trkpt>
      <trkpt lat="44.94422" lon="5.06813">
        <ele>249.178892</ele>
        <time>2022-03-12T08:31:47.333Z</time>
      </trkpt>
      <trkpt lat="44.94418" lon="5.06797">
        <ele>248.947955</ele>
        <time>2022-03-12T08:31:50.329Z</time>
      </trkpt>
      <trkpt lat="44.94413" lon="5.06784">
        <ele>248.74403</ele>
        <time>2022-03-12T08:31:53.324Z</time>
      </trkpt>
      <trkpt lat="44.94408" lon="5.06772">
        <ele>248.544618</ele>
        <time>2022-03-12T08:31:56.326Z</time>
      </trkpt>
      <trkpt lat="44.94402" lon="5.06761">
        <ele>248.35679</ele>
        <time>2022-03-12T08:31:59.329Z</time>
      </trkpt>
      <trkpt lat="44.94395" lon="5.06748">
        <ele>248.132917</ele>
        <time>2022-03-12T08:32:02.329Z</time>
      </trkpt>
      <trkpt lat="44.9439" lon="5.06738">
        <ele>247.955549</ele>
        <time>2022-03-12T08:32:04.338Z</time>
      </trkpt>
      <trkpt lat="44.94384" lon="5.06727">
        <ele>247.756698</ele>
        <time>2022-03-12T08:32:06.326Z</time>
      </trkpt>
      <trkpt lat="44.94377" lon="5.06714">
        <ele>247.615484</ele>
        <time>2022-03-12T08:32:08.330Z</time>
      </trkpt>
      <trkpt lat="44.9437" lon="5.06701">
        <ele>247.506939</ele>
        <time>2022-03-12T08:32:10.340Z</time>
      </trkpt>
      <trkpt lat="44.94364" lon="5.06687">
        <ele>247.396682</ele>
        <time>2022-03-12T08:32:12.324Z</time>
      </trkpt>
      <trkpt lat="44.94358" lon="5.06675">
        <ele>247.293631</ele>
        <time>2022-03-12T08:32:14.331Z</time>
      </trkpt>
      <trkpt lat="44.94352" lon="5.06663">
        <ele>247.198195</ele>
        <time>2022-03-12T08:32:16.339Z</time>
      </trkpt>
      <trkpt lat="44.94344" lon="5.06653">
        <ele>247.096398</ele>
        <time>2022-03-12T08:32:19.329Z</time>
      </trkpt>
      <trkpt lat="44.94334" lon="5.06657">
        <ele>247.003396</ele>
        <time>2022-03-12T08:32:22.337Z</time>
      </trkpt>
      <trkpt lat="44.94326" lon="5.06662">
        <ele>246.91725</ele>
        <time>2022-03-12T08:32:25.338Z</time>
      </trkpt>
      <trkpt lat="44.94317" lon="5.06668">
        <ele>246.827574</ele>
        <time>2022-03-12T08:32:28.330Z</time>
      </trkpt>
      <trkpt lat="44.94308" lon="5.06675">
        <ele>246.72454</ele>
        <time>2022-03-12T08:32:31.322Z</time>
      </trkpt>
      <trkpt lat="44.94297" lon="5.06684">
        <ele>246.611396</ele>
        <time>2022-03-12T08:32:34.322Z</time>
      </trkpt>
      <trkpt lat="44.94289" lon="5.0669">
        <ele>246.526288</ele>
        <time>2022-03-12T08:32:36.326Z</time>
      </trkpt>
      <trkpt lat="44.94279" lon="5.06694">
        <ele>246.429109</ele>
        <time>2022-03-12T08:32:38.330Z</time>
      </trkpt>
      <trkpt lat="44.94269" lon="5.06695">
        <ele>246.334392</ele>
        <time>2022-03-12T08:32:40.331Z</time>
      </trkpt>
      <trkpt lat="44.9426" lon="5.06694">
        <ele>246.244612</ele>
        <time>2022-03-12T08:32:42.324Z</time>
      </trkpt>
      <trkpt lat="44.9425" lon="5.06694">
        <ele>246.154892</ele>
        <time>2022-03-12T08:32:44.325Z</time>
      </trkpt>
      <trkpt lat="44.94241" lon="5.06696">
        <ele>246.065899</ele>
        <time>2022-03-12T08:32:46.333Z</time>
      </trkpt>
      <trkpt lat="44.94232" lon="5.06701">
        <ele>246.009259</ele>
        <time>2022-03-12T08:32:48.343Z</time>
      </trkpt>
      <trkpt lat="44.94224" lon="5.06708">
        <ele>246.205135</ele>
        <time>2022-03-12T08:32:50.330Z</time>
      </trkpt>
      <trkpt lat="44.94213" lon="5.06719">
        <ele>246.481469</ele>
        <time>2022-03-12T08:32:53.330Z</time>
      </trkpt>
      <trkpt lat="44.94206" lon="5.06726">
        <ele>246.666889</ele>
        <time>2022-03-12T08:32:55.326Z</time>
      </trkpt>
      <trkpt lat="44.94199" lon="5.06735">
        <ele>246.856483</ele>
        <time>2022-03-12T08:32:57.326Z</time>
      </trkpt>
      <trkpt lat="44.94189" lon="5.06745">
        <ele>247.125112</ele>
        <time>2022-03-12T08:33:00.328Z</time>
      </trkpt>
      <trkpt lat="44.94178" lon="5.06756">
        <ele>247.393745</ele>
        <time>2022-03-12T08:33:03.330Z</time>
      </trkpt>
      <trkpt lat="44.94168" lon="5.06766">
        <ele>247.652314</ele>
        <time>2022-03-12T08:33:06.327Z</time>
      </trkpt>
      <trkpt lat="44.94159" lon="5.06778">
        <ele>247.911768</ele>
        <time>2022-03-12T08:33:09.329Z</time>
      </trkpt>
      <trkpt lat="44.94149" lon="5.06789">
        <ele>248.180167</ele>
        <time>2022-03-12T08:33:12.328Z</time>
      </trkpt>
      <trkpt lat="44.9414" lon="5.068">
        <ele>248.421262</ele>
        <time>2022-03-12T08:33:15.338Z</time>
      </trkpt>
      <trkpt lat="44.94132" lon="5.0681">
        <ele>248.645174</ele>
        <time>2022-03-12T08:33:18.332Z</time>
      </trkpt>
      <trkpt lat="44.94122" lon="5.06813">
        <ele>248.854704</ele>
        <time>2022-03-12T08:33:21.324Z</time>
      </trkpt>
      <trkpt lat="44.94112" lon="5.06811">
        <ele>249.066093</ele>
        <time>2022-03-12T08:33:24.335Z</time>
      </trkpt>
      <trkpt lat="44.94102" lon="5.06807">
        <ele>249.286608</ele>
        <time>2022-03-12T08:33:27.327Z</time>
      </trkpt>
      <trkpt lat="44.94091" lon="5.06804">
        <ele>249.513677</ele>
        <time>2022-03-12T08:33:30.323Z</time>
      </trkpt>
      <trkpt lat="44.94082" lon="5.068">
        <ele>249.714482</ele>
        <time>2022-03-12T08:33:33.329Z</time>
      </trkpt>
      <trkpt lat="44.94073" lon="5.06797">
        <ele>249.967806</ele>
        <time>2022-03-12T08:33:36.332Z</time>
      </trkpt>
      <trkpt lat="44.94064" lon="5.06793">
        <ele>250.232557</ele>
        <time>2022-03-12T08:33:39.325Z</time>
      </trkpt>
      <trkpt lat="44.94055" lon="5.0679">
        <ele>250.489899</ele>
        <time>2022-03-12T08:33:42.326Z</time>
      </trkpt>
      <trkpt lat="44.94045" lon="5.06786">
        <ele>250.759452</ele>
        <time>2022-03-12T08:33:45.327Z</time>
      </trkpt>
      <trkpt lat="44.94036" lon="5.06784">
        <ele>251.022815</ele>
        <time>2022-03-12T08:33:48.324Z</time>
      </trkpt>
      <trkpt lat="44.94026" lon="5.06784">
        <ele>251.295065</ele>
        <time>2022-03-12T08:33:51.326Z</time>
      </trkpt>
      <trkpt lat="44.94016" lon="5.06787">
        <ele>251.578656</ele>
        <time>2022-03-12T08:33:54.324Z</time>
      </trkpt>
      <trkpt lat="44.94007" lon="5.0679">
        <ele>251.850425</ele>
        <time>2022-03-12T08:33:57.326Z</time>
      </trkpt>
      <trkpt lat="44.93997" lon="5.06794">
        <ele>252.136472</ele>
        <time>2022-03-12T08:34:00.329Z</time>
      </trkpt>
      <trkpt lat="44.93988" lon="5.06799">
        <ele>252.410858</ele>
        <time>2022-03-12T08:34:03.328Z</time>
      </trkpt>
      <trkpt lat="44.93978" lon="5.06804">
        <ele>252.698998</ele>
        <time>2022-03-12T08:34:06.332Z</time>
      </trkpt>
      <trkpt lat="44.93968" lon="5.06808">
        <ele>252.989765</ele>
        <time>2022-03-12T08:34:09.333Z</time>
      </trkpt>
      <trkpt lat="44.93957" lon="5.06813">
        <ele>253.295745</ele>
        <time>2022-03-12T08:34:12.329Z</time>
      </trkpt>
      <trkpt lat="44.93946" lon="5.06818">
        <ele>253.63528</ele>
        <time>2022-03-12T08:34:15.331Z</time>
      </trkpt>
      <trkpt lat="44.93934" lon="5.06822">
        <ele>253.969687</ele>
        <time>2022-03-12T08:34:18.332Z</time>
      </trkpt>
      <trkpt lat="44.93923" lon="5.06825">
        <ele>254.291055</ele>
        <time>2022-03-12T08:34:21.329Z</time>
      </trkpt>
      <trkpt lat="44.93911" lon="5.06828">
        <ele>254.611605</ele>
        <time>2022-03-12T08:34:24.334Z</time>
      </trkpt>
      <trkpt lat="44.93902" lon="5.06831">
        <ele>255.042259</ele>
        <time>2022-03-12T08:34:27.330Z</time>
      </trkpt>
      <trkpt lat="44.93892" lon="5.06834">
        <ele>255.568417</ele>
        <time>2022-03-12T08:34:30.323Z</time>
      </trkpt>
      <trkpt lat="44.93883" lon="5.06838">
        <ele>256.090239</ele>
        <time>2022-03-12T08:34:33.328Z</time>
      </trkpt>
      <trkpt lat="44.93873" lon="5.06842">
        <ele>256.686608</ele>
        <time>2022-03-12T08:34:37.351Z</time>
      </trkpt>
      <trkpt lat="44.93864" lon="5.06845">
        <ele>257.212725</ele>
        <time>2022-03-12T08:34:41.328Z</time>
      </trkpt>
      <trkpt lat="44.93853" lon="5.06848">
        <ele>257.818692</ele>
        <time>2022-03-12T08:34:45.325Z</time>
      </trkpt>
      <trkpt lat="44.93842" lon="5.06853">
        <ele>258.45257</ele>
        <time>2022-03-12T08:34:49.330Z</time>
      </trkpt>
      <trkpt lat="44.93832" lon="5.06857">
        <ele>259.044652</ele>
        <time>2022-03-12T08:34:53.322Z</time>
      </trkpt>
      <trkpt lat="44.93821" lon="5.06862">
        <ele>259.661246</ele>
        <time>2022-03-12T08:34:57.327Z</time>
      </trkpt>
      <trkpt lat="44.93812" lon="5.06865">
        <ele>260.186427</ele>
        <time>2022-03-12T08:35:00.332Z</time>
      </trkpt>
      <trkpt lat="44.93802" lon="5.06869">
        <ele>260.729635</ele>
        <time>2022-03-12T08:35:03.327Z</time>
      </trkpt>
      <trkpt lat="44.93793" lon="5.06872">
        <ele>261.268235</ele>
        <time>2022-03-12T08:35:06.330Z</time>
      </trkpt>
      <trkpt lat="44.93783" lon="5.06876">
        <ele>261.819002</ele>
        <time>2022-03-12T08:35:09.330Z</time>
      </trkpt>
      <trkpt lat="44.93774" lon="5.06879">
        <ele>262.346808</ele>
        <time>2022-03-12T08:35:12.322Z</time>
      </trkpt>
      <trkpt lat="44.93765" lon="5.06882">
        <ele>262.877353</ele>
        <time>2022-03-12T08:35:15.330Z</time>
      </trkpt>
      <trkpt lat="44.93755" lon="5.06886">
        <ele>263.422842</ele>
        <time>2022-03-12T08:35:18.326Z</time>
      </trkpt>
      <trkpt lat="44.93746" lon="5.06889">
        <ele>263.951534</ele>
        <time>2022-03-12T08:35:21.334Z</time>
      </trkpt>
      <trkpt lat="44.93737" lon="5.06892">
        <ele>264.469169</ele>
        <time>2022-03-12T08:35:24.329Z</time>
      </trkpt>
      <trkpt lat="44.93725" lon="5.06896">
        <ele>265.191881</ele>
        <time>2022-03-12T08:35:28.314Z</time>
      </trkpt>
      <trkpt lat="44.93714" lon="5.069">
        <ele>265.945284</ele>
        <time>2022-03-12T08:35:32.339Z</time>
      </trkpt>
      <trkpt lat="44.93703" lon="5.06904">
        <ele>266.64957</ele>
        <time>2022-03-12T08:35:36.320Z</time>
      </trkpt>
      <trkpt lat="44.93692" lon="5.06907">
        <ele>267.354606</ele>
        <time>2022-03-12T08:35:40.327Z</time>
      </trkpt>
      <trkpt lat="44.9368" lon="5.0691">
        <ele>268.100152</ele>
        <time>2022-03-12T08:35:44.319Z</time>
      </trkpt>
      <trkpt lat="44.93669" lon="5.06914">
        <ele>268.835192</ele>
        <time>2022-03-12T08:35:48.329Z</time>
      </trkpt>
      <trkpt lat="44.93658" lon="5.06915">
        <ele>269.551675</ele>
        <time>2022-03-12T08:35:52.328Z</time>
      </trkpt>
      <trkpt lat="44.93647" lon="5.06917">
        <ele>270.236355</ele>
        <time>2022-03-12T08:35:56.325Z</time>
      </trkpt>
      <trkpt lat="44.93636" lon="5.0692">
        <ele>270.923673</ele>
        <time>2022-03-12T08:36:00.329Z</time>
      </trkpt>
      <trkpt lat="44.93626" lon="5.06923">
        <ele>271.582976</ele>
        <time>2022-03-12T08:36:04.330Z</time>
      </trkpt>
      <trkpt lat="44.93617" lon="5.06927">
        <ele>272.146869</ele>
        <time>2022-03-12T08:36:08.322Z</time>
      </trkpt>
      <trkpt lat="44.93607" lon="5.0693">
        <ele>272.789869</ele>
        <time>2022-03-12T08:36:13.322Z</time>
      </trkpt>
      <trkpt lat="44.93598" lon="5.06934">
        <ele>273.420492</ele>
        <time>2022-03-12T08:36:21.328Z</time>
      </trkpt>
      <trkpt lat="44.93588" lon="5.06942">
        <ele>274.145004</ele>
        <time>2022-03-12T08:36:29.341Z</time>
      </trkpt>
      <trkpt lat="44.93578" lon="5.06946">
        <ele>274.765898</ele>
        <time>2022-03-12T08:36:33.332Z</time>
      </trkpt>
      <trkpt lat="44.93567" lon="5.06949">
        <ele>275.466091</ele>
        <time>2022-03-12T08:36:37.327Z</time>
      </trkpt>
      <trkpt lat="44.93556" lon="5.06953">
        <ele>276.14724</ele>
        <time>2022-03-12T08:36:41.318Z</time>
      </trkpt>
      <trkpt lat="44.93547" lon="5.06954">
        <ele>276.613907</ele>
        <time>2022-03-12T08:36:44.324Z</time>
      </trkpt>
      <trkpt lat="44.93538" lon="5.06956">
        <ele>277.083058</ele>
        <time>2022-03-12T08:36:47.323Z</time>
      </trkpt>
      <trkpt lat="44.93526" lon="5.06958">
        <ele>277.700167</ele>
        <time>2022-03-12T08:36:51.324Z</time>
      </trkpt>
      <trkpt lat="44.93515" lon="5.0696">
        <ele>278.301507</ele>
        <time>2022-03-12T08:36:55.328Z</time>
      </trkpt>
      <trkpt lat="44.93503" lon="5.06963">
        <ele>278.896148</ele>
        <time>2022-03-12T08:36:59.325Z</time>
      </trkpt>
      <trkpt lat="44.93492" lon="5.06965">
        <ele>279.494764</ele>
        <time>2022-03-12T08:37:03.345Z</time>
      </trkpt>
      <trkpt lat="44.93481" lon="5.06966">
        <ele>280.078034</ele>
        <time>2022-03-12T08:37:07.326Z</time>
      </trkpt>
      <trkpt lat="44.9347" lon="5.06968">
        <ele>280.647109</ele>
        <time>2022-03-12T08:37:11.330Z</time>
      </trkpt>
      <trkpt lat="44.93459" lon="5.0697">
        <ele>281.209004</ele>
        <time>2022-03-12T08:37:15.321Z</time>
      </trkpt>
      <trkpt lat="44.93447" lon="5.06972">
        <ele>281.806599</ele>
        <time>2022-03-12T08:37:19.324Z</time>
      </trkpt>
      <trkpt lat="44.93438" lon="5.06974">
        <ele>282.282714</ele>
        <time>2022-03-12T08:37:22.328Z</time>
      </trkpt>
      <trkpt lat="44.93429" lon="5.06975">
        <ele>282.748226</ele>
        <time>2022-03-12T08:37:25.322Z</time>
      </trkpt>
      <trkpt lat="44.9342" lon="5.06976">
        <ele>283.225554</ele>
        <time>2022-03-12T08:37:28.325Z</time>
      </trkpt>
      <trkpt lat="44.93408" lon="5.06979">
        <ele>283.832175</ele>
        <time>2022-03-12T08:37:32.327Z</time>
      </trkpt>
      <trkpt lat="44.93397" lon="5.06982">
        <ele>284.445169</ele>
        <time>2022-03-12T08:37:36.331Z</time>
      </trkpt>
      <trkpt lat="44.93385" lon="5.06987">
        <ele>285.053859</ele>
        <time>2022-03-12T08:37:40.323Z</time>
      </trkpt>
      <trkpt lat="44.93376" lon="5.06991">
        <ele>285.49757</ele>
        <time>2022-03-12T08:37:43.333Z</time>
      </trkpt>
      <trkpt lat="44.93367" lon="5.06995">
        <ele>285.91067</ele>
        <time>2022-03-12T08:37:46.329Z</time>
      </trkpt>
      <trkpt lat="44.93359" lon="5.06999">
        <ele>286.315779</ele>
        <time>2022-03-12T08:37:49.327Z</time>
      </trkpt>
      <trkpt lat="44.93347" lon="5.07004">
        <ele>286.832886</ele>
        <time>2022-03-12T08:37:53.333Z</time>
      </trkpt>
      <trkpt lat="44.93336" lon="5.07008">
        <ele>287.332939</ele>
        <time>2022-03-12T08:37:57.324Z</time>
      </trkpt>
      <trkpt lat="44.93325" lon="5.07012">
        <ele>287.838834</ele>
        <time>2022-03-12T08:38:01.323Z</time>
      </trkpt>
      <trkpt lat="44.93316" lon="5.07015">
        <ele>288.255953</ele>
        <time>2022-03-12T08:38:04.329Z</time>
      </trkpt>
      <trkpt lat="44.93305" lon="5.07019">
        <ele>288.764537</ele>
        <time>2022-03-12T08:38:08.319Z</time>
      </trkpt>
      <trkpt lat="44.93294" lon="5.07024">
        <ele>289.265861</ele>
        <time>2022-03-12T08:38:12.324Z</time>
      </trkpt>
      <trkpt lat="44.93283" lon="5.07031">
        <ele>289.77501</ele>
        <time>2022-03-12T08:38:16.314Z</time>
      </trkpt>
      <trkpt lat="44.93274" lon="5.07039">
        <ele>290.254377</ele>
        <time>2022-03-12T08:38:20.321Z</time>
      </trkpt>
      <trkpt lat="44.93265" lon="5.0705">
        <ele>290.784488</ele>
        <time>2022-03-12T08:38:24.324Z</time>
      </trkpt>
      <trkpt lat="44.93258" lon="5.07059">
        <ele>291.225902</ele>
        <time>2022-03-12T08:38:27.327Z</time>
      </trkpt>
      <trkpt lat="44.9325" lon="5.07069">
        <ele>291.671477</ele>
        <time>2022-03-12T08:38:30.327Z</time>
      </trkpt>
      <trkpt lat="44.93243" lon="5.07078">
        <ele>292.081718</ele>
        <time>2022-03-12T08:38:33.324Z</time>
      </trkpt>
      <trkpt lat="44.93235" lon="5.07089">
        <ele>292.577424</ele>
        <time>2022-03-12T08:38:37.314Z</time>
      </trkpt>
      <trkpt lat="44.93227" lon="5.07099">
        <ele>293.037908</ele>
        <time>2022-03-12T08:38:40.339Z</time>
      </trkpt>
      <trkpt lat="44.93219" lon="5.07109">
        <ele>293.47912</ele>
        <time>2022-03-12T08:38:43.332Z</time>
      </trkpt>
      <trkpt lat="44.93211" lon="5.0712">
        <ele>293.902628</ele>
        <time>2022-03-12T08:38:46.314Z</time>
      </trkpt>
      <trkpt lat="44.93204" lon="5.07131">
        <ele>294.305141</ele>
        <time>2022-03-12T08:38:49.331Z</time>
      </trkpt>
      <trkpt lat="44.93191" lon="5.0715">
        <ele>295.0145</ele>
        <time>2022-03-12T08:42:11.321Z</time>
      </trkpt>
      <trkpt lat="44.93186" lon="5.07161">
        <ele>295.389873</ele>
        <time>2022-03-12T08:42:15.325Z</time>
      </trkpt>
      <trkpt lat="44.93179" lon="5.07172">
        <ele>295.777348</ele>
        <time>2022-03-12T08:42:19.325Z</time>
      </trkpt>
      <trkpt lat="44.93173" lon="5.07183">
        <ele>296.159573</ele>
        <time>2022-03-12T08:42:23.337Z</time>
      </trkpt>
      <trkpt lat="44.93168" lon="5.07194">
        <ele>296.539408</ele>
        <time>2022-03-12T08:42:27.333Z</time>
      </trkpt>
      <trkpt lat="44.93161" lon="5.07207">
        <ele>296.948103</ele>
        <time>2022-03-12T08:42:31.321Z</time>
      </trkpt>
      <trkpt lat="44.93154" lon="5.07216">
        <ele>297.338216</ele>
        <time>2022-03-12T08:42:35.321Z</time>
      </trkpt>
      <trkpt lat="44.93146" lon="5.07227">
        <ele>297.753429</ele>
        <time>2022-03-12T08:42:40.331Z</time>
      </trkpt>
      <trkpt lat="44.93142" lon="5.07241">
        <ele>298.171864</ele>
        <time>2022-03-12T08:42:44.319Z</time>
      </trkpt>
      <trkpt lat="44.93137" lon="5.07254">
        <ele>298.587211</ele>
        <time>2022-03-12T08:42:48.321Z</time>
      </trkpt>
      <trkpt lat="44.93131" lon="5.07266">
        <ele>298.96925</ele>
        <time>2022-03-12T08:42:52.325Z</time>
      </trkpt>
      <trkpt lat="44.93126" lon="5.07279">
        <ele>299.374406</ele>
        <time>2022-03-12T08:42:56.333Z</time>
      </trkpt>
      <trkpt lat="44.9312" lon="5.0729">
        <ele>299.763109</ele>
        <time>2022-03-12T08:43:00.332Z</time>
      </trkpt>
      <trkpt lat="44.93114" lon="5.07302">
        <ele>300.160415</ele>
        <time>2022-03-12T08:43:04.330Z</time>
      </trkpt>
      <trkpt lat="44.93108" lon="5.07316">
        <ele>300.613219</ele>
        <time>2022-03-12T08:43:08.336Z</time>
      </trkpt>
      <trkpt lat="44.93102" lon="5.07329">
        <ele>301.052077</ele>
        <time>2022-03-12T08:43:12.326Z</time>
      </trkpt>
      <trkpt lat="44.93095" lon="5.07341">
        <ele>301.483881</ele>
        <time>2022-03-12T08:43:16.326Z</time>
      </trkpt>
      <trkpt lat="44.93089" lon="5.07354">
        <ele>301.915853</ele>
        <time>2022-03-12T08:43:20.331Z</time>
      </trkpt>
      <trkpt lat="44.93082" lon="5.07367">
        <ele>302.370977</ele>
        <time>2022-03-12T08:43:24.332Z</time>
      </trkpt>
      <trkpt lat="44.93075" lon="5.0738">
        <ele>302.841844</ele>
        <time>2022-03-12T08:43:28.332Z</time>
      </trkpt>
      <trkpt lat="44.9307" lon="5.07391">
        <ele>303.227787</ele>
        <time>2022-03-12T08:43:31.331Z</time>
      </trkpt>
      <trkpt lat="44.93064" lon="5.07403">
        <ele>303.634415</ele>
        <time>2022-03-12T08:43:34.333Z</time>
      </trkpt>
      <trkpt lat="44.93059" lon="5.07416">
        <ele>304.028339</ele>
        <time>2022-03-12T08:43:37.327Z</time>
      </trkpt>
      <trkpt lat="44.93055" lon="5.07427">
        <ele>304.391231</ele>
        <time>2022-03-12T08:43:40.327Z</time>
      </trkpt>
      <trkpt lat="44.9305" lon="5.07438">
        <ele>304.75802</ele>
        <time>2022-03-12T08:43:43.324Z</time>
      </trkpt>
      <trkpt lat="44.93046" lon="5.0745">
        <ele>305.130814</ele>
        <time>2022-03-12T08:43:46.323Z</time>
      </trkpt>
      <trkpt lat="44.93041" lon="5.07462">
        <ele>305.512928</ele>
        <time>2022-03-12T08:43:49.321Z</time>
      </trkpt>
      <trkpt lat="44.93037" lon="5.07477">
        <ele>305.960037</ele>
        <time>2022-03-12T08:43:53.321Z</time>
      </trkpt>
      <trkpt lat="44.93032" lon="5.07492">
        <ele>306.442687</ele>
        <time>2022-03-12T08:43:57.325Z</time>
      </trkpt>
      <trkpt lat="44.93026" lon="5.07503">
        <ele>306.821928</ele>
        <time>2022-03-12T08:44:00.322Z</time>
      </trkpt>
      <trkpt lat="44.93021" lon="5.07515">
        <ele>307.214687</ele>
        <time>2022-03-12T08:44:03.328Z</time>
      </trkpt>
      <trkpt lat="44.93015" lon="5.07526">
        <ele>307.388922</ele>
        <time>2022-03-12T08:44:06.320Z</time>
      </trkpt>
      <trkpt lat="44.93008" lon="5.07536">
        <ele>307.535117</ele>
        <time>2022-03-12T08:44:09.326Z</time>
      </trkpt>
      <trkpt lat="44.93002" lon="5.07546">
        <ele>307.685331</ele>
        <time>2022-03-12T08:44:12.319Z</time>
      </trkpt>
      <trkpt lat="44.92993" lon="5.07558">
        <ele>307.868941</ele>
        <time>2022-03-12T08:44:16.331Z</time>
      </trkpt>
      <trkpt lat="44.92986" lon="5.07567">
        <ele>308.023852</ele>
        <time>2022-03-12T08:44:19.322Z</time>
      </trkpt>
      <trkpt lat="44.92978" lon="5.07576">
        <ele>308.178936</ele>
        <time>2022-03-12T08:44:22.327Z</time>
      </trkpt>
      <trkpt lat="44.9297" lon="5.07584">
        <ele>308.332235</ele>
        <time>2022-03-12T08:44:25.328Z</time>
      </trkpt>
      <trkpt lat="44.92961" lon="5.07591">
        <ele>308.479517</ele>
        <time>2022-03-12T08:44:28.332Z</time>
      </trkpt>
      <trkpt lat="44.92952" lon="5.076">
        <ele>308.664159</ele>
        <time>2022-03-12T08:44:32.321Z</time>
      </trkpt>
      <trkpt lat="44.92944" lon="5.0761">
        <ele>308.822813</ele>
        <time>2022-03-12T08:44:35.339Z</time>
      </trkpt>
      <trkpt lat="44.92937" lon="5.0762">
        <ele>308.975466</ele>
        <time>2022-03-12T08:44:38.323Z</time>
      </trkpt>
      <trkpt lat="44.9293" lon="5.07631">
        <ele>309.130471</ele>
        <time>2022-03-12T08:44:41.329Z</time>
      </trkpt>
      <trkpt lat="44.92924" lon="5.07642">
        <ele>309.279072</ele>
        <time>2022-03-12T08:44:44.331Z</time>
      </trkpt>
      <trkpt lat="44.92919" lon="5.07652">
        <ele>309.42406</ele>
        <time>2022-03-12T08:44:47.322Z</time>
      </trkpt>
      <trkpt lat="44.92913" lon="5.07662">
        <ele>309.563645</ele>
        <time>2022-03-12T08:44:50.323Z</time>
      </trkpt>
      <trkpt lat="44.92907" lon="5.07673">
        <ele>309.711831</ele>
        <time>2022-03-12T08:44:53.328Z</time>
      </trkpt>
      <trkpt lat="44.92901" lon="5.07683">
        <ele>309.859017</ele>
        <time>2022-03-12T08:44:56.326Z</time>
      </trkpt>
      <trkpt lat="44.92895" lon="5.07695">
        <ele>310.015918</ele>
        <time>2022-03-12T08:44:59.333Z</time>
      </trkpt>
      <trkpt lat="44.9289" lon="5.07708">
        <ele>310.283661</ele>
        <time>2022-03-12T08:45:02.319Z</time>
      </trkpt>
      <trkpt lat="44.92884" lon="5.07719">
        <ele>310.547207</ele>
        <time>2022-03-12T08:45:05.320Z</time>
      </trkpt>
      <trkpt lat="44.92878" lon="5.07731">
        <ele>310.819885</ele>
        <time>2022-03-12T08:45:08.323Z</time>
      </trkpt>
      <trkpt lat="44.92871" lon="5.07743">
        <ele>311.113473</ele>
        <time>2022-03-12T08:45:11.324Z</time>
      </trkpt>
      <trkpt lat="44.92864" lon="5.07754">
        <ele>311.390702</ele>
        <time>2022-03-12T08:45:14.321Z</time>
      </trkpt>
      <trkpt lat="44.92856" lon="5.07765">
        <ele>311.66748</ele>
        <time>2022-03-12T08:45:17.329Z</time>
      </trkpt>
      <trkpt lat="44.92848" lon="5.07774">
        <ele>311.943114</ele>
        <time>2022-03-12T08:45:20.328Z</time>
      </trkpt>
      <trkpt lat="44.92839" lon="5.07782">
        <ele>312.220461</ele>
        <time>2022-03-12T08:45:23.323Z</time>
      </trkpt>
      <trkpt lat="44.9283" lon="5.07791">
        <ele>312.497726</ele>
        <time>2022-03-12T08:45:26.324Z</time>
      </trkpt>
      <trkpt lat="44.92822" lon="5.078">
        <ele>312.771984</ele>
        <time>2022-03-12T08:45:29.323Z</time>
      </trkpt>
      <trkpt lat="44.92814" lon="5.07808">
        <ele>313.039701</ele>
        <time>2022-03-12T08:45:32.332Z</time>
      </trkpt>
      <trkpt lat="44.92805" lon="5.07815">
        <ele>313.29759</ele>
        <time>2022-03-12T08:45:35.332Z</time>
      </trkpt>
      <trkpt lat="44.92796" lon="5.07822">
        <ele>313.560021</ele>
        <time>2022-03-12T08:45:38.333Z</time>
      </trkpt>
      <trkpt lat="44.92788" lon="5.07828">
        <ele>313.80908</ele>
        <time>2022-03-12T08:45:41.324Z</time>
      </trkpt>
      <trkpt lat="44.92779" lon="5.07837">
        <ele>314.098109</ele>
        <time>2022-03-12T08:45:45.321Z</time>
      </trkpt>
      <trkpt lat="44.92774" lon="5.07852">
        <ele>314.414186</ele>
        <time>2022-03-12T08:45:49.335Z</time>
      </trkpt>
      <trkpt lat="44.9277" lon="5.07864">
        <ele>314.66211</ele>
        <time>2022-03-12T08:45:52.324Z</time>
      </trkpt>
      <trkpt lat="44.92765" lon="5.07876">
        <ele>314.871856</ele>
        <time>2022-03-12T08:45:55.324Z</time>
      </trkpt>
      <trkpt lat="44.92761" lon="5.07888">
        <ele>315.078221</ele>
        <time>2022-03-12T08:45:58.326Z</time>
      </trkpt>
      <trkpt lat="44.92757" lon="5.07901">
        <ele>315.292537</ele>
        <time>2022-03-12T08:46:01.320Z</time>
      </trkpt>
      <trkpt lat="44.92753" lon="5.07915">
        <ele>315.523163</ele>
        <time>2022-03-12T08:46:04.338Z</time>
      </trkpt>
      <trkpt lat="44.92748" lon="5.07929">
        <ele>315.752411</ele>
        <time>2022-03-12T08:46:07.322Z</time>
      </trkpt>
      <trkpt lat="44.92744" lon="5.07943">
        <ele>315.985798</ele>
        <time>2022-03-12T08:46:10.323Z</time>
      </trkpt>
      <trkpt lat="44.9274" lon="5.07957">
        <ele>316.221631</ele>
        <time>2022-03-12T08:46:13.322Z</time>
      </trkpt>
      <trkpt lat="44.92735" lon="5.07971">
        <ele>316.457786</ele>
        <time>2022-03-12T08:46:16.325Z</time>
      </trkpt>
      <trkpt lat="44.92731" lon="5.07985">
        <ele>316.68162</ele>
        <time>2022-03-12T08:46:19.321Z</time>
      </trkpt>
      <trkpt lat="44.92727" lon="5.07999">
        <ele>316.911595</ele>
        <time>2022-03-12T08:46:22.320Z</time>
      </trkpt>
      <trkpt lat="44.92722" lon="5.08013">
        <ele>317.149615</ele>
        <time>2022-03-12T08:46:25.328Z</time>
      </trkpt>
      <trkpt lat="44.92718" lon="5.08028">
        <ele>317.394467</ele>
        <time>2022-03-12T08:46:28.335Z</time>
      </trkpt>
      <trkpt lat="44.92713" lon="5.08042">
        <ele>317.63654</ele>
        <time>2022-03-12T08:46:31.332Z</time>
      </trkpt>
      <trkpt lat="44.92708" lon="5.08057">
        <ele>317.877728</ele>
        <time>2022-03-12T08:46:34.332Z</time>
      </trkpt>
      <trkpt lat="44.92704" lon="5.08072">
        <ele>318.127816</ele>
        <time>2022-03-12T08:46:37.327Z</time>
      </trkpt>
      <trkpt lat="44.92699" lon="5.08087">
        <ele>318.375681</ele>
        <time>2022-03-12T08:46:40.334Z</time>
      </trkpt>
      <trkpt lat="44.92695" lon="5.08102">
        <ele>318.634999</ele>
        <time>2022-03-12T08:46:43.327Z</time>
      </trkpt>
      <trkpt lat="44.92691" lon="5.08116">
        <ele>319.062005</ele>
        <time>2022-03-12T08:46:46.324Z</time>
      </trkpt>
      <trkpt lat="44.92686" lon="5.0813">
        <ele>319.490521</ele>
        <time>2022-03-12T08:46:49.326Z</time>
      </trkpt>
      <trkpt lat="44.92682" lon="5.08144">
        <ele>319.922105</ele>
        <time>2022-03-12T08:46:52.322Z</time>
      </trkpt>
      <trkpt lat="44.92678" lon="5.08158">
        <ele>320.324889</ele>
        <time>2022-03-12T08:46:55.330Z</time>
      </trkpt>
      <trkpt lat="44.92673" lon="5.08171">
        <ele>320.71854</ele>
        <time>2022-03-12T08:46:58.326Z</time>
      </trkpt>
      <trkpt lat="44.92669" lon="5.08183">
        <ele>321.088916</ele>
        <time>2022-03-12T08:47:01.330Z</time>
      </trkpt>
      <trkpt lat="44.92666" lon="5.08195">
        <ele>321.448996</ele>
        <time>2022-03-12T08:47:04.324Z</time>
      </trkpt>
      <trkpt lat="44.92661" lon="5.08209">
        <ele>321.898536</ele>
        <time>2022-03-12T08:47:08.328Z</time>
      </trkpt>
      <trkpt lat="44.92656" lon="5.08225">
        <ele>322.349459</ele>
        <time>2022-03-12T08:47:12.319Z</time>
      </trkpt>
      <trkpt lat="44.92651" lon="5.08239">
        <ele>322.808129</ele>
        <time>2022-03-12T08:47:16.330Z</time>
      </trkpt>
      <trkpt lat="44.92647" lon="5.08251">
        <ele>323.159566</ele>
        <time>2022-03-12T08:47:19.323Z</time>
      </trkpt>
      <trkpt lat="44.92644" lon="5.08263">
        <ele>323.515089</ele>
        <time>2022-03-12T08:47:22.327Z</time>
      </trkpt>
      <trkpt lat="44.9264" lon="5.08275">
        <ele>323.870076</ele>
        <time>2022-03-12T08:47:25.330Z</time>
      </trkpt>
      <trkpt lat="44.92635" lon="5.0829">
        <ele>324.321959</ele>
        <time>2022-03-12T08:47:29.321Z</time>
      </trkpt>
      <trkpt lat="44.92631" lon="5.08303">
        <ele>324.708987</ele>
        <time>2022-03-12T08:47:32.330Z</time>
      </trkpt>
      <trkpt lat="44.92627" lon="5.08315">
        <ele>325.08617</ele>
        <time>2022-03-12T08:47:35.321Z</time>
      </trkpt>
      <trkpt lat="44.92623" lon="5.08327">
        <ele>325.460691</ele>
        <time>2022-03-12T08:47:38.334Z</time>
      </trkpt>
      <trkpt lat="44.92619" lon="5.08339">
        <ele>325.834866</ele>
        <time>2022-03-12T08:47:41.332Z</time>
      </trkpt>
      <trkpt lat="44.92615" lon="5.08351">
        <ele>326.233589</ele>
        <time>2022-03-12T08:47:44.329Z</time>
      </trkpt>
      <trkpt lat="44.92611" lon="5.08364">
        <ele>326.627988</ele>
        <time>2022-03-12T08:47:47.328Z</time>
      </trkpt>
      <trkpt lat="44.92607" lon="5.08376">
        <ele>327.033643</ele>
        <time>2022-03-12T08:47:50.336Z</time>
      </trkpt>
      <trkpt lat="44.92602" lon="5.08389">
        <ele>327.462318</ele>
        <time>2022-03-12T08:47:53.333Z</time>
      </trkpt>
      <trkpt lat="44.92598" lon="5.08402">
        <ele>327.876066</ele>
        <time>2022-03-12T08:47:56.322Z</time>
      </trkpt>
      <trkpt lat="44.92594" lon="5.08415">
        <ele>328.286598</ele>
        <time>2022-03-12T08:47:59.312Z</time>
      </trkpt>
      <trkpt lat="44.9259" lon="5.08428">
        <ele>328.697151</ele>
        <time>2022-03-12T08:48:02.329Z</time>
      </trkpt>
      <trkpt lat="44.92585" lon="5.0844">
        <ele>329.090506</ele>
        <time>2022-03-12T08:48:05.326Z</time>
      </trkpt>
      <trkpt lat="44.92582" lon="5.08453">
        <ele>329.48815</ele>
        <time>2022-03-12T08:48:08.324Z</time>
      </trkpt>
      <trkpt lat="44.92578" lon="5.08469">
        <ele>329.983738</ele>
        <time>2022-03-12T08:48:12.325Z</time>
      </trkpt>
      <trkpt lat="44.92574" lon="5.08481">
        <ele>330.370682</ele>
        <time>2022-03-12T08:48:15.327Z</time>
      </trkpt>
      <trkpt lat="44.92571" lon="5.08493">
        <ele>330.761882</ele>
        <time>2022-03-12T08:48:18.326Z</time>
      </trkpt>
      <trkpt lat="44.92568" lon="5.08506">
        <ele>331.152617</ele>
        <time>2022-03-12T08:48:21.328Z</time>
      </trkpt>
      <trkpt lat="44.92564" lon="5.08519">
        <ele>331.559881</ele>
        <time>2022-03-12T08:48:24.324Z</time>
      </trkpt>
      <trkpt lat="44.9256" lon="5.08531">
        <ele>331.947035</ele>
        <time>2022-03-12T08:48:27.329Z</time>
      </trkpt>
      <trkpt lat="44.92557" lon="5.08544">
        <ele>332.350153</ele>
        <time>2022-03-12T08:48:30.330Z</time>
      </trkpt>
      <trkpt lat="44.92554" lon="5.08557">
        <ele>332.750677</ele>
        <time>2022-03-12T08:48:33.327Z</time>
      </trkpt>
      <trkpt lat="44.92551" lon="5.0857">
        <ele>333.18854</ele>
        <time>2022-03-12T08:48:36.327Z</time>
      </trkpt>
      <trkpt lat="44.92547" lon="5.08582">
        <ele>333.705154</ele>
        <time>2022-03-12T08:48:39.327Z</time>
      </trkpt>
      <trkpt lat="44.92543" lon="5.08598">
        <ele>334.358637</ele>
        <time>2022-03-12T08:48:43.319Z</time>
      </trkpt>
      <trkpt lat="44.9254" lon="5.08613">
        <ele>335.01054</ele>
        <time>2022-03-12T08:48:47.322Z</time>
      </trkpt>
      <trkpt lat="44.92536" lon="5.08629">
        <ele>335.652917</ele>
        <time>2022-03-12T08:48:51.336Z</time>
      </trkpt>
      <trkpt lat="44.92533" lon="5.08643">
        <ele>336.254858</ele>
        <time>2022-03-12T08:48:55.330Z</time>
      </trkpt>
      <trkpt lat="44.9253" lon="5.0866">
        <ele>336.914304</ele>
        <time>2022-03-12T08:48:59.325Z</time>
      </trkpt>
      <trkpt lat="44.92529" lon="5.08672">
        <ele>337.413214</ele>
        <time>2022-03-12T08:49:02.327Z</time>
      </trkpt>
      <trkpt lat="44.92528" lon="5.08686">
        <ele>337.943706</ele>
        <time>2022-03-12T08:49:05.319Z</time>
      </trkpt>
      <trkpt lat="44.92527" lon="5.08699">
        <ele>338.4573</ele>
        <time>2022-03-12T08:49:08.330Z</time>
      </trkpt>
      <trkpt lat="44.92525" lon="5.08712">
        <ele>338.978502</ele>
        <time>2022-03-12T08:49:11.323Z</time>
      </trkpt>
      <trkpt lat="44.92524" lon="5.08725">
        <ele>339.481731</ele>
        <time>2022-03-12T08:49:14.322Z</time>
      </trkpt>
      <trkpt lat="44.92523" lon="5.08737">
        <ele>339.986421</ele>
        <time>2022-03-12T08:49:17.322Z</time>
      </trkpt>
      <trkpt lat="44.92522" lon="5.08753">
        <ele>340.614449</ele>
        <time>2022-03-12T08:49:21.324Z</time>
      </trkpt>
      <trkpt lat="44.92521" lon="5.08769">
        <ele>341.249223</ele>
        <time>2022-03-12T08:49:25.341Z</time>
      </trkpt>
      <trkpt lat="44.92519" lon="5.08786">
        <ele>341.898704</ele>
        <time>2022-03-12T08:49:29.322Z</time>
      </trkpt>
      <trkpt lat="44.92518" lon="5.08802">
        <ele>342.530079</ele>
        <time>2022-03-12T08:49:33.322Z</time>
      </trkpt>
      <trkpt lat="44.92517" lon="5.08817">
        <ele>343.108625</ele>
        <time>2022-03-12T08:49:37.322Z</time>
      </trkpt>
      <trkpt lat="44.92515" lon="5.08833">
        <ele>343.589715</ele>
        <time>2022-03-12T08:49:41.323Z</time>
      </trkpt>
      <trkpt lat="44.92514" lon="5.08848">
        <ele>344.042383</ele>
        <time>2022-03-12T08:49:45.329Z</time>
      </trkpt>
      <trkpt lat="44.92513" lon="5.08864">
        <ele>344.512421</ele>
        <time>2022-03-12T08:49:49.327Z</time>
      </trkpt>
      <trkpt lat="44.92511" lon="5.0888">
        <ele>344.999963</ele>
        <time>2022-03-12T08:49:53.323Z</time>
      </trkpt>
      <trkpt lat="44.9251" lon="5.08897">
        <ele>345.494142</ele>
        <time>2022-03-12T08:49:57.330Z</time>
      </trkpt>
      <trkpt lat="44.9251" lon="5.08912">
        <ele>345.945452</ele>
        <time>2022-03-12T08:50:01.334Z</time>
      </trkpt>
      <trkpt lat="44.92509" lon="5.08925">
        <ele>346.33667</ele>
        <time>2022-03-12T08:50:04.326Z</time>
      </trkpt>
      <trkpt lat="44.92507" lon="5.08941">
        <ele>346.83309</ele>
        <time>2022-03-12T08:50:08.334Z</time>
      </trkpt>
      <trkpt lat="44.92506" lon="5.08957">
        <ele>347.313682</ele>
        <time>2022-03-12T08:50:12.307Z</time>
      </trkpt>
      <trkpt lat="44.92504" lon="5.08973">
        <ele>347.79235</ele>
        <time>2022-03-12T08:50:16.319Z</time>
      </trkpt>
      <trkpt lat="44.92504" lon="5.08989">
        <ele>348.273254</ele>
        <time>2022-03-12T08:50:20.326Z</time>
      </trkpt>
      <trkpt lat="44.92502" lon="5.09005">
        <ele>348.749283</ele>
        <time>2022-03-12T08:50:24.326Z</time>
      </trkpt>
      <trkpt lat="44.92499" lon="5.09021">
        <ele>349.236816</ele>
        <time>2022-03-12T08:50:28.325Z</time>
      </trkpt>
      <trkpt lat="44.92494" lon="5.09032">
        <ele>349.618508</ele>
        <time>2022-03-12T08:50:31.317Z</time>
      </trkpt>
      <trkpt lat="44.92487" lon="5.09041">
        <ele>350.027663</ele>
        <time>2022-03-12T08:50:34.325Z</time>
      </trkpt>
      <trkpt lat="44.92479" lon="5.09049">
        <ele>350.432356</ele>
        <time>2022-03-12T08:50:37.322Z</time>
      </trkpt>
      <trkpt lat="44.9247" lon="5.09055">
        <ele>350.776062</ele>
        <time>2022-03-12T08:50:40.318Z</time>
      </trkpt>
      <trkpt lat="44.92462" lon="5.09061">
        <ele>351.074559</ele>
        <time>2022-03-12T08:50:43.319Z</time>
      </trkpt>
      <trkpt lat="44.92453" lon="5.09067">
        <ele>351.394984</ele>
        <time>2022-03-12T08:50:46.321Z</time>
      </trkpt>
      <trkpt lat="44.92443" lon="5.09074">
        <ele>351.72716</ele>
        <time>2022-03-12T08:50:49.323Z</time>
      </trkpt>
      <trkpt lat="44.92434" lon="5.09081">
        <ele>352.072396</ele>
        <time>2022-03-12T08:50:52.307Z</time>
      </trkpt>
      <trkpt lat="44.92424" lon="5.09089">
        <ele>352.416534</ele>
        <time>2022-03-12T08:50:55.328Z</time>
      </trkpt>
      <trkpt lat="44.92415" lon="5.09095">
        <ele>352.74181</ele>
        <time>2022-03-12T08:50:58.329Z</time>
      </trkpt>
      <trkpt lat="44.92407" lon="5.09103">
        <ele>353.055217</ele>
        <time>2022-03-12T08:51:01.325Z</time>
      </trkpt>
      <trkpt lat="44.92397" lon="5.0911">
        <ele>353.390569</ele>
        <time>2022-03-12T08:51:04.320Z</time>
      </trkpt>
      <trkpt lat="44.92388" lon="5.09118">
        <ele>353.749187</ele>
        <time>2022-03-12T08:51:07.325Z</time>
      </trkpt>
      <trkpt lat="44.92378" lon="5.09126">
        <ele>354.114822</ele>
        <time>2022-03-12T08:51:10.331Z</time>
      </trkpt>
      <trkpt lat="44.92368" lon="5.09134">
        <ele>354.472845</ele>
        <time>2022-03-12T08:51:13.320Z</time>
      </trkpt>
      <trkpt lat="44.92358" lon="5.09142">
        <ele>354.836494</ele>
        <time>2022-03-12T08:51:16.329Z</time>
      </trkpt>
      <trkpt lat="44.92348" lon="5.0915">
        <ele>355.180634</ele>
        <time>2022-03-12T08:51:19.321Z</time>
      </trkpt>
      <trkpt lat="44.92339" lon="5.09158">
        <ele>355.519933</ele>
        <time>2022-03-12T08:51:22.332Z</time>
      </trkpt>
      <trkpt lat="44.9233" lon="5.09165">
        <ele>355.853608</ele>
        <time>2022-03-12T08:51:25.325Z</time>
      </trkpt>
      <trkpt lat="44.9232" lon="5.09172">
        <ele>356.197748</ele>
        <time>2022-03-12T08:51:28.322Z</time>
      </trkpt>
      <trkpt lat="44.92311" lon="5.0918">
        <ele>356.12453</ele>
        <time>2022-03-12T08:51:31.321Z</time>
      </trkpt>
      <trkpt lat="44.92301" lon="5.09186">
        <ele>355.978039</ele>
        <time>2022-03-12T08:51:34.322Z</time>
      </trkpt>
      <trkpt lat="44.92292" lon="5.09193">
        <ele>355.832806</ele>
        <time>2022-03-12T08:51:37.320Z</time>
      </trkpt>
      <trkpt lat="44.92283" lon="5.09201">
        <ele>355.683462</ele>
        <time>2022-03-12T08:51:40.323Z</time>
      </trkpt>
      <trkpt lat="44.92274" lon="5.09208">
        <ele>355.547895</ele>
        <time>2022-03-12T08:51:43.327Z</time>
      </trkpt>
      <trkpt lat="44.92266" lon="5.09215">
        <ele>355.413546</ele>
        <time>2022-03-12T08:51:46.336Z</time>
      </trkpt>
      <trkpt lat="44.92259" lon="5.09224">
        <ele>355.278018</ele>
        <time>2022-03-12T08:51:49.319Z</time>
      </trkpt>
      <trkpt lat="44.92251" lon="5.09231">
        <ele>355.152091</ele>
        <time>2022-03-12T08:51:52.317Z</time>
      </trkpt>
      <trkpt lat="44.92244" lon="5.0924">
        <ele>355.023981</ele>
        <time>2022-03-12T08:51:55.329Z</time>
      </trkpt>
      <trkpt lat="44.92237" lon="5.09251">
        <ele>354.875059</ele>
        <time>2022-03-12T08:51:58.322Z</time>
      </trkpt>
      <trkpt lat="44.92229" lon="5.09263">
        <ele>354.709058</ele>
        <time>2022-03-12T08:52:01.326Z</time>
      </trkpt>
      <trkpt lat="44.9222" lon="5.09275">
        <ele>354.534573</ele>
        <time>2022-03-12T08:52:04.319Z</time>
      </trkpt>
      <trkpt lat="44.9221" lon="5.09288">
        <ele>354.349001</ele>
        <time>2022-03-12T08:52:07.314Z</time>
      </trkpt>
      <trkpt lat="44.92202" lon="5.09298">
        <ele>354.209192</ele>
        <time>2022-03-12T08:52:09.326Z</time>
      </trkpt>
      <trkpt lat="44.92195" lon="5.09307">
        <ele>354.065613</ele>
        <time>2022-03-12T08:52:11.319Z</time>
      </trkpt>
      <trkpt lat="44.92185" lon="5.09319">
        <ele>353.89388</ele>
        <time>2022-03-12T08:52:13.321Z</time>
      </trkpt>
      <trkpt lat="44.9218" lon="5.09335">
        <ele>353.824446</ele>
        <time>2022-03-12T08:52:15.326Z</time>
      </trkpt>
      <trkpt lat="44.9218" lon="5.09354">
        <ele>354.177851</ele>
        <time>2022-03-12T08:52:17.317Z</time>
      </trkpt>
      <trkpt lat="44.92178" lon="5.09373">
        <ele>354.53888</ele>
        <time>2022-03-12T08:52:19.331Z</time>
      </trkpt>
      <trkpt lat="44.92171" lon="5.09388">
        <ele>354.886967</ele>
        <time>2022-03-12T08:52:21.322Z</time>
      </trkpt>
      <trkpt lat="44.9216" lon="5.09394">
        <ele>355.195121</ele>
        <time>2022-03-12T08:52:23.326Z</time>
      </trkpt>
      <trkpt lat="44.9215" lon="5.09391">
        <ele>355.444466</ele>
        <time>2022-03-12T08:52:25.324Z</time>
      </trkpt>
      <trkpt lat="44.92141" lon="5.09385">
        <ele>355.72246</ele>
        <time>2022-03-12T08:52:28.324Z</time>
      </trkpt>
      <trkpt lat="44.92132" lon="5.09378">
        <ele>355.988796</ele>
        <time>2022-03-12T08:52:32.320Z</time>
      </trkpt>
      <trkpt lat="44.92123" lon="5.09372">
        <ele>356.253235</ele>
        <time>2022-03-12T08:52:36.321Z</time>
      </trkpt>
      <trkpt lat="44.92114" lon="5.09364">
        <ele>356.532422</ele>
        <time>2022-03-12T08:52:41.327Z</time>
      </trkpt>
      <trkpt lat="44.92103" lon="5.09358">
        <ele>356.830531</ele>
        <time>2022-03-12T08:52:46.329Z</time>
      </trkpt>
      <trkpt lat="44.92094" lon="5.09352">
        <ele>357.093352</ele>
        <time>2022-03-12T08:52:50.318Z</time>
      </trkpt>
      <trkpt lat="44.92084" lon="5.09347">
        <ele>357.386748</ele>
        <time>2022-03-12T08:52:54.325Z</time>
      </trkpt>
      <trkpt lat="44.92074" lon="5.09345">
        <ele>357.645897</ele>
        <time>2022-03-12T08:52:57.328Z</time>
      </trkpt>
      <trkpt lat="44.92064" lon="5.09343">
        <ele>357.926214</ele>
        <time>2022-03-12T08:53:00.324Z</time>
      </trkpt>
      <trkpt lat="44.92053" lon="5.09342">
        <ele>358.199658</ele>
        <time>2022-03-12T08:53:03.324Z</time>
      </trkpt>
      <trkpt lat="44.92043" lon="5.0934">
        <ele>358.470475</ele>
        <time>2022-03-12T08:53:06.332Z</time>
      </trkpt>
      <trkpt lat="44.92033" lon="5.09339">
        <ele>358.448194</ele>
        <time>2022-03-12T08:53:09.323Z</time>
      </trkpt>
      <trkpt lat="44.92023" lon="5.09336">
        <ele>358.387396</ele>
        <time>2022-03-12T08:53:12.329Z</time>
      </trkpt>
      <trkpt lat="44.92013" lon="5.09335">
        <ele>358.325904</ele>
        <time>2022-03-12T08:53:15.326Z</time>
      </trkpt>
      <trkpt lat="44.92002" lon="5.09332">
        <ele>358.261703</ele>
        <time>2022-03-12T08:53:18.334Z</time>
      </trkpt>
      <trkpt lat="44.91992" lon="5.09331">
        <ele>358.198571</ele>
        <time>2022-03-12T08:53:21.332Z</time>
      </trkpt>
      <trkpt lat="44.91982" lon="5.0933">
        <ele>358.135438</ele>
        <time>2022-03-12T08:53:24.326Z</time>
      </trkpt>
      <trkpt lat="44.91971" lon="5.09327">
        <ele>358.068089</ele>
        <time>2022-03-12T08:53:27.326Z</time>
      </trkpt>
      <trkpt lat="44.91959" lon="5.09326">
        <ele>357.996933</ele>
        <time>2022-03-12T08:53:30.330Z</time>
      </trkpt>
      <trkpt lat="44.91947" lon="5.09324">
        <ele>357.923058</ele>
        <time>2022-03-12T08:53:33.328Z</time>
      </trkpt>
      <trkpt lat="44.91935" lon="5.09321">
        <ele>357.847796</ele>
        <time>2022-03-12T08:53:36.328Z</time>
      </trkpt>
      <trkpt lat="44.91923" lon="5.09318">
        <ele>357.774598</ele>
        <time>2022-03-12T08:53:39.327Z</time>
      </trkpt>
      <trkpt lat="44.91911" lon="5.09315">
        <ele>357.700413</ele>
        <time>2022-03-12T08:53:42.321Z</time>
      </trkpt>
      <trkpt lat="44.91898" lon="5.09312">
        <ele>357.618573</ele>
        <time>2022-03-12T08:53:45.328Z</time>
      </trkpt>
      <trkpt lat="44.91888" lon="5.0931">
        <ele>357.558845</ele>
        <time>2022-03-12T08:53:47.329Z</time>
      </trkpt>
      <trkpt lat="44.91879" lon="5.09308">
        <ele>357.499248</ele>
        <time>2022-03-12T08:53:49.313Z</time>
      </trkpt>
      <trkpt lat="44.91869" lon="5.09305">
        <ele>357.436046</ele>
        <time>2022-03-12T08:53:51.324Z</time>
      </trkpt>
      <trkpt lat="44.91858" lon="5.09303">
        <ele>357.156562</ele>
        <time>2022-03-12T08:53:53.331Z</time>
      </trkpt>
      <trkpt lat="44.91849" lon="5.09301">
        <ele>356.71907</ele>
        <time>2022-03-12T08:53:55.324Z</time>
      </trkpt>
      <trkpt lat="44.91839" lon="5.09299">
        <ele>356.281577</ele>
        <time>2022-03-12T08:53:57.325Z</time>
      </trkpt>
      <trkpt lat="44.9183" lon="5.09297">
        <ele>355.86755</ele>
        <time>2022-03-12T08:53:59.332Z</time>
      </trkpt>
      <trkpt lat="44.91818" lon="5.09294">
        <ele>355.286066</ele>
        <time>2022-03-12T08:54:02.324Z</time>
      </trkpt>
      <trkpt lat="44.91805" lon="5.09291">
        <ele>354.699023</ele>
        <time>2022-03-12T08:54:05.325Z</time>
      </trkpt>
      <trkpt lat="44.91792" lon="5.09289">
        <ele>354.103389</ele>
        <time>2022-03-12T08:54:08.324Z</time>
      </trkpt>
      <trkpt lat="44.91783" lon="5.09295">
        <ele>353.629374</ele>
        <time>2022-03-12T08:54:11.325Z</time>
      </trkpt>
      <trkpt lat="44.9178" lon="5.09312">
        <ele>353.083161</ele>
        <time>2022-03-12T08:54:14.329Z</time>
      </trkpt>
      <trkpt lat="44.91779" lon="5.09328">
        <ele>352.545814</ele>
        <time>2022-03-12T08:54:17.325Z</time>
      </trkpt>
      <trkpt lat="44.91775" lon="5.09344">
        <ele>352.007401</ele>
        <time>2022-03-12T08:54:20.322Z</time>
      </trkpt>
      <trkpt lat="44.91764" lon="5.09356">
        <ele>351.369274</ele>
        <time>2022-03-12T08:54:23.330Z</time>
      </trkpt>
      <trkpt lat="44.91755" lon="5.09359">
        <ele>350.952854</ele>
        <time>2022-03-12T08:54:25.321Z</time>
      </trkpt>
      <trkpt lat="44.91746" lon="5.09361">
        <ele>350.528871</ele>
        <time>2022-03-12T08:54:27.333Z</time>
      </trkpt>
      <trkpt lat="44.91736" lon="5.09363">
        <ele>350.069701</ele>
        <time>2022-03-12T08:54:29.339Z</time>
      </trkpt>
      <trkpt lat="44.91724" lon="5.09365">
        <ele>349.538501</ele>
        <time>2022-03-12T08:54:31.339Z</time>
      </trkpt>
      <trkpt lat="44.91713" lon="5.09366">
        <ele>349.242621</ele>
        <time>2022-03-12T08:54:33.328Z</time>
      </trkpt>
      <trkpt lat="44.91701" lon="5.09372">
        <ele>349.324902</ele>
        <time>2022-03-12T08:54:36.323Z</time>
      </trkpt>
      <trkpt lat="44.91699" lon="5.09388">
        <ele>349.398665</ele>
        <time>2022-03-12T08:54:39.316Z</time>
      </trkpt>
      <trkpt lat="44.917" lon="5.09402">
        <ele>349.465582</ele>
        <time>2022-03-12T08:54:42.317Z</time>
      </trkpt>
      <trkpt lat="44.91701" lon="5.09417">
        <ele>349.539372</ele>
        <time>2022-03-12T08:54:45.315Z</time>
      </trkpt>
      <trkpt lat="44.91703" lon="5.09435">
        <ele>349.620955</ele>
        <time>2022-03-12T08:54:48.328Z</time>
      </trkpt>
      <trkpt lat="44.91705" lon="5.09452">
        <ele>349.703644</ele>
        <time>2022-03-12T08:54:51.323Z</time>
      </trkpt>
      <trkpt lat="44.91707" lon="5.09469">
        <ele>349.785998</ele>
        <time>2022-03-12T08:54:54.321Z</time>
      </trkpt>
      <trkpt lat="44.91711" lon="5.09486">
        <ele>349.867446</ele>
        <time>2022-03-12T08:54:57.331Z</time>
      </trkpt>
      <trkpt lat="44.91714" lon="5.09503">
        <ele>349.951613</ele>
        <time>2022-03-12T08:55:00.321Z</time>
      </trkpt>
      <trkpt lat="44.91717" lon="5.0952">
        <ele>350.035609</ele>
        <time>2022-03-12T08:55:03.323Z</time>
      </trkpt>
      <trkpt lat="44.91719" lon="5.09537">
        <ele>350.116452</ele>
        <time>2022-03-12T08:55:06.323Z</time>
      </trkpt>
      <trkpt lat="44.91722" lon="5.09555">
        <ele>350.20065</ele>
        <time>2022-03-12T08:55:09.329Z</time>
      </trkpt>
      <trkpt lat="44.91723" lon="5.09573">
        <ele>350.284999</ele>
        <time>2022-03-12T08:55:12.328Z</time>
      </trkpt>
      <trkpt lat="44.91722" lon="5.0959">
        <ele>350.363964</ele>
        <time>2022-03-12T08:55:15.342Z</time>
      </trkpt>
      <trkpt lat="44.91722" lon="5.09606">
        <ele>350.530502</ele>
        <time>2022-03-12T08:55:18.328Z</time>
      </trkpt>
      <trkpt lat="44.91721" lon="5.09622">
        <ele>350.785714</ele>
        <time>2022-03-12T08:55:21.323Z</time>
      </trkpt>
      <trkpt lat="44.91721" lon="5.09637">
        <ele>351.033467</ele>
        <time>2022-03-12T08:55:24.329Z</time>
      </trkpt>
      <trkpt lat="44.91721" lon="5.09653">
        <ele>351.287745</ele>
        <time>2022-03-12T08:55:27.329Z</time>
      </trkpt>
      <trkpt lat="44.91722" lon="5.09669">
        <ele>351.549048</ele>
        <time>2022-03-12T08:55:30.318Z</time>
      </trkpt>
      <trkpt lat="44.91726" lon="5.09685">
        <ele>351.81511</ele>
        <time>2022-03-12T08:55:33.333Z</time>
      </trkpt>
      <trkpt lat="44.91731" lon="5.09699">
        <ele>352.081425</ele>
        <time>2022-03-12T08:55:36.315Z</time>
      </trkpt>
      <trkpt lat="44.91738" lon="5.09713">
        <ele>352.355146</ele>
        <time>2022-03-12T08:55:39.320Z</time>
      </trkpt>
      <trkpt lat="44.91746" lon="5.09726">
        <ele>352.62877</ele>
        <time>2022-03-12T08:55:42.323Z</time>
      </trkpt>
      <trkpt lat="44.91751" lon="5.09742">
        <ele>352.906569</ele>
        <time>2022-03-12T08:55:45.326Z</time>
      </trkpt>
      <trkpt lat="44.91755" lon="5.09757">
        <ele>353.178287</ele>
        <time>2022-03-12T08:55:48.335Z</time>
      </trkpt>
      <trkpt lat="44.91759" lon="5.09773">
        <ele>353.445378</ele>
        <time>2022-03-12T08:55:51.331Z</time>
      </trkpt>
      <trkpt lat="44.91764" lon="5.09788">
        <ele>353.716596</ele>
        <time>2022-03-12T08:55:54.326Z</time>
      </trkpt>
      <trkpt lat="44.91769" lon="5.09802">
        <ele>353.9719</ele>
        <time>2022-03-12T08:55:57.338Z</time>
      </trkpt>
      <trkpt lat="44.91773" lon="5.09816">
        <ele>354.214453</ele>
        <time>2022-03-12T08:56:00.329Z</time>
      </trkpt>
      <trkpt lat="44.91778" lon="5.0983">
        <ele>354.469283</ele>
        <time>2022-03-12T08:56:03.333Z</time>
      </trkpt>
      <trkpt lat="44.91781" lon="5.09846">
        <ele>354.987067</ele>
        <time>2022-03-12T08:56:06.318Z</time>
      </trkpt>
      <trkpt lat="44.91783" lon="5.09862">
        <ele>355.54496</ele>
        <time>2022-03-12T08:56:09.342Z</time>
      </trkpt>
      <trkpt lat="44.91784" lon="5.09877">
        <ele>356.094168</ele>
        <time>2022-03-12T08:56:12.320Z</time>
      </trkpt>
      <trkpt lat="44.91783" lon="5.09892">
        <ele>356.634413</ele>
        <time>2022-03-12T08:56:15.329Z</time>
      </trkpt>
      <trkpt lat="44.91782" lon="5.09908">
        <ele>357.179204</ele>
        <time>2022-03-12T08:56:18.326Z</time>
      </trkpt>
      <trkpt lat="44.91782" lon="5.09923">
        <ele>357.709544</ele>
        <time>2022-03-12T08:56:21.325Z</time>
      </trkpt>
      <trkpt lat="44.91783" lon="5.09937">
        <ele>358.217845</ele>
        <time>2022-03-12T08:56:24.342Z</time>
      </trkpt>
      <trkpt lat="44.91785" lon="5.09949">
        <ele>358.665618</ele>
        <time>2022-03-12T08:56:27.324Z</time>
      </trkpt>
      <trkpt lat="44.9179" lon="5.09963">
        <ele>359.210885</ele>
        <time>2022-03-12T08:56:31.333Z</time>
      </trkpt>
      <trkpt lat="44.91795" lon="5.09978">
        <ele>359.785964</ele>
        <time>2022-03-12T08:56:35.323Z</time>
      </trkpt>
      <trkpt lat="44.91798" lon="5.09991">
        <ele>360.263146</ele>
        <time>2022-03-12T08:56:39.334Z</time>
      </trkpt>
      <trkpt lat="44.91801" lon="5.10005">
        <ele>360.772184</ele>
        <time>2022-03-12T08:56:43.318Z</time>
      </trkpt>
      <trkpt lat="44.91799" lon="5.1002">
        <ele>361.294474</ele>
        <time>2022-03-12T08:56:47.325Z</time>
      </trkpt>
      <trkpt lat="44.91793" lon="5.10031">
        <ele>361.81571</ele>
        <time>2022-03-12T08:56:51.307Z</time>
      </trkpt>
      <trkpt lat="44.91783" lon="5.10039">
        <ele>362.388855</ele>
        <time>2022-03-12T08:56:55.330Z</time>
      </trkpt>
      <trkpt lat="44.91773" lon="5.10042">
        <ele>362.881788</ele>
        <time>2022-03-12T08:56:58.316Z</time>
      </trkpt>
      <trkpt lat="44.91763" lon="5.10045">
        <ele>363.394735</ele>
        <time>2022-03-12T08:57:01.317Z</time>
      </trkpt>
      <trkpt lat="44.91753" lon="5.1005">
        <ele>363.551833</ele>
        <time>2022-03-12T08:57:04.326Z</time>
      </trkpt>
      <trkpt lat="44.91743" lon="5.10056">
        <ele>363.641087</ele>
        <time>2022-03-12T08:57:07.326Z</time>
      </trkpt>
      <trkpt lat="44.91734" lon="5.10065">
        <ele>363.732664</ele>
        <time>2022-03-12T08:57:10.326Z</time>
      </trkpt>
      <trkpt lat="44.91726" lon="5.10076">
        <ele>363.828031</ele>
        <time>2022-03-12T08:57:13.318Z</time>
      </trkpt>
      <trkpt lat="44.9172" lon="5.10091">
        <ele>363.930455</ele>
        <time>2022-03-12T08:57:16.321Z</time>
      </trkpt>
      <trkpt lat="44.91716" lon="5.10107">
        <ele>364.033142</ele>
        <time>2022-03-12T08:57:19.327Z</time>
      </trkpt>
      <trkpt lat="44.91714" lon="5.10123">
        <ele>364.13351</ele>
        <time>2022-03-12T08:57:22.323Z</time>
      </trkpt>
      <trkpt lat="44.91711" lon="5.10141">
        <ele>364.239153</ele>
        <time>2022-03-12T08:57:25.318Z</time>
      </trkpt>
      <trkpt lat="44.91709" lon="5.10157">
        <ele>364.33986</ele>
        <time>2022-03-12T08:57:28.325Z</time>
      </trkpt>
      <trkpt lat="44.91704" lon="5.10172">
        <ele>364.438995</ele>
        <time>2022-03-12T08:57:31.320Z</time>
      </trkpt>
      <trkpt lat="44.91697" lon="5.10187">
        <ele>364.541872</ele>
        <time>2022-03-12T08:57:34.316Z</time>
      </trkpt>
      <trkpt lat="44.91689" lon="5.102">
        <ele>364.645938</ele>
        <time>2022-03-12T08:57:37.331Z</time>
      </trkpt>
      <trkpt lat="44.91682" lon="5.10213">
        <ele>364.747012</ele>
        <time>2022-03-12T08:57:40.334Z</time>
      </trkpt>
      <trkpt lat="44.91675" lon="5.10227">
        <ele>364.846457</ele>
        <time>2022-03-12T08:57:43.324Z</time>
      </trkpt>
      <trkpt lat="44.91669" lon="5.10238">
        <ele>364.93171</ele>
        <time>2022-03-12T08:57:46.323Z</time>
      </trkpt>
      <trkpt lat="44.91666" lon="5.10252">
        <ele>365.06825</ele>
        <time>2022-03-12T08:57:49.324Z</time>
      </trkpt>
      <trkpt lat="44.91664" lon="5.10267">
        <ele>365.35877</ele>
        <time>2022-03-12T08:57:52.332Z</time>
      </trkpt>
      <trkpt lat="44.91666" lon="5.10283">
        <ele>365.662511</ele>
        <time>2022-03-12T08:57:55.327Z</time>
      </trkpt>
      <trkpt lat="44.91669" lon="5.10299">
        <ele>365.971606</ele>
        <time>2022-03-12T08:57:58.319Z</time>
      </trkpt>
      <trkpt lat="44.91673" lon="5.10314">
        <ele>366.285458</ele>
        <time>2022-03-12T08:58:01.322Z</time>
      </trkpt>
      <trkpt lat="44.91675" lon="5.10332">
        <ele>366.612105</ele>
        <time>2022-03-12T08:58:04.328Z</time>
      </trkpt>
      <trkpt lat="44.91672" lon="5.10349">
        <ele>366.952055</ele>
        <time>2022-03-12T08:58:07.323Z</time>
      </trkpt>
      <trkpt lat="44.91666" lon="5.10365">
        <ele>367.295168</ele>
        <time>2022-03-12T08:58:10.321Z</time>
      </trkpt>
      <trkpt lat="44.91658" lon="5.10379">
        <ele>367.616426</ele>
        <time>2022-03-12T08:58:13.321Z</time>
      </trkpt>
      <trkpt lat="44.91651" lon="5.10392">
        <ele>367.93131</ele>
        <time>2022-03-12T08:58:16.324Z</time>
      </trkpt>
      <trkpt lat="44.91644" lon="5.10405">
        <ele>368.230695</ele>
        <time>2022-03-12T08:58:19.322Z</time>
      </trkpt>
      <trkpt lat="44.91637" lon="5.10415">
        <ele>368.509887</ele>
        <time>2022-03-12T08:58:22.322Z</time>
      </trkpt>
      <trkpt lat="44.9163" lon="5.10424">
        <ele>368.764563</ele>
        <time>2022-03-12T08:58:25.333Z</time>
      </trkpt>
      <trkpt lat="44.91624" lon="5.10438">
        <ele>369.057508</ele>
        <time>2022-03-12T08:58:29.317Z</time>
      </trkpt>
      <trkpt lat="44.91631" lon="5.1045">
        <ele>369.350189</ele>
        <time>2022-03-12T08:58:33.327Z</time>
      </trkpt>
      <trkpt lat="44.9164" lon="5.10455">
        <ele>369.592122</ele>
        <time>2022-03-12T08:58:36.323Z</time>
      </trkpt>
      <trkpt lat="44.9165" lon="5.10463">
        <ele>370.077905</ele>
        <time>2022-03-12T08:58:40.318Z</time>
      </trkpt>
      <trkpt lat="44.91658" lon="5.10469">
        <ele>370.620604</ele>
        <time>2022-03-12T08:58:43.323Z</time>
      </trkpt>
      <trkpt lat="44.91667" lon="5.10475">
        <ele>371.196554</ele>
        <time>2022-03-12T08:58:46.330Z</time>
      </trkpt>
      <trkpt lat="44.91675" lon="5.10482">
        <ele>371.771265</ele>
        <time>2022-03-12T08:58:49.328Z</time>
      </trkpt>
      <trkpt lat="44.91684" lon="5.10489">
        <ele>372.358384</ele>
        <time>2022-03-12T08:58:52.328Z</time>
      </trkpt>
      <trkpt lat="44.91693" lon="5.10495">
        <ele>372.931085</ele>
        <time>2022-03-12T08:58:55.320Z</time>
      </trkpt>
      <trkpt lat="44.91701" lon="5.10502">
        <ele>373.477919</ele>
        <time>2022-03-12T08:58:58.319Z</time>
      </trkpt>
      <trkpt lat="44.91711" lon="5.1051">
        <ele>374.188999</ele>
        <time>2022-03-12T08:59:02.319Z</time>
      </trkpt>
      <trkpt lat="44.91721" lon="5.10518">
        <ele>374.880274</ele>
        <time>2022-03-12T08:59:06.318Z</time>
      </trkpt>
      <trkpt lat="44.91731" lon="5.10525">
        <ele>375.532498</ele>
        <time>2022-03-12T08:59:10.317Z</time>
      </trkpt>
      <trkpt lat="44.91742" lon="5.10528">
        <ele>376.189004</ele>
        <time>2022-03-12T08:59:14.327Z</time>
      </trkpt>
      <trkpt lat="44.91753" lon="5.10529">
        <ele>376.84159</ele>
        <time>2022-03-12T08:59:18.330Z</time>
      </trkpt>
      <trkpt lat="44.91763" lon="5.10529">
        <ele>377.457821</ele>
        <time>2022-03-12T08:59:22.327Z</time>
      </trkpt>
      <trkpt lat="44.91773" lon="5.10526">
        <ele>378.039512</ele>
        <time>2022-03-12T08:59:26.329Z</time>
      </trkpt>
      <trkpt lat="44.91782" lon="5.10521">
        <ele>378.633183</ele>
        <time>2022-03-12T08:59:30.330Z</time>
      </trkpt>
      <trkpt lat="44.91791" lon="5.10517">
        <ele>379.192195</ele>
        <time>2022-03-12T08:59:34.329Z</time>
      </trkpt>
      <trkpt lat="44.91801" lon="5.10515">
        <ele>379.752321</ele>
        <time>2022-03-12T08:59:38.322Z</time>
      </trkpt>
      <trkpt lat="44.9181" lon="5.10513">
        <ele>380.336814</ele>
        <time>2022-03-12T08:59:42.341Z</time>
      </trkpt>
      <trkpt lat="44.91821" lon="5.10512">
        <ele>380.837515</ele>
        <time>2022-03-12T08:59:46.327Z</time>
      </trkpt>
      <trkpt lat="44.91832" lon="5.10512">
        <ele>381.318148</ele>
        <time>2022-03-12T08:59:50.328Z</time>
      </trkpt>
      <trkpt lat="44.91843" lon="5.10513">
        <ele>381.803908</ele>
        <time>2022-03-12T08:59:54.318Z</time>
      </trkpt>
      <trkpt lat="44.91852" lon="5.10516">
        <ele>382.203675</ele>
        <time>2022-03-12T08:59:57.330Z</time>
      </trkpt>
      <trkpt lat="44.91861" lon="5.1052">
        <ele>382.607574</ele>
        <time>2022-03-12T09:00:00.328Z</time>
      </trkpt>
      <trkpt lat="44.91869" lon="5.10525">
        <ele>382.999431</ele>
        <time>2022-03-12T09:00:03.334Z</time>
      </trkpt>
      <trkpt lat="44.9188" lon="5.10532">
        <ele>383.502779</ele>
        <time>2022-03-12T09:00:07.329Z</time>
      </trkpt>
      <trkpt lat="44.9189" lon="5.10538">
        <ele>383.987711</ele>
        <time>2022-03-12T09:00:11.315Z</time>
      </trkpt>
      <trkpt lat="44.91901" lon="5.10545">
        <ele>384.506891</ele>
        <time>2022-03-12T09:00:15.328Z</time>
      </trkpt>
      <trkpt lat="44.91909" lon="5.10551">
        <ele>384.914268</ele>
        <time>2022-03-12T09:00:18.327Z</time>
      </trkpt>
      <trkpt lat="44.91917" lon="5.10557">
        <ele>385.313576</ele>
        <time>2022-03-12T09:00:21.326Z</time>
      </trkpt>
      <trkpt lat="44.91927" lon="5.10564">
        <ele>385.801205</ele>
        <time>2022-03-12T09:00:25.326Z</time>
      </trkpt>
      <trkpt lat="44.91938" lon="5.10572">
        <ele>386.319548</ele>
        <time>2022-03-12T09:00:29.326Z</time>
      </trkpt>
      <trkpt lat="44.91946" lon="5.10578">
        <ele>386.725924</ele>
        <time>2022-03-12T09:00:32.325Z</time>
      </trkpt>
      <trkpt lat="44.91954" lon="5.10584">
        <ele>387.118506</ele>
        <time>2022-03-12T09:00:35.326Z</time>
      </trkpt>
      <trkpt lat="44.91961" lon="5.10592">
        <ele>387.534295</ele>
        <time>2022-03-12T09:00:38.323Z</time>
      </trkpt>
      <trkpt lat="44.91969" lon="5.106">
        <ele>387.935884</ele>
        <time>2022-03-12T09:00:41.329Z</time>
      </trkpt>
      <trkpt lat="44.91975" lon="5.10609">
        <ele>388.318086</ele>
        <time>2022-03-12T09:00:44.326Z</time>
      </trkpt>
      <trkpt lat="44.91981" lon="5.10621">
        <ele>388.693518</ele>
        <time>2022-03-12T09:00:48.324Z</time>
      </trkpt>
      <trkpt lat="44.91987" lon="5.10635">
        <ele>389.081445</ele>
        <time>2022-03-12T09:00:52.333Z</time>
      </trkpt>
      <trkpt lat="44.91993" lon="5.10647">
        <ele>389.445443</ele>
        <time>2022-03-12T09:00:56.339Z</time>
      </trkpt>
      <trkpt lat="44.91999" lon="5.1066">
        <ele>389.812879</ele>
        <time>2022-03-12T09:01:00.325Z</time>
      </trkpt>
      <trkpt lat="44.92006" lon="5.10672">
        <ele>390.212866</ele>
        <time>2022-03-12T09:01:04.331Z</time>
      </trkpt>
      <trkpt lat="44.92013" lon="5.10683">
        <ele>390.548629</ele>
        <time>2022-03-12T09:01:07.320Z</time>
      </trkpt>
      <trkpt lat="44.92019" lon="5.10693">
        <ele>390.875307</ele>
        <time>2022-03-12T09:01:10.327Z</time>
      </trkpt>
      <trkpt lat="44.92025" lon="5.10702">
        <ele>391.19615</ele>
        <time>2022-03-12T09:01:13.327Z</time>
      </trkpt>
      <trkpt lat="44.92032" lon="5.10711">
        <ele>391.523262</ele>
        <time>2022-03-12T09:01:16.326Z</time>
      </trkpt>
      <trkpt lat="44.9204" lon="5.1072">
        <ele>391.871313</ele>
        <time>2022-03-12T09:01:19.329Z</time>
      </trkpt>
      <trkpt lat="44.92048" lon="5.10728">
        <ele>392.203119</ele>
        <time>2022-03-12T09:01:22.331Z</time>
      </trkpt>
      <trkpt lat="44.92056" lon="5.10734">
        <ele>392.517324</ele>
        <time>2022-03-12T09:01:25.321Z</time>
      </trkpt>
      <trkpt lat="44.92065" lon="5.10743">
        <ele>392.89325</ele>
        <time>2022-03-12T09:01:29.320Z</time>
      </trkpt>
      <trkpt lat="44.92075" lon="5.10751">
        <ele>393.300395</ele>
        <time>2022-03-12T09:01:33.324Z</time>
      </trkpt>
      <trkpt lat="44.92083" lon="5.10758">
        <ele>393.633203</ele>
        <time>2022-03-12T09:01:36.329Z</time>
      </trkpt>
      <trkpt lat="44.92092" lon="5.10764">
        <ele>393.962578</ele>
        <time>2022-03-12T09:01:39.322Z</time>
      </trkpt>
      <trkpt lat="44.92102" lon="5.10771">
        <ele>394.354451</ele>
        <time>2022-03-12T09:01:43.332Z</time>
      </trkpt>
      <trkpt lat="44.92113" lon="5.10778">
        <ele>394.897031</ele>
        <time>2022-03-12T09:01:47.317Z</time>
      </trkpt>
      <trkpt lat="44.92123" lon="5.10783">
        <ele>395.398821</ele>
        <time>2022-03-12T09:01:50.318Z</time>
      </trkpt>
      <trkpt lat="44.92132" lon="5.10789">
        <ele>395.931162</ele>
        <time>2022-03-12T09:01:53.324Z</time>
      </trkpt>
      <trkpt lat="44.92142" lon="5.10795">
        <ele>396.476564</ele>
        <time>2022-03-12T09:01:56.322Z</time>
      </trkpt>
      <trkpt lat="44.92152" lon="5.10804">
        <ele>397.038835</ele>
        <time>2022-03-12T09:01:59.325Z</time>
      </trkpt>
      <trkpt lat="44.92159" lon="5.10814">
        <ele>397.573984</ele>
        <time>2022-03-12T09:02:02.340Z</time>
      </trkpt>
      <trkpt lat="44.92163" lon="5.10826">
        <ele>398.037487</ele>
        <time>2022-03-12T09:02:05.319Z</time>
      </trkpt>
      <trkpt lat="44.92165" lon="5.10841">
        <ele>398.585538</ele>
        <time>2022-03-12T09:02:09.315Z</time>
      </trkpt>
      <trkpt lat="44.92167" lon="5.10856">
        <ele>399.099665</ele>
        <time>2022-03-12T09:02:13.315Z</time>
      </trkpt>
      <trkpt lat="44.9217" lon="5.1087">
        <ele>399.622577</ele>
        <time>2022-03-12T09:02:17.317Z</time>
      </trkpt>
      <trkpt lat="44.92171" lon="5.10883">
        <ele>400.080568</ele>
        <time>2022-03-12T09:02:21.326Z</time>
      </trkpt>
      <trkpt lat="44.92173" lon="5.10895">
        <ele>400.543277</ele>
        <time>2022-03-12T09:02:25.323Z</time>
      </trkpt>
      <trkpt lat="44.92175" lon="5.10909">
        <ele>401.026838</ele>
        <time>2022-03-12T09:02:29.323Z</time>
      </trkpt>
      <trkpt lat="44.92176" lon="5.10923">
        <ele>401.532013</ele>
        <time>2022-03-12T09:02:33.329Z</time>
      </trkpt>
      <trkpt lat="44.92178" lon="5.10937">
        <ele>402.043386</ele>
        <time>2022-03-12T09:02:37.321Z</time>
      </trkpt>
      <trkpt lat="44.9218" lon="5.10951">
        <ele>402.550355</ele>
        <time>2022-03-12T09:02:41.322Z</time>
      </trkpt>
      <trkpt lat="44.92182" lon="5.10965">
        <ele>403.064952</ele>
        <time>2022-03-12T09:02:45.324Z</time>
      </trkpt>
      <trkpt lat="44.92185" lon="5.1098">
        <ele>403.530601</ele>
        <time>2022-03-12T09:02:49.329Z</time>
      </trkpt>
      <trkpt lat="44.92188" lon="5.10993">
        <ele>403.519165</ele>
        <time>2022-03-12T09:02:53.325Z</time>
      </trkpt>
      <trkpt lat="44.92189" lon="5.11007">
        <ele>403.508243</ele>
        <time>2022-03-12T09:02:57.325Z</time>
      </trkpt>
      <trkpt lat="44.9219" lon="5.11021">
        <ele>403.496914</ele>
        <time>2022-03-12T09:03:01.325Z</time>
      </trkpt>
      <trkpt lat="44.92191" lon="5.11036">
        <ele>403.485006</ele>
        <time>2022-03-12T09:03:05.328Z</time>
      </trkpt>
      <trkpt lat="44.92191" lon="5.11052">
        <ele>403.472885</ele>
        <time>2022-03-12T09:03:09.332Z</time>
      </trkpt>
      <trkpt lat="44.92191" lon="5.11068">
        <ele>403.460198</ele>
        <time>2022-03-12T09:03:13.315Z</time>
      </trkpt>
      <trkpt lat="44.92192" lon="5.11083">
        <ele>403.447753</ele>
        <time>2022-03-12T09:03:17.331Z</time>
      </trkpt>
      <trkpt lat="44.92191" lon="5.11099">
        <ele>403.435387</ele>
        <time>2022-03-12T09:03:21.317Z</time>
      </trkpt>
      <trkpt lat="44.92192" lon="5.11114">
        <ele>403.423344</ele>
        <time>2022-03-12T09:03:25.327Z</time>
      </trkpt>
      <trkpt lat="44.92192" lon="5.11128">
        <ele>403.412486</ele>
        <time>2022-03-12T09:03:29.330Z</time>
      </trkpt>
      <trkpt lat="44.92193" lon="5.11142">
        <ele>403.400843</ele>
        <time>2022-03-12T09:03:33.323Z</time>
      </trkpt>
      <trkpt lat="44.92195" lon="5.11159">
        <ele>403.387133</ele>
        <time>2022-03-12T09:03:37.319Z</time>
      </trkpt>
      <trkpt lat="44.92198" lon="5.11173">
        <ele>403.375772</ele>
        <time>2022-03-12T09:03:40.323Z</time>
      </trkpt>
      <trkpt lat="44.92201" lon="5.1119">
        <ele>403.362204</ele>
        <time>2022-03-12T09:03:43.326Z</time>
      </trkpt>
      <trkpt lat="44.92204" lon="5.11203">
        <ele>403.351264</ele>
        <time>2022-03-12T09:03:45.328Z</time>
      </trkpt>
      <trkpt lat="44.92208" lon="5.11218">
        <ele>403.338903</ele>
        <time>2022-03-12T09:03:47.321Z</time>
      </trkpt>
      <trkpt lat="44.92209" lon="5.11235">
        <ele>403.449419</ele>
        <time>2022-03-12T09:03:49.326Z</time>
      </trkpt>
      <trkpt lat="44.92207" lon="5.11253">
        <ele>403.751192</ele>
        <time>2022-03-12T09:03:51.315Z</time>
      </trkpt>
      <trkpt lat="44.92209" lon="5.11272">
        <ele>404.067578</ele>
        <time>2022-03-12T09:03:53.327Z</time>
      </trkpt>
      <trkpt lat="44.92216" lon="5.11288">
        <ele>404.382827</ele>
        <time>2022-03-12T09:03:55.326Z</time>
      </trkpt>
      <trkpt lat="44.92225" lon="5.113">
        <ele>404.677131</ele>
        <time>2022-03-12T09:03:57.322Z</time>
      </trkpt>
      <trkpt lat="44.92232" lon="5.11313">
        <ele>404.94145</ele>
        <time>2022-03-12T09:03:59.328Z</time>
      </trkpt>
      <trkpt lat="44.92237" lon="5.11324">
        <ele>405.160509</ele>
        <time>2022-03-12T09:04:01.323Z</time>
      </trkpt>
      <trkpt lat="44.92243" lon="5.11337">
        <ele>405.412535</ele>
        <time>2022-03-12T09:04:04.320Z</time>
      </trkpt>
      <trkpt lat="44.92248" lon="5.11348">
        <ele>405.634829</ele>
        <time>2022-03-12T09:04:07.321Z</time>
      </trkpt>
      <trkpt lat="44.92251" lon="5.11364">
        <ele>405.907441</ele>
        <time>2022-03-12T09:04:11.329Z</time>
      </trkpt>
      <trkpt lat="44.92254" lon="5.11379">
        <ele>406.163254</ele>
        <time>2022-03-12T09:04:15.323Z</time>
      </trkpt>
      <trkpt lat="44.92257" lon="5.11394">
        <ele>406.421645</ele>
        <time>2022-03-12T09:04:19.321Z</time>
      </trkpt>
      <trkpt lat="44.92262" lon="5.11408">
        <ele>406.682256</ele>
        <time>2022-03-12T09:04:23.329Z</time>
      </trkpt>
      <trkpt lat="44.92269" lon="5.11421">
        <ele>406.95666</ele>
        <time>2022-03-12T09:04:27.329Z</time>
      </trkpt>
      <trkpt lat="44.92275" lon="5.11436">
        <ele>407.240763</ele>
        <time>2022-03-12T09:04:31.333Z</time>
      </trkpt>
      <trkpt lat="44.9228" lon="5.11447">
        <ele>407.464271</ele>
        <time>2022-03-12T09:04:34.316Z</time>
      </trkpt>
      <trkpt lat="44.92285" lon="5.11459">
        <ele>407.95205</ele>
        <time>2022-03-12T09:04:37.323Z</time>
      </trkpt>
      <trkpt lat="44.92289" lon="5.11471">
        <ele>408.574458</ele>
        <time>2022-03-12T09:04:40.319Z</time>
      </trkpt>
      <trkpt lat="44.92292" lon="5.11484">
        <ele>409.205791</ele>
        <time>2022-03-12T09:04:43.319Z</time>
      </trkpt>
      <trkpt lat="44.92296" lon="5.11497">
        <ele>409.839176</ele>
        <time>2022-03-12T09:04:46.325Z</time>
      </trkpt>
      <trkpt lat="44.92298" lon="5.11509">
        <ele>410.455729</ele>
        <time>2022-03-12T09:04:49.326Z</time>
      </trkpt>
      <trkpt lat="44.92301" lon="5.11522">
        <ele>411.064156</ele>
        <time>2022-03-12T09:04:52.318Z</time>
      </trkpt>
      <trkpt lat="44.92304" lon="5.11538">
        <ele>411.83456</ele>
        <time>2022-03-12T09:04:56.323Z</time>
      </trkpt>
      <trkpt lat="44.92306" lon="5.1155">
        <ele>412.433456</ele>
        <time>2022-03-12T09:04:59.320Z</time>
      </trkpt>
      <trkpt lat="44.92305" lon="5.11563">
        <ele>413.046092</ele>
        <time>2022-03-12T09:05:02.314Z</time>
      </trkpt>
      <trkpt lat="44.92302" lon="5.11579">
        <ele>413.81837</ele>
        <time>2022-03-12T09:05:06.322Z</time>
      </trkpt>
      <trkpt lat="44.923" lon="5.11593">
        <ele>414.483771</ele>
        <time>2022-03-12T09:05:10.321Z</time>
      </trkpt>
      <trkpt lat="44.92299" lon="5.11608">
        <ele>415.18664</ele>
        <time>2022-03-12T09:05:15.325Z</time>
      </trkpt>
      <trkpt lat="44.923" lon="5.11622">
        <ele>415.811908</ele>
        <time>2022-03-12T09:05:19.324Z</time>
      </trkpt>
      <trkpt lat="44.923" lon="5.11637">
        <ele>416.500185</ele>
        <time>2022-03-12T09:05:23.316Z</time>
      </trkpt>
      <trkpt lat="44.923" lon="5.11651">
        <ele>417.160439</ele>
        <time>2022-03-12T09:05:27.323Z</time>
      </trkpt>
      <trkpt lat="44.923" lon="5.11665">
        <ele>417.802095</ele>
        <time>2022-03-12T09:05:31.325Z</time>
      </trkpt>
      <trkpt lat="44.923" lon="5.11679">
        <ele>418.463165</ele>
        <time>2022-03-12T09:05:35.320Z</time>
      </trkpt>
      <trkpt lat="44.92299" lon="5.11692">
        <ele>419.08439</ele>
        <time>2022-03-12T09:05:39.313Z</time>
      </trkpt>
      <trkpt lat="44.92298" lon="5.11705">
        <ele>419.776436</ele>
        <time>2022-03-12T09:05:43.316Z</time>
      </trkpt>
      <trkpt lat="44.92297" lon="5.11719">
        <ele>420.527325</ele>
        <time>2022-03-12T09:05:47.328Z</time>
      </trkpt>
      <trkpt lat="44.92296" lon="5.11732">
        <ele>421.263046</ele>
        <time>2022-03-12T09:05:51.325Z</time>
      </trkpt>
      <trkpt lat="44.92295" lon="5.11747">
        <ele>422.132125</ele>
        <time>2022-03-12T09:05:55.314Z</time>
      </trkpt>
      <trkpt lat="44.92295" lon="5.11764">
        <ele>423.036844</ele>
        <time>2022-03-12T09:05:59.323Z</time>
      </trkpt>
      <trkpt lat="44.92294" lon="5.1178">
        <ele>423.952765</ele>
        <time>2022-03-12T09:06:03.327Z</time>
      </trkpt>
      <trkpt lat="44.92292" lon="5.11793">
        <ele>424.682728</ele>
        <time>2022-03-12T09:06:06.337Z</time>
      </trkpt>
      <trkpt lat="44.9229" lon="5.11805">
        <ele>425.413393</ele>
        <time>2022-03-12T09:06:09.324Z</time>
      </trkpt>
      <trkpt lat="44.92287" lon="5.1182">
        <ele>426.256907</ele>
        <time>2022-03-12T09:06:13.330Z</time>
      </trkpt>
      <trkpt lat="44.92284" lon="5.11835">
        <ele>427.110156</ele>
        <time>2022-03-12T09:06:17.321Z</time>
      </trkpt>
      <trkpt lat="44.92282" lon="5.11849">
        <ele>427.914707</ele>
        <time>2022-03-12T09:06:21.325Z</time>
      </trkpt>
      <trkpt lat="44.9228" lon="5.11862">
        <ele>428.677687</ele>
        <time>2022-03-12T09:06:25.332Z</time>
      </trkpt>
      <trkpt lat="44.92277" lon="5.11875">
        <ele>429.422802</ele>
        <time>2022-03-12T09:06:29.314Z</time>
      </trkpt>
      <trkpt lat="44.92273" lon="5.11888">
        <ele>430.223637</ele>
        <time>2022-03-12T09:06:33.332Z</time>
      </trkpt>
      <trkpt lat="44.92269" lon="5.11902">
        <ele>431.060847</ele>
        <time>2022-03-12T09:06:38.320Z</time>
      </trkpt>
      <trkpt lat="44.92266" lon="5.11914">
        <ele>431.78146</ele>
        <time>2022-03-12T09:06:43.321Z</time>
      </trkpt>
      <trkpt lat="44.92262" lon="5.11927">
        <ele>432.558067</ele>
        <time>2022-03-12T09:06:49.327Z</time>
      </trkpt>
      <trkpt lat="44.92258" lon="5.1194">
        <ele>433.340419</ele>
        <time>2022-03-12T09:06:55.327Z</time>
      </trkpt>
      <trkpt lat="44.92255" lon="5.11953">
        <ele>433.844655</ele>
        <time>2022-03-12T09:07:02.334Z</time>
      </trkpt>
      <trkpt lat="44.92251" lon="5.11967">
        <ele>434.258985</ele>
        <time>2022-03-12T09:07:09.321Z</time>
      </trkpt>
      <trkpt lat="44.92248" lon="5.11978">
        <ele>434.626503</ele>
        <time>2022-03-12T09:07:15.321Z</time>
      </trkpt>
      <trkpt lat="44.92243" lon="5.11992">
        <ele>435.064106</ele>
        <time>2022-03-12T09:07:22.325Z</time>
      </trkpt>
      <trkpt lat="44.92238" lon="5.12004">
        <ele>435.471654</ele>
        <time>2022-03-12T09:07:28.321Z</time>
      </trkpt>
      <trkpt lat="44.92234" lon="5.12015">
        <ele>435.852272</ele>
        <time>2022-03-12T09:07:34.320Z</time>
      </trkpt>
      <trkpt lat="44.92229" lon="5.12027">
        <ele>436.253115</ele>
        <time>2022-03-12T09:07:40.322Z</time>
      </trkpt>
      <trkpt lat="44.92224" lon="5.12039">
        <ele>436.658952</ele>
        <time>2022-03-12T09:07:45.315Z</time>
      </trkpt>
      <trkpt lat="44.92218" lon="5.12051">
        <ele>437.067954</ele>
        <time>2022-03-12T09:07:49.319Z</time>
      </trkpt>
      <trkpt lat="44.92212" lon="5.12064">
        <ele>437.514816</ele>
        <time>2022-03-12T09:07:53.322Z</time>
      </trkpt>
      <trkpt lat="44.92205" lon="5.12076">
        <ele>437.968757</ele>
        <time>2022-03-12T09:07:57.331Z</time>
      </trkpt>
      <trkpt lat="44.92199" lon="5.12087">
        <ele>438.365963</ele>
        <time>2022-03-12T09:08:00.336Z</time>
      </trkpt>
      <trkpt lat="44.92194" lon="5.12098">
        <ele>438.751738</ele>
        <time>2022-03-12T09:08:03.331Z</time>
      </trkpt>
      <trkpt lat="44.92187" lon="5.12108">
        <ele>439.142841</ele>
        <time>2022-03-12T09:08:06.329Z</time>
      </trkpt>
      <trkpt lat="44.92181" lon="5.12118">
        <ele>439.530588</ele>
        <time>2022-03-12T09:08:09.325Z</time>
      </trkpt>
      <trkpt lat="44.92174" lon="5.12128">
        <ele>439.931509</ele>
        <time>2022-03-12T09:08:12.325Z</time>
      </trkpt>
      <trkpt lat="44.92167" lon="5.12137">
        <ele>440.309803</ele>
        <time>2022-03-12T09:08:15.323Z</time>
      </trkpt>
      <trkpt lat="44.9216" lon="5.12147">
        <ele>440.713946</ele>
        <time>2022-03-12T09:08:18.323Z</time>
      </trkpt>
      <trkpt lat="44.92152" lon="5.12155">
        <ele>441.184067</ele>
        <time>2022-03-12T09:08:21.323Z</time>
      </trkpt>
      <trkpt lat="44.92142" lon="5.12162">
        <ele>441.758269</ele>
        <time>2022-03-12T09:08:24.325Z</time>
      </trkpt>
      <trkpt lat="44.92131" lon="5.1217">
        <ele>442.405123</ele>
        <time>2022-03-12T09:08:27.329Z</time>
      </trkpt>
      <trkpt lat="44.9212" lon="5.12178">
        <ele>443.026013</ele>
        <time>2022-03-12T09:08:30.322Z</time>
      </trkpt>
      <trkpt lat="44.9211" lon="5.12188">
        <ele>443.644301</ele>
        <time>2022-03-12T09:08:33.322Z</time>
      </trkpt>
      <trkpt lat="44.92101" lon="5.12198">
        <ele>444.26256</ele>
        <time>2022-03-12T09:08:36.323Z</time>
      </trkpt>
      <trkpt lat="44.92091" lon="5.12209">
        <ele>444.884895</ele>
        <time>2022-03-12T09:08:39.329Z</time>
      </trkpt>
      <trkpt lat="44.92082" lon="5.1222">
        <ele>445.496321</ele>
        <time>2022-03-12T09:08:42.330Z</time>
      </trkpt>
      <trkpt lat="44.92074" lon="5.1223">
        <ele>446.036768</ele>
        <time>2022-03-12T09:08:45.328Z</time>
      </trkpt>
      <trkpt lat="44.92067" lon="5.12238">
        <ele>446.537001</ele>
        <time>2022-03-12T09:08:48.322Z</time>
      </trkpt>
      <trkpt lat="44.92059" lon="5.12247">
        <ele>447.035646</ele>
        <time>2022-03-12T09:08:52.316Z</time>
      </trkpt>
      <trkpt lat="44.92052" lon="5.12256">
        <ele>447.528031</ele>
        <time>2022-03-12T09:08:56.332Z</time>
      </trkpt>
      <trkpt lat="44.92043" lon="5.12264">
        <ele>448.082303</ele>
        <time>2022-03-12T09:09:00.324Z</time>
      </trkpt>
      <trkpt lat="44.92034" lon="5.12272">
        <ele>448.637205</ele>
        <time>2022-03-12T09:09:04.319Z</time>
      </trkpt>
      <trkpt lat="44.92024" lon="5.1228">
        <ele>449.189582</ele>
        <time>2022-03-12T09:09:08.327Z</time>
      </trkpt>
      <trkpt lat="44.92015" lon="5.12286">
        <ele>449.708173</ele>
        <time>2022-03-12T09:09:12.328Z</time>
      </trkpt>
      <trkpt lat="44.92008" lon="5.12293">
        <ele>450.18772</ele>
        <time>2022-03-12T09:09:16.319Z</time>
      </trkpt>
      <trkpt lat="44.91999" lon="5.12302">
        <ele>451.034124</ele>
        <time>2022-03-12T09:09:21.322Z</time>
      </trkpt>
      <trkpt lat="44.9199" lon="5.1231">
        <ele>451.785161</ele>
        <time>2022-03-12T09:09:26.319Z</time>
      </trkpt>
      <trkpt lat="44.91982" lon="5.12317">
        <ele>452.54546</ele>
        <time>2022-03-12T09:09:31.326Z</time>
      </trkpt>
      <trkpt lat="44.91972" lon="5.12324">
        <ele>453.368898</ele>
        <time>2022-03-12T09:09:36.328Z</time>
      </trkpt>
      <trkpt lat="44.91964" lon="5.1233">
        <ele>454.087566</ele>
        <time>2022-03-12T09:09:40.326Z</time>
      </trkpt>
      <trkpt lat="44.91956" lon="5.12337">
        <ele>454.767458</ele>
        <time>2022-03-12T09:09:44.320Z</time>
      </trkpt>
      <trkpt lat="44.91948" lon="5.12344">
        <ele>455.478622</ele>
        <time>2022-03-12T09:09:48.324Z</time>
      </trkpt>
      <trkpt lat="44.91939" lon="5.12348">
        <ele>456.165147</ele>
        <time>2022-03-12T09:09:52.324Z</time>
      </trkpt>
      <trkpt lat="44.9193" lon="5.12355">
        <ele>457.003086</ele>
        <time>2022-03-12T09:09:57.317Z</time>
      </trkpt>
      <trkpt lat="44.9192" lon="5.12362">
        <ele>457.774027</ele>
        <time>2022-03-12T09:10:01.337Z</time>
      </trkpt>
      <trkpt lat="44.91913" lon="5.12369">
        <ele>458.460242</ele>
        <time>2022-03-12T09:10:05.319Z</time>
      </trkpt>
      <trkpt lat="44.91904" lon="5.12375">
        <ele>459.212927</ele>
        <time>2022-03-12T09:10:09.324Z</time>
      </trkpt>
      <trkpt lat="44.91894" lon="5.12378">
        <ele>459.944195</ele>
        <time>2022-03-12T09:10:13.314Z</time>
      </trkpt>
      <trkpt lat="44.91885" lon="5.1238">
        <ele>460.698317</ele>
        <time>2022-03-12T09:10:17.323Z</time>
      </trkpt>
      <trkpt lat="44.91873" lon="5.12384">
        <ele>461.590327</ele>
        <time>2022-03-12T09:10:21.322Z</time>
      </trkpt>
      <trkpt lat="44.91864" lon="5.12386">
        <ele>462.279356</ele>
        <time>2022-03-12T09:10:24.326Z</time>
      </trkpt>
      <trkpt lat="44.91855" lon="5.1239">
        <ele>462.985346</ele>
        <time>2022-03-12T09:10:27.314Z</time>
      </trkpt>
      <trkpt lat="44.91847" lon="5.12395">
        <ele>463.692452</ele>
        <time>2022-03-12T09:10:30.326Z</time>
      </trkpt>
      <trkpt lat="44.91836" lon="5.12403">
        <ele>464.843898</ele>
        <time>2022-03-12T09:10:34.325Z</time>
      </trkpt>
      <trkpt lat="44.91829" lon="5.12411">
        <ele>465.70467</ele>
        <time>2022-03-12T09:10:37.323Z</time>
      </trkpt>
      <trkpt lat="44.91821" lon="5.12422">
        <ele>466.746026</ele>
        <time>2022-03-12T09:10:41.337Z</time>
      </trkpt>
      <trkpt lat="44.91814" lon="5.12432">
        <ele>467.691145</ele>
        <time>2022-03-12T09:10:46.322Z</time>
      </trkpt>
      <trkpt lat="44.91807" lon="5.12441">
        <ele>468.577017</ele>
        <time>2022-03-12T09:10:51.331Z</time>
      </trkpt>
      <trkpt lat="44.918" lon="5.12452">
        <ele>469.609329</ele>
        <time>2022-03-12T09:10:57.326Z</time>
      </trkpt>
      <trkpt lat="44.91793" lon="5.12461">
        <ele>470.565198</ele>
        <time>2022-03-12T09:11:02.322Z</time>
      </trkpt>
      <trkpt lat="44.91785" lon="5.12472">
        <ele>471.611163</ele>
        <time>2022-03-12T09:11:07.321Z</time>
      </trkpt>
      <trkpt lat="44.91777" lon="5.12479">
        <ele>472.496243</ele>
        <time>2022-03-12T09:11:11.326Z</time>
      </trkpt>
      <trkpt lat="44.91769" lon="5.12489">
        <ele>473.528466</ele>
        <time>2022-03-12T09:11:16.323Z</time>
      </trkpt>
      <trkpt lat="44.91764" lon="5.12503">
        <ele>474.566954</ele>
        <time>2022-03-12T09:11:21.334Z</time>
      </trkpt>
      <trkpt lat="44.91761" lon="5.12516">
        <ele>475.498731</ele>
        <time>2022-03-12T09:11:26.330Z</time>
      </trkpt>
      <trkpt lat="44.91757" lon="5.12529">
        <ele>476.459514</ele>
        <time>2022-03-12T09:11:32.318Z</time>
      </trkpt>
      <trkpt lat="44.91753" lon="5.12542">
        <ele>477.428554</ele>
        <time>2022-03-12T09:11:38.324Z</time>
      </trkpt>
      <trkpt lat="44.9175" lon="5.12556">
        <ele>478.423324</ele>
        <time>2022-03-12T09:11:45.326Z</time>
      </trkpt>
      <trkpt lat="44.91747" lon="5.12569">
        <ele>479.356689</ele>
        <time>2022-03-12T09:11:52.324Z</time>
      </trkpt>
      <trkpt lat="44.91745" lon="5.12582">
        <ele>480.29286</ele>
        <time>2022-03-12T09:11:59.332Z</time>
      </trkpt>
      <trkpt lat="44.91748" lon="5.12602">
        <ele>481.845228</ele>
        <time>2022-03-12T09:12:19.323Z</time>
      </trkpt>
      <trkpt lat="44.91748" lon="5.12615">
        <ele>482.993782</ele>
        <time>2022-03-12T09:12:25.317Z</time>
      </trkpt>
      <trkpt lat="44.91748" lon="5.12629">
        <ele>484.257178</ele>
        <time>2022-03-12T09:12:33.329Z</time>
      </trkpt>
      <trkpt lat="44.9175" lon="5.12642">
        <ele>485.442462</ele>
        <time>2022-03-12T09:12:40.317Z</time>
      </trkpt>
      <trkpt lat="44.91753" lon="5.12655">
        <ele>486.666706</ele>
        <time>2022-03-12T09:12:49.327Z</time>
      </trkpt>
      <trkpt lat="44.91755" lon="5.12668">
        <ele>487.85162</ele>
        <time>2022-03-12T09:12:57.319Z</time>
      </trkpt>
      <trkpt lat="44.91755" lon="5.12682">
        <ele>489.089016</ele>
        <time>2022-03-12T09:13:05.320Z</time>
      </trkpt>
      <trkpt lat="44.91753" lon="5.12695">
        <ele>490.236529</ele>
        <time>2022-03-12T09:13:12.325Z</time>
      </trkpt>
      <trkpt lat="44.91751" lon="5.12708">
        <ele>491.447312</ele>
        <time>2022-03-12T09:13:20.331Z</time>
      </trkpt>
      <trkpt lat="44.91751" lon="5.12722">
        <ele>492.6416</ele>
        <time>2022-03-12T09:13:28.320Z</time>
      </trkpt>
      <trkpt lat="44.91756" lon="5.12734">
        <ele>493.91264</ele>
        <time>2022-03-12T09:13:48.329Z</time>
      </trkpt>
      <trkpt lat="44.91761" lon="5.12745">
        <ele>495.045202</ele>
        <time>2022-03-12T09:13:57.319Z</time>
      </trkpt>
      <trkpt lat="44.91765" lon="5.12757">
        <ele>496.204695</ele>
        <time>2022-03-12T09:14:06.320Z</time>
      </trkpt>
      <trkpt lat="44.91768" lon="5.12769">
        <ele>497.343074</ele>
        <time>2022-03-12T09:14:15.318Z</time>
      </trkpt>
      <trkpt lat="44.91772" lon="5.12781">
        <ele>498.526048</ele>
        <time>2022-03-12T09:14:24.316Z</time>
      </trkpt>
      <trkpt lat="44.91777" lon="5.12797">
        <ele>500.094581</ele>
        <time>2022-03-12T09:15:20.326Z</time>
      </trkpt>
      <trkpt lat="44.91781" lon="5.12811">
        <ele>501.378207</ele>
        <time>2022-03-12T09:15:27.333Z</time>
      </trkpt>
      <trkpt lat="44.91786" lon="5.12822">
        <ele>502.55124</ele>
        <time>2022-03-12T09:15:33.326Z</time>
      </trkpt>
      <trkpt lat="44.91792" lon="5.12834">
        <ele>503.708876</ele>
        <time>2022-03-12T09:15:40.319Z</time>
      </trkpt>
      <trkpt lat="44.91798" lon="5.12844">
        <ele>504.652605</ele>
        <time>2022-03-12T09:15:47.327Z</time>
      </trkpt>
      <trkpt lat="44.91802" lon="5.12856">
        <ele>505.600763</ele>
        <time>2022-03-12T09:15:54.331Z</time>
      </trkpt>
      <trkpt lat="44.91806" lon="5.12868">
        <ele>506.540016</ele>
        <time>2022-03-12T09:16:01.317Z</time>
      </trkpt>
      <trkpt lat="44.91808" lon="5.12881">
        <ele>507.461342</ele>
        <time>2022-03-12T09:16:09.324Z</time>
      </trkpt>
      <trkpt lat="44.91811" lon="5.12893">
        <ele>508.360731</ele>
        <time>2022-03-12T09:16:16.319Z</time>
      </trkpt>
      <trkpt lat="44.91815" lon="5.12904">
        <ele>509.265786</ele>
        <time>2022-03-12T09:16:23.331Z</time>
      </trkpt>
      <trkpt lat="44.91822" lon="5.12914">
        <ele>510.208141</ele>
        <time>2022-03-12T09:16:31.327Z</time>
      </trkpt>
      <trkpt lat="44.9183" lon="5.1292">
        <ele>511.13467</ele>
        <time>2022-03-12T09:16:39.325Z</time>
      </trkpt>
      <trkpt lat="44.91839" lon="5.12925">
        <ele>512.087073</ele>
        <time>2022-03-12T09:16:46.326Z</time>
      </trkpt>
      <trkpt lat="44.91849" lon="5.1293">
        <ele>513.087803</ele>
        <time>2022-03-12T09:16:53.320Z</time>
      </trkpt>
      <trkpt lat="44.91857" lon="5.12933">
        <ele>513.978733</ele>
        <time>2022-03-12T09:16:59.321Z</time>
      </trkpt>
      <trkpt lat="44.91867" lon="5.12935">
        <ele>514.932062</ele>
        <time>2022-03-12T09:17:05.320Z</time>
      </trkpt>
      <trkpt lat="44.91876" lon="5.12936">
        <ele>515.866738</ele>
        <time>2022-03-12T09:17:11.321Z</time>
      </trkpt>
      <trkpt lat="44.91886" lon="5.12936">
        <ele>516.789903</ele>
        <time>2022-03-12T09:17:17.326Z</time>
      </trkpt>
      <trkpt lat="44.91896" lon="5.12939">
        <ele>517.838194</ele>
        <time>2022-03-12T09:17:23.331Z</time>
      </trkpt>
      <trkpt lat="44.91902" lon="5.1295">
        <ele>518.79619</ele>
        <time>2022-03-12T09:17:29.322Z</time>
      </trkpt>
      <trkpt lat="44.91901" lon="5.12963">
        <ele>519.736195</ele>
        <time>2022-03-12T09:17:36.318Z</time>
      </trkpt>
      <trkpt lat="44.919" lon="5.12978">
        <ele>520.735433</ele>
        <time>2022-03-12T09:17:44.327Z</time>
      </trkpt>
      <trkpt lat="44.919" lon="5.12991">
        <ele>521.604938</ele>
        <time>2022-03-12T09:17:52.320Z</time>
      </trkpt>
      <trkpt lat="44.91901" lon="5.13004">
        <ele>522.341957</ele>
        <time>2022-03-12T09:17:59.322Z</time>
      </trkpt>
      <trkpt lat="44.919" lon="5.13018">
        <ele>523.093007</ele>
        <time>2022-03-12T09:18:07.322Z</time>
      </trkpt>
      <trkpt lat="44.91898" lon="5.1303">
        <ele>523.808146</ele>
        <time>2022-03-12T09:18:14.323Z</time>
      </trkpt>
      <trkpt lat="44.91896" lon="5.13043">
        <ele>524.550874</ele>
        <time>2022-03-12T09:18:21.324Z</time>
      </trkpt>
      <trkpt lat="44.91893" lon="5.13057">
        <ele>525.344737</ele>
        <time>2022-03-12T09:18:28.318Z</time>
      </trkpt>
      <trkpt lat="44.91889" lon="5.13069">
        <ele>526.083326</ele>
        <time>2022-03-12T09:18:35.326Z</time>
      </trkpt>
      <trkpt lat="44.91886" lon="5.13081">
        <ele>526.829552</ele>
        <time>2022-03-12T09:18:42.320Z</time>
      </trkpt>
      <trkpt lat="44.91882" lon="5.13093">
        <ele>527.566393</ele>
        <time>2022-03-12T09:18:49.327Z</time>
      </trkpt>
      <trkpt lat="44.91878" lon="5.13106">
        <ele>528.332461</ele>
        <time>2022-03-12T09:18:57.319Z</time>
      </trkpt>
      <trkpt lat="44.91877" lon="5.1312">
        <ele>529.110477</ele>
        <time>2022-03-12T09:19:05.310Z</time>
      </trkpt>
      <trkpt lat="44.91877" lon="5.13132">
        <ele>529.821975</ele>
        <time>2022-03-12T09:19:12.320Z</time>
      </trkpt>
      <trkpt lat="44.91881" lon="5.13144">
        <ele>530.574272</ele>
        <time>2022-03-12T09:19:20.331Z</time>
      </trkpt>
      <trkpt lat="44.91887" lon="5.13155">
        <ele>531.320327</ele>
        <time>2022-03-12T09:19:28.317Z</time>
      </trkpt>
      <trkpt lat="44.91896" lon="5.13162">
        <ele>532.096545</ele>
        <time>2022-03-12T09:19:37.314Z</time>
      </trkpt>
      <trkpt lat="44.91904" lon="5.13168">
        <ele>532.806363</ele>
        <time>2022-03-12T09:19:44.319Z</time>
      </trkpt>
      <trkpt lat="44.91912" lon="5.13174">
        <ele>533.54112</ele>
        <time>2022-03-12T09:19:51.319Z</time>
      </trkpt>
      <trkpt lat="44.91921" lon="5.13181">
        <ele>534.341707</ele>
        <time>2022-03-12T09:19:58.324Z</time>
      </trkpt>
      <trkpt lat="44.9193" lon="5.13186">
        <ele>535.123189</ele>
        <time>2022-03-12T09:20:05.322Z</time>
      </trkpt>
      <trkpt lat="44.91937" lon="5.13197">
        <ele>535.695647</ele>
        <time>2022-03-12T09:20:11.324Z</time>
      </trkpt>
      <trkpt lat="44.91943" lon="5.13211">
        <ele>536.137155</ele>
        <time>2022-03-12T09:20:16.315Z</time>
      </trkpt>
      <trkpt lat="44.91945" lon="5.13224">
        <ele>536.500454</ele>
        <time>2022-03-12T09:20:19.314Z</time>
      </trkpt>
      <trkpt lat="44.91948" lon="5.13242">
        <ele>536.998719</ele>
        <time>2022-03-12T09:20:22.323Z</time>
      </trkpt>
      <trkpt lat="44.91949" lon="5.13256">
        <ele>537.362918</ele>
        <time>2022-03-12T09:20:24.322Z</time>
      </trkpt>
      <trkpt lat="44.91949" lon="5.13268">
        <ele>537.707919</ele>
        <time>2022-03-12T09:20:26.323Z</time>
      </trkpt>
      <trkpt lat="44.91948" lon="5.13284">
        <ele>538.137723</ele>
        <time>2022-03-12T09:20:29.323Z</time>
      </trkpt>
      <trkpt lat="44.9195" lon="5.13298">
        <ele>538.516218</ele>
        <time>2022-03-12T09:20:32.327Z</time>
      </trkpt>
      <trkpt lat="44.91959" lon="5.13302">
        <ele>538.876571</ele>
        <time>2022-03-12T09:20:37.320Z</time>
      </trkpt>
      <trkpt lat="44.91967" lon="5.13294">
        <ele>539.237128</ele>
        <time>2022-03-12T09:20:44.329Z</time>
      </trkpt>
      <trkpt lat="44.91972" lon="5.13282">
        <ele>539.607363</ele>
        <time>2022-03-12T09:20:54.319Z</time>
      </trkpt>
      <trkpt lat="44.91979" lon="5.13273">
        <ele>539.966204</ele>
        <time>2022-03-12T09:21:01.320Z</time>
      </trkpt>
      <trkpt lat="44.91984" lon="5.13261">
        <ele>540.352685</ele>
        <time>2022-03-12T09:21:08.325Z</time>
      </trkpt>
      <trkpt lat="44.91993" lon="5.13258">
        <ele>540.705642</ele>
        <time>2022-03-12T09:21:14.327Z</time>
      </trkpt>
      <trkpt lat="44.92001" lon="5.13265">
        <ele>541.052592</ele>
        <time>2022-03-12T09:21:19.320Z</time>
      </trkpt>
      <trkpt lat="44.92004" lon="5.13278">
        <ele>541.443106</ele>
        <time>2022-03-12T09:21:26.321Z</time>
      </trkpt>
      <trkpt lat="44.92006" lon="5.13292">
        <ele>541.819399</ele>
        <time>2022-03-12T09:21:34.324Z</time>
      </trkpt>
      <trkpt lat="44.92011" lon="5.13303">
        <ele>542.171559</ele>
        <time>2022-03-12T09:21:42.320Z</time>
      </trkpt>
      <trkpt lat="44.92018" lon="5.1331">
        <ele>542.341763</ele>
        <time>2022-03-12T09:21:49.328Z</time>
      </trkpt>
      <trkpt lat="44.92027" lon="5.13318">
        <ele>542.325725</ele>
        <time>2022-03-12T09:21:55.326Z</time>
      </trkpt>
      <trkpt lat="44.92035" lon="5.13326">
        <ele>542.310751</ele>
        <time>2022-03-12T09:22:00.319Z</time>
      </trkpt>
      <trkpt lat="44.92045" lon="5.13332">
        <ele>542.294852</ele>
        <time>2022-03-12T09:22:05.328Z</time>
      </trkpt>
      <trkpt lat="44.92054" lon="5.13339">
        <ele>542.279809</ele>
        <time>2022-03-12T09:22:09.329Z</time>
      </trkpt>
      <trkpt lat="44.92062" lon="5.13346">
        <ele>542.265068</ele>
        <time>2022-03-12T09:22:13.314Z</time>
      </trkpt>
      <trkpt lat="44.92072" lon="5.13356">
        <ele>542.246505</ele>
        <time>2022-03-12T09:22:17.323Z</time>
      </trkpt>
      <trkpt lat="44.92081" lon="5.13367">
        <ele>542.228263</ele>
        <time>2022-03-12T09:22:20.322Z</time>
      </trkpt>
      <trkpt lat="44.92089" lon="5.13379">
        <ele>542.210653</ele>
        <time>2022-03-12T09:22:23.309Z</time>
      </trkpt>
      <trkpt lat="44.92096" lon="5.1339">
        <ele>542.19509</ele>
        <time>2022-03-12T09:22:26.327Z</time>
      </trkpt>
      <trkpt lat="44.92103" lon="5.13401">
        <ele>542.17866</ele>
        <time>2022-03-12T09:22:29.322Z</time>
      </trkpt>
      <trkpt lat="44.92111" lon="5.13414">
        <ele>542.160645</ele>
        <time>2022-03-12T09:22:32.322Z</time>
      </trkpt>
      <trkpt lat="44.92118" lon="5.13422">
        <ele>542.146414</ele>
        <time>2022-03-12T09:22:34.326Z</time>
      </trkpt>
      <trkpt lat="44.92129" lon="5.13426">
        <ele>542.129153</ele>
        <time>2022-03-12T09:22:37.327Z</time>
      </trkpt>
      <trkpt lat="44.92139" lon="5.13428">
        <ele>542.11457</ele>
        <time>2022-03-12T09:22:41.331Z</time>
      </trkpt>
      <trkpt lat="44.92149" lon="5.13432">
        <ele>542.09911</ele>
        <time>2022-03-12T09:22:45.323Z</time>
      </trkpt>
      <trkpt lat="44.9216" lon="5.13437">
        <ele>542.08186</ele>
        <time>2022-03-12T09:22:49.321Z</time>
      </trkpt>
      <trkpt lat="44.9217" lon="5.13444">
        <ele>542.35889</ele>
        <time>2022-03-12T09:22:53.322Z</time>
      </trkpt>
      <trkpt lat="44.92178" lon="5.13451">
        <ele>542.736681</ele>
        <time>2022-03-12T09:22:56.318Z</time>
      </trkpt>
      <trkpt lat="44.92186" lon="5.1346">
        <ele>543.108738</ele>
        <time>2022-03-12T09:22:59.322Z</time>
      </trkpt>
      <trkpt lat="44.92192" lon="5.1347">
        <ele>543.465082</ele>
        <time>2022-03-12T09:23:02.329Z</time>
      </trkpt>
      <trkpt lat="44.92199" lon="5.13478">
        <ele>543.816011</ele>
        <time>2022-03-12T09:23:05.327Z</time>
      </trkpt>
      <trkpt lat="44.92208" lon="5.13487">
        <ele>544.261899</ele>
        <time>2022-03-12T09:23:09.328Z</time>
      </trkpt>
      <trkpt lat="44.92216" lon="5.13495">
        <ele>544.611969</ele>
        <time>2022-03-12T09:23:12.314Z</time>
      </trkpt>
      <trkpt lat="44.92221" lon="5.13505">
        <ele>544.959206</ele>
        <time>2022-03-12T09:23:15.332Z</time>
      </trkpt>
      <trkpt lat="44.92225" lon="5.13519">
        <ele>545.382268</ele>
        <time>2022-03-12T09:23:19.323Z</time>
      </trkpt>
      <trkpt lat="44.92226" lon="5.13533">
        <ele>545.759398</ele>
        <time>2022-03-12T09:23:23.331Z</time>
      </trkpt>
      <trkpt lat="44.92226" lon="5.13548">
        <ele>546.172646</ele>
        <time>2022-03-12T09:23:28.340Z</time>
      </trkpt>
      <trkpt lat="44.92227" lon="5.13562">
        <ele>546.553428</ele>
        <time>2022-03-12T09:23:33.329Z</time>
      </trkpt>
      <trkpt lat="44.92229" lon="5.13577">
        <ele>546.964555</ele>
        <time>2022-03-12T09:23:38.327Z</time>
      </trkpt>
      <trkpt lat="44.92231" lon="5.13589">
        <ele>547.317679</ele>
        <time>2022-03-12T09:23:42.327Z</time>
      </trkpt>
      <trkpt lat="44.92237" lon="5.13602">
        <ele>547.731365</ele>
        <time>2022-03-12T09:23:47.321Z</time>
      </trkpt>
      <trkpt lat="44.92243" lon="5.13613">
        <ele>548.096827</ele>
        <time>2022-03-12T09:23:51.324Z</time>
      </trkpt>
      <trkpt lat="44.9225" lon="5.13621">
        <ele>548.451958</ele>
        <time>2022-03-12T09:23:55.323Z</time>
      </trkpt>
      <trkpt lat="44.9226" lon="5.13628">
        <ele>548.880482</ele>
        <time>2022-03-12T09:24:00.331Z</time>
      </trkpt>
      <trkpt lat="44.9227" lon="5.13633">
        <ele>548.522541</ele>
        <time>2022-03-12T09:24:04.339Z</time>
      </trkpt>
      <trkpt lat="44.92281" lon="5.13639">
        <ele>547.800803</ele>
        <time>2022-03-12T09:24:08.323Z</time>
      </trkpt>
      <trkpt lat="44.92291" lon="5.13647">
        <ele>547.144047</ele>
        <time>2022-03-12T09:24:11.317Z</time>
      </trkpt>
      <trkpt lat="44.92301" lon="5.13656">
        <ele>546.473488</ele>
        <time>2022-03-12T09:24:14.337Z</time>
      </trkpt>
      <trkpt lat="44.9231" lon="5.13664">
        <ele>545.834456</ele>
        <time>2022-03-12T09:24:18.330Z</time>
      </trkpt>
      <trkpt lat="44.92319" lon="5.13658">
        <ele>545.23635</ele>
        <time>2022-03-12T09:24:22.325Z</time>
      </trkpt>
      <trkpt lat="44.92325" lon="5.13646">
        <ele>544.619</ele>
        <time>2022-03-12T09:24:25.325Z</time>
      </trkpt>
      <trkpt lat="44.92331" lon="5.13634">
        <ele>543.964144</ele>
        <time>2022-03-12T09:24:28.328Z</time>
      </trkpt>
      <trkpt lat="44.92339" lon="5.13619">
        <ele>543.209767</ele>
        <time>2022-03-12T09:24:31.321Z</time>
      </trkpt>
      <trkpt lat="44.92345" lon="5.13609">
        <ele>542.649132</ele>
        <time>2022-03-12T09:24:33.340Z</time>
      </trkpt>
      <trkpt lat="44.92352" lon="5.13597">
        <ele>542.00772</ele>
        <time>2022-03-12T09:24:35.324Z</time>
      </trkpt>
      <trkpt lat="44.92358" lon="5.13582">
        <ele>541.27712</ele>
        <time>2022-03-12T09:24:37.333Z</time>
      </trkpt>
      <trkpt lat="44.92365" lon="5.13565">
        <ele>540.473269</ele>
        <time>2022-03-12T09:24:39.322Z</time>
      </trkpt>
      <trkpt lat="44.92372" lon="5.13548">
        <ele>539.667694</ele>
        <time>2022-03-12T09:24:41.331Z</time>
      </trkpt>
      <trkpt lat="44.92378" lon="5.1353">
        <ele>538.81785</ele>
        <time>2022-03-12T09:24:43.330Z</time>
      </trkpt>
      <trkpt lat="44.92384" lon="5.13513">
        <ele>537.523578</ele>
        <time>2022-03-12T09:24:45.331Z</time>
      </trkpt>
      <trkpt lat="44.92389" lon="5.13496">
        <ele>535.76549</ele>
        <time>2022-03-12T09:24:47.322Z</time>
      </trkpt>
      <trkpt lat="44.92393" lon="5.1348">
        <ele>534.10577</ele>
        <time>2022-03-12T09:24:49.322Z</time>
      </trkpt>
      <trkpt lat="44.92396" lon="5.13465">
        <ele>532.620364</ele>
        <time>2022-03-12T09:24:52.316Z</time>
      </trkpt>
      <trkpt lat="44.924" lon="5.13451">
        <ele>531.162019</ele>
        <time>2022-03-12T09:24:59.325Z</time>
      </trkpt>
      <trkpt lat="44.92406" lon="5.13435">
        <ele>529.412237</ele>
        <time>2022-03-12T09:25:02.329Z</time>
      </trkpt>
      <trkpt lat="44.92412" lon="5.1342">
        <ele>527.787153</ele>
        <time>2022-03-12T09:25:04.325Z</time>
      </trkpt>
      <trkpt lat="44.92418" lon="5.13404">
        <ele>525.956327</ele>
        <time>2022-03-12T09:25:06.328Z</time>
      </trkpt>
      <trkpt lat="44.92425" lon="5.13386">
        <ele>523.958744</ele>
        <time>2022-03-12T09:25:08.324Z</time>
      </trkpt>
      <trkpt lat="44.92431" lon="5.13367">
        <ele>521.930142</ele>
        <time>2022-03-12T09:25:10.325Z</time>
      </trkpt>
      <trkpt lat="44.92438" lon="5.13349">
        <ele>520.014012</ele>
        <time>2022-03-12T09:25:12.326Z</time>
      </trkpt>
      <trkpt lat="44.92446" lon="5.13336">
        <ele>518.247797</ele>
        <time>2022-03-12T09:25:14.326Z</time>
      </trkpt>
      <trkpt lat="44.92457" lon="5.13329">
        <ele>516.632419</ele>
        <time>2022-03-12T09:25:16.332Z</time>
      </trkpt>
      <trkpt lat="44.92471" lon="5.1333">
        <ele>514.751388</ele>
        <time>2022-03-12T09:25:18.326Z</time>
      </trkpt>
      <trkpt lat="44.92486" lon="5.13333">
        <ele>512.85225</ele>
        <time>2022-03-12T09:25:20.322Z</time>
      </trkpt>
      <trkpt lat="44.92504" lon="5.13334">
        <ele>510.961636</ele>
        <time>2022-03-12T09:25:22.325Z</time>
      </trkpt>
      <trkpt lat="44.92513" lon="5.13335">
        <ele>509.980447</ele>
        <time>2022-03-12T09:25:23.328Z</time>
      </trkpt>
      <trkpt lat="44.92531" lon="5.13337">
        <ele>508.097825</ele>
        <time>2022-03-12T09:25:25.324Z</time>
      </trkpt>
      <trkpt lat="44.92548" lon="5.13344">
        <ele>506.2055</ele>
        <time>2022-03-12T09:25:27.316Z</time>
      </trkpt>
      <trkpt lat="44.92557" lon="5.13347">
        <ele>505.214087</ele>
        <time>2022-03-12T09:25:28.315Z</time>
      </trkpt>
      <trkpt lat="44.92566" lon="5.13349">
        <ele>504.196906</ele>
        <time>2022-03-12T09:25:29.324Z</time>
      </trkpt>
      <trkpt lat="44.92576" lon="5.13351">
        <ele>503.194996</ele>
        <time>2022-03-12T09:25:30.318Z</time>
      </trkpt>
      <trkpt lat="44.92585" lon="5.13352">
        <ele>502.211167</ele>
        <time>2022-03-12T09:25:31.327Z</time>
      </trkpt>
      <trkpt lat="44.92594" lon="5.13353">
        <ele>501.218543</ele>
        <time>2022-03-12T09:25:32.331Z</time>
      </trkpt>
      <trkpt lat="44.92604" lon="5.13354">
        <ele>500.181553</ele>
        <time>2022-03-12T09:25:33.326Z</time>
      </trkpt>
      <trkpt lat="44.92614" lon="5.13355">
        <ele>499.134445</ele>
        <time>2022-03-12T09:25:34.323Z</time>
      </trkpt>
      <trkpt lat="44.92623" lon="5.13356">
        <ele>498.118132</ele>
        <time>2022-03-12T09:25:35.331Z</time>
      </trkpt>
      <trkpt lat="44.92632" lon="5.13357">
        <ele>497.120926</ele>
        <time>2022-03-12T09:25:36.325Z</time>
      </trkpt>
      <trkpt lat="44.92642" lon="5.13359">
        <ele>496.079658</ele>
        <time>2022-03-12T09:25:37.323Z</time>
      </trkpt>
      <trkpt lat="44.92652" lon="5.13361">
        <ele>495.026905</ele>
        <time>2022-03-12T09:25:38.325Z</time>
      </trkpt>
      <trkpt lat="44.92662" lon="5.13362">
        <ele>494.004401</ele>
        <time>2022-03-12T09:25:39.324Z</time>
      </trkpt>
      <trkpt lat="44.92672" lon="5.13364">
        <ele>493.026904</ele>
        <time>2022-03-12T09:25:40.328Z</time>
      </trkpt>
      <trkpt lat="44.92683" lon="5.13366">
        <ele>492.040908</ele>
        <time>2022-03-12T09:25:41.321Z</time>
      </trkpt>
      <trkpt lat="44.92693" lon="5.13368">
        <ele>491.079228</ele>
        <time>2022-03-12T09:25:42.324Z</time>
      </trkpt>
      <trkpt lat="44.92703" lon="5.13371">
        <ele>490.132831</ele>
        <time>2022-03-12T09:25:43.326Z</time>
      </trkpt>
      <trkpt lat="44.92712" lon="5.13373">
        <ele>489.262887</ele>
        <time>2022-03-12T09:25:44.326Z</time>
      </trkpt>
      <trkpt lat="44.92729" lon="5.13378">
        <ele>487.640703</ele>
        <time>2022-03-12T09:25:46.328Z</time>
      </trkpt>
      <trkpt lat="44.92744" lon="5.13385">
        <ele>486.143316</ele>
        <time>2022-03-12T09:25:48.325Z</time>
      </trkpt>
      <trkpt lat="44.92758" lon="5.13395">
        <ele>484.698655</ele>
        <time>2022-03-12T09:25:50.328Z</time>
      </trkpt>
      <trkpt lat="44.92771" lon="5.13406">
        <ele>483.241907</ele>
        <time>2022-03-12T09:25:52.318Z</time>
      </trkpt>
      <trkpt lat="44.92785" lon="5.13415">
        <ele>481.797247</ele>
        <time>2022-03-12T09:25:54.326Z</time>
      </trkpt>
      <trkpt lat="44.92799" lon="5.13424">
        <ele>480.324314</ele>
        <time>2022-03-12T09:25:56.326Z</time>
      </trkpt>
      <trkpt lat="44.92814" lon="5.13432">
        <ele>478.860181</ele>
        <time>2022-03-12T09:25:58.318Z</time>
      </trkpt>
      <trkpt lat="44.92829" lon="5.13438">
        <ele>477.417752</ele>
        <time>2022-03-12T09:26:00.325Z</time>
      </trkpt>
      <trkpt lat="44.92845" lon="5.13445">
        <ele>476.102727</ele>
        <time>2022-03-12T09:26:02.331Z</time>
      </trkpt>
      <trkpt lat="44.9286" lon="5.13454">
        <ele>474.742818</ele>
        <time>2022-03-12T09:26:04.323Z</time>
      </trkpt>
      <trkpt lat="44.92868" lon="5.1346">
        <ele>474.018306</ele>
        <time>2022-03-12T09:26:05.325Z</time>
      </trkpt>
      <trkpt lat="44.92877" lon="5.13465">
        <ele>473.300095</ele>
        <time>2022-03-12T09:26:06.318Z</time>
      </trkpt>
      <trkpt lat="44.92885" lon="5.13468">
        <ele>472.567993</ele>
        <time>2022-03-12T09:26:07.329Z</time>
      </trkpt>
      <trkpt lat="44.92895" lon="5.1347">
        <ele>471.804985</ele>
        <time>2022-03-12T09:26:08.321Z</time>
      </trkpt>
      <trkpt lat="44.92904" lon="5.13471">
        <ele>471.057642</ele>
        <time>2022-03-12T09:26:09.325Z</time>
      </trkpt>
      <trkpt lat="44.92913" lon="5.13472">
        <ele>470.335838</ele>
        <time>2022-03-12T09:26:10.340Z</time>
      </trkpt>
      <trkpt lat="44.9293" lon="5.13475">
        <ele>469.002134</ele>
        <time>2022-03-12T09:26:12.325Z</time>
      </trkpt>
      <trkpt lat="44.92947" lon="5.13479">
        <ele>467.604188</ele>
        <time>2022-03-12T09:26:14.326Z</time>
      </trkpt>
      <trkpt lat="44.92965" lon="5.13482">
        <ele>466.152763</ele>
        <time>2022-03-12T09:26:16.324Z</time>
      </trkpt>
      <trkpt lat="44.92974" lon="5.13483">
        <ele>465.387272</ele>
        <time>2022-03-12T09:26:17.325Z</time>
      </trkpt>
      <trkpt lat="44.92984" lon="5.13484">
        <ele>464.593982</ele>
        <time>2022-03-12T09:26:18.330Z</time>
      </trkpt>
      <trkpt lat="44.92994" lon="5.13484">
        <ele>463.808694</ele>
        <time>2022-03-12T09:26:19.313Z</time>
      </trkpt>
      <trkpt lat="44.93004" lon="5.13485">
        <ele>462.915873</ele>
        <time>2022-03-12T09:26:20.328Z</time>
      </trkpt>
      <trkpt lat="44.93014" lon="5.13485">
        <ele>461.818696</ele>
        <time>2022-03-12T09:26:21.328Z</time>
      </trkpt>
      <trkpt lat="44.93023" lon="5.13485">
        <ele>460.732592</ele>
        <time>2022-03-12T09:26:22.320Z</time>
      </trkpt>
      <trkpt lat="44.93033" lon="5.13484">
        <ele>459.669256</ele>
        <time>2022-03-12T09:26:23.331Z</time>
      </trkpt>
      <trkpt lat="44.9305" lon="5.13482">
        <ele>457.677206</ele>
        <time>2022-03-12T09:26:25.320Z</time>
      </trkpt>
      <trkpt lat="44.93068" lon="5.13478">
        <ele>455.681298</ele>
        <time>2022-03-12T09:26:27.328Z</time>
      </trkpt>
      <trkpt lat="44.93085" lon="5.13477">
        <ele>453.754197</ele>
        <time>2022-03-12T09:26:29.318Z</time>
      </trkpt>
      <trkpt lat="44.93102" lon="5.13477">
        <ele>451.83121</ele>
        <time>2022-03-12T09:26:31.319Z</time>
      </trkpt>
      <trkpt lat="44.93119" lon="5.13477">
        <ele>449.908306</ele>
        <time>2022-03-12T09:26:33.326Z</time>
      </trkpt>
      <trkpt lat="44.93135" lon="5.13479">
        <ele>448.025784</ele>
        <time>2022-03-12T09:26:35.326Z</time>
      </trkpt>
      <trkpt lat="44.93151" lon="5.13483">
        <ele>446.235961</ele>
        <time>2022-03-12T09:26:37.331Z</time>
      </trkpt>
      <trkpt lat="44.93165" lon="5.1349">
        <ele>444.547596</ele>
        <time>2022-03-12T09:26:39.331Z</time>
      </trkpt>
      <trkpt lat="44.93178" lon="5.13495">
        <ele>442.986696</ele>
        <time>2022-03-12T09:26:41.324Z</time>
      </trkpt>
      <trkpt lat="44.93192" lon="5.13495">
        <ele>441.96873</ele>
        <time>2022-03-12T09:26:43.321Z</time>
      </trkpt>
      <trkpt lat="44.93205" lon="5.13497">
        <ele>441.012403</ele>
        <time>2022-03-12T09:26:45.334Z</time>
      </trkpt>
      <trkpt lat="44.93218" lon="5.13506">
        <ele>440.009732</ele>
        <time>2022-03-12T09:26:47.331Z</time>
      </trkpt>
      <trkpt lat="44.93231" lon="5.13512">
        <ele>439.027046</ele>
        <time>2022-03-12T09:26:49.328Z</time>
      </trkpt>
      <trkpt lat="44.93245" lon="5.13515">
        <ele>438.028726</ele>
        <time>2022-03-12T09:26:51.334Z</time>
      </trkpt>
      <trkpt lat="44.9326" lon="5.13517">
        <ele>436.971244</ele>
        <time>2022-03-12T09:26:53.328Z</time>
      </trkpt>
      <trkpt lat="44.93274" lon="5.13518">
        <ele>435.912446</ele>
        <time>2022-03-12T09:26:55.330Z</time>
      </trkpt>
      <trkpt lat="44.93288" lon="5.13513">
        <ele>434.904417</ele>
        <time>2022-03-12T09:26:57.333Z</time>
      </trkpt>
      <trkpt lat="44.933" lon="5.13505">
        <ele>433.949077</ele>
        <time>2022-03-12T09:26:59.325Z</time>
      </trkpt>
      <trkpt lat="44.93311" lon="5.13496">
        <ele>433.050799</ele>
        <time>2022-03-12T09:27:01.326Z</time>
      </trkpt>
      <trkpt lat="44.93321" lon="5.13486">
        <ele>432.174762</ele>
        <time>2022-03-12T09:27:03.321Z</time>
      </trkpt>
      <trkpt lat="44.93331" lon="5.13476">
        <ele>431.315916</ele>
        <time>2022-03-12T09:27:05.335Z</time>
      </trkpt>
      <trkpt lat="44.9334" lon="5.13466">
        <ele>430.468808</ele>
        <time>2022-03-12T09:27:07.324Z</time>
      </trkpt>
      <trkpt lat="44.93349" lon="5.13456">
        <ele>429.944095</ele>
        <time>2022-03-12T09:27:09.330Z</time>
      </trkpt>
      <trkpt lat="44.93358" lon="5.13446">
        <ele>429.788232</ele>
        <time>2022-03-12T09:27:11.328Z</time>
      </trkpt>
      <trkpt lat="44.93365" lon="5.13437">
        <ele>429.644611</ele>
        <time>2022-03-12T09:27:13.318Z</time>
      </trkpt>
      <trkpt lat="44.93372" lon="5.13426">
        <ele>429.498056</ele>
        <time>2022-03-12T09:27:15.330Z</time>
      </trkpt>
      <trkpt lat="44.93379" lon="5.13416">
        <ele>429.34725</ele>
        <time>2022-03-12T09:27:17.327Z</time>
      </trkpt>
      <trkpt lat="44.93384" lon="5.13404">
        <ele>429.205377</ele>
        <time>2022-03-12T09:27:19.319Z</time>
      </trkpt>
      <trkpt lat="44.93387" lon="5.13387">
        <ele>429.021276</ele>
        <time>2022-03-12T09:27:22.321Z</time>
      </trkpt>
      <trkpt lat="44.9339" lon="5.13369">
        <ele>428.832075</ele>
        <time>2022-03-12T09:27:25.324Z</time>
      </trkpt>
      <trkpt lat="44.93395" lon="5.13353">
        <ele>428.652623</ele>
        <time>2022-03-12T09:27:28.322Z</time>
      </trkpt>
      <trkpt lat="44.934" lon="5.13335">
        <ele>428.452019</ele>
        <time>2022-03-12T09:27:31.318Z</time>
      </trkpt>
      <trkpt lat="44.93406" lon="5.13323">
        <ele>428.301935</ele>
        <time>2022-03-12T09:27:33.325Z</time>
      </trkpt>
      <trkpt lat="44.9341" lon="5.13308">
        <ele>428.133295</ele>
        <time>2022-03-12T09:27:35.325Z</time>
      </trkpt>
      <trkpt lat="44.93412" lon="5.13287">
        <ele>427.919813</ele>
        <time>2022-03-12T09:27:37.329Z</time>
      </trkpt>
      <trkpt lat="44.93414" lon="5.13264">
        <ele>427.681663</ele>
        <time>2022-03-12T09:27:39.326Z</time>
      </trkpt>
      <trkpt lat="44.93415" lon="5.13243">
        <ele>427.464948</ele>
        <time>2022-03-12T09:27:41.323Z</time>
      </trkpt>
      <trkpt lat="44.93419" lon="5.13226">
        <ele>426.950187</ele>
        <time>2022-03-12T09:27:43.323Z</time>
      </trkpt>
      <trkpt lat="44.93425" lon="5.13209">
        <ele>426.288702</ele>
        <time>2022-03-12T09:27:45.333Z</time>
      </trkpt>
      <trkpt lat="44.93433" lon="5.13195">
        <ele>425.618683</ele>
        <time>2022-03-12T09:27:47.328Z</time>
      </trkpt>
      <trkpt lat="44.93443" lon="5.13182">
        <ele>424.919855</ele>
        <time>2022-03-12T09:27:49.325Z</time>
      </trkpt>
      <trkpt lat="44.93451" lon="5.13168">
        <ele>424.281054</ele>
        <time>2022-03-12T09:27:51.333Z</time>
      </trkpt>
      <trkpt lat="44.93455" lon="5.1315">
        <ele>423.583058</ele>
        <time>2022-03-12T09:27:53.323Z</time>
      </trkpt>
      <trkpt lat="44.93458" lon="5.13128">
        <ele>422.751613</ele>
        <time>2022-03-12T09:27:55.319Z</time>
      </trkpt>
      <trkpt lat="44.93463" lon="5.13105">
        <ele>421.893109</ele>
        <time>2022-03-12T09:27:57.323Z</time>
      </trkpt>
      <trkpt lat="44.93469" lon="5.13084">
        <ele>421.069179</ele>
        <time>2022-03-12T09:27:59.319Z</time>
      </trkpt>
      <trkpt lat="44.93477" lon="5.13067">
        <ele>420.316755</ele>
        <time>2022-03-12T09:28:01.326Z</time>
      </trkpt>
      <trkpt lat="44.93487" lon="5.13053">
        <ele>419.578144</ele>
        <time>2022-03-12T09:28:03.333Z</time>
      </trkpt>
      <trkpt lat="44.93496" lon="5.1304">
        <ele>418.905683</ele>
        <time>2022-03-12T09:28:05.323Z</time>
      </trkpt>
      <trkpt lat="44.93505" lon="5.13025">
        <ele>418.236107</ele>
        <time>2022-03-12T09:28:07.330Z</time>
      </trkpt>
      <trkpt lat="44.93511" lon="5.13009">
        <ele>417.762474</ele>
        <time>2022-03-12T09:28:09.326Z</time>
      </trkpt>
      <trkpt lat="44.93515" lon="5.12993">
        <ele>417.34429</ele>
        <time>2022-03-12T09:28:11.329Z</time>
      </trkpt>
      <trkpt lat="44.93517" lon="5.12977">
        <ele>416.934116</ele>
        <time>2022-03-12T09:28:13.320Z</time>
      </trkpt>
      <trkpt lat="44.93522" lon="5.12961">
        <ele>416.504413</ele>
        <time>2022-03-12T09:28:15.335Z</time>
      </trkpt>
      <trkpt lat="44.93531" lon="5.12946">
        <ele>416.02505</ele>
        <time>2022-03-12T09:28:17.328Z</time>
      </trkpt>
      <trkpt lat="44.93541" lon="5.12933">
        <ele>415.544947</ele>
        <time>2022-03-12T09:28:19.337Z</time>
      </trkpt>
      <trkpt lat="44.93553" lon="5.12925">
        <ele>415.102199</ele>
        <time>2022-03-12T09:28:21.321Z</time>
      </trkpt>
      <trkpt lat="44.93561" lon="5.12918">
        <ele>414.764374</ele>
        <time>2022-03-12T09:28:23.318Z</time>
      </trkpt>
      <trkpt lat="44.93564" lon="5.12906">
        <ele>414.442255</ele>
        <time>2022-03-12T09:28:25.329Z</time>
      </trkpt>
      <trkpt lat="44.93564" lon="5.12892">
        <ele>414.095765</ele>
        <time>2022-03-12T09:28:27.324Z</time>
      </trkpt>
      <trkpt lat="44.93569" lon="5.12875">
        <ele>413.646097</ele>
        <time>2022-03-12T09:28:30.322Z</time>
      </trkpt>
      <trkpt lat="44.93579" lon="5.12863">
        <ele>413.193161</ele>
        <time>2022-03-12T09:28:33.323Z</time>
      </trkpt>
      <trkpt lat="44.93588" lon="5.12858">
        <ele>412.843246</ele>
        <time>2022-03-12T09:28:35.329Z</time>
      </trkpt>
      <trkpt lat="44.93601" lon="5.12854">
        <ele>412.404377</ele>
        <time>2022-03-12T09:28:38.327Z</time>
      </trkpt>
      <trkpt lat="44.93612" lon="5.1285">
        <ele>412.014268</ele>
        <time>2022-03-12T09:28:41.325Z</time>
      </trkpt>
      <trkpt lat="44.93622" lon="5.12848">
        <ele>412.047266</ele>
        <time>2022-03-12T09:28:44.328Z</time>
      </trkpt>
      <trkpt lat="44.93633" lon="5.12846">
        <ele>412.255541</ele>
        <time>2022-03-12T09:28:47.323Z</time>
      </trkpt>
      <trkpt lat="44.93644" lon="5.12839">
        <ele>412.472639</ele>
        <time>2022-03-12T09:28:50.315Z</time>
      </trkpt>
      <trkpt lat="44.93654" lon="5.12829">
        <ele>412.702478</ele>
        <time>2022-03-12T09:28:53.328Z</time>
      </trkpt>
      <trkpt lat="44.93664" lon="5.12816">
        <ele>412.951595</ele>
        <time>2022-03-12T09:28:56.326Z</time>
      </trkpt>
      <trkpt lat="44.93671" lon="5.12807">
        <ele>413.12211</ele>
        <time>2022-03-12T09:28:58.329Z</time>
      </trkpt>
      <trkpt lat="44.93675" lon="5.12795">
        <ele>413.294423</ele>
        <time>2022-03-12T09:29:00.325Z</time>
      </trkpt>
      <trkpt lat="44.93676" lon="5.12782">
        <ele>413.471849</ele>
        <time>2022-03-12T09:29:02.326Z</time>
      </trkpt>
      <trkpt lat="44.93675" lon="5.12768">
        <ele>413.656849</ele>
        <time>2022-03-12T09:29:04.313Z</time>
      </trkpt>
      <trkpt lat="44.93675" lon="5.12754">
        <ele>413.834709</ele>
        <time>2022-03-12T09:29:06.327Z</time>
      </trkpt>
      <trkpt lat="44.93676" lon="5.12741">
        <ele>414.001451</ele>
        <time>2022-03-12T09:29:08.320Z</time>
      </trkpt>
      <trkpt lat="44.93678" lon="5.12724">
        <ele>414.224238</ele>
        <time>2022-03-12T09:29:11.326Z</time>
      </trkpt>
      <trkpt lat="44.93679" lon="5.12707">
        <ele>414.446117</ele>
        <time>2022-03-12T09:29:14.328Z</time>
      </trkpt>
      <trkpt lat="44.9368" lon="5.12694">
        <ele>414.622253</ele>
        <time>2022-03-12T09:29:17.313Z</time>
      </trkpt>
      <trkpt lat="44.93682" lon="5.12663">
        <ele>415.023251</ele>
        <time>2022-03-12T09:30:41.323Z</time>
      </trkpt>
      <trkpt lat="44.93684" lon="5.12649">
        <ele>415.210838</ele>
        <time>2022-03-12T09:30:45.324Z</time>
      </trkpt>
      <trkpt lat="44.93686" lon="5.12632">
        <ele>414.632582</ele>
        <time>2022-03-12T09:30:49.325Z</time>
      </trkpt>
      <trkpt lat="44.93687" lon="5.12618">
        <ele>414.160558</ele>
        <time>2022-03-12T09:30:52.330Z</time>
      </trkpt>
      <trkpt lat="44.93688" lon="5.12603">
        <ele>413.633245</ele>
        <time>2022-03-12T09:30:55.322Z</time>
      </trkpt>
      <trkpt lat="44.93689" lon="5.12588">
        <ele>413.114342</ele>
        <time>2022-03-12T09:30:58.332Z</time>
      </trkpt>
      <trkpt lat="44.93691" lon="5.12573">
        <ele>412.600082</ele>
        <time>2022-03-12T09:31:01.331Z</time>
      </trkpt>
      <trkpt lat="44.93694" lon="5.12556">
        <ele>411.972428</ele>
        <time>2022-03-12T09:31:04.324Z</time>
      </trkpt>
      <trkpt lat="44.93697" lon="5.12541">
        <ele>411.438902</ele>
        <time>2022-03-12T09:31:06.327Z</time>
      </trkpt>
      <trkpt lat="44.93701" lon="5.12524">
        <ele>410.829143</ele>
        <time>2022-03-12T09:31:08.326Z</time>
      </trkpt>
      <trkpt lat="44.93705" lon="5.12505">
        <ele>410.137362</ele>
        <time>2022-03-12T09:31:10.314Z</time>
      </trkpt>
      <trkpt lat="44.9371" lon="5.12485">
        <ele>409.426298</ele>
        <time>2022-03-12T09:31:12.335Z</time>
      </trkpt>
      <trkpt lat="44.93716" lon="5.12467">
        <ele>408.72545</ele>
        <time>2022-03-12T09:31:14.327Z</time>
      </trkpt>
      <trkpt lat="44.93724" lon="5.1245">
        <ele>408.044574</ele>
        <time>2022-03-12T09:31:16.319Z</time>
      </trkpt>
      <trkpt lat="44.93732" lon="5.12435">
        <ele>407.363833</ele>
        <time>2022-03-12T09:31:18.325Z</time>
      </trkpt>
      <trkpt lat="44.93742" lon="5.12419">
        <ele>406.660882</ele>
        <time>2022-03-12T09:31:20.323Z</time>
      </trkpt>
      <trkpt lat="44.93751" lon="5.12404">
        <ele>405.763315</ele>
        <time>2022-03-12T09:31:22.323Z</time>
      </trkpt>
      <trkpt lat="44.93758" lon="5.12392">
        <ele>404.957995</ele>
        <time>2022-03-12T09:31:24.323Z</time>
      </trkpt>
      <trkpt lat="44.93766" lon="5.1238">
        <ele>404.164789</ele>
        <time>2022-03-12T09:31:26.326Z</time>
      </trkpt>
      <trkpt lat="44.93773" lon="5.12369">
        <ele>403.430971</ele>
        <time>2022-03-12T09:31:28.324Z</time>
      </trkpt>
      <trkpt lat="44.93782" lon="5.12362">
        <ele>402.714106</ele>
        <time>2022-03-12T09:31:31.325Z</time>
      </trkpt>
      <trkpt lat="44.93788" lon="5.12377">
        <ele>401.863216</ele>
        <time>2022-03-12T09:31:34.322Z</time>
      </trkpt>
      <trkpt lat="44.93789" lon="5.12391">
        <ele>401.154849</ele>
        <time>2022-03-12T09:31:36.332Z</time>
      </trkpt>
      <trkpt lat="44.9379" lon="5.12407">
        <ele>400.382699</ele>
        <time>2022-03-12T09:31:38.324Z</time>
      </trkpt>
      <trkpt lat="44.93791" lon="5.12423">
        <ele>399.583071</ele>
        <time>2022-03-12T09:31:40.327Z</time>
      </trkpt>
      <trkpt lat="44.93792" lon="5.1244">
        <ele>398.749793</ele>
        <time>2022-03-12T09:31:42.323Z</time>
      </trkpt>
      <trkpt lat="44.93793" lon="5.12456">
        <ele>397.90919</ele>
        <time>2022-03-12T09:31:44.323Z</time>
      </trkpt>
      <trkpt lat="44.93795" lon="5.12473">
        <ele>397.05127</ele>
        <time>2022-03-12T09:31:46.325Z</time>
      </trkpt>
      <trkpt lat="44.93798" lon="5.1249">
        <ele>396.182198</ele>
        <time>2022-03-12T09:31:48.330Z</time>
      </trkpt>
      <trkpt lat="44.93803" lon="5.12504">
        <ele>395.397307</ele>
        <time>2022-03-12T09:31:50.327Z</time>
      </trkpt>
      <trkpt lat="44.93809" lon="5.12518">
        <ele>394.619036</ele>
        <time>2022-03-12T09:31:52.328Z</time>
      </trkpt>
      <trkpt lat="44.93817" lon="5.12533">
        <ele>393.82609</ele>
        <time>2022-03-12T09:31:54.319Z</time>
      </trkpt>
      <trkpt lat="44.93823" lon="5.12548">
        <ele>393.933631</ele>
        <time>2022-03-12T09:31:56.327Z</time>
      </trkpt>
      <trkpt lat="44.93827" lon="5.12562">
        <ele>394.023476</ele>
        <time>2022-03-12T09:31:58.316Z</time>
      </trkpt>
      <trkpt lat="44.93838" lon="5.12568">
        <ele>394.121382</ele>
        <time>2022-03-12T09:32:01.335Z</time>
      </trkpt>
      <trkpt lat="44.93847" lon="5.12564">
        <ele>394.205247</ele>
        <time>2022-03-12T09:32:04.324Z</time>
      </trkpt>
      <trkpt lat="44.93857" lon="5.1256">
        <ele>394.293495</ele>
        <time>2022-03-12T09:32:09.331Z</time>
      </trkpt>
      <trkpt lat="44.93868" lon="5.1256">
        <ele>394.384054</ele>
        <time>2022-03-12T09:32:14.331Z</time>
      </trkpt>
      <trkpt lat="44.93877" lon="5.12564">
        <ele>394.461486</ele>
        <time>2022-03-12T09:32:18.329Z</time>
      </trkpt>
      <trkpt lat="44.93885" lon="5.12568">
        <ele>394.538877</ele>
        <time>2022-03-12T09:32:22.328Z</time>
      </trkpt>
      <trkpt lat="44.93896" lon="5.12574">
        <ele>394.632892</ele>
        <time>2022-03-12T09:32:26.331Z</time>
      </trkpt>
      <trkpt lat="44.93906" lon="5.12579">
        <ele>394.728225</ele>
        <time>2022-03-12T09:32:30.324Z</time>
      </trkpt>
      <trkpt lat="44.93915" lon="5.12583">
        <ele>394.805241</ele>
        <time>2022-03-12T09:32:34.321Z</time>
      </trkpt>
      <trkpt lat="44.93926" lon="5.12588">
        <ele>394.899358</ele>
        <time>2022-03-12T09:32:38.326Z</time>
      </trkpt>
      <trkpt lat="44.93936" lon="5.12591">
        <ele>394.986649</ele>
        <time>2022-03-12T09:32:42.319Z</time>
      </trkpt>
      <trkpt lat="44.93947" lon="5.12585">
        <ele>395.087052</ele>
        <time>2022-03-12T09:32:46.328Z</time>
      </trkpt>
      <trkpt lat="44.93955" lon="5.12569">
        <ele>395.205878</ele>
        <time>2022-03-12T09:32:49.334Z</time>
      </trkpt>
      <trkpt lat="44.93961" lon="5.12556">
        <ele>395.2983</ele>
        <time>2022-03-12T09:32:51.338Z</time>
      </trkpt>
      <trkpt lat="44.93968" lon="5.12543">
        <ele>394.924044</ele>
        <time>2022-03-12T09:32:53.325Z</time>
      </trkpt>
      <trkpt lat="44.93976" lon="5.12529">
        <ele>394.24489</ele>
        <time>2022-03-12T09:32:55.330Z</time>
      </trkpt>
      <trkpt lat="44.93985" lon="5.12517">
        <ele>393.550204</ele>
        <time>2022-03-12T09:32:57.323Z</time>
      </trkpt>
      <trkpt lat="44.93995" lon="5.12505">
        <ele>392.859305</ele>
        <time>2022-03-12T09:32:59.333Z</time>
      </trkpt>
      <trkpt lat="44.94005" lon="5.12493">
        <ele>392.141358</ele>
        <time>2022-03-12T09:33:01.324Z</time>
      </trkpt>
      <trkpt lat="44.94016" lon="5.12482">
        <ele>391.383887</ele>
        <time>2022-03-12T09:33:03.325Z</time>
      </trkpt>
      <trkpt lat="44.94028" lon="5.12469">
        <ele>390.612841</ele>
        <time>2022-03-12T09:33:05.317Z</time>
      </trkpt>
      <trkpt lat="44.94039" lon="5.12457">
        <ele>389.82384</ele>
        <time>2022-03-12T09:33:07.326Z</time>
      </trkpt>
      <trkpt lat="44.94051" lon="5.12443">
        <ele>388.992573</ele>
        <time>2022-03-12T09:33:09.332Z</time>
      </trkpt>
      <trkpt lat="44.94062" lon="5.12428">
        <ele>388.140011</ele>
        <time>2022-03-12T09:33:11.323Z</time>
      </trkpt>
      <trkpt lat="44.94074" lon="5.12412">
        <ele>387.276467</ele>
        <time>2022-03-12T09:33:13.324Z</time>
      </trkpt>
      <trkpt lat="44.94084" lon="5.12395">
        <ele>386.411885</ele>
        <time>2022-03-12T09:33:15.327Z</time>
      </trkpt>
      <trkpt lat="44.94094" lon="5.12376">
        <ele>385.538289</ele>
        <time>2022-03-12T09:33:17.325Z</time>
      </trkpt>
      <trkpt lat="44.94104" lon="5.12357">
        <ele>384.914107</ele>
        <time>2022-03-12T09:33:19.326Z</time>
      </trkpt>
      <trkpt lat="44.94114" lon="5.12337">
        <ele>384.279242</ele>
        <time>2022-03-12T09:33:21.324Z</time>
      </trkpt>
      <trkpt lat="44.94123" lon="5.12318">
        <ele>383.657182</ele>
        <time>2022-03-12T09:33:23.336Z</time>
      </trkpt>
      <trkpt lat="44.94134" lon="5.12298">
        <ele>383.028487</ele>
        <time>2022-03-12T09:33:25.333Z</time>
      </trkpt>
      <trkpt lat="44.94144" lon="5.1228">
        <ele>382.400788</ele>
        <time>2022-03-12T09:33:27.322Z</time>
      </trkpt>
      <trkpt lat="44.94155" lon="5.12261">
        <ele>381.779775</ele>
        <time>2022-03-12T09:33:29.328Z</time>
      </trkpt>
      <trkpt lat="44.94166" lon="5.12243">
        <ele>381.156543</ele>
        <time>2022-03-12T09:33:31.321Z</time>
      </trkpt>
      <trkpt lat="44.94177" lon="5.12225">
        <ele>380.531779</ele>
        <time>2022-03-12T09:33:33.319Z</time>
      </trkpt>
      <trkpt lat="44.94187" lon="5.12207">
        <ele>379.906674</ele>
        <time>2022-03-12T09:33:35.322Z</time>
      </trkpt>
      <trkpt lat="44.94196" lon="5.12186">
        <ele>379.276866</ele>
        <time>2022-03-12T09:33:37.330Z</time>
      </trkpt>
      <trkpt lat="44.94204" lon="5.12164">
        <ele>378.593714</ele>
        <time>2022-03-12T09:33:39.330Z</time>
      </trkpt>
      <trkpt lat="44.94211" lon="5.12142">
        <ele>377.844035</ele>
        <time>2022-03-12T09:33:41.320Z</time>
      </trkpt>
      <trkpt lat="44.94218" lon="5.12119">
        <ele>377.070025</ele>
        <time>2022-03-12T09:33:43.337Z</time>
      </trkpt>
      <trkpt lat="44.94225" lon="5.12097">
        <ele>376.302353</ele>
        <time>2022-03-12T09:33:45.326Z</time>
      </trkpt>
      <trkpt lat="44.94232" lon="5.12073">
        <ele>375.52837</ele>
        <time>2022-03-12T09:33:47.334Z</time>
      </trkpt>
      <trkpt lat="44.94238" lon="5.1205">
        <ele>374.760999</ele>
        <time>2022-03-12T09:33:49.322Z</time>
      </trkpt>
      <trkpt lat="44.94244" lon="5.12027">
        <ele>373.992104</ele>
        <time>2022-03-12T09:33:51.333Z</time>
      </trkpt>
      <trkpt lat="44.9425" lon="5.12004">
        <ele>373.224549</ele>
        <time>2022-03-12T09:33:53.329Z</time>
      </trkpt>
      <trkpt lat="44.94256" lon="5.1198">
        <ele>372.452874</ele>
        <time>2022-03-12T09:33:55.325Z</time>
      </trkpt>
      <trkpt lat="44.94263" lon="5.11957">
        <ele>371.68215</ele>
        <time>2022-03-12T09:33:57.338Z</time>
      </trkpt>
      <trkpt lat="44.94268" lon="5.11936">
        <ele>371.001379</ele>
        <time>2022-03-12T09:33:59.327Z</time>
      </trkpt>
      <trkpt lat="44.94272" lon="5.1192">
        <ele>370.515421</ele>
        <time>2022-03-12T09:34:01.327Z</time>
      </trkpt>
      <trkpt lat="44.94278" lon="5.11909">
        <ele>370.132345</ele>
        <time>2022-03-12T09:34:03.322Z</time>
      </trkpt>
      <trkpt lat="44.94288" lon="5.11906">
        <ele>369.70288</ele>
        <time>2022-03-12T09:34:05.326Z</time>
      </trkpt>
      <trkpt lat="44.94299" lon="5.11908">
        <ele>369.236559</ele>
        <time>2022-03-12T09:34:07.327Z</time>
      </trkpt>
      <trkpt lat="44.94311" lon="5.1191">
        <ele>368.748364</ele>
        <time>2022-03-12T09:34:09.323Z</time>
      </trkpt>
      <trkpt lat="44.94323" lon="5.11911">
        <ele>368.248992</ele>
        <time>2022-03-12T09:34:11.333Z</time>
      </trkpt>
      <trkpt lat="44.94335" lon="5.11909">
        <ele>367.743609</ele>
        <time>2022-03-12T09:34:13.338Z</time>
      </trkpt>
      <trkpt lat="44.94348" lon="5.11907">
        <ele>367.230274</ele>
        <time>2022-03-12T09:34:15.324Z</time>
      </trkpt>
      <trkpt lat="44.9436" lon="5.11903">
        <ele>366.704876</ele>
        <time>2022-03-12T09:34:17.326Z</time>
      </trkpt>
      <trkpt lat="44.94374" lon="5.119">
        <ele>366.149775</ele>
        <time>2022-03-12T09:34:19.328Z</time>
      </trkpt>
      <trkpt lat="44.94388" lon="5.11899">
        <ele>365.563081</ele>
        <time>2022-03-12T09:34:21.325Z</time>
      </trkpt>
      <trkpt lat="44.94403" lon="5.11898">
        <ele>364.961569</ele>
        <time>2022-03-12T09:34:23.323Z</time>
      </trkpt>
      <trkpt lat="44.94417" lon="5.11899">
        <ele>364.376306</ele>
        <time>2022-03-12T09:34:25.327Z</time>
      </trkpt>
      <trkpt lat="44.94431" lon="5.11899">
        <ele>363.823947</ele>
        <time>2022-03-12T09:34:27.325Z</time>
      </trkpt>
      <trkpt lat="44.94443" lon="5.11901">
        <ele>363.757014</ele>
        <time>2022-03-12T09:34:29.327Z</time>
      </trkpt>
      <trkpt lat="44.94455" lon="5.11905">
        <ele>363.80255</ele>
        <time>2022-03-12T09:34:31.327Z</time>
      </trkpt>
      <trkpt lat="44.94465" lon="5.11911">
        <ele>363.845415</ele>
        <time>2022-03-12T09:34:33.331Z</time>
      </trkpt>
      <trkpt lat="44.94475" lon="5.11918">
        <ele>363.886428</ele>
        <time>2022-03-12T09:34:35.330Z</time>
      </trkpt>
      <trkpt lat="44.94483" lon="5.11925">
        <ele>363.925299</ele>
        <time>2022-03-12T09:34:37.338Z</time>
      </trkpt>
      <trkpt lat="44.94492" lon="5.11932">
        <ele>363.963023</ele>
        <time>2022-03-12T09:34:39.337Z</time>
      </trkpt>
      <trkpt lat="44.945" lon="5.11938">
        <ele>363.999052</ele>
        <time>2022-03-12T09:34:41.321Z</time>
      </trkpt>
      <trkpt lat="44.94512" lon="5.11946">
        <ele>364.049508</ele>
        <time>2022-03-12T09:34:44.331Z</time>
      </trkpt>
      <trkpt lat="44.94524" lon="5.11954">
        <ele>364.100992</ele>
        <time>2022-03-12T09:34:47.329Z</time>
      </trkpt>
      <trkpt lat="44.94533" lon="5.1196">
        <ele>364.138211</ele>
        <time>2022-03-12T09:34:49.319Z</time>
      </trkpt>
      <trkpt lat="44.94542" lon="5.11964">
        <ele>364.173251</ele>
        <time>2022-03-12T09:34:51.327Z</time>
      </trkpt>
      <trkpt lat="44.94553" lon="5.11969">
        <ele>364.218496</ele>
        <time>2022-03-12T09:34:54.327Z</time>
      </trkpt>
      <trkpt lat="44.94565" lon="5.11971">
        <ele>364.262848</ele>
        <time>2022-03-12T09:34:57.356Z</time>
      </trkpt>
      <trkpt lat="44.94577" lon="5.11973">
        <ele>364.309893</ele>
        <time>2022-03-12T09:35:00.325Z</time>
      </trkpt>
      <trkpt lat="44.94589" lon="5.11976">
        <ele>364.356494</ele>
        <time>2022-03-12T09:35:03.319Z</time>
      </trkpt>
      <trkpt lat="44.94601" lon="5.1198">
        <ele>364.405436</ele>
        <time>2022-03-12T09:35:06.320Z</time>
      </trkpt>
      <trkpt lat="44.94614" lon="5.11985">
        <ele>364.553444</ele>
        <time>2022-03-12T09:35:09.325Z</time>
      </trkpt>
      <trkpt lat="44.94626" lon="5.1199">
        <ele>364.702059</ele>
        <time>2022-03-12T09:35:12.318Z</time>
      </trkpt>
      <trkpt lat="44.94637" lon="5.11996">
        <ele>364.850194</ele>
        <time>2022-03-12T09:35:15.328Z</time>
      </trkpt>
      <trkpt lat="44.94649" lon="5.12001">
        <ele>364.994962</ele>
        <time>2022-03-12T09:35:18.327Z</time>
      </trkpt>
      <trkpt lat="44.9466" lon="5.12007">
        <ele>365.130505</ele>
        <time>2022-03-12T09:35:21.327Z</time>
      </trkpt>
      <trkpt lat="44.94669" lon="5.12011">
        <ele>365.252911</ele>
        <time>2022-03-12T09:35:24.327Z</time>
      </trkpt>
      <trkpt lat="44.94679" lon="5.12016">
        <ele>365.370022</ele>
        <time>2022-03-12T09:35:27.320Z</time>
      </trkpt>
      <trkpt lat="44.94688" lon="5.1202">
        <ele>365.486794</ele>
        <time>2022-03-12T09:35:30.328Z</time>
      </trkpt>
      <trkpt lat="44.94698" lon="5.12024">
        <ele>365.609173</ele>
        <time>2022-03-12T09:35:33.321Z</time>
      </trkpt>
      <trkpt lat="44.94708" lon="5.12027">
        <ele>365.731966</ele>
        <time>2022-03-12T09:35:36.324Z</time>
      </trkpt>
      <trkpt lat="44.94718" lon="5.12029">
        <ele>365.851938</ele>
        <time>2022-03-12T09:35:39.324Z</time>
      </trkpt>
      <trkpt lat="44.94728" lon="5.12033">
        <ele>365.969934</ele>
        <time>2022-03-12T09:35:42.326Z</time>
      </trkpt>
      <trkpt lat="44.94738" lon="5.12037">
        <ele>366.095456</ele>
        <time>2022-03-12T09:35:45.328Z</time>
      </trkpt>
      <trkpt lat="44.94748" lon="5.12042">
        <ele>366.223774</ele>
        <time>2022-03-12T09:35:48.330Z</time>
      </trkpt>
      <trkpt lat="44.94759" lon="5.12047">
        <ele>366.358742</ele>
        <time>2022-03-12T09:35:51.328Z</time>
      </trkpt>
      <trkpt lat="44.94771" lon="5.12053">
        <ele>366.50809</ele>
        <time>2022-03-12T09:35:54.313Z</time>
      </trkpt>
      <trkpt lat="44.9478" lon="5.12056">
        <ele>366.549323</ele>
        <time>2022-03-12T09:35:56.321Z</time>
      </trkpt>
      <trkpt lat="44.94789" lon="5.12059">
        <ele>366.558004</ele>
        <time>2022-03-12T09:35:58.325Z</time>
      </trkpt>
      <trkpt lat="44.94798" lon="5.12062">
        <ele>366.566984</ele>
        <time>2022-03-12T09:36:00.329Z</time>
      </trkpt>
      <trkpt lat="44.94808" lon="5.12065">
        <ele>366.575979</ele>
        <time>2022-03-12T09:36:02.334Z</time>
      </trkpt>
      <trkpt lat="44.94817" lon="5.12069">
        <ele>366.584989</ele>
        <time>2022-03-12T09:36:04.322Z</time>
      </trkpt>
      <trkpt lat="44.94827" lon="5.12072">
        <ele>366.594073</ele>
        <time>2022-03-12T09:36:06.330Z</time>
      </trkpt>
      <trkpt lat="44.94836" lon="5.12076">
        <ele>366.603151</ele>
        <time>2022-03-12T09:36:08.324Z</time>
      </trkpt>
      <trkpt lat="44.94846" lon="5.1208">
        <ele>366.612081</ele>
        <time>2022-03-12T09:36:10.326Z</time>
      </trkpt>
      <trkpt lat="44.94854" lon="5.12085">
        <ele>366.620802</ele>
        <time>2022-03-12T09:36:12.329Z</time>
      </trkpt>
      <trkpt lat="44.94863" lon="5.12091">
        <ele>366.629342</ele>
        <time>2022-03-12T09:36:14.327Z</time>
      </trkpt>
      <trkpt lat="44.94871" lon="5.12097">
        <ele>366.637914</ele>
        <time>2022-03-12T09:36:16.323Z</time>
      </trkpt>
      <trkpt lat="44.94879" lon="5.12104">
        <ele>366.646306</ele>
        <time>2022-03-12T09:36:18.322Z</time>
      </trkpt>
      <trkpt lat="44.94887" lon="5.1211">
        <ele>366.655175</ele>
        <time>2022-03-12T09:36:20.319Z</time>
      </trkpt>
      <trkpt lat="44.94895" lon="5.12117">
        <ele>366.663446</ele>
        <time>2022-03-12T09:36:22.336Z</time>
      </trkpt>
      <trkpt lat="44.94905" lon="5.12128">
        <ele>366.675464</ele>
        <time>2022-03-12T09:36:25.327Z</time>
      </trkpt>
      <trkpt lat="44.94915" lon="5.1214">
        <ele>366.686976</ele>
        <time>2022-03-12T09:36:28.323Z</time>
      </trkpt>
      <trkpt lat="44.94923" lon="5.12151">
        <ele>366.697574</ele>
        <time>2022-03-12T09:36:31.320Z</time>
      </trkpt>
      <trkpt lat="44.94931" lon="5.12162">
        <ele>366.707635</ele>
        <time>2022-03-12T09:36:34.328Z</time>
      </trkpt>
      <trkpt lat="44.94938" lon="5.12172">
        <ele>367.078407</ele>
        <time>2022-03-12T09:36:37.327Z</time>
      </trkpt>
      <trkpt lat="44.94945" lon="5.12183">
        <ele>367.509895</ele>
        <time>2022-03-12T09:36:40.334Z</time>
      </trkpt>
      <trkpt lat="44.94953" lon="5.12193">
        <ele>367.957799</ele>
        <time>2022-03-12T09:36:43.311Z</time>
      </trkpt>
      <trkpt lat="44.94961" lon="5.12204">
        <ele>368.400019</ele>
        <time>2022-03-12T09:36:46.323Z</time>
      </trkpt>
      <trkpt lat="44.94968" lon="5.12214">
        <ele>368.83169</ele>
        <time>2022-03-12T09:36:49.326Z</time>
      </trkpt>
      <trkpt lat="44.94975" lon="5.12224">
        <ele>369.245459</ele>
        <time>2022-03-12T09:36:52.327Z</time>
      </trkpt>
      <trkpt lat="44.94982" lon="5.12234">
        <ele>369.663431</ele>
        <time>2022-03-12T09:36:55.326Z</time>
      </trkpt>
      <trkpt lat="44.9499" lon="5.12244">
        <ele>370.08501</ele>
        <time>2022-03-12T09:36:58.314Z</time>
      </trkpt>
      <trkpt lat="44.94997" lon="5.12253">
        <ele>370.502919</ele>
        <time>2022-03-12T09:37:01.335Z</time>
      </trkpt>
      <trkpt lat="44.95005" lon="5.12262">
        <ele>370.913888</ele>
        <time>2022-03-12T09:37:04.322Z</time>
      </trkpt>
      <trkpt lat="44.95013" lon="5.12271">
        <ele>371.326073</ele>
        <time>2022-03-12T09:37:07.323Z</time>
      </trkpt>
      <trkpt lat="44.9502" lon="5.12279">
        <ele>371.722482</ele>
        <time>2022-03-12T09:37:10.331Z</time>
      </trkpt>
      <trkpt lat="44.9503" lon="5.1229">
        <ele>372.213652</ele>
        <time>2022-03-12T09:37:14.319Z</time>
      </trkpt>
      <trkpt lat="44.95039" lon="5.123">
        <ele>372.719592</ele>
        <time>2022-03-12T09:37:18.323Z</time>
      </trkpt>
      <trkpt lat="44.95047" lon="5.12309">
        <ele>373.13827</ele>
        <time>2022-03-12T09:37:21.323Z</time>
      </trkpt>
      <trkpt lat="44.95055" lon="5.12319">
        <ele>373.579042</ele>
        <time>2022-03-12T09:37:24.323Z</time>
      </trkpt>
      <trkpt lat="44.95063" lon="5.12328">
        <ele>374.004102</ele>
        <time>2022-03-12T09:37:27.325Z</time>
      </trkpt>
      <trkpt lat="44.9507" lon="5.12337">
        <ele>374.380077</ele>
        <time>2022-03-12T09:37:30.333Z</time>
      </trkpt>
      <trkpt lat="44.95079" lon="5.12346">
        <ele>374.737434</ele>
        <time>2022-03-12T09:37:33.327Z</time>
      </trkpt>
      <trkpt lat="44.95088" lon="5.12355">
        <ele>375.129007</ele>
        <time>2022-03-12T09:37:36.322Z</time>
      </trkpt>
      <trkpt lat="44.95097" lon="5.12363">
        <ele>375.500638</ele>
        <time>2022-03-12T09:37:39.329Z</time>
      </trkpt>
      <trkpt lat="44.95105" lon="5.12372">
        <ele>375.882243</ele>
        <time>2022-03-12T09:37:42.322Z</time>
      </trkpt>
      <trkpt lat="44.95114" lon="5.12381">
        <ele>376.24953</ele>
        <time>2022-03-12T09:37:45.325Z</time>
      </trkpt>
      <trkpt lat="44.95123" lon="5.12389">
        <ele>376.622695</ele>
        <time>2022-03-12T09:37:48.330Z</time>
      </trkpt>
      <trkpt lat="44.95131" lon="5.12399">
        <ele>377.004695</ele>
        <time>2022-03-12T09:37:51.323Z</time>
      </trkpt>
      <trkpt lat="44.95141" lon="5.12408">
        <ele>377.392086</ele>
        <time>2022-03-12T09:37:54.323Z</time>
      </trkpt>
      <trkpt lat="44.9515" lon="5.12415">
        <ele>377.769285</ele>
        <time>2022-03-12T09:37:57.325Z</time>
      </trkpt>
      <trkpt lat="44.95159" lon="5.12422">
        <ele>378.14195</ele>
        <time>2022-03-12T09:38:00.322Z</time>
      </trkpt>
      <trkpt lat="44.95169" lon="5.12428">
        <ele>378.517465</ele>
        <time>2022-03-12T09:38:03.335Z</time>
      </trkpt>
      <trkpt lat="44.95179" lon="5.12432">
        <ele>378.886256</ele>
        <time>2022-03-12T09:38:06.323Z</time>
      </trkpt>
      <trkpt lat="44.95189" lon="5.12437">
        <ele>379.23534</ele>
        <time>2022-03-12T09:38:09.322Z</time>
      </trkpt>
      <trkpt lat="44.95198" lon="5.12441">
        <ele>379.565498</ele>
        <time>2022-03-12T09:38:12.322Z</time>
      </trkpt>
      <trkpt lat="44.95208" lon="5.12445">
        <ele>379.949464</ele>
        <time>2022-03-12T09:38:15.330Z</time>
      </trkpt>
      <trkpt lat="44.95219" lon="5.12449">
        <ele>380.331341</ele>
        <time>2022-03-12T09:38:18.320Z</time>
      </trkpt>
      <trkpt lat="44.95229" lon="5.12454">
        <ele>380.680132</ele>
        <time>2022-03-12T09:38:21.331Z</time>
      </trkpt>
      <trkpt lat="44.9524" lon="5.12459">
        <ele>381.026435</ele>
        <time>2022-03-12T09:38:24.322Z</time>
      </trkpt>
      <trkpt lat="44.95251" lon="5.12465">
        <ele>381.372043</ele>
        <time>2022-03-12T09:38:27.327Z</time>
      </trkpt>
      <trkpt lat="44.95262" lon="5.12469">
        <ele>381.705243</ele>
        <time>2022-03-12T09:38:30.327Z</time>
      </trkpt>
      <trkpt lat="44.95273" lon="5.12473">
        <ele>382.04976</ele>
        <time>2022-03-12T09:38:33.335Z</time>
      </trkpt>
      <trkpt lat="44.95284" lon="5.12478">
        <ele>382.389055</ele>
        <time>2022-03-12T09:38:36.332Z</time>
      </trkpt>
      <trkpt lat="44.95295" lon="5.12484">
        <ele>382.7252</ele>
        <time>2022-03-12T09:38:39.338Z</time>
      </trkpt>
      <trkpt lat="44.95305" lon="5.12493">
        <ele>383.073096</ele>
        <time>2022-03-12T09:38:42.332Z</time>
      </trkpt>
      <trkpt lat="44.95311" lon="5.12508">
        <ele>383.44158</ele>
        <time>2022-03-12T09:38:45.335Z</time>
      </trkpt>
      <trkpt lat="44.9531" lon="5.12524">
        <ele>383.781603</ele>
        <time>2022-03-12T09:38:48.319Z</time>
      </trkpt>
      <trkpt lat="44.95304" lon="5.12536">
        <ele>384.076491</ele>
        <time>2022-03-12T09:38:52.321Z</time>
      </trkpt>
      <trkpt lat="44.95299" lon="5.12546">
        <ele>384.347375</ele>
        <time>2022-03-12T09:38:57.338Z</time>
      </trkpt>
      <trkpt lat="44.95294" lon="5.12561">
        <ele>384.685346</ele>
        <time>2022-03-12T09:39:01.318Z</time>
      </trkpt>
      <trkpt lat="44.9529" lon="5.12573">
        <ele>384.953187</ele>
        <time>2022-03-12T09:39:04.319Z</time>
      </trkpt>
      <trkpt lat="44.95287" lon="5.12585">
        <ele>385.225794</ele>
        <time>2022-03-12T09:39:07.322Z</time>
      </trkpt>
      <trkpt lat="44.95282" lon="5.126">
        <ele>385.579754</ele>
        <time>2022-03-12T09:39:11.324Z</time>
      </trkpt>
      <trkpt lat="44.95276" lon="5.12614">
        <ele>385.925734</ele>
        <time>2022-03-12T09:39:15.327Z</time>
      </trkpt>
      <trkpt lat="44.95273" lon="5.12629">
        <ele>386.275031</ele>
        <time>2022-03-12T09:39:19.326Z</time>
      </trkpt>
      <trkpt lat="44.95274" lon="5.12645">
        <ele>386.633923</ele>
        <time>2022-03-12T09:39:23.332Z</time>
      </trkpt>
      <trkpt lat="44.95289" lon="5.12664">
        <ele>387.259525</ele>
        <time>2022-03-12T09:44:40.330Z</time>
      </trkpt>
      <trkpt lat="44.95299" lon="5.12672">
        <ele>387.626085</ele>
        <time>2022-03-12T09:44:44.325Z</time>
      </trkpt>
      <trkpt lat="44.95307" lon="5.12677">
        <ele>387.914137</ele>
        <time>2022-03-12T09:44:47.321Z</time>
      </trkpt>
      <trkpt lat="44.95316" lon="5.12684">
        <ele>388.223268</ele>
        <time>2022-03-12T09:44:50.335Z</time>
      </trkpt>
      <trkpt lat="44.95324" lon="5.12692">
        <ele>388.534302</ele>
        <time>2022-03-12T09:44:53.335Z</time>
      </trkpt>
      <trkpt lat="44.95332" lon="5.12701">
        <ele>388.843475</ele>
        <time>2022-03-12T09:44:56.336Z</time>
      </trkpt>
      <trkpt lat="44.95338" lon="5.12712">
        <ele>389.15029</ele>
        <time>2022-03-12T09:44:59.335Z</time>
      </trkpt>
      <trkpt lat="44.95343" lon="5.12723">
        <ele>389.45893</ele>
        <time>2022-03-12T09:45:02.332Z</time>
      </trkpt>
      <trkpt lat="44.95349" lon="5.12735">
        <ele>389.785845</ele>
        <time>2022-03-12T09:45:05.333Z</time>
      </trkpt>
      <trkpt lat="44.95355" lon="5.12749">
        <ele>390.138667</ele>
        <time>2022-03-12T09:45:08.313Z</time>
      </trkpt>
      <trkpt lat="44.9536" lon="5.12763">
        <ele>390.478032</ele>
        <time>2022-03-12T09:45:11.325Z</time>
      </trkpt>
      <trkpt lat="44.95362" lon="5.12777">
        <ele>390.805572</ele>
        <time>2022-03-12T09:45:14.322Z</time>
      </trkpt>
      <trkpt lat="44.95363" lon="5.12792">
        <ele>391.132824</ele>
        <time>2022-03-12T09:45:17.328Z</time>
      </trkpt>
      <trkpt lat="44.95363" lon="5.12805">
        <ele>391.428568</ele>
        <time>2022-03-12T09:45:20.331Z</time>
      </trkpt>
      <trkpt lat="44.95362" lon="5.12818">
        <ele>391.699474</ele>
        <time>2022-03-12T09:45:23.330Z</time>
      </trkpt>
      <trkpt lat="44.9536" lon="5.12834">
        <ele>392.043344</ele>
        <time>2022-03-12T09:45:27.323Z</time>
      </trkpt>
      <trkpt lat="44.9536" lon="5.1285">
        <ele>392.393181</ele>
        <time>2022-03-12T09:45:31.329Z</time>
      </trkpt>
      <trkpt lat="44.95361" lon="5.12863">
        <ele>392.663625</ele>
        <time>2022-03-12T09:45:34.330Z</time>
      </trkpt>
      <trkpt lat="44.95362" lon="5.12879">
        <ele>393.019052</ele>
        <time>2022-03-12T09:45:38.336Z</time>
      </trkpt>
      <trkpt lat="44.95364" lon="5.12893">
        <ele>393.300715</ele>
        <time>2022-03-12T09:45:41.329Z</time>
      </trkpt>
      <trkpt lat="44.95364" lon="5.12906">
        <ele>393.581106</ele>
        <time>2022-03-12T09:45:44.331Z</time>
      </trkpt>
      <trkpt lat="44.95364" lon="5.12919">
        <ele>393.856825</ele>
        <time>2022-03-12T09:45:47.328Z</time>
      </trkpt>
      <trkpt lat="44.95362" lon="5.12932">
        <ele>394.13984</ele>
        <time>2022-03-12T09:45:50.327Z</time>
      </trkpt>
      <trkpt lat="44.95358" lon="5.12945">
        <ele>394.432236</ele>
        <time>2022-03-12T09:45:53.326Z</time>
      </trkpt>
      <trkpt lat="44.95353" lon="5.12958">
        <ele>394.746102</ele>
        <time>2022-03-12T09:45:56.334Z</time>
      </trkpt>
      <trkpt lat="44.95347" lon="5.12971">
        <ele>395.084824</ele>
        <time>2022-03-12T09:45:59.331Z</time>
      </trkpt>
      <trkpt lat="44.95341" lon="5.12984">
        <ele>395.423661</ele>
        <time>2022-03-12T09:46:02.322Z</time>
      </trkpt>
      <trkpt lat="44.95336" lon="5.13">
        <ele>395.784122</ele>
        <time>2022-03-12T09:46:05.328Z</time>
      </trkpt>
      <trkpt lat="44.95333" lon="5.13017">
        <ele>396.162899</ele>
        <time>2022-03-12T09:46:08.316Z</time>
      </trkpt>
      <trkpt lat="44.95331" lon="5.13034">
        <ele>396.524478</ele>
        <time>2022-03-12T09:46:11.322Z</time>
      </trkpt>
      <trkpt lat="44.95331" lon="5.13049">
        <ele>396.841957</ele>
        <time>2022-03-12T09:46:14.326Z</time>
      </trkpt>
      <trkpt lat="44.95333" lon="5.13064">
        <ele>397.313572</ele>
        <time>2022-03-12T09:46:17.325Z</time>
      </trkpt>
      <trkpt lat="44.95334" lon="5.13077">
        <ele>397.734263</ele>
        <time>2022-03-12T09:46:20.330Z</time>
      </trkpt>
      <trkpt lat="44.95338" lon="5.13093">
        <ele>398.271586</ele>
        <time>2022-03-12T09:46:24.335Z</time>
      </trkpt>
      <trkpt lat="44.95342" lon="5.13107">
        <ele>398.773915</ele>
        <time>2022-03-12T09:46:28.311Z</time>
      </trkpt>
      <trkpt lat="44.95347" lon="5.13121">
        <ele>399.270357</ele>
        <time>2022-03-12T09:46:32.325Z</time>
      </trkpt>
      <trkpt lat="44.95351" lon="5.13136">
        <ele>399.78185</ele>
        <time>2022-03-12T09:46:36.328Z</time>
      </trkpt>
      <trkpt lat="44.95355" lon="5.13151">
        <ele>400.308455</ele>
        <time>2022-03-12T09:46:40.332Z</time>
      </trkpt>
      <trkpt lat="44.95359" lon="5.13167">
        <ele>400.851981</ele>
        <time>2022-03-12T09:46:44.316Z</time>
      </trkpt>
      <trkpt lat="44.95362" lon="5.13179">
        <ele>401.26897</ele>
        <time>2022-03-12T09:46:47.329Z</time>
      </trkpt>
      <trkpt lat="44.95364" lon="5.13191">
        <ele>401.69025</ele>
        <time>2022-03-12T09:46:50.326Z</time>
      </trkpt>
      <trkpt lat="44.95365" lon="5.13204">
        <ele>402.112438</ele>
        <time>2022-03-12T09:46:53.323Z</time>
      </trkpt>
      <trkpt lat="44.95366" lon="5.13221">
        <ele>402.658754</ele>
        <time>2022-03-12T09:46:57.327Z</time>
      </trkpt>
      <trkpt lat="44.95365" lon="5.13235">
        <ele>403.098434</ele>
        <time>2022-03-12T09:47:00.330Z</time>
      </trkpt>
      <trkpt lat="44.95365" lon="5.13248">
        <ele>403.53128</ele>
        <time>2022-03-12T09:47:03.333Z</time>
      </trkpt>
      <trkpt lat="44.95365" lon="5.13262">
        <ele>403.967235</ele>
        <time>2022-03-12T09:47:06.324Z</time>
      </trkpt>
      <trkpt lat="44.95365" lon="5.13275">
        <ele>404.390573</ele>
        <time>2022-03-12T09:47:09.327Z</time>
      </trkpt>
      <trkpt lat="44.95365" lon="5.13288">
        <ele>404.826431</ele>
        <time>2022-03-12T09:47:12.323Z</time>
      </trkpt>
      <trkpt lat="44.95365" lon="5.13301">
        <ele>405.26755</ele>
        <time>2022-03-12T09:47:15.328Z</time>
      </trkpt>
      <trkpt lat="44.95367" lon="5.13314">
        <ele>405.733071</ele>
        <time>2022-03-12T09:47:18.329Z</time>
      </trkpt>
      <trkpt lat="44.95368" lon="5.13327">
        <ele>406.206723</ele>
        <time>2022-03-12T09:47:21.330Z</time>
      </trkpt>
      <trkpt lat="44.9537" lon="5.13343">
        <ele>406.79548</ele>
        <time>2022-03-12T09:47:25.329Z</time>
      </trkpt>
      <trkpt lat="44.95372" lon="5.13359">
        <ele>407.396838</ele>
        <time>2022-03-12T09:47:29.338Z</time>
      </trkpt>
      <trkpt lat="44.95372" lon="5.13372">
        <ele>407.861091</ele>
        <time>2022-03-12T09:47:32.324Z</time>
      </trkpt>
      <trkpt lat="44.95372" lon="5.13388">
        <ele>408.452732</ele>
        <time>2022-03-12T09:47:36.326Z</time>
      </trkpt>
      <trkpt lat="44.95372" lon="5.13404">
        <ele>409.040455</ele>
        <time>2022-03-12T09:47:40.330Z</time>
      </trkpt>
      <trkpt lat="44.95372" lon="5.13417">
        <ele>409.515193</ele>
        <time>2022-03-12T09:47:43.329Z</time>
      </trkpt>
      <trkpt lat="44.95371" lon="5.13434">
        <ele>410.125792</ele>
        <time>2022-03-12T09:47:47.327Z</time>
      </trkpt>
      <trkpt lat="44.9537" lon="5.13446">
        <ele>410.595816</ele>
        <time>2022-03-12T09:47:50.325Z</time>
      </trkpt>
      <trkpt lat="44.95369" lon="5.13459">
        <ele>411.076568</ele>
        <time>2022-03-12T09:47:53.335Z</time>
      </trkpt>
      <trkpt lat="44.95366" lon="5.13475">
        <ele>411.654604</ele>
        <time>2022-03-12T09:47:57.329Z</time>
      </trkpt>
      <trkpt lat="44.95364" lon="5.13491">
        <ele>412.252651</ele>
        <time>2022-03-12T09:48:01.323Z</time>
      </trkpt>
      <trkpt lat="44.95362" lon="5.13507">
        <ele>412.854723</ele>
        <time>2022-03-12T09:48:05.325Z</time>
      </trkpt>
      <trkpt lat="44.95359" lon="5.13522">
        <ele>413.404215</ele>
        <time>2022-03-12T09:48:09.329Z</time>
      </trkpt>
      <trkpt lat="44.95359" lon="5.13537">
        <ele>413.95653</ele>
        <time>2022-03-12T09:48:13.326Z</time>
      </trkpt>
      <trkpt lat="44.95357" lon="5.13553">
        <ele>414.533548</ele>
        <time>2022-03-12T09:48:17.317Z</time>
      </trkpt>
      <trkpt lat="44.95356" lon="5.13569">
        <ele>415.106903</ele>
        <time>2022-03-12T09:48:21.321Z</time>
      </trkpt>
      <trkpt lat="44.95355" lon="5.13585">
        <ele>415.657251</ele>
        <time>2022-03-12T09:48:25.330Z</time>
      </trkpt>
      <trkpt lat="44.95354" lon="5.13601">
        <ele>416.197583</ele>
        <time>2022-03-12T09:48:29.323Z</time>
      </trkpt>
      <trkpt lat="44.95354" lon="5.13617">
        <ele>416.753499</ele>
        <time>2022-03-12T09:48:33.323Z</time>
      </trkpt>
      <trkpt lat="44.95354" lon="5.13633">
        <ele>417.310454</ele>
        <time>2022-03-12T09:48:37.319Z</time>
      </trkpt>
      <trkpt lat="44.95352" lon="5.13649">
        <ele>417.889763</ele>
        <time>2022-03-12T09:48:41.328Z</time>
      </trkpt>
      <trkpt lat="44.95351" lon="5.13662">
        <ele>418.335453</ele>
        <time>2022-03-12T09:48:44.327Z</time>
      </trkpt>
      <trkpt lat="44.95351" lon="5.13678">
        <ele>418.887895</ele>
        <time>2022-03-12T09:48:48.322Z</time>
      </trkpt>
      <trkpt lat="44.95351" lon="5.13694">
        <ele>419.454744</ele>
        <time>2022-03-12T09:48:52.324Z</time>
      </trkpt>
      <trkpt lat="44.9535" lon="5.13711">
        <ele>420.036287</ele>
        <time>2022-03-12T09:48:56.314Z</time>
      </trkpt>
      <trkpt lat="44.95349" lon="5.13726">
        <ele>420.577043</ele>
        <time>2022-03-12T09:49:00.322Z</time>
      </trkpt>
      <trkpt lat="44.95349" lon="5.13743">
        <ele>421.14336</ele>
        <time>2022-03-12T09:49:04.330Z</time>
      </trkpt>
      <trkpt lat="44.95349" lon="5.13759">
        <ele>421.716626</ele>
        <time>2022-03-12T09:49:08.315Z</time>
      </trkpt>
      <trkpt lat="44.95349" lon="5.13772">
        <ele>422.175476</ele>
        <time>2022-03-12T09:49:11.318Z</time>
      </trkpt>
      <trkpt lat="44.9535" lon="5.13785">
        <ele>422.630357</ele>
        <time>2022-03-12T09:49:14.324Z</time>
      </trkpt>
      <trkpt lat="44.95351" lon="5.13799">
        <ele>423.104929</ele>
        <time>2022-03-12T09:49:17.325Z</time>
      </trkpt>
      <trkpt lat="44.95352" lon="5.13812">
        <ele>423.374243</ele>
        <time>2022-03-12T09:49:20.324Z</time>
      </trkpt>
      <trkpt lat="44.95353" lon="5.13825">
        <ele>423.601651</ele>
        <time>2022-03-12T09:49:23.330Z</time>
      </trkpt>
      <trkpt lat="44.95354" lon="5.13841">
        <ele>423.896313</ele>
        <time>2022-03-12T09:49:27.314Z</time>
      </trkpt>
      <trkpt lat="44.95355" lon="5.13858">
        <ele>424.191719</ele>
        <time>2022-03-12T09:49:31.330Z</time>
      </trkpt>
      <trkpt lat="44.95355" lon="5.13871">
        <ele>424.426257</ele>
        <time>2022-03-12T09:49:34.317Z</time>
      </trkpt>
      <trkpt lat="44.95355" lon="5.13884">
        <ele>424.662379</ele>
        <time>2022-03-12T09:49:37.327Z</time>
      </trkpt>
      <trkpt lat="44.95355" lon="5.13897">
        <ele>424.8985</ele>
        <time>2022-03-12T09:49:40.326Z</time>
      </trkpt>
      <trkpt lat="44.95355" lon="5.13911">
        <ele>425.141816</ele>
        <time>2022-03-12T09:49:43.323Z</time>
      </trkpt>
      <trkpt lat="44.95355" lon="5.13925">
        <ele>425.390497</ele>
        <time>2022-03-12T09:49:46.331Z</time>
      </trkpt>
      <trkpt lat="44.95355" lon="5.13938">
        <ele>425.624817</ele>
        <time>2022-03-12T09:49:49.319Z</time>
      </trkpt>
      <trkpt lat="44.95355" lon="5.13955">
        <ele>425.932566</ele>
        <time>2022-03-12T09:49:53.326Z</time>
      </trkpt>
      <trkpt lat="44.95354" lon="5.13968">
        <ele>426.169539</ele>
        <time>2022-03-12T09:49:56.330Z</time>
      </trkpt>
      <trkpt lat="44.95353" lon="5.13983">
        <ele>426.426333</ele>
        <time>2022-03-12T09:49:59.323Z</time>
      </trkpt>
      <trkpt lat="44.95351" lon="5.13996">
        <ele>426.677331</ele>
        <time>2022-03-12T09:50:02.324Z</time>
      </trkpt>
      <trkpt lat="44.95348" lon="5.14013">
        <ele>426.981624</ele>
        <time>2022-03-12T09:50:06.323Z</time>
      </trkpt>
      <trkpt lat="44.95346" lon="5.14026">
        <ele>427.230085</ele>
        <time>2022-03-12T09:50:09.321Z</time>
      </trkpt>
      <trkpt lat="44.95344" lon="5.1404">
        <ele>427.470537</ele>
        <time>2022-03-12T09:50:12.326Z</time>
      </trkpt>
      <trkpt lat="44.95342" lon="5.14053">
        <ele>427.70652</ele>
        <time>2022-03-12T09:50:15.327Z</time>
      </trkpt>
      <trkpt lat="44.95341" lon="5.14068">
        <ele>427.687587</ele>
        <time>2022-03-12T09:50:18.335Z</time>
      </trkpt>
      <trkpt lat="44.95339" lon="5.14081">
        <ele>427.670092</ele>
        <time>2022-03-12T09:50:21.326Z</time>
      </trkpt>
      <trkpt lat="44.95338" lon="5.14094">
        <ele>427.652248</ele>
        <time>2022-03-12T09:50:24.329Z</time>
      </trkpt>
      <trkpt lat="44.95338" lon="5.14108">
        <ele>427.634477</ele>
        <time>2022-03-12T09:50:27.331Z</time>
      </trkpt>
      <trkpt lat="44.95337" lon="5.14121">
        <ele>427.617156</ele>
        <time>2022-03-12T09:50:30.326Z</time>
      </trkpt>
      <trkpt lat="44.95336" lon="5.14135">
        <ele>427.598116</ele>
        <time>2022-03-12T09:50:34.330Z</time>
      </trkpt>
      <trkpt lat="44.95334" lon="5.14149">
        <ele>427.579762</ele>
        <time>2022-03-12T09:50:37.326Z</time>
      </trkpt>
      <trkpt lat="44.95333" lon="5.14164">
        <ele>427.559872</ele>
        <time>2022-03-12T09:50:40.328Z</time>
      </trkpt>
      <trkpt lat="44.95332" lon="5.14178">
        <ele>427.541571</ele>
        <time>2022-03-12T09:50:43.325Z</time>
      </trkpt>
      <trkpt lat="44.95329" lon="5.14191">
        <ele>427.523862</ele>
        <time>2022-03-12T09:50:46.322Z</time>
      </trkpt>
      <trkpt lat="44.95325" lon="5.14204">
        <ele>427.504762</ele>
        <time>2022-03-12T09:50:49.327Z</time>
      </trkpt>
      <trkpt lat="44.95319" lon="5.14217">
        <ele>427.48448</ele>
        <time>2022-03-12T09:50:52.321Z</time>
      </trkpt>
      <trkpt lat="44.95312" lon="5.14229">
        <ele>427.464592</ele>
        <time>2022-03-12T09:50:55.321Z</time>
      </trkpt>
      <trkpt lat="44.95306" lon="5.14241">
        <ele>427.444485</ele>
        <time>2022-03-12T09:50:58.322Z</time>
      </trkpt>
      <trkpt lat="44.95299" lon="5.14251">
        <ele>427.425522</ele>
        <time>2022-03-12T09:51:01.320Z</time>
      </trkpt>
      <trkpt lat="44.95291" lon="5.14262">
        <ele>427.405824</ele>
        <time>2022-03-12T09:51:04.321Z</time>
      </trkpt>
      <trkpt lat="44.95284" lon="5.14274">
        <ele>427.385711</ele>
        <time>2022-03-12T09:51:07.322Z</time>
      </trkpt>
      <trkpt lat="44.95276" lon="5.14284">
        <ele>427.626299</ele>
        <time>2022-03-12T09:51:10.321Z</time>
      </trkpt>
      <trkpt lat="44.95269" lon="5.14296">
        <ele>428.298679</ele>
        <time>2022-03-12T09:51:13.322Z</time>
      </trkpt>
      <trkpt lat="44.95262" lon="5.14309">
        <ele>428.981051</ele>
        <time>2022-03-12T09:51:16.322Z</time>
      </trkpt>
      <trkpt lat="44.95254" lon="5.14323">
        <ele>429.719539</ele>
        <time>2022-03-12T09:51:19.323Z</time>
      </trkpt>
      <trkpt lat="44.95247" lon="5.14336">
        <ele>430.437386</ele>
        <time>2022-03-12T09:51:22.322Z</time>
      </trkpt>
      <trkpt lat="44.95241" lon="5.14347">
        <ele>431.023275</ele>
        <time>2022-03-12T09:51:25.317Z</time>
      </trkpt>
      <trkpt lat="44.95242" lon="5.14363">
        <ele>431.690517</ele>
        <time>2022-03-12T09:51:29.322Z</time>
      </trkpt>
      <trkpt lat="44.9525" lon="5.14375">
        <ele>432.362381</ele>
        <time>2022-03-12T09:51:32.332Z</time>
      </trkpt>
      <trkpt lat="44.95259" lon="5.14387">
        <ele>433.132499</ele>
        <time>2022-03-12T09:51:35.321Z</time>
      </trkpt>
      <trkpt lat="44.95259" lon="5.14402">
        <ele>433.736152</ele>
        <time>2022-03-12T09:51:41.328Z</time>
      </trkpt>
      <trkpt lat="44.95252" lon="5.1441">
        <ele>434.301775</ele>
        <time>2022-03-12T09:51:46.332Z</time>
      </trkpt>
      <trkpt lat="44.95258" lon="5.144">
        <ele>434.86372</ele>
        <time>2022-03-12T09:51:58.316Z</time>
      </trkpt>
      <trkpt lat="44.95265" lon="5.1439">
        <ele>435.468556</ele>
        <time>2022-03-12T09:52:01.323Z</time>
      </trkpt>
      <trkpt lat="44.95271" lon="5.14379">
        <ele>436.05438</ele>
        <time>2022-03-12T09:52:04.324Z</time>
      </trkpt>
      <trkpt lat="44.95276" lon="5.14367">
        <ele>436.630438</ele>
        <time>2022-03-12T09:52:07.326Z</time>
      </trkpt>
      <trkpt lat="44.95286" lon="5.1436">
        <ele>437.27344</ele>
        <time>2022-03-12T09:52:11.326Z</time>
      </trkpt>
      <trkpt lat="44.95295" lon="5.14354">
        <ele>437.883236</ele>
        <time>2022-03-12T09:52:15.329Z</time>
      </trkpt>
      <trkpt lat="44.95305" lon="5.14348">
        <ele>438.149896</ele>
        <time>2022-03-12T09:52:19.320Z</time>
      </trkpt>
      <trkpt lat="44.95314" lon="5.14343">
        <ele>438.225637</ele>
        <time>2022-03-12T09:52:23.319Z</time>
      </trkpt>
      <trkpt lat="44.95325" lon="5.14338">
        <ele>438.309531</ele>
        <time>2022-03-12T09:52:27.320Z</time>
      </trkpt>
      <trkpt lat="44.95334" lon="5.14335">
        <ele>438.376646</ele>
        <time>2022-03-12T09:52:30.320Z</time>
      </trkpt>
      <trkpt lat="44.95345" lon="5.14331">
        <ele>438.457145</ele>
        <time>2022-03-12T09:52:33.319Z</time>
      </trkpt>
      <trkpt lat="44.95355" lon="5.14328">
        <ele>438.533524</ele>
        <time>2022-03-12T09:52:36.321Z</time>
      </trkpt>
      <trkpt lat="44.95366" lon="5.14322">
        <ele>438.618213</ele>
        <time>2022-03-12T09:52:39.321Z</time>
      </trkpt>
      <trkpt lat="44.95377" lon="5.14315">
        <ele>438.703097</ele>
        <time>2022-03-12T09:52:42.320Z</time>
      </trkpt>
      <trkpt lat="44.95388" lon="5.14309">
        <ele>438.79198</ele>
        <time>2022-03-12T09:52:45.321Z</time>
      </trkpt>
      <trkpt lat="44.954" lon="5.14303">
        <ele>438.881962</ele>
        <time>2022-03-12T09:52:48.326Z</time>
      </trkpt>
      <trkpt lat="44.95412" lon="5.14295">
        <ele>438.975512</ele>
        <time>2022-03-12T09:52:51.329Z</time>
      </trkpt>
      <trkpt lat="44.95423" lon="5.14288">
        <ele>439.064021</ele>
        <time>2022-03-12T09:52:54.323Z</time>
      </trkpt>
      <trkpt lat="44.95434" lon="5.14279">
        <ele>439.159832</ele>
        <time>2022-03-12T09:52:57.330Z</time>
      </trkpt>
      <trkpt lat="44.95446" lon="5.14271">
        <ele>439.254062</ele>
        <time>2022-03-12T09:53:00.326Z</time>
      </trkpt>
      <trkpt lat="44.95458" lon="5.14264">
        <ele>439.348106</ele>
        <time>2022-03-12T09:53:03.330Z</time>
      </trkpt>
      <trkpt lat="44.95469" lon="5.14257">
        <ele>439.290889</ele>
        <time>2022-03-12T09:53:06.318Z</time>
      </trkpt>
      <trkpt lat="44.9548" lon="5.1425">
        <ele>438.928391</ele>
        <time>2022-03-12T09:53:09.324Z</time>
      </trkpt>
      <trkpt lat="44.9549" lon="5.14245">
        <ele>438.595219</ele>
        <time>2022-03-12T09:53:12.330Z</time>
      </trkpt>
      <trkpt lat="44.955" lon="5.14238">
        <ele>438.244001</ele>
        <time>2022-03-12T09:53:15.324Z</time>
      </trkpt>
      <trkpt lat="44.9551" lon="5.14229">
        <ele>437.883673</ele>
        <time>2022-03-12T09:53:18.327Z</time>
      </trkpt>
      <trkpt lat="44.95519" lon="5.14224">
        <ele>437.562817</ele>
        <time>2022-03-12T09:53:21.333Z</time>
      </trkpt>
      <trkpt lat="44.95529" lon="5.14223">
        <ele>437.27732</ele>
        <time>2022-03-12T09:53:24.324Z</time>
      </trkpt>
      <trkpt lat="44.95538" lon="5.14219">
        <ele>436.969006</ele>
        <time>2022-03-12T09:53:27.320Z</time>
      </trkpt>
      <trkpt lat="44.9555" lon="5.14212">
        <ele>436.578521</ele>
        <time>2022-03-12T09:53:30.321Z</time>
      </trkpt>
      <trkpt lat="44.9556" lon="5.14202">
        <ele>436.208926</ele>
        <time>2022-03-12T09:53:33.320Z</time>
      </trkpt>
      <trkpt lat="44.95568" lon="5.14191">
        <ele>435.839861</ele>
        <time>2022-03-12T09:53:36.326Z</time>
      </trkpt>
      <trkpt lat="44.95576" lon="5.14177">
        <ele>435.45118</ele>
        <time>2022-03-12T09:53:39.324Z</time>
      </trkpt>
      <trkpt lat="44.95584" lon="5.14164">
        <ele>435.076226</ele>
        <time>2022-03-12T09:53:42.321Z</time>
      </trkpt>
      <trkpt lat="44.95593" lon="5.14152">
        <ele>434.700477</ele>
        <time>2022-03-12T09:53:45.327Z</time>
      </trkpt>
      <trkpt lat="44.95605" lon="5.14155">
        <ele>434.32376</ele>
        <time>2022-03-12T09:53:48.329Z</time>
      </trkpt>
      <trkpt lat="44.95617" lon="5.14162">
        <ele>433.924515</ele>
        <time>2022-03-12T09:53:51.330Z</time>
      </trkpt>
      <trkpt lat="44.95629" lon="5.14168">
        <ele>434.518624</ele>
        <time>2022-03-12T09:53:54.323Z</time>
      </trkpt>
      <trkpt lat="44.9564" lon="5.14174">
        <ele>435.340993</ele>
        <time>2022-03-12T09:53:57.330Z</time>
      </trkpt>
      <trkpt lat="44.95652" lon="5.1418">
        <ele>436.161125</ele>
        <time>2022-03-12T09:54:00.333Z</time>
      </trkpt>
      <trkpt lat="44.95661" lon="5.14186">
        <ele>436.831151</ele>
        <time>2022-03-12T09:54:03.326Z</time>
      </trkpt>
      <trkpt lat="44.95668" lon="5.14193">
        <ele>437.443664</ele>
        <time>2022-03-12T09:54:06.328Z</time>
      </trkpt>
      <trkpt lat="44.95667" lon="5.14208">
        <ele>438.157713</ele>
        <time>2022-03-12T09:54:12.332Z</time>
      </trkpt>
      <trkpt lat="44.95662" lon="5.14222">
        <ele>438.91203</ele>
        <time>2022-03-12T09:54:17.314Z</time>
      </trkpt>
      <trkpt lat="44.95658" lon="5.14235">
        <ele>439.601394</ele>
        <time>2022-03-12T09:54:22.328Z</time>
      </trkpt>
      <trkpt lat="44.95653" lon="5.14247">
        <ele>440.289653</ele>
        <time>2022-03-12T09:54:28.330Z</time>
      </trkpt>
      <trkpt lat="44.95646" lon="5.14258">
        <ele>440.994726</ele>
        <time>2022-03-12T09:54:34.327Z</time>
      </trkpt>
      <trkpt lat="44.95636" lon="5.1426">
        <ele>441.646803</ele>
        <time>2022-03-12T09:54:39.333Z</time>
      </trkpt>
      <trkpt lat="44.95636" lon="5.14274">
        <ele>442.317868</ele>
        <time>2022-03-12T09:54:45.322Z</time>
      </trkpt>
      <trkpt lat="44.95646" lon="5.14279">
        <ele>443.013272</ele>
        <time>2022-03-12T09:54:50.323Z</time>
      </trkpt>
      <trkpt lat="44.95652" lon="5.1429">
        <ele>443.703878</ele>
        <time>2022-03-12T09:54:55.323Z</time>
      </trkpt>
      <trkpt lat="44.95658" lon="5.14302">
        <ele>444.377216</ele>
        <time>2022-03-12T09:55:00.318Z</time>
      </trkpt>
      <trkpt lat="44.95668" lon="5.14305">
        <ele>445.075045</ele>
        <time>2022-03-12T09:55:05.326Z</time>
      </trkpt>
      <trkpt lat="44.95678" lon="5.14309">
        <ele>445.753166</ele>
        <time>2022-03-12T09:55:10.318Z</time>
      </trkpt>
      <trkpt lat="44.95687" lon="5.14311">
        <ele>446.447412</ele>
        <time>2022-03-12T09:55:14.322Z</time>
      </trkpt>
      <trkpt lat="44.95697" lon="5.14314">
        <ele>447.280677</ele>
        <time>2022-03-12T09:55:19.327Z</time>
      </trkpt>
      <trkpt lat="44.95706" lon="5.14317">
        <ele>448.025576</ele>
        <time>2022-03-12T09:55:23.335Z</time>
      </trkpt>
      <trkpt lat="44.95715" lon="5.14319">
        <ele>448.773109</ele>
        <time>2022-03-12T09:55:27.332Z</time>
      </trkpt>
      <trkpt lat="44.95726" lon="5.14322">
        <ele>449.660723</ele>
        <time>2022-03-12T09:55:32.320Z</time>
      </trkpt>
      <trkpt lat="44.95735" lon="5.14322">
        <ele>450.416831</ele>
        <time>2022-03-12T09:55:36.318Z</time>
      </trkpt>
      <trkpt lat="44.95744" lon="5.1432">
        <ele>451.154233</ele>
        <time>2022-03-12T09:55:41.322Z</time>
      </trkpt>
      <trkpt lat="44.95753" lon="5.14316">
        <ele>451.9128</ele>
        <time>2022-03-12T09:55:46.330Z</time>
      </trkpt>
      <trkpt lat="44.95762" lon="5.14312">
        <ele>452.732943</ele>
        <time>2022-03-12T09:55:51.327Z</time>
      </trkpt>
      <trkpt lat="44.95771" lon="5.14307">
        <ele>453.491914</ele>
        <time>2022-03-12T09:55:56.322Z</time>
      </trkpt>
      <trkpt lat="44.95781" lon="5.14305">
        <ele>454.330409</ele>
        <time>2022-03-12T09:56:03.322Z</time>
      </trkpt>
      <trkpt lat="44.95791" lon="5.14306">
        <ele>455.087239</ele>
        <time>2022-03-12T09:56:08.329Z</time>
      </trkpt>
      <trkpt lat="44.958" lon="5.14309">
        <ele>455.880877</ele>
        <time>2022-03-12T09:56:13.323Z</time>
      </trkpt>
      <trkpt lat="44.9581" lon="5.14309">
        <ele>456.694029</ele>
        <time>2022-03-12T09:56:18.328Z</time>
      </trkpt>
      <trkpt lat="44.9582" lon="5.14311">
        <ele>457.490639</ele>
        <time>2022-03-12T09:56:23.321Z</time>
      </trkpt>
      <trkpt lat="44.9583" lon="5.14313">
        <ele>458.320244</ele>
        <time>2022-03-12T09:56:28.320Z</time>
      </trkpt>
      <trkpt lat="44.9584" lon="5.14315">
        <ele>459.181236</ele>
        <time>2022-03-12T09:56:33.332Z</time>
      </trkpt>
      <trkpt lat="44.9585" lon="5.14317">
        <ele>459.952894</ele>
        <time>2022-03-12T09:56:37.334Z</time>
      </trkpt>
      <trkpt lat="44.95861" lon="5.14319">
        <ele>460.634065</ele>
        <time>2022-03-12T09:56:41.326Z</time>
      </trkpt>
      <trkpt lat="44.9587" lon="5.1432">
        <ele>460.622408</ele>
        <time>2022-03-12T09:56:44.327Z</time>
      </trkpt>
      <trkpt lat="44.95879" lon="5.14323">
        <ele>460.610195</ele>
        <time>2022-03-12T09:56:47.318Z</time>
      </trkpt>
      <trkpt lat="44.95888" lon="5.14327">
        <ele>460.598259</ele>
        <time>2022-03-12T09:56:50.323Z</time>
      </trkpt>
      <trkpt lat="44.95897" lon="5.14331">
        <ele>460.585832</ele>
        <time>2022-03-12T09:56:53.324Z</time>
      </trkpt>
      <trkpt lat="44.95906" lon="5.14335">
        <ele>460.572923</ele>
        <time>2022-03-12T09:56:56.328Z</time>
      </trkpt>
      <trkpt lat="44.95916" lon="5.1434">
        <ele>460.559591</ele>
        <time>2022-03-12T09:56:59.335Z</time>
      </trkpt>
      <trkpt lat="44.95926" lon="5.14346">
        <ele>460.546162</ele>
        <time>2022-03-12T09:57:02.325Z</time>
      </trkpt>
      <trkpt lat="44.95935" lon="5.14351">
        <ele>460.5328</ele>
        <time>2022-03-12T09:57:05.327Z</time>
      </trkpt>
      <trkpt lat="44.95945" lon="5.14357">
        <ele>460.519544</ele>
        <time>2022-03-12T09:57:08.327Z</time>
      </trkpt>
      <trkpt lat="44.95954" lon="5.14361">
        <ele>460.507305</ele>
        <time>2022-03-12T09:57:11.325Z</time>
      </trkpt>
      <trkpt lat="44.95963" lon="5.14367">
        <ele>460.494533</ele>
        <time>2022-03-12T09:57:14.325Z</time>
      </trkpt>
      <trkpt lat="44.95972" lon="5.14373">
        <ele>460.481754</ele>
        <time>2022-03-12T09:57:17.328Z</time>
      </trkpt>
      <trkpt lat="44.95981" lon="5.14379">
        <ele>460.468981</ele>
        <time>2022-03-12T09:57:20.325Z</time>
      </trkpt>
      <trkpt lat="44.9599" lon="5.14385">
        <ele>460.455545</ele>
        <time>2022-03-12T09:57:23.328Z</time>
      </trkpt>
      <trkpt lat="44.96" lon="5.14392">
        <ele>460.441021</ele>
        <time>2022-03-12T09:57:26.333Z</time>
      </trkpt>
      <trkpt lat="44.9601" lon="5.14399">
        <ele>460.426692</ele>
        <time>2022-03-12T09:57:29.333Z</time>
      </trkpt>
      <trkpt lat="44.96021" lon="5.14407">
        <ele>460.411151</ele>
        <time>2022-03-12T09:57:32.329Z</time>
      </trkpt>
      <trkpt lat="44.96032" lon="5.14417">
        <ele>460.188245</ele>
        <time>2022-03-12T09:57:35.324Z</time>
      </trkpt>
      <trkpt lat="44.96043" lon="5.14426">
        <ele>459.845367</ele>
        <time>2022-03-12T09:57:38.340Z</time>
      </trkpt>
      <trkpt lat="44.96053" lon="5.14436">
        <ele>459.52789</ele>
        <time>2022-03-12T09:57:41.330Z</time>
      </trkpt>
      <trkpt lat="44.96062" lon="5.14447">
        <ele>459.208956</ele>
        <time>2022-03-12T09:57:44.320Z</time>
      </trkpt>
      <trkpt lat="44.96071" lon="5.14457">
        <ele>458.894172</ele>
        <time>2022-03-12T09:57:47.325Z</time>
      </trkpt>
      <trkpt lat="44.9608" lon="5.14468">
        <ele>458.595119</ele>
        <time>2022-03-12T09:57:50.330Z</time>
      </trkpt>
      <trkpt lat="44.96089" lon="5.14478">
        <ele>458.292955</ele>
        <time>2022-03-12T09:57:53.325Z</time>
      </trkpt>
      <trkpt lat="44.96098" lon="5.14489">
        <ele>457.968175</ele>
        <time>2022-03-12T09:57:56.332Z</time>
      </trkpt>
      <trkpt lat="44.96107" lon="5.145">
        <ele>457.651042</ele>
        <time>2022-03-12T09:57:59.330Z</time>
      </trkpt>
      <trkpt lat="44.96117" lon="5.1451">
        <ele>457.326786</ele>
        <time>2022-03-12T09:58:02.324Z</time>
      </trkpt>
      <trkpt lat="44.96127" lon="5.1452">
        <ele>457.007133</ele>
        <time>2022-03-12T09:58:05.318Z</time>
      </trkpt>
      <trkpt lat="44.96138" lon="5.14531">
        <ele>456.654022</ele>
        <time>2022-03-12T09:58:08.334Z</time>
      </trkpt>
      <trkpt lat="44.96149" lon="5.14542">
        <ele>456.293276</ele>
        <time>2022-03-12T09:58:11.325Z</time>
      </trkpt>
      <trkpt lat="44.96158" lon="5.14549">
        <ele>456.028047</ele>
        <time>2022-03-12T09:58:13.325Z</time>
      </trkpt>
      <trkpt lat="44.96167" lon="5.14557">
        <ele>455.745291</ele>
        <time>2022-03-12T09:58:15.334Z</time>
      </trkpt>
      <trkpt lat="44.96177" lon="5.14565">
        <ele>455.30013</ele>
        <time>2022-03-12T09:58:17.339Z</time>
      </trkpt>
      <trkpt lat="44.96187" lon="5.14572">
        <ele>454.778584</ele>
        <time>2022-03-12T09:58:19.336Z</time>
      </trkpt>
      <trkpt lat="44.96197" lon="5.1458">
        <ele>454.243786</ele>
        <time>2022-03-12T09:58:21.331Z</time>
      </trkpt>
      <trkpt lat="44.96209" lon="5.14588">
        <ele>453.671791</ele>
        <time>2022-03-12T09:58:23.322Z</time>
      </trkpt>
      <trkpt lat="44.9622" lon="5.14597">
        <ele>453.078986</ele>
        <time>2022-03-12T09:58:25.337Z</time>
      </trkpt>
      <trkpt lat="44.96232" lon="5.14607">
        <ele>452.448988</ele>
        <time>2022-03-12T09:58:27.327Z</time>
      </trkpt>
      <trkpt lat="44.96243" lon="5.14619">
        <ele>451.786373</ele>
        <time>2022-03-12T09:58:29.344Z</time>
      </trkpt>
      <trkpt lat="44.96256" lon="5.14631">
        <ele>451.116161</ele>
        <time>2022-03-12T09:58:31.331Z</time>
      </trkpt>
      <trkpt lat="44.96268" lon="5.14642">
        <ele>450.45531</ele>
        <time>2022-03-12T09:58:33.335Z</time>
      </trkpt>
      <trkpt lat="44.96279" lon="5.14654">
        <ele>449.829944</ele>
        <time>2022-03-12T09:58:35.331Z</time>
      </trkpt>
      <trkpt lat="44.9629" lon="5.14664">
        <ele>449.213539</ele>
        <time>2022-03-12T09:58:37.324Z</time>
      </trkpt>
      <trkpt lat="44.96302" lon="5.14675">
        <ele>448.585972</ele>
        <time>2022-03-12T09:58:39.327Z</time>
      </trkpt>
      <trkpt lat="44.96313" lon="5.14685">
        <ele>447.982135</ele>
        <time>2022-03-12T09:58:41.322Z</time>
      </trkpt>
      <trkpt lat="44.96324" lon="5.14695">
        <ele>447.391733</ele>
        <time>2022-03-12T09:58:43.327Z</time>
      </trkpt>
      <trkpt lat="44.96334" lon="5.14706">
        <ele>446.862512</ele>
        <time>2022-03-12T09:58:45.324Z</time>
      </trkpt>
      <trkpt lat="44.96342" lon="5.14716">
        <ele>446.392025</ele>
        <time>2022-03-12T09:58:47.316Z</time>
      </trkpt>
      <trkpt lat="44.96349" lon="5.14726">
        <ele>445.989235</ele>
        <time>2022-03-12T09:58:49.336Z</time>
      </trkpt>
      <trkpt lat="44.96357" lon="5.14734">
        <ele>445.589083</ele>
        <time>2022-03-12T09:58:51.318Z</time>
      </trkpt>
      <trkpt lat="44.96365" lon="5.14742">
        <ele>445.177012</ele>
        <time>2022-03-12T09:58:53.329Z</time>
      </trkpt>
      <trkpt lat="44.96374" lon="5.14749">
        <ele>444.741876</ele>
        <time>2022-03-12T09:58:55.333Z</time>
      </trkpt>
      <trkpt lat="44.96383" lon="5.14757">
        <ele>444.305227</ele>
        <time>2022-03-12T09:58:57.328Z</time>
      </trkpt>
      <trkpt lat="44.96393" lon="5.14765">
        <ele>443.843479</ele>
        <time>2022-03-12T09:58:59.324Z</time>
      </trkpt>
      <trkpt lat="44.96403" lon="5.14772">
        <ele>443.398819</ele>
        <time>2022-03-12T09:59:01.338Z</time>
      </trkpt>
      <trkpt lat="44.96412" lon="5.1478">
        <ele>442.939844</ele>
        <time>2022-03-12T09:59:03.324Z</time>
      </trkpt>
      <trkpt lat="44.96422" lon="5.14788">
        <ele>442.462923</ele>
        <time>2022-03-12T09:59:05.324Z</time>
      </trkpt>
      <trkpt lat="44.96432" lon="5.14796">
        <ele>441.978761</ele>
        <time>2022-03-12T09:59:07.328Z</time>
      </trkpt>
      <trkpt lat="44.96442" lon="5.14804">
        <ele>441.494439</ele>
        <time>2022-03-12T09:59:09.325Z</time>
      </trkpt>
      <trkpt lat="44.96453" lon="5.14813">
        <ele>441.002341</ele>
        <time>2022-03-12T09:59:11.328Z</time>
      </trkpt>
      <trkpt lat="44.96463" lon="5.14822">
        <ele>440.481979</ele>
        <time>2022-03-12T09:59:13.332Z</time>
      </trkpt>
      <trkpt lat="44.96475" lon="5.1483">
        <ele>439.930257</ele>
        <time>2022-03-12T09:59:15.324Z</time>
      </trkpt>
      <trkpt lat="44.96486" lon="5.1484">
        <ele>439.187067</ele>
        <time>2022-03-12T09:59:17.321Z</time>
      </trkpt>
      <trkpt lat="44.96498" lon="5.1485">
        <ele>438.425116</ele>
        <time>2022-03-12T09:59:19.323Z</time>
      </trkpt>
      <trkpt lat="44.9651" lon="5.14859">
        <ele>437.672213</ele>
        <time>2022-03-12T09:59:21.325Z</time>
      </trkpt>
      <trkpt lat="44.96522" lon="5.14868">
        <ele>436.897886</ele>
        <time>2022-03-12T09:59:23.323Z</time>
      </trkpt>
      <trkpt lat="44.96535" lon="5.14878">
        <ele>436.091546</ele>
        <time>2022-03-12T09:59:25.327Z</time>
      </trkpt>
      <trkpt lat="44.96548" lon="5.14888">
        <ele>435.261108</ele>
        <time>2022-03-12T09:59:27.328Z</time>
      </trkpt>
      <trkpt lat="44.96562" lon="5.14898">
        <ele>434.406182</ele>
        <time>2022-03-12T09:59:29.324Z</time>
      </trkpt>
      <trkpt lat="44.96575" lon="5.14908">
        <ele>433.539575</ele>
        <time>2022-03-12T09:59:31.322Z</time>
      </trkpt>
      <trkpt lat="44.9659" lon="5.14918">
        <ele>432.653947</ele>
        <time>2022-03-12T09:59:33.329Z</time>
      </trkpt>
      <trkpt lat="44.96604" lon="5.14927">
        <ele>431.752948</ele>
        <time>2022-03-12T09:59:35.321Z</time>
      </trkpt>
      <trkpt lat="44.9662" lon="5.14936">
        <ele>430.819136</ele>
        <time>2022-03-12T09:59:37.327Z</time>
      </trkpt>
      <trkpt lat="44.96636" lon="5.14945">
        <ele>429.857294</ele>
        <time>2022-03-12T09:59:39.332Z</time>
      </trkpt>
      <trkpt lat="44.9665" lon="5.14952">
        <ele>428.92997</ele>
        <time>2022-03-12T09:59:41.330Z</time>
      </trkpt>
      <trkpt lat="44.96665" lon="5.1496">
        <ele>427.985434</ele>
        <time>2022-03-12T09:59:43.326Z</time>
      </trkpt>
      <trkpt lat="44.96678" lon="5.14966">
        <ele>427.14474</ele>
        <time>2022-03-12T09:59:45.335Z</time>
      </trkpt>
      <trkpt lat="44.96689" lon="5.14972">
        <ele>426.412042</ele>
        <time>2022-03-12T09:59:47.335Z</time>
      </trkpt>
      <trkpt lat="44.96699" lon="5.14978">
        <ele>425.744047</ele>
        <time>2022-03-12T09:59:49.339Z</time>
      </trkpt>
      <trkpt lat="44.96707" lon="5.14984">
        <ele>425.188588</ele>
        <time>2022-03-12T09:59:52.334Z</time>
      </trkpt>
      <trkpt lat="44.96717" lon="5.14985">
        <ele>424.563666</ele>
        <time>2022-03-12T10:00:01.320Z</time>
      </trkpt>
      <trkpt lat="44.96728" lon="5.14984">
        <ele>423.920987</ele>
        <time>2022-03-12T10:00:04.328Z</time>
      </trkpt>
      <trkpt lat="44.9674" lon="5.1499">
        <ele>423.150606</ele>
        <time>2022-03-12T10:00:07.321Z</time>
      </trkpt>
      <trkpt lat="44.96749" lon="5.14995">
        <ele>422.56216</ele>
        <time>2022-03-12T10:00:09.336Z</time>
      </trkpt>
      <trkpt lat="44.96758" lon="5.14999">
        <ele>421.934444</ele>
        <time>2022-03-12T10:00:11.330Z</time>
      </trkpt>
      <trkpt lat="44.96769" lon="5.15003">
        <ele>421.239799</ele>
        <time>2022-03-12T10:00:13.320Z</time>
      </trkpt>
      <trkpt lat="44.96781" lon="5.15008">
        <ele>420.505041</ele>
        <time>2022-03-12T10:00:15.326Z</time>
      </trkpt>
      <trkpt lat="44.96793" lon="5.15013">
        <ele>419.714889</ele>
        <time>2022-03-12T10:00:17.323Z</time>
      </trkpt>
      <trkpt lat="44.96806" lon="5.15018">
        <ele>418.923823</ele>
        <time>2022-03-12T10:00:19.321Z</time>
      </trkpt>
      <trkpt lat="44.96818" lon="5.15023">
        <ele>418.199398</ele>
        <time>2022-03-12T10:00:21.314Z</time>
      </trkpt>
      <trkpt lat="44.9683" lon="5.1503">
        <ele>417.437721</ele>
        <time>2022-03-12T10:00:23.329Z</time>
      </trkpt>
      <trkpt lat="44.96843" lon="5.15036">
        <ele>416.6653</ele>
        <time>2022-03-12T10:00:25.326Z</time>
      </trkpt>
      <trkpt lat="44.96856" lon="5.15043">
        <ele>415.872597</ele>
        <time>2022-03-12T10:00:27.327Z</time>
      </trkpt>
      <trkpt lat="44.96869" lon="5.15051">
        <ele>415.055971</ele>
        <time>2022-03-12T10:00:29.326Z</time>
      </trkpt>
      <trkpt lat="44.96883" lon="5.15059">
        <ele>414.22938</ele>
        <time>2022-03-12T10:00:31.327Z</time>
      </trkpt>
      <trkpt lat="44.96895" lon="5.15066">
        <ele>413.455932</ele>
        <time>2022-03-12T10:00:33.321Z</time>
      </trkpt>
      <trkpt lat="44.96907" lon="5.15072">
        <ele>412.710334</ele>
        <time>2022-03-12T10:00:35.325Z</time>
      </trkpt>
      <trkpt lat="44.9692" lon="5.1508">
        <ele>411.935332</ele>
        <time>2022-03-12T10:00:37.341Z</time>
      </trkpt>
      <trkpt lat="44.96932" lon="5.15086">
        <ele>411.20742</ele>
        <time>2022-03-12T10:00:39.329Z</time>
      </trkpt>
      <trkpt lat="44.96943" lon="5.15091">
        <ele>410.545388</ele>
        <time>2022-03-12T10:00:41.312Z</time>
      </trkpt>
      <trkpt lat="44.96952" lon="5.15094">
        <ele>409.98872</ele>
        <time>2022-03-12T10:00:43.326Z</time>
      </trkpt>
      <trkpt lat="44.96962" lon="5.15097">
        <ele>409.421758</ele>
        <time>2022-03-12T10:00:47.334Z</time>
      </trkpt>
      <trkpt lat="44.96973" lon="5.15102">
        <ele>408.756987</ele>
        <time>2022-03-12T10:00:51.324Z</time>
      </trkpt>
      <trkpt lat="44.96983" lon="5.15105">
        <ele>408.522421</ele>
        <time>2022-03-12T10:00:54.330Z</time>
      </trkpt>
      <trkpt lat="44.96993" lon="5.1511">
        <ele>408.339406</ele>
        <time>2022-03-12T10:00:57.328Z</time>
      </trkpt>
      <trkpt lat="44.97006" lon="5.15114">
        <ele>408.117394</ele>
        <time>2022-03-12T10:01:00.320Z</time>
      </trkpt>
      <trkpt lat="44.97015" lon="5.15117">
        <ele>407.961485</ele>
        <time>2022-03-12T10:01:02.330Z</time>
      </trkpt>
      <trkpt lat="44.97024" lon="5.1512">
        <ele>407.804233</ele>
        <time>2022-03-12T10:01:04.327Z</time>
      </trkpt>
      <trkpt lat="44.97033" lon="5.15124">
        <ele>407.64105</ele>
        <time>2022-03-12T10:01:06.328Z</time>
      </trkpt>
      <trkpt lat="44.97043" lon="5.15127">
        <ele>407.463497</ele>
        <time>2022-03-12T10:01:08.317Z</time>
      </trkpt>
      <trkpt lat="44.97053" lon="5.15131">
        <ele>407.282828</ele>
        <time>2022-03-12T10:01:10.335Z</time>
      </trkpt>
      <trkpt lat="44.97062" lon="5.15135">
        <ele>407.125576</ele>
        <time>2022-03-12T10:01:12.322Z</time>
      </trkpt>
      <trkpt lat="44.97072" lon="5.15138">
        <ele>406.941601</ele>
        <time>2022-03-12T10:01:15.331Z</time>
      </trkpt>
      <trkpt lat="44.97082" lon="5.15138">
        <ele>406.77188</ele>
        <time>2022-03-12T10:01:18.336Z</time>
      </trkpt>
      <trkpt lat="44.97092" lon="5.1514">
        <ele>406.606811</ele>
        <time>2022-03-12T10:01:21.326Z</time>
      </trkpt>
      <trkpt lat="44.97103" lon="5.15141">
        <ele>406.417531</ele>
        <time>2022-03-12T10:01:25.331Z</time>
      </trkpt>
      <trkpt lat="44.9709" lon="5.15139">
        <ele>406.19668</ele>
        <time>2022-03-12T10:01:44.327Z</time>
      </trkpt>
      <trkpt lat="44.97079" lon="5.15137">
        <ele>406.003871</ele>
        <time>2022-03-12T10:01:48.322Z</time>
      </trkpt>
      <trkpt lat="44.97068" lon="5.15137">
        <ele>405.813563</ele>
        <time>2022-03-12T10:01:52.326Z</time>
      </trkpt>
      <trkpt lat="44.97058" lon="5.15135">
        <ele>405.638151</ele>
        <time>2022-03-12T10:01:56.324Z</time>
      </trkpt>
      <trkpt lat="44.97046" lon="5.15131">
        <ele>405.260476</ele>
        <time>2022-03-12T10:02:00.329Z</time>
      </trkpt>
      <trkpt lat="44.97036" lon="5.15129">
        <ele>404.879178</ele>
        <time>2022-03-12T10:02:04.325Z</time>
      </trkpt>
      <trkpt lat="44.97027" lon="5.15125">
        <ele>404.535942</ele>
        <time>2022-03-12T10:02:08.332Z</time>
      </trkpt>
      <trkpt lat="44.97018" lon="5.15121">
        <ele>404.172408</ele>
        <time>2022-03-12T10:02:12.321Z</time>
      </trkpt>
      <trkpt lat="44.97009" lon="5.15117">
        <ele>403.823896</ele>
        <time>2022-03-12T10:02:16.320Z</time>
      </trkpt>
      <trkpt lat="44.96998" lon="5.15114">
        <ele>403.428027</ele>
        <time>2022-03-12T10:02:21.330Z</time>
      </trkpt>
      <trkpt lat="44.96988" lon="5.1511">
        <ele>403.038589</ele>
        <time>2022-03-12T10:02:26.326Z</time>
      </trkpt>
      <trkpt lat="44.96978" lon="5.15107">
        <ele>402.649588</ele>
        <time>2022-03-12T10:02:31.324Z</time>
      </trkpt>
      <trkpt lat="44.96968" lon="5.15103">
        <ele>402.276641</ele>
        <time>2022-03-12T10:02:36.326Z</time>
      </trkpt>
      <trkpt lat="44.9697" lon="5.15082">
        <ele>401.727326</ele>
        <time>2022-03-12T10:03:06.330Z</time>
      </trkpt>
      <trkpt lat="44.96983" lon="5.15077">
        <ele>401.233016</ele>
        <time>2022-03-12T10:03:09.335Z</time>
      </trkpt>
      <trkpt lat="44.96994" lon="5.15072">
        <ele>400.81542</ele>
        <time>2022-03-12T10:03:11.327Z</time>
      </trkpt>
      <trkpt lat="44.97006" lon="5.15068">
        <ele>400.373756</ele>
        <time>2022-03-12T10:03:13.322Z</time>
      </trkpt>
      <trkpt lat="44.97017" lon="5.15063">
        <ele>399.92913</ele>
        <time>2022-03-12T10:03:15.329Z</time>
      </trkpt>
      <trkpt lat="44.97028" lon="5.15058">
        <ele>399.515065</ele>
        <time>2022-03-12T10:03:17.321Z</time>
      </trkpt>
      <trkpt lat="44.97037" lon="5.15054">
        <ele>399.143698</ele>
        <time>2022-03-12T10:03:19.327Z</time>
      </trkpt>
      <trkpt lat="44.97047" lon="5.1505">
        <ele>398.526822</ele>
        <time>2022-03-12T10:03:21.337Z</time>
      </trkpt>
      <trkpt lat="44.97057" lon="5.15045">
        <ele>397.494342</ele>
        <time>2022-03-12T10:03:24.324Z</time>
      </trkpt>
      <trkpt lat="44.97068" lon="5.15039">
        <ele>396.41173</ele>
        <time>2022-03-12T10:03:29.317Z</time>
      </trkpt>
      <trkpt lat="44.97078" lon="5.15039">
        <ele>395.481792</ele>
        <time>2022-03-12T10:03:32.323Z</time>
      </trkpt>
      <trkpt lat="44.97089" lon="5.15047">
        <ele>394.336569</ele>
        <time>2022-03-12T10:03:35.320Z</time>
      </trkpt>
      <trkpt lat="44.97098" lon="5.15057">
        <ele>393.226884</ele>
        <time>2022-03-12T10:03:38.322Z</time>
      </trkpt>
      <trkpt lat="44.97107" lon="5.15067">
        <ele>392.183382</ele>
        <time>2022-03-12T10:03:41.342Z</time>
      </trkpt>
      <trkpt lat="44.97114" lon="5.15076">
        <ele>391.239235</ele>
        <time>2022-03-12T10:03:44.330Z</time>
      </trkpt>
      <trkpt lat="44.97123" lon="5.15083">
        <ele>390.313091</ele>
        <time>2022-03-12T10:03:47.332Z</time>
      </trkpt>
      <trkpt lat="44.97131" lon="5.1509">
        <ele>389.389127</ele>
        <time>2022-03-12T10:03:50.323Z</time>
      </trkpt>
      <trkpt lat="44.97141" lon="5.15095">
        <ele>388.403444</ele>
        <time>2022-03-12T10:03:53.321Z</time>
      </trkpt>
      <trkpt lat="44.97151" lon="5.15099">
        <ele>387.423624</ele>
        <time>2022-03-12T10:03:56.329Z</time>
      </trkpt>
      <trkpt lat="44.97159" lon="5.15109">
        <ele>386.413522</ele>
        <time>2022-03-12T10:03:59.325Z</time>
      </trkpt>
      <trkpt lat="44.97169" lon="5.15117">
        <ele>385.3997</ele>
        <time>2022-03-12T10:04:03.329Z</time>
      </trkpt>
      <trkpt lat="44.97178" lon="5.15118">
        <ele>384.536668</ele>
        <time>2022-03-12T10:04:08.335Z</time>
      </trkpt>
      <trkpt lat="44.97187" lon="5.15117">
        <ele>383.664334</ele>
        <time>2022-03-12T10:04:17.325Z</time>
      </trkpt>
      <trkpt lat="44.97197" lon="5.15111">
        <ele>382.666458</ele>
        <time>2022-03-12T10:04:21.324Z</time>
      </trkpt>
      <trkpt lat="44.97205" lon="5.15103">
        <ele>382.045222</ele>
        <time>2022-03-12T10:04:24.322Z</time>
      </trkpt>
      <trkpt lat="44.97211" lon="5.15091">
        <ele>382.02443</ele>
        <time>2022-03-12T10:04:27.330Z</time>
      </trkpt>
      <trkpt lat="44.97222" lon="5.15093">
        <ele>382.000216</ele>
        <time>2022-03-12T10:04:32.325Z</time>
      </trkpt>
      <trkpt lat="44.97232" lon="5.15101">
        <ele>381.976696</ele>
        <time>2022-03-12T10:04:35.325Z</time>
      </trkpt>
      <trkpt lat="44.97243" lon="5.1511">
        <ele>381.950558</ele>
        <time>2022-03-12T10:04:38.321Z</time>
      </trkpt>
      <trkpt lat="44.97252" lon="5.15118">
        <ele>381.927671</ele>
        <time>2022-03-12T10:04:41.331Z</time>
      </trkpt>
      <trkpt lat="44.97262" lon="5.15126">
        <ele>381.905028</ele>
        <time>2022-03-12T10:04:45.333Z</time>
      </trkpt>
      <trkpt lat="44.9727" lon="5.15114">
        <ele>381.880004</ele>
        <time>2022-03-12T10:04:50.328Z</time>
      </trkpt>
      <trkpt lat="44.97278" lon="5.15102">
        <ele>381.855874</ele>
        <time>2022-03-12T10:04:54.322Z</time>
      </trkpt>
      <trkpt lat="44.97287" lon="5.15093">
        <ele>381.83242</ele>
        <time>2022-03-12T10:04:58.329Z</time>
      </trkpt>
      <trkpt lat="44.97298" lon="5.15092">
        <ele>381.809473</ele>
        <time>2022-03-12T10:05:02.316Z</time>
      </trkpt>
      <trkpt lat="44.97307" lon="5.15102">
        <ele>381.785858</ele>
        <time>2022-03-12T10:05:06.327Z</time>
      </trkpt>
      <trkpt lat="44.97314" lon="5.15114">
        <ele>381.763353</ele>
        <time>2022-03-12T10:05:10.330Z</time>
      </trkpt>
      <trkpt lat="44.97319" lon="5.15126">
        <ele>381.742558</ele>
        <time>2022-03-12T10:05:14.326Z</time>
      </trkpt>
      <trkpt lat="44.97325" lon="5.15138">
        <ele>381.721621</ele>
        <time>2022-03-12T10:05:18.323Z</time>
      </trkpt>
      <trkpt lat="44.9733" lon="5.1515">
        <ele>381.700041</ele>
        <time>2022-03-12T10:05:22.325Z</time>
      </trkpt>
      <trkpt lat="44.97336" lon="5.15163">
        <ele>381.678496</ele>
        <time>2022-03-12T10:05:26.323Z</time>
      </trkpt>
      <trkpt lat="44.97341" lon="5.15176">
        <ele>382.183343</ele>
        <time>2022-03-12T10:05:31.321Z</time>
      </trkpt>
      <trkpt lat="44.97346" lon="5.15187">
        <ele>382.624815</ele>
        <time>2022-03-12T10:05:35.321Z</time>
      </trkpt>
      <trkpt lat="44.97352" lon="5.15198">
        <ele>383.090175</ele>
        <time>2022-03-12T10:05:39.320Z</time>
      </trkpt>
      <trkpt lat="44.97358" lon="5.1521">
        <ele>383.571093</ele>
        <time>2022-03-12T10:05:43.330Z</time>
      </trkpt>
      <trkpt lat="44.97364" lon="5.15222">
        <ele>384.063067</ele>
        <time>2022-03-12T10:05:47.323Z</time>
      </trkpt>
      <trkpt lat="44.97364" lon="5.15235">
        <ele>384.498025</ele>
        <time>2022-03-12T10:05:51.336Z</time>
      </trkpt>
      <trkpt lat="44.97362" lon="5.15249">
        <ele>384.971409</ele>
        <time>2022-03-12T10:05:56.325Z</time>
      </trkpt>
      <trkpt lat="44.97357" lon="5.15262">
        <ele>385.479824</ele>
        <time>2022-03-12T10:06:01.324Z</time>
      </trkpt>
      <trkpt lat="44.97352" lon="5.15276">
        <ele>385.99831</ele>
        <time>2022-03-12T10:06:06.324Z</time>
      </trkpt>
      <trkpt lat="44.97349" lon="5.15291">
        <ele>386.521956</ele>
        <time>2022-03-12T10:06:11.326Z</time>
      </trkpt>
      <trkpt lat="44.97345" lon="5.15305">
        <ele>387.012603</ele>
        <time>2022-03-12T10:06:16.326Z</time>
      </trkpt>
      <trkpt lat="44.97341" lon="5.15319">
        <ele>387.538177</ele>
        <time>2022-03-12T10:06:21.341Z</time>
      </trkpt>
      <trkpt lat="44.97337" lon="5.15332">
        <ele>387.988457</ele>
        <time>2022-03-12T10:06:25.326Z</time>
      </trkpt>
      <trkpt lat="44.97334" lon="5.15346">
        <ele>388.494739</ele>
        <time>2022-03-12T10:06:29.333Z</time>
      </trkpt>
      <trkpt lat="44.97329" lon="5.15361">
        <ele>389.020789</ele>
        <time>2022-03-12T10:06:33.333Z</time>
      </trkpt>
      <trkpt lat="44.97325" lon="5.15375">
        <ele>389.560529</ele>
        <time>2022-03-12T10:06:37.327Z</time>
      </trkpt>
      <trkpt lat="44.97322" lon="5.15388">
        <ele>389.995153</ele>
        <time>2022-03-12T10:06:40.322Z</time>
      </trkpt>
      <trkpt lat="44.9732" lon="5.15402">
        <ele>390.450161</ele>
        <time>2022-03-12T10:06:43.326Z</time>
      </trkpt>
      <trkpt lat="44.9732" lon="5.15416">
        <ele>390.886199</ele>
        <time>2022-03-12T10:06:46.334Z</time>
      </trkpt>
      <trkpt lat="44.9732" lon="5.1543">
        <ele>391.305281</ele>
        <time>2022-03-12T10:06:49.336Z</time>
      </trkpt>
      <trkpt lat="44.97322" lon="5.15443">
        <ele>391.726316</ele>
        <time>2022-03-12T10:06:52.325Z</time>
      </trkpt>
      <trkpt lat="44.97325" lon="5.15458">
        <ele>392.187231</ele>
        <time>2022-03-12T10:06:55.323Z</time>
      </trkpt>
      <trkpt lat="44.97328" lon="5.15472">
        <ele>392.648538</ele>
        <time>2022-03-12T10:06:58.326Z</time>
      </trkpt>
      <trkpt lat="44.97332" lon="5.15486">
        <ele>393.091483</ele>
        <time>2022-03-12T10:07:01.321Z</time>
      </trkpt>
      <trkpt lat="44.97337" lon="5.15499">
        <ele>393.537858</ele>
        <time>2022-03-12T10:07:04.329Z</time>
      </trkpt>
      <trkpt lat="44.97342" lon="5.1551">
        <ele>393.951641</ele>
        <time>2022-03-12T10:07:07.333Z</time>
      </trkpt>
      <trkpt lat="44.97347" lon="5.15521">
        <ele>394.35982</ele>
        <time>2022-03-12T10:07:10.326Z</time>
      </trkpt>
      <trkpt lat="44.97353" lon="5.15532">
        <ele>394.768354</ele>
        <time>2022-03-12T10:07:13.326Z</time>
      </trkpt>
      <trkpt lat="44.97359" lon="5.15543">
        <ele>395.190009</ele>
        <time>2022-03-12T10:07:16.315Z</time>
      </trkpt>
      <trkpt lat="44.97365" lon="5.15553">
        <ele>395.596135</ele>
        <time>2022-03-12T10:07:19.333Z</time>
      </trkpt>
      <trkpt lat="44.9737" lon="5.15564">
        <ele>395.994406</ele>
        <time>2022-03-12T10:07:22.339Z</time>
      </trkpt>
      <trkpt lat="44.97376" lon="5.15578">
        <ele>396.508709</ele>
        <time>2022-03-12T10:07:26.325Z</time>
      </trkpt>
      <trkpt lat="44.97381" lon="5.1559">
        <ele>396.899267</ele>
        <time>2022-03-12T10:07:29.328Z</time>
      </trkpt>
      <trkpt lat="44.97385" lon="5.15602">
        <ele>397.300077</ele>
        <time>2022-03-12T10:07:32.330Z</time>
      </trkpt>
      <trkpt lat="44.97388" lon="5.15614">
        <ele>397.696714</ele>
        <time>2022-03-12T10:07:35.325Z</time>
      </trkpt>
      <trkpt lat="44.97389" lon="5.15626">
        <ele>398.124353</ele>
        <time>2022-03-12T10:07:38.329Z</time>
      </trkpt>
      <trkpt lat="44.9739" lon="5.15639">
        <ele>398.614683</ele>
        <time>2022-03-12T10:07:41.318Z</time>
      </trkpt>
      <trkpt lat="44.97391" lon="5.15652">
        <ele>399.125143</ele>
        <time>2022-03-12T10:07:44.330Z</time>
      </trkpt>
      <trkpt lat="44.97391" lon="5.15665">
        <ele>399.620139</ele>
        <time>2022-03-12T10:07:47.330Z</time>
      </trkpt>
      <trkpt lat="44.97391" lon="5.15682">
        <ele>400.25711</ele>
        <time>2022-03-12T10:07:51.342Z</time>
      </trkpt>
      <trkpt lat="44.9739" lon="5.15698">
        <ele>400.890453</ele>
        <time>2022-03-12T10:07:55.326Z</time>
      </trkpt>
      <trkpt lat="44.9739" lon="5.15714">
        <ele>401.504785</ele>
        <time>2022-03-12T10:07:59.329Z</time>
      </trkpt>
      <trkpt lat="44.97389" lon="5.1573">
        <ele>402.115763</ele>
        <time>2022-03-12T10:08:03.322Z</time>
      </trkpt>
      <trkpt lat="44.97389" lon="5.15746">
        <ele>402.730885</ele>
        <time>2022-03-12T10:08:07.323Z</time>
      </trkpt>
      <trkpt lat="44.97389" lon="5.15762">
        <ele>403.326265</ele>
        <time>2022-03-12T10:08:11.325Z</time>
      </trkpt>
      <trkpt lat="44.9739" lon="5.15777">
        <ele>403.90551</ele>
        <time>2022-03-12T10:08:15.324Z</time>
      </trkpt>
      <trkpt lat="44.97391" lon="5.15792">
        <ele>404.486547</ele>
        <time>2022-03-12T10:08:19.331Z</time>
      </trkpt>
      <trkpt lat="44.97392" lon="5.15807">
        <ele>405.065792</ele>
        <time>2022-03-12T10:08:23.323Z</time>
      </trkpt>
      <trkpt lat="44.97394" lon="5.15822">
        <ele>405.643291</ele>
        <time>2022-03-12T10:08:27.323Z</time>
      </trkpt>
      <trkpt lat="44.97396" lon="5.15837">
        <ele>406.229001</ele>
        <time>2022-03-12T10:08:31.324Z</time>
      </trkpt>
      <trkpt lat="44.97398" lon="5.15851">
        <ele>406.795868</ele>
        <time>2022-03-12T10:08:35.327Z</time>
      </trkpt>
      <trkpt lat="44.97399" lon="5.15866">
        <ele>407.366895</ele>
        <time>2022-03-12T10:08:39.324Z</time>
      </trkpt>
      <trkpt lat="44.97401" lon="5.15881">
        <ele>407.960874</ele>
        <time>2022-03-12T10:08:43.321Z</time>
      </trkpt>
      <trkpt lat="44.97403" lon="5.15897">
        <ele>408.559515</ele>
        <time>2022-03-12T10:08:47.337Z</time>
      </trkpt>
      <trkpt lat="44.97404" lon="5.15911">
        <ele>409.134767</ele>
        <time>2022-03-12T10:08:51.336Z</time>
      </trkpt>
      <trkpt lat="44.97406" lon="5.15926">
        <ele>409.698596</ele>
        <time>2022-03-12T10:08:55.322Z</time>
      </trkpt>
      <trkpt lat="44.97407" lon="5.15941">
        <ele>410.30052</ele>
        <time>2022-03-12T10:08:59.322Z</time>
      </trkpt>
      <trkpt lat="44.97408" lon="5.15957">
        <ele>410.898896</ele>
        <time>2022-03-12T10:09:03.326Z</time>
      </trkpt>
      <trkpt lat="44.9741" lon="5.15972">
        <ele>411.497774</ele>
        <time>2022-03-12T10:09:07.327Z</time>
      </trkpt>
      <trkpt lat="44.97411" lon="5.15987">
        <ele>412.083723</ele>
        <time>2022-03-12T10:09:11.326Z</time>
      </trkpt>
      <trkpt lat="44.97413" lon="5.16002">
        <ele>412.667236</ele>
        <time>2022-03-12T10:09:15.337Z</time>
      </trkpt>
      <trkpt lat="44.97415" lon="5.16018">
        <ele>413.267782</ele>
        <time>2022-03-12T10:09:19.324Z</time>
      </trkpt>
      <trkpt lat="44.97416" lon="5.16034">
        <ele>413.885787</ele>
        <time>2022-03-12T10:09:23.321Z</time>
      </trkpt>
      <trkpt lat="44.97416" lon="5.1605">
        <ele>414.50293</ele>
        <time>2022-03-12T10:09:27.334Z</time>
      </trkpt>
      <trkpt lat="44.97416" lon="5.16065">
        <ele>415.103762</ele>
        <time>2022-03-12T10:09:31.327Z</time>
      </trkpt>
      <trkpt lat="44.97415" lon="5.16081">
        <ele>415.689499</ele>
        <time>2022-03-12T10:09:35.333Z</time>
      </trkpt>
      <trkpt lat="44.97414" lon="5.16096">
        <ele>416.300904</ele>
        <time>2022-03-12T10:09:39.324Z</time>
      </trkpt>
      <trkpt lat="44.97413" lon="5.16112">
        <ele>416.900835</ele>
        <time>2022-03-12T10:09:43.326Z</time>
      </trkpt>
      <trkpt lat="44.97411" lon="5.16127">
        <ele>417.500489</ele>
        <time>2022-03-12T10:09:47.331Z</time>
      </trkpt>
      <trkpt lat="44.97409" lon="5.16143">
        <ele>418.058985</ele>
        <time>2022-03-12T10:09:51.323Z</time>
      </trkpt>
      <trkpt lat="44.97407" lon="5.16159">
        <ele>418.621243</ele>
        <time>2022-03-12T10:09:55.321Z</time>
      </trkpt>
      <trkpt lat="44.97406" lon="5.16172">
        <ele>419.068475</ele>
        <time>2022-03-12T10:09:58.324Z</time>
      </trkpt>
      <trkpt lat="44.97404" lon="5.16185">
        <ele>419.522568</ele>
        <time>2022-03-12T10:10:01.316Z</time>
      </trkpt>
      <trkpt lat="44.97402" lon="5.16197">
        <ele>419.975728</ele>
        <time>2022-03-12T10:10:04.338Z</time>
      </trkpt>
      <trkpt lat="44.97401" lon="5.1621">
        <ele>420.426409</ele>
        <time>2022-03-12T10:10:07.319Z</time>
      </trkpt>
      <trkpt lat="44.97399" lon="5.16223">
        <ele>420.882523</ele>
        <time>2022-03-12T10:10:10.329Z</time>
      </trkpt>
      <trkpt lat="44.97397" lon="5.16236">
        <ele>421.342035</ele>
        <time>2022-03-12T10:10:13.320Z</time>
      </trkpt>
      <trkpt lat="44.97395" lon="5.16248">
        <ele>421.785895</ele>
        <time>2022-03-12T10:10:16.327Z</time>
      </trkpt>
      <trkpt lat="44.97392" lon="5.16261">
        <ele>422.236571</ele>
        <time>2022-03-12T10:10:19.328Z</time>
      </trkpt>
      <trkpt lat="44.97391" lon="5.16273">
        <ele>422.678575</ele>
        <time>2022-03-12T10:10:22.318Z</time>
      </trkpt>
      <trkpt lat="44.97388" lon="5.16289">
        <ele>423.24108</ele>
        <time>2022-03-12T10:10:26.325Z</time>
      </trkpt>
      <trkpt lat="44.97385" lon="5.16304">
        <ele>423.786387</ele>
        <time>2022-03-12T10:10:30.322Z</time>
      </trkpt>
      <trkpt lat="44.97383" lon="5.16318">
        <ele>424.293592</ele>
        <time>2022-03-12T10:10:34.317Z</time>
      </trkpt>
      <trkpt lat="44.97381" lon="5.16331">
        <ele>424.739638</ele>
        <time>2022-03-12T10:10:38.326Z</time>
      </trkpt>
      <trkpt lat="44.97379" lon="5.16344">
        <ele>425.204741</ele>
        <time>2022-03-12T10:10:42.322Z</time>
      </trkpt>
      <trkpt lat="44.97376" lon="5.16357">
        <ele>425.697109</ele>
        <time>2022-03-12T10:10:46.323Z</time>
      </trkpt>
      <trkpt lat="44.97372" lon="5.16371">
        <ele>426.206385</ele>
        <time>2022-03-12T10:10:50.321Z</time>
      </trkpt>
      <trkpt lat="44.97367" lon="5.16384">
        <ele>426.469262</ele>
        <time>2022-03-12T10:10:54.335Z</time>
      </trkpt>
      <trkpt lat="44.97363" lon="5.16397">
        <ele>426.661753</ele>
        <time>2022-03-12T10:10:58.322Z</time>
      </trkpt>
      <trkpt lat="44.97362" lon="5.1641">
        <ele>426.8362</ele>
        <time>2022-03-12T10:11:02.317Z</time>
      </trkpt>
      <trkpt lat="44.97369" lon="5.1642">
        <ele>427.032409</ele>
        <time>2022-03-12T10:11:06.327Z</time>
      </trkpt>
      <trkpt lat="44.97378" lon="5.16429">
        <ele>427.247094</ele>
        <time>2022-03-12T10:11:10.326Z</time>
      </trkpt>
      <trkpt lat="44.97386" lon="5.16437">
        <ele>427.426926</ele>
        <time>2022-03-12T10:11:13.331Z</time>
      </trkpt>
      <trkpt lat="44.97394" lon="5.16445">
        <ele>427.602092</ele>
        <time>2022-03-12T10:11:16.322Z</time>
      </trkpt>
      <trkpt lat="44.97401" lon="5.16452">
        <ele>427.772629</ele>
        <time>2022-03-12T10:11:19.323Z</time>
      </trkpt>
      <trkpt lat="44.97409" lon="5.16459">
        <ele>427.947833</ele>
        <time>2022-03-12T10:11:22.322Z</time>
      </trkpt>
      <trkpt lat="44.97416" lon="5.16468">
        <ele>428.124035</ele>
        <time>2022-03-12T10:11:25.322Z</time>
      </trkpt>
      <trkpt lat="44.97424" lon="5.16475">
        <ele>428.302272</ele>
        <time>2022-03-12T10:11:28.324Z</time>
      </trkpt>
      <trkpt lat="44.97431" lon="5.16485">
        <ele>428.487979</ele>
        <time>2022-03-12T10:11:31.323Z</time>
      </trkpt>
      <trkpt lat="44.97438" lon="5.16494">
        <ele>428.669514</ele>
        <time>2022-03-12T10:11:34.334Z</time>
      </trkpt>
      <trkpt lat="44.97445" lon="5.16504">
        <ele>428.852073</ele>
        <time>2022-03-12T10:11:37.323Z</time>
      </trkpt>
      <trkpt lat="44.97452" lon="5.16515">
        <ele>429.049866</ele>
        <time>2022-03-12T10:11:41.312Z</time>
      </trkpt>
      <trkpt lat="44.97461" lon="5.16526">
        <ele>429.280928</ele>
        <time>2022-03-12T10:11:45.330Z</time>
      </trkpt>
      <trkpt lat="44.97468" lon="5.16537">
        <ele>429.472512</ele>
        <time>2022-03-12T10:11:48.326Z</time>
      </trkpt>
      <trkpt lat="44.97473" lon="5.1655">
        <ele>429.6715</ele>
        <time>2022-03-12T10:11:51.321Z</time>
      </trkpt>
      <trkpt lat="44.97468" lon="5.16561">
        <ele>429.319907</ele>
        <time>2022-03-12T10:11:54.323Z</time>
      </trkpt>
      <trkpt lat="44.9746" lon="5.1657">
        <ele>428.710115</ele>
        <time>2022-03-12T10:11:58.335Z</time>
      </trkpt>
      <trkpt lat="44.97454" lon="5.16579">
        <ele>428.149249</ele>
        <time>2022-03-12T10:12:04.317Z</time>
      </trkpt>
      <trkpt lat="44.97461" lon="5.1657">
        <ele>427.570702</ele>
        <time>2022-03-12T10:12:10.326Z</time>
      </trkpt>
      <trkpt lat="44.97469" lon="5.16557">
        <ele>426.826677</ele>
        <time>2022-03-12T10:12:14.318Z</time>
      </trkpt>
      <trkpt lat="44.97471" lon="5.16544">
        <ele>426.236961</ele>
        <time>2022-03-12T10:12:17.331Z</time>
      </trkpt>
      <trkpt lat="44.97466" lon="5.1653">
        <ele>425.590438</ele>
        <time>2022-03-12T10:12:21.328Z</time>
      </trkpt>
      <trkpt lat="44.97472" lon="5.16517">
        <ele>424.920566</ele>
        <time>2022-03-12T10:12:26.320Z</time>
      </trkpt>
      <trkpt lat="44.97482" lon="5.16515">
        <ele>424.312883</ele>
        <time>2022-03-12T10:12:29.327Z</time>
      </trkpt>
      <trkpt lat="44.97492" lon="5.16514">
        <ele>423.647978</ele>
        <time>2022-03-12T10:12:32.320Z</time>
      </trkpt>
      <trkpt lat="44.97503" lon="5.16512">
        <ele>423.003902</ele>
        <time>2022-03-12T10:12:35.323Z</time>
      </trkpt>
      <trkpt lat="44.97513" lon="5.16506">
        <ele>422.34188</ele>
        <time>2022-03-12T10:12:38.332Z</time>
      </trkpt>
      <trkpt lat="44.97521" lon="5.16499">
        <ele>421.735933</ele>
        <time>2022-03-12T10:12:41.317Z</time>
      </trkpt>
      <trkpt lat="44.97528" lon="5.16489">
        <ele>421.16328</ele>
        <time>2022-03-12T10:12:44.324Z</time>
      </trkpt>
      <trkpt lat="44.97536" lon="5.16495">
        <ele>420.577218</ele>
        <time>2022-03-12T10:12:57.323Z</time>
      </trkpt>
      <trkpt lat="44.97542" lon="5.16505">
        <ele>420.005214</ele>
        <time>2022-03-12T10:13:01.329Z</time>
      </trkpt>
      <trkpt lat="44.97549" lon="5.16519">
        <ele>419.278943</ele>
        <time>2022-03-12T10:13:05.327Z</time>
      </trkpt>
      <trkpt lat="44.97554" lon="5.16532">
        <ele>418.493935</ele>
        <time>2022-03-12T10:13:09.330Z</time>
      </trkpt>
      <trkpt lat="44.97557" lon="5.16547">
        <ele>416.214237</ele>
        <time>2022-03-12T10:13:14.331Z</time>
      </trkpt>
      <trkpt lat="44.97558" lon="5.16561">
        <ele>414.220232</ele>
        <time>2022-03-12T10:13:18.330Z</time>
      </trkpt>
      <trkpt lat="44.97556" lon="5.16575">
        <ele>412.168174</ele>
        <time>2022-03-12T10:13:22.317Z</time>
      </trkpt>
      <trkpt lat="44.97553" lon="5.1659">
        <ele>409.93713</ele>
        <time>2022-03-12T10:13:27.327Z</time>
      </trkpt>
      <trkpt lat="44.97549" lon="5.16603">
        <ele>407.96351</ele>
        <time>2022-03-12T10:13:31.324Z</time>
      </trkpt>
      <trkpt lat="44.97545" lon="5.16617">
        <ele>405.707277</ele>
        <time>2022-03-12T10:13:35.330Z</time>
      </trkpt>
      <trkpt lat="44.97541" lon="5.16629">
        <ele>403.816208</ele>
        <time>2022-03-12T10:13:39.330Z</time>
      </trkpt>
      <trkpt lat="44.97538" lon="5.16643">
        <ele>401.67114</ele>
        <time>2022-03-12T10:13:44.317Z</time>
      </trkpt>
      <trkpt lat="44.97537" lon="5.16657">
        <ele>399.559506</ele>
        <time>2022-03-12T10:13:49.324Z</time>
      </trkpt>
      <trkpt lat="44.97546" lon="5.16663">
        <ele>397.582749</ele>
        <time>2022-03-12T10:13:59.319Z</time>
      </trkpt>
      <trkpt lat="44.97555" lon="5.16655">
        <ele>395.405357</ele>
        <time>2022-03-12T10:14:04.323Z</time>
      </trkpt>
      <trkpt lat="44.97564" lon="5.16647">
        <ele>393.279142</ele>
        <time>2022-03-12T10:14:08.333Z</time>
      </trkpt>
      <trkpt lat="44.97573" lon="5.16639">
        <ele>390.996023</ele>
        <time>2022-03-12T10:14:12.325Z</time>
      </trkpt>
      <trkpt lat="44.97583" lon="5.16632">
        <ele>388.724191</ele>
        <time>2022-03-12T10:14:16.324Z</time>
      </trkpt>
      <trkpt lat="44.97594" lon="5.16632">
        <ele>386.477417</ele>
        <time>2022-03-12T10:14:19.325Z</time>
      </trkpt>
      <trkpt lat="44.97607" lon="5.16629">
        <ele>383.838644</ele>
        <time>2022-03-12T10:14:22.328Z</time>
      </trkpt>
      <trkpt lat="44.97617" lon="5.16625">
        <ele>381.892714</ele>
        <time>2022-03-12T10:14:24.333Z</time>
      </trkpt>
      <trkpt lat="44.97627" lon="5.16619">
        <ele>381.484966</ele>
        <time>2022-03-12T10:14:26.324Z</time>
      </trkpt>
      <trkpt lat="44.97637" lon="5.1661">
        <ele>381.049714</ele>
        <time>2022-03-12T10:14:28.320Z</time>
      </trkpt>
      <trkpt lat="44.97648" lon="5.16601">
        <ele>380.592026</ele>
        <time>2022-03-12T10:14:30.328Z</time>
      </trkpt>
      <trkpt lat="44.97658" lon="5.16591">
        <ele>380.130719</ele>
        <time>2022-03-12T10:14:32.328Z</time>
      </trkpt>
      <trkpt lat="44.9767" lon="5.16582">
        <ele>379.617764</ele>
        <time>2022-03-12T10:14:34.323Z</time>
      </trkpt>
      <trkpt lat="44.97683" lon="5.16575">
        <ele>379.099707</ele>
        <time>2022-03-12T10:14:36.328Z</time>
      </trkpt>
      <trkpt lat="44.97696" lon="5.16573">
        <ele>378.590225</ele>
        <time>2022-03-12T10:14:38.325Z</time>
      </trkpt>
      <trkpt lat="44.97709" lon="5.16573">
        <ele>378.090573</ele>
        <time>2022-03-12T10:14:40.325Z</time>
      </trkpt>
      <trkpt lat="44.97723" lon="5.16575">
        <ele>377.573891</ele>
        <time>2022-03-12T10:14:42.318Z</time>
      </trkpt>
      <trkpt lat="44.97737" lon="5.16572">
        <ele>377.030474</ele>
        <time>2022-03-12T10:14:44.323Z</time>
      </trkpt>
      <trkpt lat="44.9775" lon="5.16564">
        <ele>376.522293</ele>
        <time>2022-03-12T10:14:46.325Z</time>
      </trkpt>
      <trkpt lat="44.97761" lon="5.16552">
        <ele>375.999686</ele>
        <time>2022-03-12T10:14:48.326Z</time>
      </trkpt>
      <trkpt lat="44.97772" lon="5.16541">
        <ele>375.478523</ele>
        <time>2022-03-12T10:14:50.331Z</time>
      </trkpt>
      <trkpt lat="44.97785" lon="5.16534">
        <ele>374.961931</ele>
        <time>2022-03-12T10:14:52.327Z</time>
      </trkpt>
      <trkpt lat="44.97798" lon="5.16528">
        <ele>374.439546</ele>
        <time>2022-03-12T10:14:54.326Z</time>
      </trkpt>
      <trkpt lat="44.9781" lon="5.16518">
        <ele>373.898091</ele>
        <time>2022-03-12T10:14:56.327Z</time>
      </trkpt>
      <trkpt lat="44.97818" lon="5.16502">
        <ele>373.336007</ele>
        <time>2022-03-12T10:14:58.323Z</time>
      </trkpt>
      <trkpt lat="44.97826" lon="5.16485">
        <ele>372.79557</ele>
        <time>2022-03-12T10:15:00.337Z</time>
      </trkpt>
      <trkpt lat="44.97834" lon="5.16468">
        <ele>372.228306</ele>
        <time>2022-03-12T10:15:02.320Z</time>
      </trkpt>
      <trkpt lat="44.97843" lon="5.16449">
        <ele>371.59005</ele>
        <time>2022-03-12T10:15:04.327Z</time>
      </trkpt>
      <trkpt lat="44.97853" lon="5.16437">
        <ele>371.084456</ele>
        <time>2022-03-12T10:15:06.332Z</time>
      </trkpt>
      <trkpt lat="44.97862" lon="5.1643">
        <ele>370.703071</ele>
        <time>2022-03-12T10:15:08.319Z</time>
      </trkpt>
      <trkpt lat="44.97872" lon="5.16422">
        <ele>370.246112</ele>
        <time>2022-03-12T10:15:11.318Z</time>
      </trkpt>
      <trkpt lat="44.97883" lon="5.16414">
        <ele>369.780618</ele>
        <time>2022-03-12T10:15:14.322Z</time>
      </trkpt>
      <trkpt lat="44.97893" lon="5.16405">
        <ele>369.323939</ele>
        <time>2022-03-12T10:15:17.322Z</time>
      </trkpt>
      <trkpt lat="44.97903" lon="5.16395">
        <ele>368.825303</ele>
        <time>2022-03-12T10:15:20.322Z</time>
      </trkpt>
      <trkpt lat="44.97912" lon="5.16383">
        <ele>368.354964</ele>
        <time>2022-03-12T10:15:23.319Z</time>
      </trkpt>
      <trkpt lat="44.9792" lon="5.16373">
        <ele>368.688492</ele>
        <time>2022-03-12T10:15:26.319Z</time>
      </trkpt>
      <trkpt lat="44.97928" lon="5.16363">
        <ele>369.310537</ele>
        <time>2022-03-12T10:15:29.328Z</time>
      </trkpt>
      <trkpt lat="44.97938" lon="5.16356">
        <ele>369.998973</ele>
        <time>2022-03-12T10:15:33.323Z</time>
      </trkpt>
      <trkpt lat="44.97961" lon="5.1636">
        <ele>371.39524</ele>
        <time>2022-03-12T10:15:53.328Z</time>
      </trkpt>
      <trkpt lat="44.97969" lon="5.16366">
        <ele>371.933589</ele>
        <time>2022-03-12T10:15:56.325Z</time>
      </trkpt>
      <trkpt lat="44.9798" lon="5.16373">
        <ele>372.665143</ele>
        <time>2022-03-12T10:16:00.320Z</time>
      </trkpt>
      <trkpt lat="44.97989" lon="5.16378">
        <ele>373.221419</ele>
        <time>2022-03-12T10:16:03.332Z</time>
      </trkpt>
      <trkpt lat="44.97997" lon="5.16383">
        <ele>373.780629</ele>
        <time>2022-03-12T10:16:06.334Z</time>
      </trkpt>
      <trkpt lat="44.98006" lon="5.16388">
        <ele>374.34696</ele>
        <time>2022-03-12T10:16:09.325Z</time>
      </trkpt>
      <trkpt lat="44.98015" lon="5.16392">
        <ele>374.896087</ele>
        <time>2022-03-12T10:16:12.319Z</time>
      </trkpt>
      <trkpt lat="44.98024" lon="5.16396">
        <ele>375.47816</ele>
        <time>2022-03-12T10:16:15.335Z</time>
      </trkpt>
      <trkpt lat="44.98033" lon="5.16399">
        <ele>376.020196</ele>
        <time>2022-03-12T10:16:18.324Z</time>
      </trkpt>
      <trkpt lat="44.98042" lon="5.16401">
        <ele>376.577555</ele>
        <time>2022-03-12T10:16:21.323Z</time>
      </trkpt>
      <trkpt lat="44.98054" lon="5.16401">
        <ele>377.284174</ele>
        <time>2022-03-12T10:16:25.324Z</time>
      </trkpt>
      <trkpt lat="44.98065" lon="5.16399">
        <ele>377.973121</ele>
        <time>2022-03-12T10:16:29.323Z</time>
      </trkpt>
      <trkpt lat="44.98076" lon="5.16396">
        <ele>378.612935</ele>
        <time>2022-03-12T10:16:33.326Z</time>
      </trkpt>
      <trkpt lat="44.98086" lon="5.16393">
        <ele>379.327006</ele>
        <time>2022-03-12T10:16:37.319Z</time>
      </trkpt>
      <trkpt lat="44.98096" lon="5.16389">
        <ele>380.123295</ele>
        <time>2022-03-12T10:16:41.320Z</time>
      </trkpt>
      <trkpt lat="44.98105" lon="5.16385">
        <ele>380.91773</ele>
        <time>2022-03-12T10:16:45.328Z</time>
      </trkpt>
      <trkpt lat="44.98115" lon="5.1638">
        <ele>381.715937</ele>
        <time>2022-03-12T10:16:49.316Z</time>
      </trkpt>
      <trkpt lat="44.98124" lon="5.16376">
        <ele>382.507075</ele>
        <time>2022-03-12T10:16:53.316Z</time>
      </trkpt>
      <trkpt lat="44.98134" lon="5.16371">
        <ele>383.30854</ele>
        <time>2022-03-12T10:16:57.323Z</time>
      </trkpt>
      <trkpt lat="44.98143" lon="5.16367">
        <ele>384.123344</ele>
        <time>2022-03-12T10:17:01.328Z</time>
      </trkpt>
      <trkpt lat="44.98152" lon="5.16363">
        <ele>384.849537</ele>
        <time>2022-03-12T10:17:05.322Z</time>
      </trkpt>
      <trkpt lat="44.98163" lon="5.1636">
        <ele>385.733745</ele>
        <time>2022-03-12T10:17:10.333Z</time>
      </trkpt>
      <trkpt lat="44.98172" lon="5.1636">
        <ele>386.460067</ele>
        <time>2022-03-12T10:17:14.322Z</time>
      </trkpt>
      <trkpt lat="44.98182" lon="5.16363">
        <ele>387.321083</ele>
        <time>2022-03-12T10:17:19.324Z</time>
      </trkpt>
      <trkpt lat="44.98191" lon="5.16369">
        <ele>388.11526</ele>
        <time>2022-03-12T10:17:24.337Z</time>
      </trkpt>
      <trkpt lat="44.98201" lon="5.16373">
        <ele>388.936148</ele>
        <time>2022-03-12T10:17:29.325Z</time>
      </trkpt>
      <trkpt lat="44.98212" lon="5.16368">
        <ele>389.810224</ele>
        <time>2022-03-12T10:17:34.320Z</time>
      </trkpt>
      <trkpt lat="44.98219" lon="5.16361">
        <ele>390.536929</ele>
        <time>2022-03-12T10:17:38.326Z</time>
      </trkpt>
      <trkpt lat="44.98226" lon="5.16352">
        <ele>391.290537</ele>
        <time>2022-03-12T10:17:42.336Z</time>
      </trkpt>
      <trkpt lat="44.98234" lon="5.16344">
        <ele>392.028456</ele>
        <time>2022-03-12T10:17:46.318Z</time>
      </trkpt>
      <trkpt lat="44.98241" lon="5.16336">
        <ele>392.757627</ele>
        <time>2022-03-12T10:17:50.320Z</time>
      </trkpt>
      <trkpt lat="44.98247" lon="5.16327">
        <ele>393.420145</ele>
        <time>2022-03-12T10:17:54.330Z</time>
      </trkpt>
      <trkpt lat="44.98255" lon="5.16317">
        <ele>393.830277</ele>
        <time>2022-03-12T10:17:58.327Z</time>
      </trkpt>
      <trkpt lat="44.98262" lon="5.16309">
        <ele>394.213352</ele>
        <time>2022-03-12T10:18:02.327Z</time>
      </trkpt>
      <trkpt lat="44.98269" lon="5.163">
        <ele>394.592883</ele>
        <time>2022-03-12T10:18:06.325Z</time>
      </trkpt>
      <trkpt lat="44.98276" lon="5.16292">
        <ele>394.966992</ele>
        <time>2022-03-12T10:18:10.322Z</time>
      </trkpt>
      <trkpt lat="44.98285" lon="5.16284">
        <ele>395.365994</ele>
        <time>2022-03-12T10:18:14.328Z</time>
      </trkpt>
      <trkpt lat="44.98293" lon="5.16277">
        <ele>395.751155</ele>
        <time>2022-03-12T10:18:18.330Z</time>
      </trkpt>
      <trkpt lat="44.98301" lon="5.16269">
        <ele>396.148269</ele>
        <time>2022-03-12T10:18:22.326Z</time>
      </trkpt>
      <trkpt lat="44.98309" lon="5.16262">
        <ele>396.531517</ele>
        <time>2022-03-12T10:18:26.322Z</time>
      </trkpt>
      <trkpt lat="44.98318" lon="5.16257">
        <ele>396.918082</ele>
        <time>2022-03-12T10:18:30.321Z</time>
      </trkpt>
      <trkpt lat="44.98326" lon="5.16251">
        <ele>397.304701</ele>
        <time>2022-03-12T10:18:34.332Z</time>
      </trkpt>
      <trkpt lat="44.98335" lon="5.16245">
        <ele>397.668186</ele>
        <time>2022-03-12T10:18:38.334Z</time>
      </trkpt>
      <trkpt lat="44.98343" lon="5.1624">
        <ele>398.034078</ele>
        <time>2022-03-12T10:18:42.323Z</time>
      </trkpt>
      <trkpt lat="44.98352" lon="5.16237">
        <ele>398.404985</ele>
        <time>2022-03-12T10:18:46.323Z</time>
      </trkpt>
      <trkpt lat="44.98361" lon="5.16239">
        <ele>398.783028</ele>
        <time>2022-03-12T10:18:50.319Z</time>
      </trkpt>
      <trkpt lat="44.98369" lon="5.16245">
        <ele>399.145475</ele>
        <time>2022-03-12T10:18:54.321Z</time>
      </trkpt>
      <trkpt lat="44.98362" lon="5.16254">
        <ele>399.528016</ele>
        <time>2022-03-12T10:19:02.321Z</time>
      </trkpt>
      <trkpt lat="44.98353" lon="5.16254">
        <ele>399.923138</ele>
        <time>2022-03-12T10:19:10.324Z</time>
      </trkpt>
      <trkpt lat="44.98343" lon="5.16257">
        <ele>400.324052</ele>
        <time>2022-03-12T10:19:15.332Z</time>
      </trkpt>
      <trkpt lat="44.98334" lon="5.16265">
        <ele>400.724762</ele>
        <time>2022-03-12T10:19:20.327Z</time>
      </trkpt>
      <trkpt lat="44.98327" lon="5.16273">
        <ele>401.080404</ele>
        <time>2022-03-12T10:19:24.324Z</time>
      </trkpt>
      <trkpt lat="44.98321" lon="5.16282">
        <ele>401.446617</ele>
        <time>2022-03-12T10:19:28.327Z</time>
      </trkpt>
      <trkpt lat="44.98313" lon="5.16293">
        <ele>401.863758</ele>
        <time>2022-03-12T10:19:32.324Z</time>
      </trkpt>
      <trkpt lat="44.98306" lon="5.16305">
        <ele>402.296865</ele>
        <time>2022-03-12T10:19:36.331Z</time>
      </trkpt>
      <trkpt lat="44.98299" lon="5.16316">
        <ele>402.710971</ele>
        <time>2022-03-12T10:19:40.326Z</time>
      </trkpt>
      <trkpt lat="44.98292" lon="5.16327">
        <ele>403.134993</ele>
        <time>2022-03-12T10:19:44.324Z</time>
      </trkpt>
      <trkpt lat="44.98285" lon="5.16338">
        <ele>403.536173</ele>
        <time>2022-03-12T10:19:48.328Z</time>
      </trkpt>
      <trkpt lat="44.98277" lon="5.16348">
        <ele>403.96002</ele>
        <time>2022-03-12T10:19:52.332Z</time>
      </trkpt>
      <trkpt lat="44.9827" lon="5.16359">
        <ele>404.37192</ele>
        <time>2022-03-12T10:19:56.324Z</time>
      </trkpt>
      <trkpt lat="44.98263" lon="5.1637">
        <ele>404.788107</ele>
        <time>2022-03-12T10:20:00.327Z</time>
      </trkpt>
      <trkpt lat="44.98256" lon="5.16382">
        <ele>405.189515</ele>
        <time>2022-03-12T10:20:04.330Z</time>
      </trkpt>
      <trkpt lat="44.98249" lon="5.16392">
        <ele>405.588067</ele>
        <time>2022-03-12T10:20:08.328Z</time>
      </trkpt>
      <trkpt lat="44.98243" lon="5.16404">
        <ele>406.006693</ele>
        <time>2022-03-12T10:20:12.337Z</time>
      </trkpt>
      <trkpt lat="44.98236" lon="5.16417">
        <ele>406.437059</ele>
        <time>2022-03-12T10:20:16.336Z</time>
      </trkpt>
      <trkpt lat="44.9823" lon="5.16429">
        <ele>406.853801</ele>
        <time>2022-03-12T10:20:20.334Z</time>
      </trkpt>
      <trkpt lat="44.98225" lon="5.16442">
        <ele>407.282009</ele>
        <time>2022-03-12T10:20:24.330Z</time>
      </trkpt>
      <trkpt lat="44.98218" lon="5.16455">
        <ele>407.719819</ele>
        <time>2022-03-12T10:20:28.323Z</time>
      </trkpt>
      <trkpt lat="44.98211" lon="5.16466">
        <ele>408.206339</ele>
        <time>2022-03-12T10:20:32.319Z</time>
      </trkpt>
      <trkpt lat="44.98204" lon="5.16477">
        <ele>408.683702</ele>
        <time>2022-03-12T10:20:36.311Z</time>
      </trkpt>
      <trkpt lat="44.98196" lon="5.16488">
        <ele>409.166219</ele>
        <time>2022-03-12T10:20:40.316Z</time>
      </trkpt>
      <trkpt lat="44.98191" lon="5.16501">
        <ele>409.6537</ele>
        <time>2022-03-12T10:20:44.321Z</time>
      </trkpt>
      <trkpt lat="44.98191" lon="5.16517">
        <ele>410.162839</ele>
        <time>2022-03-12T10:20:48.322Z</time>
      </trkpt>
      <trkpt lat="44.98196" lon="5.16531">
        <ele>410.65956</ele>
        <time>2022-03-12T10:20:52.324Z</time>
      </trkpt>
      <trkpt lat="44.98203" lon="5.16543">
        <ele>411.162942</ele>
        <time>2022-03-12T10:20:56.318Z</time>
      </trkpt>
      <trkpt lat="44.9821" lon="5.16554">
        <ele>411.64406</ele>
        <time>2022-03-12T10:21:00.327Z</time>
      </trkpt>
      <trkpt lat="44.98218" lon="5.16566">
        <ele>412.150624</ele>
        <time>2022-03-12T10:21:04.338Z</time>
      </trkpt>
      <trkpt lat="44.98226" lon="5.16577">
        <ele>412.643999</ele>
        <time>2022-03-12T10:21:08.325Z</time>
      </trkpt>
      <trkpt lat="44.98233" lon="5.16589">
        <ele>413.165344</ele>
        <time>2022-03-12T10:21:12.319Z</time>
      </trkpt>
      <trkpt lat="44.98242" lon="5.166">
        <ele>413.678845</ele>
        <time>2022-03-12T10:21:16.325Z</time>
      </trkpt>
      <trkpt lat="44.9825" lon="5.1661">
        <ele>414.170374</ele>
        <time>2022-03-12T10:21:20.325Z</time>
      </trkpt>
      <trkpt lat="44.98257" lon="5.16621">
        <ele>414.656431</ele>
        <time>2022-03-12T10:21:24.319Z</time>
      </trkpt>
      <trkpt lat="44.98265" lon="5.16632">
        <ele>415.15447</ele>
        <time>2022-03-12T10:21:28.321Z</time>
      </trkpt>
      <trkpt lat="44.98272" lon="5.16644">
        <ele>415.672123</ele>
        <time>2022-03-12T10:21:32.324Z</time>
      </trkpt>
      <trkpt lat="44.9828" lon="5.16657">
        <ele>416.446561</ele>
        <time>2022-03-12T10:21:36.320Z</time>
      </trkpt>
      <trkpt lat="44.98288" lon="5.16668">
        <ele>417.257897</ele>
        <time>2022-03-12T10:21:40.329Z</time>
      </trkpt>
      <trkpt lat="44.98296" lon="5.1668">
        <ele>418.071945</ele>
        <time>2022-03-12T10:21:44.323Z</time>
      </trkpt>
      <trkpt lat="44.98303" lon="5.16691">
        <ele>418.859019</ele>
        <time>2022-03-12T10:21:48.331Z</time>
      </trkpt>
      <trkpt lat="44.98312" lon="5.16701">
        <ele>419.653086</ele>
        <time>2022-03-12T10:21:52.330Z</time>
      </trkpt>
      <trkpt lat="44.98322" lon="5.16709">
        <ele>420.476545</ele>
        <time>2022-03-12T10:21:56.321Z</time>
      </trkpt>
      <trkpt lat="44.98332" lon="5.16714">
        <ele>421.220019</ele>
        <time>2022-03-12T10:22:00.328Z</time>
      </trkpt>
      <trkpt lat="44.98342" lon="5.16717">
        <ele>421.936562</ele>
        <time>2022-03-12T10:22:04.320Z</time>
      </trkpt>
      <trkpt lat="44.98352" lon="5.16719">
        <ele>422.708816</ele>
        <time>2022-03-12T10:22:08.333Z</time>
      </trkpt>
      <trkpt lat="44.98363" lon="5.16719">
        <ele>423.447011</ele>
        <time>2022-03-12T10:22:12.320Z</time>
      </trkpt>
      <trkpt lat="44.98372" lon="5.16717">
        <ele>424.134634</ele>
        <time>2022-03-12T10:22:16.329Z</time>
      </trkpt>
      <trkpt lat="44.98381" lon="5.16716">
        <ele>424.780141</ele>
        <time>2022-03-12T10:22:20.318Z</time>
      </trkpt>
      <trkpt lat="44.98392" lon="5.16717">
        <ele>425.554419</ele>
        <time>2022-03-12T10:22:25.329Z</time>
      </trkpt>
      <trkpt lat="44.98402" lon="5.1672">
        <ele>426.263937</ele>
        <time>2022-03-12T10:22:29.322Z</time>
      </trkpt>
      <trkpt lat="44.9841" lon="5.16723">
        <ele>426.916421</ele>
        <time>2022-03-12T10:22:33.335Z</time>
      </trkpt>
      <trkpt lat="44.98421" lon="5.16726">
        <ele>427.714263</ele>
        <time>2022-03-12T10:22:38.324Z</time>
      </trkpt>
      <trkpt lat="44.9843" lon="5.16729">
        <ele>428.359619</ele>
        <time>2022-03-12T10:22:42.322Z</time>
      </trkpt>
      <trkpt lat="44.98439" lon="5.16731">
        <ele>429.137095</ele>
        <time>2022-03-12T10:22:46.311Z</time>
      </trkpt>
      <trkpt lat="44.98448" lon="5.16734">
        <ele>429.972951</ele>
        <time>2022-03-12T10:22:50.325Z</time>
      </trkpt>
      <trkpt lat="44.98457" lon="5.16735">
        <ele>430.804787</ele>
        <time>2022-03-12T10:22:54.314Z</time>
      </trkpt>
      <trkpt lat="44.98466" lon="5.16738">
        <ele>431.640622</ele>
        <time>2022-03-12T10:22:58.330Z</time>
      </trkpt>
      <trkpt lat="44.98475" lon="5.16743">
        <ele>432.534086</ele>
        <time>2022-03-12T10:23:02.322Z</time>
      </trkpt>
      <trkpt lat="44.98483" lon="5.16751">
        <ele>433.408556</ele>
        <time>2022-03-12T10:23:06.334Z</time>
      </trkpt>
      <trkpt lat="44.98489" lon="5.16763">
        <ele>434.359776</ele>
        <time>2022-03-12T10:23:10.322Z</time>
      </trkpt>
      <trkpt lat="44.98494" lon="5.16775">
        <ele>435.264558</ele>
        <time>2022-03-12T10:23:14.324Z</time>
      </trkpt>
      <trkpt lat="44.98499" lon="5.16787">
        <ele>436.102307</ele>
        <time>2022-03-12T10:23:18.324Z</time>
      </trkpt>
      <trkpt lat="44.98504" lon="5.16798">
        <ele>436.974914</ele>
        <time>2022-03-12T10:23:22.315Z</time>
      </trkpt>
      <trkpt lat="44.98509" lon="5.16809">
        <ele>437.878643</ele>
        <time>2022-03-12T10:23:27.325Z</time>
      </trkpt>
      <trkpt lat="44.98516" lon="5.16821">
        <ele>438.831497</ele>
        <time>2022-03-12T10:23:33.318Z</time>
      </trkpt>
      <trkpt lat="44.98522" lon="5.16831">
        <ele>439.705231</ele>
        <time>2022-03-12T10:23:39.331Z</time>
      </trkpt>
      <trkpt lat="44.98528" lon="5.16843">
        <ele>440.630208</ele>
        <time>2022-03-12T10:23:45.343Z</time>
      </trkpt>
      <trkpt lat="44.98534" lon="5.16855">
        <ele>441.592881</ele>
        <time>2022-03-12T10:23:52.321Z</time>
      </trkpt>
      <trkpt lat="44.98537" lon="5.16867">
        <ele>442.426255</ele>
        <time>2022-03-12T10:23:58.323Z</time>
      </trkpt>
      <trkpt lat="44.98539" lon="5.16881">
        <ele>443.3546</ele>
        <time>2022-03-12T10:24:05.333Z</time>
      </trkpt>
      <trkpt lat="44.98541" lon="5.16896">
        <ele>444.298126</ele>
        <time>2022-03-12T10:24:12.325Z</time>
      </trkpt>
      <trkpt lat="44.98542" lon="5.16908">
        <ele>445.13072</ele>
        <time>2022-03-12T10:24:19.330Z</time>
      </trkpt>
      <trkpt lat="44.98543" lon="5.16921">
        <ele>446.12267</ele>
        <time>2022-03-12T10:24:25.323Z</time>
      </trkpt>
      <trkpt lat="44.98544" lon="5.16936">
        <ele>447.26036</ele>
        <time>2022-03-12T10:24:32.319Z</time>
      </trkpt>
      <trkpt lat="44.98546" lon="5.16948">
        <ele>448.283162</ele>
        <time>2022-03-12T10:24:38.326Z</time>
      </trkpt>
      <trkpt lat="44.98548" lon="5.16961">
        <ele>449.284253</ele>
        <time>2022-03-12T10:24:44.324Z</time>
      </trkpt>
      <trkpt lat="44.98552" lon="5.16974">
        <ele>450.435378</ele>
        <time>2022-03-12T10:24:51.319Z</time>
      </trkpt>
      <trkpt lat="44.98556" lon="5.16987">
        <ele>451.53914</ele>
        <time>2022-03-12T10:24:58.329Z</time>
      </trkpt>
      <trkpt lat="44.98561" lon="5.16999">
        <ele>452.654432</ele>
        <time>2022-03-12T10:25:05.326Z</time>
      </trkpt>
      <trkpt lat="44.98566" lon="5.1701">
        <ele>453.65971</ele>
        <time>2022-03-12T10:25:11.314Z</time>
      </trkpt>
      <trkpt lat="44.98571" lon="5.17022">
        <ele>454.746542</ele>
        <time>2022-03-12T10:25:18.330Z</time>
      </trkpt>
      <trkpt lat="44.98577" lon="5.17034">
        <ele>455.872335</ele>
        <time>2022-03-12T10:25:25.330Z</time>
      </trkpt>
      <trkpt lat="44.98583" lon="5.17045">
        <ele>456.916122</ele>
        <time>2022-03-12T10:25:31.322Z</time>
      </trkpt>
      <trkpt lat="44.9859" lon="5.17056">
        <ele>458.073591</ele>
        <time>2022-03-12T10:25:37.318Z</time>
      </trkpt>
      <trkpt lat="44.98596" lon="5.17066">
        <ele>459.184157</ele>
        <time>2022-03-12T10:25:43.328Z</time>
      </trkpt>
      <trkpt lat="44.98603" lon="5.17076">
        <ele>460.216107</ele>
        <time>2022-03-12T10:25:48.322Z</time>
      </trkpt>
      <trkpt lat="44.98609" lon="5.17086">
        <ele>461.252101</ele>
        <time>2022-03-12T10:25:53.319Z</time>
      </trkpt>
      <trkpt lat="44.98614" lon="5.17098">
        <ele>462.382816</ele>
        <time>2022-03-12T10:25:58.325Z</time>
      </trkpt>
      <trkpt lat="44.98619" lon="5.17112">
        <ele>463.550793</ele>
        <time>2022-03-12T10:26:03.339Z</time>
      </trkpt>
      <trkpt lat="44.98621" lon="5.17124">
        <ele>464.58385</ele>
        <time>2022-03-12T10:26:08.319Z</time>
      </trkpt>
      <trkpt lat="44.98623" lon="5.17139">
        <ele>464.898316</ele>
        <time>2022-03-12T10:26:14.328Z</time>
      </trkpt>
      <trkpt lat="44.98626" lon="5.17151">
        <ele>464.693888</ele>
        <time>2022-03-12T10:26:19.324Z</time>
      </trkpt>
      <trkpt lat="44.98629" lon="5.17165">
        <ele>464.449948</ele>
        <time>2022-03-12T10:26:25.321Z</time>
      </trkpt>
      <trkpt lat="44.98636" lon="5.17177">
        <ele>464.205032</ele>
        <time>2022-03-12T10:26:31.324Z</time>
      </trkpt>
      <trkpt lat="44.98647" lon="5.1718">
        <ele>463.962076</ele>
        <time>2022-03-12T10:26:37.329Z</time>
      </trkpt>
      <trkpt lat="44.98656" lon="5.17174">
        <ele>463.726442</ele>
        <time>2022-03-12T10:26:43.324Z</time>
      </trkpt>
      <trkpt lat="44.98665" lon="5.17167">
        <ele>463.496351</ele>
        <time>2022-03-12T10:26:49.319Z</time>
      </trkpt>
      <trkpt lat="44.98673" lon="5.17158">
        <ele>463.272514</ele>
        <time>2022-03-12T10:26:56.319Z</time>
      </trkpt>
      <trkpt lat="44.98678" lon="5.17146">
        <ele>463.04014</ele>
        <time>2022-03-12T10:27:01.306Z</time>
      </trkpt>
      <trkpt lat="44.98688" lon="5.17133">
        <ele>462.738785</ele>
        <time>2022-03-12T10:27:04.336Z</time>
      </trkpt>
      <trkpt lat="44.98695" lon="5.17123">
        <ele>462.502885</ele>
        <time>2022-03-12T10:27:06.328Z</time>
      </trkpt>
      <trkpt lat="44.98704" lon="5.17115">
        <ele>462.263995</ele>
        <time>2022-03-12T10:27:08.342Z</time>
      </trkpt>
      <trkpt lat="44.98712" lon="5.17109">
        <ele>462.054459</ele>
        <time>2022-03-12T10:27:10.323Z</time>
      </trkpt>
      <trkpt lat="44.98723" lon="5.171">
        <ele>461.76901</ele>
        <time>2022-03-12T10:27:13.321Z</time>
      </trkpt>
      <trkpt lat="44.98737" lon="5.17094">
        <ele>461.454625</ele>
        <time>2022-03-12T10:27:16.314Z</time>
      </trkpt>
      <trkpt lat="44.98747" lon="5.17093">
        <ele>461.220052</ele>
        <time>2022-03-12T10:27:18.329Z</time>
      </trkpt>
      <trkpt lat="44.98759" lon="5.17093">
        <ele>460.92674</ele>
        <time>2022-03-12T10:27:20.327Z</time>
      </trkpt>
      <trkpt lat="44.98772" lon="5.17092">
        <ele>459.478524</ele>
        <time>2022-03-12T10:27:22.324Z</time>
      </trkpt>
      <trkpt lat="44.98787" lon="5.17091">
        <ele>457.908689</ele>
        <time>2022-03-12T10:27:24.330Z</time>
      </trkpt>
      <trkpt lat="44.98802" lon="5.17087">
        <ele>456.20792</ele>
        <time>2022-03-12T10:27:26.331Z</time>
      </trkpt>
      <trkpt lat="44.98818" lon="5.17085">
        <ele>454.47025</ele>
        <time>2022-03-12T10:27:28.331Z</time>
      </trkpt>
      <trkpt lat="44.98834" lon="5.17082">
        <ele>452.744158</ele>
        <time>2022-03-12T10:27:30.327Z</time>
      </trkpt>
      <trkpt lat="44.98849" lon="5.17082">
        <ele>451.167999</ele>
        <time>2022-03-12T10:27:32.324Z</time>
      </trkpt>
      <trkpt lat="44.98864" lon="5.17084">
        <ele>449.519438</ele>
        <time>2022-03-12T10:27:34.328Z</time>
      </trkpt>
      <trkpt lat="44.98882" lon="5.17089">
        <ele>447.56139</ele>
        <time>2022-03-12T10:27:36.312Z</time>
      </trkpt>
      <trkpt lat="44.98891" lon="5.17093">
        <ele>446.495427</ele>
        <time>2022-03-12T10:27:37.336Z</time>
      </trkpt>
      <trkpt lat="44.989" lon="5.17099">
        <ele>445.431418</ele>
        <time>2022-03-12T10:27:38.327Z</time>
      </trkpt>
      <trkpt lat="44.98909" lon="5.17105">
        <ele>444.379281</ele>
        <time>2022-03-12T10:27:39.331Z</time>
      </trkpt>
      <trkpt lat="44.98917" lon="5.17112">
        <ele>443.379944</ele>
        <time>2022-03-12T10:27:40.329Z</time>
      </trkpt>
      <trkpt lat="44.98925" lon="5.17119">
        <ele>442.386008</ele>
        <time>2022-03-12T10:27:41.326Z</time>
      </trkpt>
      <trkpt lat="44.98939" lon="5.1713">
        <ele>441.156135</ele>
        <time>2022-03-12T10:27:43.321Z</time>
      </trkpt>
      <trkpt lat="44.98952" lon="5.17137">
        <ele>440.54218</ele>
        <time>2022-03-12T10:27:45.341Z</time>
      </trkpt>
      <trkpt lat="44.98964" lon="5.17138">
        <ele>440.000742</ele>
        <time>2022-03-12T10:27:47.326Z</time>
      </trkpt>
      <trkpt lat="44.98975" lon="5.17137">
        <ele>439.482137</ele>
        <time>2022-03-12T10:27:49.337Z</time>
      </trkpt>
      <trkpt lat="44.98988" lon="5.17136">
        <ele>438.927383</ele>
        <time>2022-03-12T10:27:51.328Z</time>
      </trkpt>
      <trkpt lat="44.99001" lon="5.17134">
        <ele>438.329429</ele>
        <time>2022-03-12T10:27:53.326Z</time>
      </trkpt>
      <trkpt lat="44.99016" lon="5.1713">
        <ele>437.619172</ele>
        <time>2022-03-12T10:27:55.325Z</time>
      </trkpt>
      <trkpt lat="44.99032" lon="5.17121">
        <ele>436.870309</ele>
        <time>2022-03-12T10:27:57.331Z</time>
      </trkpt>
      <trkpt lat="44.99043" lon="5.17111">
        <ele>436.253918</ele>
        <time>2022-03-12T10:27:59.340Z</time>
      </trkpt>
      <trkpt lat="44.99056" lon="5.17108">
        <ele>435.693839</ele>
        <time>2022-03-12T10:28:01.320Z</time>
      </trkpt>
      <trkpt lat="44.99068" lon="5.1711">
        <ele>435.147959</ele>
        <time>2022-03-12T10:28:03.324Z</time>
      </trkpt>
      <trkpt lat="44.99079" lon="5.17116">
        <ele>434.612881</ele>
        <time>2022-03-12T10:28:05.325Z</time>
      </trkpt>
      <trkpt lat="44.99089" lon="5.17124">
        <ele>434.107903</ele>
        <time>2022-03-12T10:28:07.334Z</time>
      </trkpt>
      <trkpt lat="44.99098" lon="5.17131">
        <ele>433.642145</ele>
        <time>2022-03-12T10:28:09.332Z</time>
      </trkpt>
      <trkpt lat="44.99107" lon="5.17136">
        <ele>432.939489</ele>
        <time>2022-03-12T10:28:11.330Z</time>
      </trkpt>
      <trkpt lat="44.99119" lon="5.1714">
        <ele>431.947776</ele>
        <time>2022-03-12T10:28:13.323Z</time>
      </trkpt>
      <trkpt lat="44.99132" lon="5.17145">
        <ele>430.838842</ele>
        <time>2022-03-12T10:28:15.326Z</time>
      </trkpt>
      <trkpt lat="44.99144" lon="5.17149">
        <ele>429.807911</ele>
        <time>2022-03-12T10:28:17.315Z</time>
      </trkpt>
      <trkpt lat="44.99157" lon="5.17152">
        <ele>428.710859</ele>
        <time>2022-03-12T10:28:19.329Z</time>
      </trkpt>
      <trkpt lat="44.99169" lon="5.17154">
        <ele>427.62955</ele>
        <time>2022-03-12T10:28:21.331Z</time>
      </trkpt>
      <trkpt lat="44.9918" lon="5.17161">
        <ele>426.632656</ele>
        <time>2022-03-12T10:28:23.319Z</time>
      </trkpt>
      <trkpt lat="44.9919" lon="5.17172">
        <ele>425.573243</ele>
        <time>2022-03-12T10:28:25.319Z</time>
      </trkpt>
      <trkpt lat="44.992" lon="5.17184">
        <ele>424.498288</ele>
        <time>2022-03-12T10:28:27.328Z</time>
      </trkpt>
      <trkpt lat="44.99209" lon="5.17194">
        <ele>423.554269</ele>
        <time>2022-03-12T10:28:29.321Z</time>
      </trkpt>
      <trkpt lat="44.99219" lon="5.17198">
        <ele>422.669163</ele>
        <time>2022-03-12T10:28:31.323Z</time>
      </trkpt>
      <trkpt lat="44.99229" lon="5.17198">
        <ele>421.831951</ele>
        <time>2022-03-12T10:28:33.326Z</time>
      </trkpt>
      <trkpt lat="44.99242" lon="5.172">
        <ele>420.748897</ele>
        <time>2022-03-12T10:28:36.325Z</time>
      </trkpt>
      <trkpt lat="44.99252" lon="5.17203">
        <ele>419.876008</ele>
        <time>2022-03-12T10:28:38.329Z</time>
      </trkpt>
      <trkpt lat="44.99264" lon="5.17201">
        <ele>418.892515</ele>
        <time>2022-03-12T10:28:40.324Z</time>
      </trkpt>
      <trkpt lat="44.99276" lon="5.17195">
        <ele>418.027679</ele>
        <time>2022-03-12T10:28:42.324Z</time>
      </trkpt>
      <trkpt lat="44.99292" lon="5.17188">
        <ele>417.211777</ele>
        <time>2022-03-12T10:28:44.324Z</time>
      </trkpt>
      <trkpt lat="44.99301" lon="5.17183">
        <ele>416.752251</ele>
        <time>2022-03-12T10:28:45.332Z</time>
      </trkpt>
      <trkpt lat="44.99309" lon="5.17179">
        <ele>416.305596</ele>
        <time>2022-03-12T10:28:46.333Z</time>
      </trkpt>
      <trkpt lat="44.99324" lon="5.17172">
        <ele>415.521296</ele>
        <time>2022-03-12T10:28:48.336Z</time>
      </trkpt>
      <trkpt lat="44.99336" lon="5.17165">
        <ele>414.86718</ele>
        <time>2022-03-12T10:28:50.341Z</time>
      </trkpt>
      <trkpt lat="44.99346" lon="5.1716">
        <ele>414.349035</ele>
        <time>2022-03-12T10:28:52.332Z</time>
      </trkpt>
      <trkpt lat="44.99355" lon="5.17156">
        <ele>413.882432</ele>
        <time>2022-03-12T10:28:54.325Z</time>
      </trkpt>
      <trkpt lat="44.99365" lon="5.17156">
        <ele>413.384647</ele>
        <time>2022-03-12T10:28:56.328Z</time>
      </trkpt>
      <trkpt lat="44.99375" lon="5.17167">
        <ele>412.758469</ele>
        <time>2022-03-12T10:28:59.325Z</time>
      </trkpt>
      <trkpt lat="44.99382" lon="5.17178">
        <ele>412.255097</ele>
        <time>2022-03-12T10:29:02.321Z</time>
      </trkpt>
      <trkpt lat="44.9939" lon="5.17187">
        <ele>411.742224</ele>
        <time>2022-03-12T10:29:05.328Z</time>
      </trkpt>
      <trkpt lat="44.99397" lon="5.17198">
        <ele>411.224356</ele>
        <time>2022-03-12T10:29:08.337Z</time>
      </trkpt>
      <trkpt lat="44.99405" lon="5.17209">
        <ele>410.652574</ele>
        <time>2022-03-12T10:29:12.319Z</time>
      </trkpt>
      <trkpt lat="44.99414" lon="5.1722">
        <ele>410.068436</ele>
        <time>2022-03-12T10:29:16.338Z</time>
      </trkpt>
      <trkpt lat="44.99422" lon="5.17231">
        <ele>409.523046</ele>
        <time>2022-03-12T10:29:20.333Z</time>
      </trkpt>
      <trkpt lat="44.99431" lon="5.17242">
        <ele>409.918712</ele>
        <time>2022-03-12T10:29:24.334Z</time>
      </trkpt>
      <trkpt lat="44.99438" lon="5.1725">
        <ele>410.32424</ele>
        <time>2022-03-12T10:29:27.325Z</time>
      </trkpt>
      <trkpt lat="44.99445" lon="5.17259">
        <ele>410.728308</ele>
        <time>2022-03-12T10:29:30.313Z</time>
      </trkpt>
      <trkpt lat="44.99452" lon="5.17268">
        <ele>411.149583</ele>
        <time>2022-03-12T10:29:33.322Z</time>
      </trkpt>
      <trkpt lat="44.9946" lon="5.17276">
        <ele>411.55365</ele>
        <time>2022-03-12T10:29:36.327Z</time>
      </trkpt>
      <trkpt lat="44.99467" lon="5.17284">
        <ele>411.945147</ele>
        <time>2022-03-12T10:29:39.322Z</time>
      </trkpt>
      <trkpt lat="44.99474" lon="5.17291">
        <ele>412.344714</ele>
        <time>2022-03-12T10:29:42.327Z</time>
      </trkpt>
      <trkpt lat="44.99482" lon="5.17299">
        <ele>412.753283</ele>
        <time>2022-03-12T10:29:45.321Z</time>
      </trkpt>
      <trkpt lat="44.9949" lon="5.17305">
        <ele>413.151589</ele>
        <time>2022-03-12T10:29:48.338Z</time>
      </trkpt>
      <trkpt lat="44.995" lon="5.17313">
        <ele>413.673341</ele>
        <time>2022-03-12T10:29:52.319Z</time>
      </trkpt>
      <trkpt lat="44.9951" lon="5.17321">
        <ele>414.159001</ele>
        <time>2022-03-12T10:29:56.332Z</time>
      </trkpt>
      <trkpt lat="44.9952" lon="5.17327">
        <ele>414.633835</ele>
        <time>2022-03-12T10:30:00.303Z</time>
      </trkpt>
      <trkpt lat="44.9953" lon="5.17335">
        <ele>415.114216</ele>
        <time>2022-03-12T10:30:04.321Z</time>
      </trkpt>
      <trkpt lat="44.99539" lon="5.17341">
        <ele>415.57737</ele>
        <time>2022-03-12T10:30:08.320Z</time>
      </trkpt>
      <trkpt lat="44.99549" lon="5.17348">
        <ele>416.051067</ele>
        <time>2022-03-12T10:30:12.323Z</time>
      </trkpt>
      <trkpt lat="44.99559" lon="5.17356">
        <ele>416.534932</ele>
        <time>2022-03-12T10:30:16.320Z</time>
      </trkpt>
      <trkpt lat="44.99569" lon="5.17363">
        <ele>417.015312</ele>
        <time>2022-03-12T10:30:20.323Z</time>
      </trkpt>
      <trkpt lat="44.99578" lon="5.17372">
        <ele>417.53866</ele>
        <time>2022-03-12T10:30:24.326Z</time>
      </trkpt>
      <trkpt lat="44.99588" lon="5.17382">
        <ele>418.122776</ele>
        <time>2022-03-12T10:30:28.325Z</time>
      </trkpt>
      <trkpt lat="44.99595" lon="5.1739">
        <ele>418.557495</ele>
        <time>2022-03-12T10:30:31.328Z</time>
      </trkpt>
      <trkpt lat="44.99603" lon="5.17402">
        <ele>419.125691</ele>
        <time>2022-03-12T10:30:35.314Z</time>
      </trkpt>
      <trkpt lat="44.99612" lon="5.17414">
        <ele>419.698121</ele>
        <time>2022-03-12T10:30:39.329Z</time>
      </trkpt>
      <trkpt lat="44.99618" lon="5.17426">
        <ele>420.23114</ele>
        <time>2022-03-12T10:30:43.321Z</time>
      </trkpt>
      <trkpt lat="44.99624" lon="5.1744">
        <ele>420.772201</ele>
        <time>2022-03-12T10:30:47.328Z</time>
      </trkpt>
      <trkpt lat="44.99629" lon="5.17455">
        <ele>421.338834</ele>
        <time>2022-03-12T10:30:51.340Z</time>
      </trkpt>
      <trkpt lat="44.99634" lon="5.17469">
        <ele>421.891098</ele>
        <time>2022-03-12T10:30:55.332Z</time>
      </trkpt>
      <trkpt lat="44.9964" lon="5.17484">
        <ele>422.448608</ele>
        <time>2022-03-12T10:30:59.325Z</time>
      </trkpt>
      <trkpt lat="44.99644" lon="5.17498">
        <ele>422.995449</ele>
        <time>2022-03-12T10:31:03.322Z</time>
      </trkpt>
      <trkpt lat="44.99649" lon="5.17512">
        <ele>423.509928</ele>
        <time>2022-03-12T10:31:07.329Z</time>
      </trkpt>
      <trkpt lat="44.99656" lon="5.17524">
        <ele>424.023075</ele>
        <time>2022-03-12T10:31:11.330Z</time>
      </trkpt>
      <trkpt lat="44.99663" lon="5.17536">
        <ele>424.579435</ele>
        <time>2022-03-12T10:31:15.332Z</time>
      </trkpt>
      <trkpt lat="44.99672" lon="5.17547">
        <ele>425.143122</ele>
        <time>2022-03-12T10:31:19.332Z</time>
      </trkpt>
      <trkpt lat="44.99679" lon="5.17554">
        <ele>425.583422</ele>
        <time>2022-03-12T10:31:22.321Z</time>
      </trkpt>
      <trkpt lat="44.99689" lon="5.17563">
        <ele>426.06551</ele>
        <time>2022-03-12T10:31:26.324Z</time>
      </trkpt>
      <trkpt lat="44.99699" lon="5.17567">
        <ele>426.32008</ele>
        <time>2022-03-12T10:31:29.322Z</time>
      </trkpt>
      <trkpt lat="44.99708" lon="5.17572">
        <ele>426.580144</ele>
        <time>2022-03-12T10:31:32.323Z</time>
      </trkpt>
      <trkpt lat="44.99718" lon="5.17576">
        <ele>426.842876</ele>
        <time>2022-03-12T10:31:35.325Z</time>
      </trkpt>
      <trkpt lat="44.99728" lon="5.1758">
        <ele>427.11452</ele>
        <time>2022-03-12T10:31:38.323Z</time>
      </trkpt>
      <trkpt lat="44.99737" lon="5.17586">
        <ele>427.380135</ele>
        <time>2022-03-12T10:31:41.327Z</time>
      </trkpt>
      <trkpt lat="44.99746" lon="5.17593">
        <ele>427.645846</ele>
        <time>2022-03-12T10:31:44.321Z</time>
      </trkpt>
      <trkpt lat="44.99755" lon="5.176">
        <ele>427.909733</ele>
        <time>2022-03-12T10:31:47.319Z</time>
      </trkpt>
      <trkpt lat="44.99763" lon="5.17609">
        <ele>428.168888</ele>
        <time>2022-03-12T10:31:50.319Z</time>
      </trkpt>
      <trkpt lat="44.9977" lon="5.17618">
        <ele>428.423356</ele>
        <time>2022-03-12T10:31:53.324Z</time>
      </trkpt>
      <trkpt lat="44.99778" lon="5.17627">
        <ele>428.674587</ele>
        <time>2022-03-12T10:31:56.324Z</time>
      </trkpt>
      <trkpt lat="44.99785" lon="5.17636">
        <ele>428.922086</ele>
        <time>2022-03-12T10:31:59.332Z</time>
      </trkpt>
      <trkpt lat="44.99792" lon="5.17645">
        <ele>429.161414</ele>
        <time>2022-03-12T10:32:02.319Z</time>
      </trkpt>
      <trkpt lat="44.998" lon="5.17655">
        <ele>429.453716</ele>
        <time>2022-03-12T10:32:06.327Z</time>
      </trkpt>
      <trkpt lat="44.99808" lon="5.17666">
        <ele>429.748321</ele>
        <time>2022-03-12T10:32:10.330Z</time>
      </trkpt>
      <trkpt lat="44.99817" lon="5.17676">
        <ele>430.040456</ele>
        <time>2022-03-12T10:32:14.323Z</time>
      </trkpt>
      <trkpt lat="44.99826" lon="5.17686">
        <ele>430.325354</ele>
        <time>2022-03-12T10:32:18.324Z</time>
      </trkpt>
      <trkpt lat="44.99835" lon="5.17695">
        <ele>430.616124</ele>
        <time>2022-03-12T10:32:22.316Z</time>
      </trkpt>
      <trkpt lat="44.99844" lon="5.17702">
        <ele>430.3046</ele>
        <time>2022-03-12T10:32:26.328Z</time>
      </trkpt>
      <trkpt lat="44.99854" lon="5.1771">
        <ele>429.940291</ele>
        <time>2022-03-12T10:32:30.319Z</time>
      </trkpt>
      <trkpt lat="44.99863" lon="5.17715">
        <ele>429.637806</ele>
        <time>2022-03-12T10:32:33.336Z</time>
      </trkpt>
      <trkpt lat="44.99873" lon="5.1772">
        <ele>429.297284</ele>
        <time>2022-03-12T10:32:36.323Z</time>
      </trkpt>
      <trkpt lat="44.99884" lon="5.17726">
        <ele>428.919527</ele>
        <time>2022-03-12T10:32:39.327Z</time>
      </trkpt>
      <trkpt lat="44.99896" lon="5.17731">
        <ele>428.514412</ele>
        <time>2022-03-12T10:32:42.321Z</time>
      </trkpt>
      <trkpt lat="44.99908" lon="5.17737">
        <ele>428.091622</ele>
        <time>2022-03-12T10:32:45.328Z</time>
      </trkpt>
      <trkpt lat="44.99921" lon="5.17743">
        <ele>427.670582</ele>
        <time>2022-03-12T10:32:48.327Z</time>
      </trkpt>
      <trkpt lat="44.99931" lon="5.17751">
        <ele>427.299895</ele>
        <time>2022-03-12T10:32:51.324Z</time>
      </trkpt>
      <trkpt lat="44.99934" lon="5.17763">
        <ele>426.992439</ele>
        <time>2022-03-12T10:32:56.320Z</time>
      </trkpt>
      <trkpt lat="44.99933" lon="5.17779">
        <ele>426.628757</ele>
        <time>2022-03-12T10:33:00.332Z</time>
      </trkpt>
      <trkpt lat="44.99931" lon="5.17794">
        <ele>426.276577</ele>
        <time>2022-03-12T10:33:03.333Z</time>
      </trkpt>
      <trkpt lat="44.99928" lon="5.17812">
        <ele>425.859271</ele>
        <time>2022-03-12T10:33:06.322Z</time>
      </trkpt>
      <trkpt lat="44.99926" lon="5.17825">
        <ele>425.558413</ele>
        <time>2022-03-12T10:33:08.328Z</time>
      </trkpt>
      <trkpt lat="44.99925" lon="5.17839">
        <ele>425.24458</ele>
        <time>2022-03-12T10:33:10.330Z</time>
      </trkpt>
      <trkpt lat="44.99923" lon="5.17853">
        <ele>424.915072</ele>
        <time>2022-03-12T10:33:12.329Z</time>
      </trkpt>
      <trkpt lat="44.99921" lon="5.17868">
        <ele>424.561655</ele>
        <time>2022-03-12T10:33:14.330Z</time>
      </trkpt>
      <trkpt lat="44.99919" lon="5.17884">
        <ele>424.187183</ele>
        <time>2022-03-12T10:33:16.326Z</time>
      </trkpt>
      <trkpt lat="44.99917" lon="5.17901">
        <ele>423.790142</ele>
        <time>2022-03-12T10:33:18.329Z</time>
      </trkpt>
      <trkpt lat="44.99914" lon="5.17919">
        <ele>423.380178</ele>
        <time>2022-03-12T10:33:20.331Z</time>
      </trkpt>
      <trkpt lat="44.99912" lon="5.17937">
        <ele>422.963257</ele>
        <time>2022-03-12T10:33:22.335Z</time>
      </trkpt>
      <trkpt lat="44.99909" lon="5.17955">
        <ele>422.540527</ele>
        <time>2022-03-12T10:33:24.330Z</time>
      </trkpt>
      <trkpt lat="44.99905" lon="5.17972">
        <ele>422.124346</ele>
        <time>2022-03-12T10:33:26.312Z</time>
      </trkpt>
      <trkpt lat="44.99901" lon="5.17988">
        <ele>421.730891</ele>
        <time>2022-03-12T10:33:28.321Z</time>
      </trkpt>
      <trkpt lat="44.99895" lon="5.18002">
        <ele>421.35236</ele>
        <time>2022-03-12T10:33:30.323Z</time>
      </trkpt>
      <trkpt lat="44.99889" lon="5.18016">
        <ele>420.9843</ele>
        <time>2022-03-12T10:33:32.324Z</time>
      </trkpt>
      <trkpt lat="44.99883" lon="5.18029">
        <ele>420.616404</ele>
        <time>2022-03-12T10:33:34.323Z</time>
      </trkpt>
      <trkpt lat="44.99877" lon="5.18042">
        <ele>420.267142</ele>
        <time>2022-03-12T10:33:36.338Z</time>
      </trkpt>
      <trkpt lat="44.99871" lon="5.18054">
        <ele>419.925736</ele>
        <time>2022-03-12T10:33:38.333Z</time>
      </trkpt>
      <trkpt lat="44.99866" lon="5.18066">
        <ele>419.60044</ele>
        <time>2022-03-12T10:33:40.321Z</time>
      </trkpt>
      <trkpt lat="44.99861" lon="5.18078">
        <ele>419.28296</ele>
        <time>2022-03-12T10:33:42.323Z</time>
      </trkpt>
      <trkpt lat="44.99856" lon="5.18089">
        <ele>418.989362</ele>
        <time>2022-03-12T10:33:44.323Z</time>
      </trkpt>
      <trkpt lat="44.99849" lon="5.18104">
        <ele>418.967469</ele>
        <time>2022-03-12T10:33:47.325Z</time>
      </trkpt>
      <trkpt lat="44.99841" lon="5.1812">
        <ele>418.947866</ele>
        <time>2022-03-12T10:33:50.319Z</time>
      </trkpt>
      <trkpt lat="44.99836" lon="5.18131">
        <ele>418.934654</ele>
        <time>2022-03-12T10:33:52.325Z</time>
      </trkpt>
      <trkpt lat="44.99829" lon="5.18147">
        <ele>418.914879</ele>
        <time>2022-03-12T10:33:55.329Z</time>
      </trkpt>
      <trkpt lat="44.99821" lon="5.18162">
        <ele>418.895775</ele>
        <time>2022-03-12T10:33:58.309Z</time>
      </trkpt>
      <trkpt lat="44.99814" lon="5.18177">
        <ele>418.87701</ele>
        <time>2022-03-12T10:34:01.325Z</time>
      </trkpt>
      <trkpt lat="44.99807" lon="5.18192">
        <ele>418.858669</ele>
        <time>2022-03-12T10:34:04.323Z</time>
      </trkpt>
      <trkpt lat="44.998" lon="5.18205">
        <ele>418.842098</ele>
        <time>2022-03-12T10:34:07.323Z</time>
      </trkpt>
      <trkpt lat="44.99794" lon="5.18216">
        <ele>418.827093</ele>
        <time>2022-03-12T10:34:10.335Z</time>
      </trkpt>
      <trkpt lat="44.99786" lon="5.18228">
        <ele>418.810723</ele>
        <time>2022-03-12T10:34:13.325Z</time>
      </trkpt>
      <trkpt lat="44.99779" lon="5.1824">
        <ele>418.794181</ele>
        <time>2022-03-12T10:34:16.323Z</time>
      </trkpt>
      <trkpt lat="44.99772" lon="5.18253">
        <ele>418.777771</ele>
        <time>2022-03-12T10:34:19.322Z</time>
      </trkpt>
      <trkpt lat="44.99764" lon="5.18265">
        <ele>418.760067</ele>
        <time>2022-03-12T10:34:22.319Z</time>
      </trkpt>
      <trkpt lat="44.99755" lon="5.18278">
        <ele>418.741676</ele>
        <time>2022-03-12T10:34:25.321Z</time>
      </trkpt>
      <trkpt lat="44.99745" lon="5.18291">
        <ele>418.696949</ele>
        <time>2022-03-12T10:34:28.316Z</time>
      </trkpt>
      <trkpt lat="44.99739" lon="5.183">
        <ele>418.504888</ele>
        <time>2022-03-12T10:34:30.333Z</time>
      </trkpt>
      <trkpt lat="44.99733" lon="5.1831">
        <ele>418.30544</ele>
        <time>2022-03-12T10:34:32.329Z</time>
      </trkpt>
      <trkpt lat="44.99727" lon="5.1832">
        <ele>418.104586</ele>
        <time>2022-03-12T10:34:34.333Z</time>
      </trkpt>
      <trkpt lat="44.9972" lon="5.1833">
        <ele>417.901235</ele>
        <time>2022-03-12T10:34:36.337Z</time>
      </trkpt>
      <trkpt lat="44.99713" lon="5.18341">
        <ele>417.681527</ele>
        <time>2022-03-12T10:34:38.335Z</time>
      </trkpt>
      <trkpt lat="44.99707" lon="5.18353">
        <ele>417.448875</ele>
        <time>2022-03-12T10:34:40.328Z</time>
      </trkpt>
      <trkpt lat="44.99701" lon="5.18368">
        <ele>417.197402</ele>
        <time>2022-03-12T10:34:42.334Z</time>
      </trkpt>
      <trkpt lat="44.99698" lon="5.18386">
        <ele>416.927354</ele>
        <time>2022-03-12T10:34:44.320Z</time>
      </trkpt>
      <trkpt lat="44.99697" lon="5.18405">
        <ele>416.632794</ele>
        <time>2022-03-12T10:34:46.330Z</time>
      </trkpt>
      <trkpt lat="44.99698" lon="5.18424">
        <ele>416.352319</ele>
        <time>2022-03-12T10:34:48.329Z</time>
      </trkpt>
      <trkpt lat="44.99698" lon="5.18441">
        <ele>416.101834</ele>
        <time>2022-03-12T10:34:50.330Z</time>
      </trkpt>
      <trkpt lat="44.99698" lon="5.18457">
        <ele>415.857301</ele>
        <time>2022-03-12T10:34:52.329Z</time>
      </trkpt>
      <trkpt lat="44.99698" lon="5.18473">
        <ele>415.612768</ele>
        <time>2022-03-12T10:34:54.330Z</time>
      </trkpt>
      <trkpt lat="44.997" lon="5.18488">
        <ele>415.385709</ele>
        <time>2022-03-12T10:34:56.320Z</time>
      </trkpt>
      <trkpt lat="44.99699" lon="5.18502">
        <ele>415.172678</ele>
        <time>2022-03-12T10:34:58.329Z</time>
      </trkpt>
      <trkpt lat="44.99694" lon="5.18514">
        <ele>414.966955</ele>
        <time>2022-03-12T10:35:00.326Z</time>
      </trkpt>
      <trkpt lat="44.99686" lon="5.18527">
        <ele>415.164645</ele>
        <time>2022-03-12T10:35:03.325Z</time>
      </trkpt>
      <trkpt lat="44.99678" lon="5.18538">
        <ele>415.474677</ele>
        <time>2022-03-12T10:35:07.330Z</time>
      </trkpt>
      <trkpt lat="44.99671" lon="5.18548">
        <ele>415.738501</ele>
        <time>2022-03-12T10:35:10.322Z</time>
      </trkpt>
      <trkpt lat="44.99664" lon="5.18555">
        <ele>415.994426</ele>
        <time>2022-03-12T10:35:13.324Z</time>
      </trkpt>
      <trkpt lat="44.99655" lon="5.18565">
        <ele>416.312837</ele>
        <time>2022-03-12T10:35:17.326Z</time>
      </trkpt>
      <trkpt lat="44.99646" lon="5.18576">
        <ele>416.633236</ele>
        <time>2022-03-12T10:35:21.332Z</time>
      </trkpt>
      <trkpt lat="44.99637" lon="5.18586">
        <ele>416.942745</ele>
        <time>2022-03-12T10:35:25.326Z</time>
      </trkpt>
      <trkpt lat="44.9963" lon="5.18596">
        <ele>417.220207</ele>
        <time>2022-03-12T10:35:29.332Z</time>
      </trkpt>
      <trkpt lat="44.99622" lon="5.18604">
        <ele>417.497839</ele>
        <time>2022-03-12T10:35:33.331Z</time>
      </trkpt>
      <trkpt lat="44.99614" lon="5.18615">
        <ele>417.796676</ele>
        <time>2022-03-12T10:35:38.327Z</time>
      </trkpt>
      <trkpt lat="44.99609" lon="5.18629">
        <ele>418.099389</ele>
        <time>2022-03-12T10:35:43.319Z</time>
      </trkpt>
      <trkpt lat="44.99611" lon="5.18641">
        <ele>418.346415</ele>
        <time>2022-03-12T10:35:47.319Z</time>
      </trkpt>
      <trkpt lat="44.99618" lon="5.18651">
        <ele>418.6073</ele>
        <time>2022-03-12T10:35:50.332Z</time>
      </trkpt>
      <trkpt lat="44.99626" lon="5.18664">
        <ele>418.953976</ele>
        <time>2022-03-12T10:35:54.330Z</time>
      </trkpt>
      <trkpt lat="44.99632" lon="5.18679">
        <ele>419.285035</ele>
        <time>2022-03-12T10:35:57.311Z</time>
      </trkpt>
      <trkpt lat="44.99638" lon="5.1869">
        <ele>419.548038</ele>
        <time>2022-03-12T10:35:59.320Z</time>
      </trkpt>
      <trkpt lat="44.99646" lon="5.18696">
        <ele>419.800364</ele>
        <time>2022-03-12T10:36:01.328Z</time>
      </trkpt>
      <trkpt lat="44.99658" lon="5.18701">
        <ele>420.218811</ele>
        <time>2022-03-12T10:36:04.320Z</time>
      </trkpt>
      <trkpt lat="44.99667" lon="5.18703">
        <ele>420.537886</ele>
        <time>2022-03-12T10:36:06.336Z</time>
      </trkpt>
      <trkpt lat="44.99676" lon="5.18709">
        <ele>420.883407</ele>
        <time>2022-03-12T10:36:08.323Z</time>
      </trkpt>
      <trkpt lat="44.99684" lon="5.18717">
        <ele>421.234468</ele>
        <time>2022-03-12T10:36:10.323Z</time>
      </trkpt>
      <trkpt lat="44.99691" lon="5.18725">
        <ele>421.557862</ele>
        <time>2022-03-12T10:36:12.321Z</time>
      </trkpt>
      <trkpt lat="44.99703" lon="5.18735">
        <ele>422.014117</ele>
        <time>2022-03-12T10:36:15.318Z</time>
      </trkpt>
      <trkpt lat="44.99714" lon="5.18743">
        <ele>422.469158</ele>
        <time>2022-03-12T10:36:18.331Z</time>
      </trkpt>
      <trkpt lat="44.99726" lon="5.1875">
        <ele>422.905327</ele>
        <time>2022-03-12T10:36:21.322Z</time>
      </trkpt>
      <trkpt lat="44.99737" lon="5.18755">
        <ele>423.302326</ele>
        <time>2022-03-12T10:36:24.332Z</time>
      </trkpt>
      <trkpt lat="44.99746" lon="5.18759">
        <ele>423.639307</ele>
        <time>2022-03-12T10:36:27.318Z</time>
      </trkpt>
      <trkpt lat="44.99757" lon="5.18762">
        <ele>424.036074</ele>
        <time>2022-03-12T10:36:31.323Z</time>
      </trkpt>
      <trkpt lat="44.99767" lon="5.1876">
        <ele>424.407649</ele>
        <time>2022-03-12T10:36:35.321Z</time>
      </trkpt>
      <trkpt lat="44.99778" lon="5.18756">
        <ele>424.78618</ele>
        <time>2022-03-12T10:36:39.319Z</time>
      </trkpt>
      <trkpt lat="44.99787" lon="5.18751">
        <ele>425.129564</ele>
        <time>2022-03-12T10:36:43.327Z</time>
      </trkpt>
      <trkpt lat="44.99796" lon="5.18746">
        <ele>425.46473</ele>
        <time>2022-03-12T10:36:47.322Z</time>
      </trkpt>
      <trkpt lat="44.99807" lon="5.18744">
        <ele>425.864293</ele>
        <time>2022-03-12T10:36:52.325Z</time>
      </trkpt>
      <trkpt lat="44.99818" lon="5.18744">
        <ele>426.213596</ele>
        <time>2022-03-12T10:36:56.315Z</time>
      </trkpt>
      <trkpt lat="44.99827" lon="5.18746">
        <ele>426.511581</ele>
        <time>2022-03-12T10:37:00.322Z</time>
      </trkpt>
      <trkpt lat="44.99838" lon="5.18751">
        <ele>426.851203</ele>
        <time>2022-03-12T10:37:04.328Z</time>
      </trkpt>
      <trkpt lat="44.99849" lon="5.18755">
        <ele>427.220557</ele>
        <time>2022-03-12T10:37:08.331Z</time>
      </trkpt>
      <trkpt lat="44.99858" lon="5.18758">
        <ele>427.501819</ele>
        <time>2022-03-12T10:37:11.329Z</time>
      </trkpt>
      <trkpt lat="44.99867" lon="5.18761">
        <ele>427.798306</ele>
        <time>2022-03-12T10:37:14.318Z</time>
      </trkpt>
      <trkpt lat="44.99877" lon="5.18761">
        <ele>428.111017</ele>
        <time>2022-03-12T10:37:17.316Z</time>
      </trkpt>
      <trkpt lat="44.99888" lon="5.1876">
        <ele>428.449132</ele>
        <time>2022-03-12T10:37:20.327Z</time>
      </trkpt>
      <trkpt lat="44.99899" lon="5.18759">
        <ele>428.783793</ele>
        <time>2022-03-12T10:37:23.326Z</time>
      </trkpt>
      <trkpt lat="44.99908" lon="5.18759">
        <ele>429.062384</ele>
        <time>2022-03-12T10:37:26.327Z</time>
      </trkpt>
      <trkpt lat="44.99918" lon="5.18756">
        <ele>429.361501</ele>
        <time>2022-03-12T10:37:30.327Z</time>
      </trkpt>
      <trkpt lat="44.99906" lon="5.18755">
        <ele>429.718293</ele>
        <time>2022-03-12T10:37:39.334Z</time>
      </trkpt>
      <trkpt lat="44.99893" lon="5.18758">
        <ele>430.117698</ele>
        <time>2022-03-12T10:37:42.322Z</time>
      </trkpt>
      <trkpt lat="44.99882" lon="5.18757">
        <ele>430.473703</ele>
        <time>2022-03-12T10:37:45.327Z</time>
      </trkpt>
      <trkpt lat="44.99891" lon="5.18759">
        <ele>430.757052</ele>
        <time>2022-03-12T10:38:38.324Z</time>
      </trkpt>
      <trkpt lat="44.999" lon="5.18758">
        <ele>431.042247</ele>
        <time>2022-03-12T10:38:41.322Z</time>
      </trkpt>
      <trkpt lat="44.99909" lon="5.18758">
        <ele>431.321053</ele>
        <time>2022-03-12T10:38:44.331Z</time>
      </trkpt>
      <trkpt lat="44.99919" lon="5.18756">
        <ele>431.616293</ele>
        <time>2022-03-12T10:38:47.329Z</time>
      </trkpt>
      <trkpt lat="44.99929" lon="5.18753">
        <ele>431.874131</ele>
        <time>2022-03-12T10:38:50.323Z</time>
      </trkpt>
      <trkpt lat="44.99939" lon="5.18749">
        <ele>432.113659</ele>
        <time>2022-03-12T10:38:53.326Z</time>
      </trkpt>
      <trkpt lat="44.9995" lon="5.18746">
        <ele>432.345028</ele>
        <time>2022-03-12T10:38:56.321Z</time>
      </trkpt>
      <trkpt lat="44.99961" lon="5.18743">
        <ele>432.596435</ele>
        <time>2022-03-12T10:38:59.325Z</time>
      </trkpt>
      <trkpt lat="44.99972" lon="5.18741">
        <ele>432.847335</ele>
        <time>2022-03-12T10:39:02.325Z</time>
      </trkpt>
      <trkpt lat="44.99982" lon="5.18739">
        <ele>433.069489</ele>
        <time>2022-03-12T10:39:05.321Z</time>
      </trkpt>
      <trkpt lat="44.99994" lon="5.18741">
        <ele>433.320787</ele>
        <time>2022-03-12T10:39:09.327Z</time>
      </trkpt>
      <trkpt lat="45.00004" lon="5.18744">
        <ele>433.555065</ele>
        <time>2022-03-12T10:39:13.317Z</time>
      </trkpt>
      <trkpt lat="45.00015" lon="5.18747">
        <ele>433.787374</ele>
        <time>2022-03-12T10:39:17.325Z</time>
      </trkpt>
      <trkpt lat="45.00025" lon="5.18748">
        <ele>434.013693</ele>
        <time>2022-03-12T10:39:21.321Z</time>
      </trkpt>
      <trkpt lat="45.00037" lon="5.18749">
        <ele>434.269311</ele>
        <time>2022-03-12T10:39:25.316Z</time>
      </trkpt>
      <trkpt lat="45.00047" lon="5.18752">
        <ele>434.500679</ele>
        <time>2022-03-12T10:39:29.331Z</time>
      </trkpt>
      <trkpt lat="45.00057" lon="5.18756">
        <ele>434.714339</ele>
        <time>2022-03-12T10:39:33.324Z</time>
      </trkpt>
      <trkpt lat="45.00066" lon="5.1876">
        <ele>434.938449</ele>
        <time>2022-03-12T10:39:37.317Z</time>
      </trkpt>
      <trkpt lat="45.00077" lon="5.18761">
        <ele>435.177498</ele>
        <time>2022-03-12T10:39:41.333Z</time>
      </trkpt>
      <trkpt lat="45.00087" lon="5.18756">
        <ele>435.41122</ele>
        <time>2022-03-12T10:39:44.318Z</time>
      </trkpt>
      <trkpt lat="45.00097" lon="5.18751">
        <ele>435.641881</ele>
        <time>2022-03-12T10:39:46.316Z</time>
      </trkpt>
      <trkpt lat="45.00109" lon="5.1875">
        <ele>434.950473</ele>
        <time>2022-03-12T10:39:48.335Z</time>
      </trkpt>
      <trkpt lat="45.00122" lon="5.18754">
        <ele>434.084248</ele>
        <time>2022-03-12T10:39:50.328Z</time>
      </trkpt>
      <trkpt lat="45.00135" lon="5.18761">
        <ele>433.155927</ele>
        <time>2022-03-12T10:39:52.328Z</time>
      </trkpt>
      <trkpt lat="45.00148" lon="5.1877">
        <ele>432.25816</ele>
        <time>2022-03-12T10:39:54.328Z</time>
      </trkpt>
      <trkpt lat="45.0016" lon="5.18777">
        <ele>431.400448</ele>
        <time>2022-03-12T10:39:56.326Z</time>
      </trkpt>
      <trkpt lat="45.00171" lon="5.18785">
        <ele>430.63146</ele>
        <time>2022-03-12T10:39:58.322Z</time>
      </trkpt>
      <trkpt lat="45.00181" lon="5.18792">
        <ele>429.883506</ele>
        <time>2022-03-12T10:40:00.323Z</time>
      </trkpt>
      <trkpt lat="45.00193" lon="5.18798">
        <ele>429.048074</ele>
        <time>2022-03-12T10:40:02.324Z</time>
      </trkpt>
      <trkpt lat="45.00208" lon="5.18805">
        <ele>428.039132</ele>
        <time>2022-03-12T10:40:04.322Z</time>
      </trkpt>
      <trkpt lat="45.00226" lon="5.1881">
        <ele>426.865668</ele>
        <time>2022-03-12T10:40:06.330Z</time>
      </trkpt>
      <trkpt lat="45.00235" lon="5.18813">
        <ele>426.251787</ele>
        <time>2022-03-12T10:40:07.328Z</time>
      </trkpt>
      <trkpt lat="45.00245" lon="5.18816">
        <ele>425.626486</ele>
        <time>2022-03-12T10:40:08.326Z</time>
      </trkpt>
      <trkpt lat="45.00254" lon="5.1882">
        <ele>425.01125</ele>
        <time>2022-03-12T10:40:09.325Z</time>
      </trkpt>
      <trkpt lat="45.00263" lon="5.18824">
        <ele>424.381301</ele>
        <time>2022-03-12T10:40:10.329Z</time>
      </trkpt>
      <trkpt lat="45.00272" lon="5.18827">
        <ele>423.802884</ele>
        <time>2022-03-12T10:40:11.326Z</time>
      </trkpt>
      <trkpt lat="45.00281" lon="5.18829">
        <ele>423.276332</ele>
        <time>2022-03-12T10:40:12.333Z</time>
      </trkpt>
      <trkpt lat="45.00299" lon="5.18833">
        <ele>422.251824</ele>
        <time>2022-03-12T10:40:14.322Z</time>
      </trkpt>
      <trkpt lat="45.00308" lon="5.18833">
        <ele>421.722734</ele>
        <time>2022-03-12T10:40:15.329Z</time>
      </trkpt>
      <trkpt lat="45.00317" lon="5.18834">
        <ele>421.199678</ele>
        <time>2022-03-12T10:40:16.333Z</time>
      </trkpt>
      <trkpt lat="45.00334" lon="5.18834">
        <ele>420.184157</ele>
        <time>2022-03-12T10:40:18.322Z</time>
      </trkpt>
      <trkpt lat="45.00351" lon="5.18834">
        <ele>419.214983</ele>
        <time>2022-03-12T10:40:20.333Z</time>
      </trkpt>
      <trkpt lat="45.00367" lon="5.1884">
        <ele>418.283515</ele>
        <time>2022-03-12T10:40:22.327Z</time>
      </trkpt>
      <trkpt lat="45.0038" lon="5.18853">
        <ele>417.330325</ele>
        <time>2022-03-12T10:40:24.333Z</time>
      </trkpt>
      <trkpt lat="45.0039" lon="5.18866">
        <ele>416.528101</ele>
        <time>2022-03-12T10:40:26.341Z</time>
      </trkpt>
      <trkpt lat="45.00397" lon="5.18875">
        <ele>416.003102</ele>
        <time>2022-03-12T10:40:29.326Z</time>
      </trkpt>
      <trkpt lat="45.0039" lon="5.18863">
        <ele>415.354778</ele>
        <time>2022-03-12T10:40:40.321Z</time>
      </trkpt>
      <trkpt lat="45.00383" lon="5.18854">
        <ele>414.805239</ele>
        <time>2022-03-12T10:40:43.328Z</time>
      </trkpt>
      <trkpt lat="45.00381" lon="5.1884">
        <ele>414.210268</ele>
        <time>2022-03-12T10:40:46.329Z</time>
      </trkpt>
      <trkpt lat="45.00389" lon="5.1883">
        <ele>413.587409</ele>
        <time>2022-03-12T10:40:48.330Z</time>
      </trkpt>
      <trkpt lat="45.00402" lon="5.18822">
        <ele>411.950055</ele>
        <time>2022-03-12T10:40:50.326Z</time>
      </trkpt>
      <trkpt lat="45.00416" lon="5.1881">
        <ele>410.09872</ele>
        <time>2022-03-12T10:40:52.326Z</time>
      </trkpt>
      <trkpt lat="45.00426" lon="5.18792">
        <ele>408.214094</ele>
        <time>2022-03-12T10:40:54.333Z</time>
      </trkpt>
      <trkpt lat="45.00435" lon="5.18769">
        <ele>406.147805</ele>
        <time>2022-03-12T10:40:56.333Z</time>
      </trkpt>
      <trkpt lat="45.00439" lon="5.18757">
        <ele>405.062756</ele>
        <time>2022-03-12T10:40:57.327Z</time>
      </trkpt>
      <trkpt lat="45.00443" lon="5.18744">
        <ele>403.951013</ele>
        <time>2022-03-12T10:40:58.323Z</time>
      </trkpt>
      <trkpt lat="45.00448" lon="5.18732">
        <ele>402.797417</ele>
        <time>2022-03-12T10:40:59.323Z</time>
      </trkpt>
      <trkpt lat="45.00454" lon="5.1872">
        <ele>401.659739</ele>
        <time>2022-03-12T10:41:00.335Z</time>
      </trkpt>
      <trkpt lat="45.00459" lon="5.18709">
        <ele>400.594877</ele>
        <time>2022-03-12T10:41:01.334Z</time>
      </trkpt>
      <trkpt lat="45.00471" lon="5.18693">
        <ele>398.733821</ele>
        <time>2022-03-12T10:41:03.327Z</time>
      </trkpt>
      <trkpt lat="45.00486" lon="5.18689">
        <ele>396.965826</ele>
        <time>2022-03-12T10:41:05.322Z</time>
      </trkpt>
      <trkpt lat="45.00502" lon="5.18692">
        <ele>395.09003</ele>
        <time>2022-03-12T10:41:07.327Z</time>
      </trkpt>
      <trkpt lat="45.00519" lon="5.18697">
        <ele>393.183364</ele>
        <time>2022-03-12T10:41:09.324Z</time>
      </trkpt>
      <trkpt lat="45.00535" lon="5.18705">
        <ele>392.035944</ele>
        <time>2022-03-12T10:41:11.335Z</time>
      </trkpt>
      <trkpt lat="45.0055" lon="5.18713">
        <ele>390.932766</ele>
        <time>2022-03-12T10:41:13.310Z</time>
      </trkpt>
      <trkpt lat="45.00565" lon="5.18722">
        <ele>389.851021</ele>
        <time>2022-03-12T10:41:15.332Z</time>
      </trkpt>
      <trkpt lat="45.0058" lon="5.18729">
        <ele>388.758107</ele>
        <time>2022-03-12T10:41:17.326Z</time>
      </trkpt>
      <trkpt lat="45.00595" lon="5.18736">
        <ele>387.669232</ele>
        <time>2022-03-12T10:41:19.328Z</time>
      </trkpt>
      <trkpt lat="45.00611" lon="5.18744">
        <ele>386.573156</ele>
        <time>2022-03-12T10:41:21.330Z</time>
      </trkpt>
      <trkpt lat="45.00626" lon="5.18752">
        <ele>385.475472</ele>
        <time>2022-03-12T10:41:23.332Z</time>
      </trkpt>
      <trkpt lat="45.00641" lon="5.18761">
        <ele>384.350837</ele>
        <time>2022-03-12T10:41:25.322Z</time>
      </trkpt>
      <trkpt lat="45.00656" lon="5.18771">
        <ele>383.214806</ele>
        <time>2022-03-12T10:41:27.329Z</time>
      </trkpt>
      <trkpt lat="45.00672" lon="5.18783">
        <ele>382.027478</ele>
        <time>2022-03-12T10:41:29.335Z</time>
      </trkpt>
      <trkpt lat="45.0068" lon="5.18788">
        <ele>381.402419</ele>
        <time>2022-03-12T10:41:30.326Z</time>
      </trkpt>
      <trkpt lat="45.00689" lon="5.18793">
        <ele>380.68932</ele>
        <time>2022-03-12T10:41:31.330Z</time>
      </trkpt>
      <trkpt lat="45.00698" lon="5.18798">
        <ele>379.822998</ele>
        <time>2022-03-12T10:41:32.330Z</time>
      </trkpt>
      <trkpt lat="45.00707" lon="5.18803">
        <ele>378.937201</ele>
        <time>2022-03-12T10:41:33.331Z</time>
      </trkpt>
      <trkpt lat="45.00716" lon="5.18807">
        <ele>378.029758</ele>
        <time>2022-03-12T10:41:34.328Z</time>
      </trkpt>
      <trkpt lat="45.00725" lon="5.18811">
        <ele>377.158237</ele>
        <time>2022-03-12T10:41:35.327Z</time>
      </trkpt>
      <trkpt lat="45.00735" lon="5.18815">
        <ele>376.253166</ele>
        <time>2022-03-12T10:41:36.328Z</time>
      </trkpt>
      <trkpt lat="45.00745" lon="5.18818">
        <ele>375.33037</ele>
        <time>2022-03-12T10:41:37.322Z</time>
      </trkpt>
      <trkpt lat="45.00754" lon="5.18822">
        <ele>374.409244</ele>
        <time>2022-03-12T10:41:38.335Z</time>
      </trkpt>
      <trkpt lat="45.00764" lon="5.18825">
        <ele>373.507534</ele>
        <time>2022-03-12T10:41:39.324Z</time>
      </trkpt>
      <trkpt lat="45.00773" lon="5.18829">
        <ele>372.64294</ele>
        <time>2022-03-12T10:41:40.324Z</time>
      </trkpt>
      <trkpt lat="45.00789" lon="5.18837">
        <ele>371.09874</ele>
        <time>2022-03-12T10:41:42.332Z</time>
      </trkpt>
      <trkpt lat="45.00805" lon="5.18839">
        <ele>369.638427</ele>
        <time>2022-03-12T10:41:44.321Z</time>
      </trkpt>
      <trkpt lat="45.00822" lon="5.18835">
        <ele>368.034085</ele>
        <time>2022-03-12T10:41:46.328Z</time>
      </trkpt>
      <trkpt lat="45.00831" lon="5.18831">
        <ele>367.154857</ele>
        <time>2022-03-12T10:41:47.320Z</time>
      </trkpt>
      <trkpt lat="45.0084" lon="5.18825">
        <ele>366.216838</ele>
        <time>2022-03-12T10:41:48.319Z</time>
      </trkpt>
      <trkpt lat="45.0085" lon="5.18819">
        <ele>365.250322</ele>
        <time>2022-03-12T10:41:49.323Z</time>
      </trkpt>
      <trkpt lat="45.00859" lon="5.18811">
        <ele>364.209092</ele>
        <time>2022-03-12T10:41:50.334Z</time>
      </trkpt>
      <trkpt lat="45.00869" lon="5.18804">
        <ele>363.004372</ele>
        <time>2022-03-12T10:41:51.335Z</time>
      </trkpt>
      <trkpt lat="45.00879" lon="5.18797">
        <ele>361.803274</ele>
        <time>2022-03-12T10:41:52.330Z</time>
      </trkpt>
      <trkpt lat="45.00889" lon="5.1879">
        <ele>360.588865</ele>
        <time>2022-03-12T10:41:53.326Z</time>
      </trkpt>
      <trkpt lat="45.00898" lon="5.18782">
        <ele>359.415081</ele>
        <time>2022-03-12T10:41:54.337Z</time>
      </trkpt>
      <trkpt lat="45.00906" lon="5.18774">
        <ele>358.336083</ele>
        <time>2022-03-12T10:41:55.326Z</time>
      </trkpt>
      <trkpt lat="45.00913" lon="5.18766">
        <ele>357.346819</ele>
        <time>2022-03-12T10:41:56.328Z</time>
      </trkpt>
      <trkpt lat="45.00927" lon="5.18755">
        <ele>355.575608</ele>
        <time>2022-03-12T10:41:58.325Z</time>
      </trkpt>
      <trkpt lat="45.00942" lon="5.18752">
        <ele>353.880935</ele>
        <time>2022-03-12T10:42:00.334Z</time>
      </trkpt>
      <trkpt lat="45.0096" lon="5.18753">
        <ele>351.936281</ele>
        <time>2022-03-12T10:42:02.330Z</time>
      </trkpt>
      <trkpt lat="45.00969" lon="5.18755">
        <ele>350.921737</ele>
        <time>2022-03-12T10:42:03.329Z</time>
      </trkpt>
      <trkpt lat="45.00979" lon="5.18755">
        <ele>349.901785</ele>
        <time>2022-03-12T10:42:04.337Z</time>
      </trkpt>
      <trkpt lat="45.00988" lon="5.18755">
        <ele>348.826577</ele>
        <time>2022-03-12T10:42:05.325Z</time>
      </trkpt>
      <trkpt lat="45.00998" lon="5.18754">
        <ele>347.760212</ele>
        <time>2022-03-12T10:42:06.323Z</time>
      </trkpt>
      <trkpt lat="45.01007" lon="5.18752">
        <ele>346.742918</ele>
        <time>2022-03-12T10:42:07.320Z</time>
      </trkpt>
      <trkpt lat="45.01024" lon="5.18749">
        <ele>344.858021</ele>
        <time>2022-03-12T10:42:09.326Z</time>
      </trkpt>
      <trkpt lat="45.01041" lon="5.1875">
        <ele>342.878153</ele>
        <time>2022-03-12T10:42:11.333Z</time>
      </trkpt>
      <trkpt lat="45.01057" lon="5.18752">
        <ele>340.816083</ele>
        <time>2022-03-12T10:42:13.324Z</time>
      </trkpt>
      <trkpt lat="45.01066" lon="5.18754">
        <ele>339.683011</ele>
        <time>2022-03-12T10:42:14.330Z</time>
      </trkpt>
      <trkpt lat="45.01076" lon="5.18757">
        <ele>338.501096</ele>
        <time>2022-03-12T10:42:15.332Z</time>
      </trkpt>
      <trkpt lat="45.01085" lon="5.18761">
        <ele>337.251189</ele>
        <time>2022-03-12T10:42:16.334Z</time>
      </trkpt>
      <trkpt lat="45.01094" lon="5.18766">
        <ele>336.072951</ele>
        <time>2022-03-12T10:42:17.326Z</time>
      </trkpt>
      <trkpt lat="45.01103" lon="5.1877">
        <ele>334.964407</ele>
        <time>2022-03-12T10:42:18.322Z</time>
      </trkpt>
      <trkpt lat="45.01112" lon="5.18772">
        <ele>333.843491</ele>
        <time>2022-03-12T10:42:19.327Z</time>
      </trkpt>
      <trkpt lat="45.01122" lon="5.18772">
        <ele>332.58776</ele>
        <time>2022-03-12T10:42:20.327Z</time>
      </trkpt>
      <trkpt lat="45.01133" lon="5.18769">
        <ele>331.24565</ele>
        <time>2022-03-12T10:42:21.335Z</time>
      </trkpt>
      <trkpt lat="45.01144" lon="5.18763">
        <ele>329.833353</ele>
        <time>2022-03-12T10:42:22.326Z</time>
      </trkpt>
      <trkpt lat="45.01155" lon="5.18756">
        <ele>328.356341</ele>
        <time>2022-03-12T10:42:23.326Z</time>
      </trkpt>
      <trkpt lat="45.01165" lon="5.18749">
        <ele>326.868289</ele>
        <time>2022-03-12T10:42:24.318Z</time>
      </trkpt>
      <trkpt lat="45.01176" lon="5.18741">
        <ele>325.379201</ele>
        <time>2022-03-12T10:42:25.337Z</time>
      </trkpt>
      <trkpt lat="45.01187" lon="5.18732">
        <ele>323.89927</ele>
        <time>2022-03-12T10:42:26.332Z</time>
      </trkpt>
      <trkpt lat="45.01197" lon="5.18723">
        <ele>322.662038</ele>
        <time>2022-03-12T10:42:27.324Z</time>
      </trkpt>
      <trkpt lat="45.01207" lon="5.18712">
        <ele>322.94988</ele>
        <time>2022-03-12T10:42:28.338Z</time>
      </trkpt>
      <trkpt lat="45.01217" lon="5.18702">
        <ele>323.235009</ele>
        <time>2022-03-12T10:42:29.324Z</time>
      </trkpt>
      <trkpt lat="45.01227" lon="5.18691">
        <ele>323.523066</ele>
        <time>2022-03-12T10:42:30.328Z</time>
      </trkpt>
      <trkpt lat="45.01237" lon="5.1868">
        <ele>323.81211</ele>
        <time>2022-03-12T10:42:31.325Z</time>
      </trkpt>
      <trkpt lat="45.01247" lon="5.18669">
        <ele>324.088194</ele>
        <time>2022-03-12T10:42:32.326Z</time>
      </trkpt>
      <trkpt lat="45.01256" lon="5.18659">
        <ele>324.349843</ele>
        <time>2022-03-12T10:42:33.332Z</time>
      </trkpt>
      <trkpt lat="45.01264" lon="5.18649">
        <ele>324.588176</ele>
        <time>2022-03-12T10:42:34.331Z</time>
      </trkpt>
      <trkpt lat="45.01271" lon="5.18641">
        <ele>324.810886</ele>
        <time>2022-03-12T10:42:35.322Z</time>
      </trkpt>
      <trkpt lat="45.01279" lon="5.18634">
        <ele>325.021892</ele>
        <time>2022-03-12T10:42:36.329Z</time>
      </trkpt>
      <trkpt lat="45.01294" lon="5.18625">
        <ele>325.381688</ele>
        <time>2022-03-12T10:42:38.325Z</time>
      </trkpt>
      <trkpt lat="45.01305" lon="5.18622">
        <ele>325.642087</ele>
        <time>2022-03-12T10:42:40.326Z</time>
      </trkpt>
      <trkpt lat="45.01315" lon="5.18624">
        <ele>325.872759</ele>
        <time>2022-03-12T10:42:43.333Z</time>
      </trkpt>
      <trkpt lat="45.01324" lon="5.18627">
        <ele>326.098565</ele>
        <time>2022-03-12T10:42:48.333Z</time>
      </trkpt>
      <trkpt lat="45.01333" lon="5.18633">
        <ele>326.30633</ele>
        <time>2022-03-12T10:42:53.317Z</time>
      </trkpt>
      <trkpt lat="45.01341" lon="5.18641">
        <ele>326.532809</ele>
        <time>2022-03-12T10:42:59.328Z</time>
      </trkpt>
      <trkpt lat="45.01351" lon="5.18646">
        <ele>326.736277</ele>
        <time>2022-03-12T10:43:05.334Z</time>
      </trkpt>
      <trkpt lat="45.01359" lon="5.18654">
        <ele>326.807134</ele>
        <time>2022-03-12T10:43:11.326Z</time>
      </trkpt>
      <trkpt lat="45.01368" lon="5.18661">
        <ele>326.878586</ele>
        <time>2022-03-12T10:43:17.324Z</time>
      </trkpt>
      <trkpt lat="45.01376" lon="5.18669">
        <ele>326.946558</ele>
        <time>2022-03-12T10:43:23.325Z</time>
      </trkpt>
      <trkpt lat="45.01384" lon="5.18679">
        <ele>327.019946</ele>
        <time>2022-03-12T10:43:30.326Z</time>
      </trkpt>
      <trkpt lat="45.01391" lon="5.18689">
        <ele>327.089711</ele>
        <time>2022-03-12T10:43:36.323Z</time>
      </trkpt>
      <trkpt lat="45.01403" lon="5.18705">
        <ele>327.202726</ele>
        <time>2022-03-12T10:44:11.324Z</time>
      </trkpt>
      <trkpt lat="45.01408" lon="5.18715">
        <ele>327.265798</ele>
        <time>2022-03-12T10:44:14.323Z</time>
      </trkpt>
      <trkpt lat="45.01415" lon="5.18727">
        <ele>327.340907</ele>
        <time>2022-03-12T10:44:17.327Z</time>
      </trkpt>
      <trkpt lat="45.01422" lon="5.18742">
        <ele>327.42682</ele>
        <time>2022-03-12T10:44:20.321Z</time>
      </trkpt>
      <trkpt lat="45.01428" lon="5.18752">
        <ele>327.491131</ele>
        <time>2022-03-12T10:44:22.324Z</time>
      </trkpt>
      <trkpt lat="45.01435" lon="5.18763">
        <ele>327.564241</ele>
        <time>2022-03-12T10:44:24.333Z</time>
      </trkpt>
      <trkpt lat="45.01444" lon="5.18774">
        <ele>327.645394</ele>
        <time>2022-03-12T10:44:26.334Z</time>
      </trkpt>
      <trkpt lat="45.01453" lon="5.18785">
        <ele>327.733324</ele>
        <time>2022-03-12T10:44:28.326Z</time>
      </trkpt>
      <trkpt lat="45.01464" lon="5.18797">
        <ele>327.82738</ele>
        <time>2022-03-12T10:44:30.332Z</time>
      </trkpt>
      <trkpt lat="45.01476" lon="5.18809">
        <ele>327.929906</ele>
        <time>2022-03-12T10:44:32.335Z</time>
      </trkpt>
      <trkpt lat="45.01488" lon="5.18822">
        <ele>327.428231</ele>
        <time>2022-03-12T10:44:34.317Z</time>
      </trkpt>
      <trkpt lat="45.01501" lon="5.18835">
        <ele>326.53027</ele>
        <time>2022-03-12T10:44:36.337Z</time>
      </trkpt>
      <trkpt lat="45.01514" lon="5.18848">
        <ele>325.592534</ele>
        <time>2022-03-12T10:44:38.331Z</time>
      </trkpt>
      <trkpt lat="45.01528" lon="5.18862">
        <ele>324.645468</ele>
        <time>2022-03-12T10:44:40.335Z</time>
      </trkpt>
      <trkpt lat="45.01541" lon="5.18877">
        <ele>323.669544</ele>
        <time>2022-03-12T10:44:42.325Z</time>
      </trkpt>
      <trkpt lat="45.01556" lon="5.18891">
        <ele>322.661548</ele>
        <time>2022-03-12T10:44:44.326Z</time>
      </trkpt>
      <trkpt lat="45.0157" lon="5.18906">
        <ele>321.644331</ele>
        <time>2022-03-12T10:44:46.325Z</time>
      </trkpt>
      <trkpt lat="45.01578" lon="5.18913">
        <ele>321.127365</ele>
        <time>2022-03-12T10:44:47.318Z</time>
      </trkpt>
      <trkpt lat="45.01592" lon="5.18927">
        <ele>320.098369</ele>
        <time>2022-03-12T10:44:49.329Z</time>
      </trkpt>
      <trkpt lat="45.016" lon="5.18934">
        <ele>319.574044</ele>
        <time>2022-03-12T10:44:50.322Z</time>
      </trkpt>
      <trkpt lat="45.01608" lon="5.18941">
        <ele>319.039398</ele>
        <time>2022-03-12T10:44:51.324Z</time>
      </trkpt>
      <trkpt lat="45.01616" lon="5.18947">
        <ele>318.504854</ele>
        <time>2022-03-12T10:44:52.329Z</time>
      </trkpt>
      <trkpt lat="45.01625" lon="5.18953">
        <ele>317.955547</ele>
        <time>2022-03-12T10:44:53.327Z</time>
      </trkpt>
      <trkpt lat="45.01634" lon="5.18959">
        <ele>317.366837</ele>
        <time>2022-03-12T10:44:54.329Z</time>
      </trkpt>
      <trkpt lat="45.01643" lon="5.18964">
        <ele>316.733801</ele>
        <time>2022-03-12T10:44:55.336Z</time>
      </trkpt>
      <trkpt lat="45.01652" lon="5.18969">
        <ele>316.106696</ele>
        <time>2022-03-12T10:44:56.328Z</time>
      </trkpt>
      <trkpt lat="45.01661" lon="5.18974">
        <ele>315.470321</ele>
        <time>2022-03-12T10:44:57.332Z</time>
      </trkpt>
      <trkpt lat="45.01671" lon="5.18979">
        <ele>314.818954</ele>
        <time>2022-03-12T10:44:58.330Z</time>
      </trkpt>
      <trkpt lat="45.0168" lon="5.18984">
        <ele>314.176548</ele>
        <time>2022-03-12T10:44:59.332Z</time>
      </trkpt>
      <trkpt lat="45.01689" lon="5.18989">
        <ele>313.515466</ele>
        <time>2022-03-12T10:45:00.330Z</time>
      </trkpt>
      <trkpt lat="45.01699" lon="5.18995">
        <ele>312.874053</ele>
        <time>2022-03-12T10:45:01.325Z</time>
      </trkpt>
      <trkpt lat="45.01708" lon="5.19">
        <ele>312.232641</ele>
        <time>2022-03-12T10:45:02.325Z</time>
      </trkpt>
      <trkpt lat="45.01717" lon="5.19005">
        <ele>311.60229</ele>
        <time>2022-03-12T10:45:03.325Z</time>
      </trkpt>
      <trkpt lat="45.01726" lon="5.1901">
        <ele>310.958536</ele>
        <time>2022-03-12T10:45:04.322Z</time>
      </trkpt>
      <trkpt lat="45.01735" lon="5.19015">
        <ele>310.328185</ele>
        <time>2022-03-12T10:45:05.336Z</time>
      </trkpt>
      <trkpt lat="45.01745" lon="5.1902">
        <ele>309.688481</ele>
        <time>2022-03-12T10:45:06.330Z</time>
      </trkpt>
      <trkpt lat="45.01754" lon="5.19025">
        <ele>309.064145</ele>
        <time>2022-03-12T10:45:07.332Z</time>
      </trkpt>
      <trkpt lat="45.01763" lon="5.1903">
        <ele>308.427772</ele>
        <time>2022-03-12T10:45:08.323Z</time>
      </trkpt>
      <trkpt lat="45.01772" lon="5.19035">
        <ele>307.803436</ele>
        <time>2022-03-12T10:45:09.334Z</time>
      </trkpt>
      <trkpt lat="45.01781" lon="5.1904">
        <ele>307.177418</ele>
        <time>2022-03-12T10:45:10.323Z</time>
      </trkpt>
      <trkpt lat="45.0179" lon="5.19045">
        <ele>306.54618</ele>
        <time>2022-03-12T10:45:11.331Z</time>
      </trkpt>
      <trkpt lat="45.01799" lon="5.1905">
        <ele>305.943684</ele>
        <time>2022-03-12T10:45:12.328Z</time>
      </trkpt>
      <trkpt lat="45.01808" lon="5.19055">
        <ele>305.382953</ele>
        <time>2022-03-12T10:45:13.326Z</time>
      </trkpt>
      <trkpt lat="45.01817" lon="5.1906">
        <ele>304.822222</ele>
        <time>2022-03-12T10:45:14.339Z</time>
      </trkpt>
      <trkpt lat="45.01825" lon="5.19064">
        <ele>304.275306</ele>
        <time>2022-03-12T10:45:15.326Z</time>
      </trkpt>
      <trkpt lat="45.01834" lon="5.19069">
        <ele>303.721486</ele>
        <time>2022-03-12T10:45:16.324Z</time>
      </trkpt>
      <trkpt lat="45.01843" lon="5.19074">
        <ele>303.168733</ele>
        <time>2022-03-12T10:45:17.324Z</time>
      </trkpt>
      <trkpt lat="45.01852" lon="5.19078">
        <ele>302.6204</ele>
        <time>2022-03-12T10:45:18.330Z</time>
      </trkpt>
      <trkpt lat="45.01861" lon="5.19083">
        <ele>302.062205</ele>
        <time>2022-03-12T10:45:19.332Z</time>
      </trkpt>
      <trkpt lat="45.0187" lon="5.19088">
        <ele>301.507926</ele>
        <time>2022-03-12T10:45:20.337Z</time>
      </trkpt>
      <trkpt lat="45.01879" lon="5.19093">
        <ele>300.941261</ele>
        <time>2022-03-12T10:45:21.335Z</time>
      </trkpt>
      <trkpt lat="45.01888" lon="5.19099">
        <ele>300.36987</ele>
        <time>2022-03-12T10:45:22.335Z</time>
      </trkpt>
      <trkpt lat="45.01897" lon="5.19104">
        <ele>299.796854</ele>
        <time>2022-03-12T10:45:23.332Z</time>
      </trkpt>
      <trkpt lat="45.01906" lon="5.1911">
        <ele>299.216255</ele>
        <time>2022-03-12T10:45:24.332Z</time>
      </trkpt>
      <trkpt lat="45.01915" lon="5.19115">
        <ele>298.642625</ele>
        <time>2022-03-12T10:45:25.326Z</time>
      </trkpt>
      <trkpt lat="45.01924" lon="5.1912">
        <ele>298.048732</ele>
        <time>2022-03-12T10:45:26.331Z</time>
      </trkpt>
      <trkpt lat="45.01934" lon="5.19125">
        <ele>297.461767</ele>
        <time>2022-03-12T10:45:27.331Z</time>
      </trkpt>
      <trkpt lat="45.01943" lon="5.1913">
        <ele>296.880269</ele>
        <time>2022-03-12T10:45:28.320Z</time>
      </trkpt>
      <trkpt lat="45.01953" lon="5.19135">
        <ele>296.289257</ele>
        <time>2022-03-12T10:45:29.319Z</time>
      </trkpt>
      <trkpt lat="45.01962" lon="5.1914">
        <ele>295.710643</ele>
        <time>2022-03-12T10:45:30.330Z</time>
      </trkpt>
      <trkpt lat="45.01971" lon="5.19144">
        <ele>295.272871</ele>
        <time>2022-03-12T10:45:31.324Z</time>
      </trkpt>
      <trkpt lat="45.01981" lon="5.19149">
        <ele>294.900709</ele>
        <time>2022-03-12T10:45:32.329Z</time>
      </trkpt>
      <trkpt lat="45.0199" lon="5.19154">
        <ele>294.526734</ele>
        <time>2022-03-12T10:45:33.328Z</time>
      </trkpt>
      <trkpt lat="45.01999" lon="5.19158">
        <ele>294.170408</ele>
        <time>2022-03-12T10:45:34.340Z</time>
      </trkpt>
      <trkpt lat="45.02008" lon="5.19162">
        <ele>293.812268</ele>
        <time>2022-03-12T10:45:35.328Z</time>
      </trkpt>
      <trkpt lat="45.02018" lon="5.19167">
        <ele>293.451404</ele>
        <time>2022-03-12T10:45:36.325Z</time>
      </trkpt>
      <trkpt lat="45.02027" lon="5.19171">
        <ele>293.089721</ele>
        <time>2022-03-12T10:45:37.333Z</time>
      </trkpt>
      <trkpt lat="45.02036" lon="5.19175">
        <ele>292.741314</ele>
        <time>2022-03-12T10:45:38.328Z</time>
      </trkpt>
      <trkpt lat="45.02045" lon="5.1918">
        <ele>292.384989</ele>
        <time>2022-03-12T10:45:39.329Z</time>
      </trkpt>
      <trkpt lat="45.02054" lon="5.19184">
        <ele>292.030387</ele>
        <time>2022-03-12T10:45:40.329Z</time>
      </trkpt>
      <trkpt lat="45.02062" lon="5.19188">
        <ele>291.687238</ele>
        <time>2022-03-12T10:45:41.325Z</time>
      </trkpt>
      <trkpt lat="45.02071" lon="5.19192">
        <ele>291.341389</ele>
        <time>2022-03-12T10:45:42.338Z</time>
      </trkpt>
      <trkpt lat="45.02088" lon="5.192">
        <ele>290.692818</ele>
        <time>2022-03-12T10:45:44.326Z</time>
      </trkpt>
      <trkpt lat="45.021" lon="5.19207">
        <ele>290.206251</ele>
        <time>2022-03-12T10:45:46.325Z</time>
      </trkpt>
      <trkpt lat="45.02105" lon="5.19218">
        <ele>289.854636</ele>
        <time>2022-03-12T10:45:48.323Z</time>
      </trkpt>
      <trkpt lat="45.02105" lon="5.19231">
        <ele>289.494549</ele>
        <time>2022-03-12T10:45:52.333Z</time>
      </trkpt>
      <trkpt lat="45.02081" lon="5.19284">
        <ele>288.848215</ele>
        <time>2022-03-12T10:46:17.326Z</time>
      </trkpt>
      <trkpt lat="45.02075" lon="5.19302">
        <ele>288.860117</ele>
        <time>2022-03-12T10:46:19.328Z</time>
      </trkpt>
      <trkpt lat="45.02069" lon="5.1932">
        <ele>288.871561</ele>
        <time>2022-03-12T10:46:21.325Z</time>
      </trkpt>
      <trkpt lat="45.02063" lon="5.19338">
        <ele>288.882403</ele>
        <time>2022-03-12T10:46:23.321Z</time>
      </trkpt>
      <trkpt lat="45.02059" lon="5.19354">
        <ele>288.892466</ele>
        <time>2022-03-12T10:46:25.327Z</time>
      </trkpt>
      <trkpt lat="45.02056" lon="5.19369">
        <ele>288.901264</ele>
        <time>2022-03-12T10:46:27.328Z</time>
      </trkpt>
      <trkpt lat="45.02054" lon="5.19383">
        <ele>288.909511</ele>
        <time>2022-03-12T10:46:30.319Z</time>
      </trkpt>
      <trkpt lat="45.0205" lon="5.19398">
        <ele>288.918985</ele>
        <time>2022-03-12T10:46:35.320Z</time>
      </trkpt>
      <trkpt lat="45.02046" lon="5.19411">
        <ele>288.926964</ele>
        <time>2022-03-12T10:46:38.326Z</time>
      </trkpt>
      <trkpt lat="45.02041" lon="5.19422">
        <ele>288.934523</ele>
        <time>2022-03-12T10:46:41.318Z</time>
      </trkpt>
      <trkpt lat="45.02037" lon="5.19434">
        <ele>288.942272</ele>
        <time>2022-03-12T10:46:44.323Z</time>
      </trkpt>
      <trkpt lat="45.02032" lon="5.19445">
        <ele>288.949846</ele>
        <time>2022-03-12T10:46:47.331Z</time>
      </trkpt>
      <trkpt lat="45.02026" lon="5.19459">
        <ele>288.959052</ele>
        <time>2022-03-12T10:46:51.326Z</time>
      </trkpt>
      <trkpt lat="45.02019" lon="5.19471">
        <ele>288.967838</ele>
        <time>2022-03-12T10:46:55.324Z</time>
      </trkpt>
      <trkpt lat="45.02014" lon="5.19483">
        <ele>288.819255</ele>
        <time>2022-03-12T10:46:59.320Z</time>
      </trkpt>
      <trkpt lat="45.02014" lon="5.19496">
        <ele>288.358317</ele>
        <time>2022-03-12T10:47:03.323Z</time>
      </trkpt>
      <trkpt lat="45.02023" lon="5.19507">
        <ele>287.807604</ele>
        <time>2022-03-12T10:47:07.321Z</time>
      </trkpt>
      <trkpt lat="45.02033" lon="5.19514">
        <ele>287.256163</ele>
        <time>2022-03-12T10:47:10.326Z</time>
      </trkpt>
      <trkpt lat="45.02042" lon="5.19518">
        <ele>286.789303</ele>
        <time>2022-03-12T10:47:12.327Z</time>
      </trkpt>
      <trkpt lat="45.02052" lon="5.19522">
        <ele>286.265883</ele>
        <time>2022-03-12T10:47:14.326Z</time>
      </trkpt>
      <trkpt lat="45.02063" lon="5.19526">
        <ele>285.714054</ele>
        <time>2022-03-12T10:47:16.327Z</time>
      </trkpt>
      <trkpt lat="45.02073" lon="5.1953">
        <ele>285.22363</ele>
        <time>2022-03-12T10:47:18.334Z</time>
      </trkpt>
      <trkpt lat="45.02084" lon="5.19535">
        <ele>284.659927</ele>
        <time>2022-03-12T10:47:21.320Z</time>
      </trkpt>
      <trkpt lat="45.02092" lon="5.19539">
        <ele>284.213951</ele>
        <time>2022-03-12T10:47:24.330Z</time>
      </trkpt>
      <trkpt lat="45.02101" lon="5.19544">
        <ele>283.73922</ele>
        <time>2022-03-12T10:47:27.326Z</time>
      </trkpt>
      <trkpt lat="45.0211" lon="5.19549">
        <ele>283.285404</ele>
        <time>2022-03-12T10:47:30.328Z</time>
      </trkpt>
      <trkpt lat="45.0212" lon="5.19555">
        <ele>282.775839</ele>
        <time>2022-03-12T10:47:34.316Z</time>
      </trkpt>
      <trkpt lat="45.02128" lon="5.19563">
        <ele>282.259679</ele>
        <time>2022-03-12T10:47:38.324Z</time>
      </trkpt>
      <trkpt lat="45.02137" lon="5.19572">
        <ele>281.739398</ele>
        <time>2022-03-12T10:47:42.328Z</time>
      </trkpt>
      <trkpt lat="45.02146" lon="5.19581">
        <ele>281.177886</ele>
        <time>2022-03-12T10:47:46.321Z</time>
      </trkpt>
      <trkpt lat="45.02157" lon="5.19589">
        <ele>280.585055</ele>
        <time>2022-03-12T10:47:50.322Z</time>
      </trkpt>
      <trkpt lat="45.02166" lon="5.19597">
        <ele>280.083926</ele>
        <time>2022-03-12T10:47:53.324Z</time>
      </trkpt>
      <trkpt lat="45.02176" lon="5.19605">
        <ele>279.627651</ele>
        <time>2022-03-12T10:47:56.320Z</time>
      </trkpt>
      <trkpt lat="45.02185" lon="5.19614">
        <ele>279.17224</ele>
        <time>2022-03-12T10:47:59.333Z</time>
      </trkpt>
      <trkpt lat="45.02195" lon="5.19623">
        <ele>278.69733</ele>
        <time>2022-03-12T10:48:02.336Z</time>
      </trkpt>
      <trkpt lat="45.02205" lon="5.19632">
        <ele>278.21905</ele>
        <time>2022-03-12T10:48:05.325Z</time>
      </trkpt>
      <trkpt lat="45.02215" lon="5.1964">
        <ele>277.762185</ele>
        <time>2022-03-12T10:48:08.323Z</time>
      </trkpt>
      <trkpt lat="45.02224" lon="5.19648">
        <ele>277.322899</ele>
        <time>2022-03-12T10:48:11.326Z</time>
      </trkpt>
      <trkpt lat="45.02234" lon="5.19656">
        <ele>276.850358</ele>
        <time>2022-03-12T10:48:14.328Z</time>
      </trkpt>
      <trkpt lat="45.02243" lon="5.19665">
        <ele>276.410215</ele>
        <time>2022-03-12T10:48:17.330Z</time>
      </trkpt>
      <trkpt lat="45.02252" lon="5.19674">
        <ele>275.958567</ele>
        <time>2022-03-12T10:48:20.320Z</time>
      </trkpt>
      <trkpt lat="45.02261" lon="5.19683">
        <ele>275.510235</ele>
        <time>2022-03-12T10:48:23.330Z</time>
      </trkpt>
      <trkpt lat="45.02272" lon="5.19692">
        <ele>275.027828</ele>
        <time>2022-03-12T10:48:26.318Z</time>
      </trkpt>
      <trkpt lat="45.02282" lon="5.19702">
        <ele>274.534994</ele>
        <time>2022-03-12T10:48:29.318Z</time>
      </trkpt>
      <trkpt lat="45.02292" lon="5.19711">
        <ele>274.031728</ele>
        <time>2022-03-12T10:48:32.318Z</time>
      </trkpt>
      <trkpt lat="45.02303" lon="5.19721">
        <ele>273.520633</ele>
        <time>2022-03-12T10:48:35.336Z</time>
      </trkpt>
      <trkpt lat="45.02313" lon="5.19731">
        <ele>273.007121</ele>
        <time>2022-03-12T10:48:38.312Z</time>
      </trkpt>
      <trkpt lat="45.02324" lon="5.1974">
        <ele>272.677623</ele>
        <time>2022-03-12T10:48:41.325Z</time>
      </trkpt>
      <trkpt lat="45.02334" lon="5.19751">
        <ele>272.393305</ele>
        <time>2022-03-12T10:48:44.324Z</time>
      </trkpt>
      <trkpt lat="45.02343" lon="5.1976">
        <ele>272.145861</ele>
        <time>2022-03-12T10:48:47.326Z</time>
      </trkpt>
      <trkpt lat="45.02352" lon="5.19769">
        <ele>271.897535</ele>
        <time>2022-03-12T10:48:50.323Z</time>
      </trkpt>
      <trkpt lat="45.02361" lon="5.19778">
        <ele>271.648298</ele>
        <time>2022-03-12T10:48:53.332Z</time>
      </trkpt>
      <trkpt lat="45.02369" lon="5.19788">
        <ele>271.399575</ele>
        <time>2022-03-12T10:48:56.326Z</time>
      </trkpt>
      <trkpt lat="45.02378" lon="5.19796">
        <ele>271.154027</ele>
        <time>2022-03-12T10:48:59.317Z</time>
      </trkpt>
      <trkpt lat="45.02387" lon="5.19805">
        <ele>270.907433</ele>
        <time>2022-03-12T10:49:02.323Z</time>
      </trkpt>
      <trkpt lat="45.02396" lon="5.19813">
        <ele>270.674778</ele>
        <time>2022-03-12T10:49:05.333Z</time>
      </trkpt>
      <trkpt lat="45.02403" lon="5.19823">
        <ele>270.443902</ele>
        <time>2022-03-12T10:49:08.318Z</time>
      </trkpt>
      <trkpt lat="45.0241" lon="5.19833">
        <ele>270.215907</ele>
        <time>2022-03-12T10:49:11.315Z</time>
      </trkpt>
      <trkpt lat="45.02418" lon="5.19843">
        <ele>269.971743</ele>
        <time>2022-03-12T10:49:14.325Z</time>
      </trkpt>
      <trkpt lat="45.02429" lon="5.19855">
        <ele>269.673244</ele>
        <time>2022-03-12T10:49:17.324Z</time>
      </trkpt>
      <trkpt lat="45.02437" lon="5.19863">
        <ele>269.454434</ele>
        <time>2022-03-12T10:49:19.343Z</time>
      </trkpt>
      <trkpt lat="45.02445" lon="5.1987">
        <ele>269.229982</ele>
        <time>2022-03-12T10:49:21.324Z</time>
      </trkpt>
      <trkpt lat="45.02454" lon="5.19877">
        <ele>269.002853</ele>
        <time>2022-03-12T10:49:23.322Z</time>
      </trkpt>
      <trkpt lat="45.02463" lon="5.19884">
        <ele>268.780004</ele>
        <time>2022-03-12T10:49:25.328Z</time>
      </trkpt>
      <trkpt lat="45.02472" lon="5.19891">
        <ele>268.589726</ele>
        <time>2022-03-12T10:49:27.334Z</time>
      </trkpt>
      <trkpt lat="45.02482" lon="5.19896">
        <ele>268.401406</ele>
        <time>2022-03-12T10:49:29.335Z</time>
      </trkpt>
      <trkpt lat="45.0249" lon="5.199">
        <ele>268.23449</ele>
        <time>2022-03-12T10:49:31.327Z</time>
      </trkpt>
      <trkpt lat="45.025" lon="5.19903">
        <ele>268.057698</ele>
        <time>2022-03-12T10:49:33.323Z</time>
      </trkpt>
      <trkpt lat="45.02509" lon="5.19906">
        <ele>267.879117</ele>
        <time>2022-03-12T10:49:35.321Z</time>
      </trkpt>
      <trkpt lat="45.02519" lon="5.19909">
        <ele>267.695691</ele>
        <time>2022-03-12T10:49:37.328Z</time>
      </trkpt>
      <trkpt lat="45.0253" lon="5.19911">
        <ele>267.49732</ele>
        <time>2022-03-12T10:49:39.326Z</time>
      </trkpt>
      <trkpt lat="45.0254" lon="5.19914">
        <ele>267.298735</ele>
        <time>2022-03-12T10:49:41.331Z</time>
      </trkpt>
      <trkpt lat="45.02551" lon="5.19918">
        <ele>267.096017</ele>
        <time>2022-03-12T10:49:43.324Z</time>
      </trkpt>
      <trkpt lat="45.02561" lon="5.19923">
        <ele>266.897856</ele>
        <time>2022-03-12T10:49:45.321Z</time>
      </trkpt>
      <trkpt lat="45.02572" lon="5.19927">
        <ele>266.693058</ele>
        <time>2022-03-12T10:49:47.330Z</time>
      </trkpt>
      <trkpt lat="45.02582" lon="5.19933">
        <ele>266.494146</ele>
        <time>2022-03-12T10:49:49.328Z</time>
      </trkpt>
      <trkpt lat="45.02593" lon="5.19937">
        <ele>266.286841</ele>
        <time>2022-03-12T10:49:51.343Z</time>
      </trkpt>
      <trkpt lat="45.02604" lon="5.19943">
        <ele>266.077979</ele>
        <time>2022-03-12T10:49:53.331Z</time>
      </trkpt>
      <trkpt lat="45.02615" lon="5.19948">
        <ele>265.862204</ele>
        <time>2022-03-12T10:49:55.324Z</time>
      </trkpt>
      <trkpt lat="45.02627" lon="5.19953">
        <ele>265.625241</ele>
        <time>2022-03-12T10:49:57.325Z</time>
      </trkpt>
      <trkpt lat="45.02639" lon="5.19958">
        <ele>265.398158</ele>
        <time>2022-03-12T10:49:59.332Z</time>
      </trkpt>
      <trkpt lat="45.0265" lon="5.19962">
        <ele>265.152884</ele>
        <time>2022-03-12T10:50:01.332Z</time>
      </trkpt>
      <trkpt lat="45.02662" lon="5.19967">
        <ele>264.910299</ele>
        <time>2022-03-12T10:50:03.321Z</time>
      </trkpt>
      <trkpt lat="45.02673" lon="5.19972">
        <ele>264.67586</ele>
        <time>2022-03-12T10:50:05.333Z</time>
      </trkpt>
      <trkpt lat="45.02683" lon="5.19976">
        <ele>264.46129</ele>
        <time>2022-03-12T10:50:07.333Z</time>
      </trkpt>
      <trkpt lat="45.02693" lon="5.19981">
        <ele>264.243555</ele>
        <time>2022-03-12T10:50:09.329Z</time>
      </trkpt>
      <trkpt lat="45.02704" lon="5.19985">
        <ele>264.024708</ele>
        <time>2022-03-12T10:50:11.342Z</time>
      </trkpt>
      <trkpt lat="45.02714" lon="5.19989">
        <ele>263.815933</ele>
        <time>2022-03-12T10:50:13.333Z</time>
      </trkpt>
      <trkpt lat="45.02724" lon="5.19992">
        <ele>263.601637</ele>
        <time>2022-03-12T10:50:15.328Z</time>
      </trkpt>
      <trkpt lat="45.02734" lon="5.19996">
        <ele>263.386994</ele>
        <time>2022-03-12T10:50:17.328Z</time>
      </trkpt>
      <trkpt lat="45.02745" lon="5.2">
        <ele>263.161234</ele>
        <time>2022-03-12T10:50:19.324Z</time>
      </trkpt>
      <trkpt lat="45.02756" lon="5.20003">
        <ele>262.942313</ele>
        <time>2022-03-12T10:50:21.324Z</time>
      </trkpt>
      <trkpt lat="45.02766" lon="5.20006">
        <ele>262.727929</ele>
        <time>2022-03-12T10:50:23.338Z</time>
      </trkpt>
      <trkpt lat="45.02776" lon="5.2001">
        <ele>262.531598</ele>
        <time>2022-03-12T10:50:25.327Z</time>
      </trkpt>
      <trkpt lat="45.02785" lon="5.20014">
        <ele>262.338796</ele>
        <time>2022-03-12T10:50:27.335Z</time>
      </trkpt>
      <trkpt lat="45.02794" lon="5.20018">
        <ele>262.144049</ele>
        <time>2022-03-12T10:50:29.329Z</time>
      </trkpt>
      <trkpt lat="45.02804" lon="5.2002">
        <ele>261.931652</ele>
        <time>2022-03-12T10:50:31.324Z</time>
      </trkpt>
      <trkpt lat="45.02815" lon="5.20022">
        <ele>262.171588</ele>
        <time>2022-03-12T10:50:33.324Z</time>
      </trkpt>
      <trkpt lat="45.02825" lon="5.20025">
        <ele>262.495831</ele>
        <time>2022-03-12T10:50:35.332Z</time>
      </trkpt>
      <trkpt lat="45.02835" lon="5.20031">
        <ele>262.812933</ele>
        <time>2022-03-12T10:50:37.334Z</time>
      </trkpt>
      <trkpt lat="45.02844" lon="5.20036">
        <ele>263.110844</ele>
        <time>2022-03-12T10:50:39.326Z</time>
      </trkpt>
      <trkpt lat="45.02852" lon="5.20042">
        <ele>263.407281</ele>
        <time>2022-03-12T10:50:41.330Z</time>
      </trkpt>
      <trkpt lat="45.02858" lon="5.20052">
        <ele>263.688727</ele>
        <time>2022-03-12T10:50:43.324Z</time>
      </trkpt>
      <trkpt lat="45.02865" lon="5.20067">
        <ele>264.078006</ele>
        <time>2022-03-12T10:50:46.329Z</time>
      </trkpt>
      <trkpt lat="45.02871" lon="5.20082">
        <ele>264.467509</ele>
        <time>2022-03-12T10:50:49.317Z</time>
      </trkpt>
      <trkpt lat="45.02878" lon="5.20096">
        <ele>264.842109</ele>
        <time>2022-03-12T10:50:52.331Z</time>
      </trkpt>
      <trkpt lat="45.02885" lon="5.2011">
        <ele>265.211214</ele>
        <time>2022-03-12T10:50:55.327Z</time>
      </trkpt>
      <trkpt lat="45.02892" lon="5.20123">
        <ele>265.575271</ele>
        <time>2022-03-12T10:50:58.324Z</time>
      </trkpt>
      <trkpt lat="45.02898" lon="5.20134">
        <ele>265.871263</ele>
        <time>2022-03-12T10:51:01.330Z</time>
      </trkpt>
      <trkpt lat="45.02903" lon="5.20146">
        <ele>266.171656</ele>
        <time>2022-03-12T10:51:05.310Z</time>
      </trkpt>
      <trkpt lat="45.02908" lon="5.2016">
        <ele>266.504431</ele>
        <time>2022-03-12T10:51:10.324Z</time>
      </trkpt>
      <trkpt lat="45.02911" lon="5.20175">
        <ele>266.848182</ele>
        <time>2022-03-12T10:51:15.324Z</time>
      </trkpt>
      <trkpt lat="45.02912" lon="5.2019">
        <ele>267.190194</ele>
        <time>2022-03-12T10:51:20.333Z</time>
      </trkpt>
      <trkpt lat="45.02914" lon="5.20204">
        <ele>267.514626</ele>
        <time>2022-03-12T10:51:25.325Z</time>
      </trkpt>
      <trkpt lat="45.02916" lon="5.20219">
        <ele>268.04171</ele>
        <time>2022-03-12T10:51:31.319Z</time>
      </trkpt>
      <trkpt lat="45.02918" lon="5.20232">
        <ele>268.50042</ele>
        <time>2022-03-12T10:51:36.317Z</time>
      </trkpt>
      <trkpt lat="45.02921" lon="5.20245">
        <ele>268.980959</ele>
        <time>2022-03-12T10:51:41.318Z</time>
      </trkpt>
      <trkpt lat="45.02926" lon="5.20257">
        <ele>269.476214</ele>
        <time>2022-03-12T10:51:45.319Z</time>
      </trkpt>
      <trkpt lat="45.02934" lon="5.20268">
        <ele>270.00208</ele>
        <time>2022-03-12T10:51:49.335Z</time>
      </trkpt>
      <trkpt lat="45.02943" lon="5.20278">
        <ele>270.560295</ele>
        <time>2022-03-12T10:51:53.330Z</time>
      </trkpt>
      <trkpt lat="45.02951" lon="5.20285">
        <ele>271.034451</ele>
        <time>2022-03-12T10:51:56.327Z</time>
      </trkpt>
      <trkpt lat="45.0296" lon="5.20291">
        <ele>271.491109</ele>
        <time>2022-03-12T10:51:59.319Z</time>
      </trkpt>
      <trkpt lat="45.02969" lon="5.20297">
        <ele>272.003688</ele>
        <time>2022-03-12T10:52:02.331Z</time>
      </trkpt>
      <trkpt lat="45.02979" lon="5.20302">
        <ele>272.516978</ele>
        <time>2022-03-12T10:52:05.334Z</time>
      </trkpt>
      <trkpt lat="45.02988" lon="5.20308">
        <ele>273.016045</ele>
        <time>2022-03-12T10:52:08.330Z</time>
      </trkpt>
      <trkpt lat="45.02997" lon="5.20311">
        <ele>273.480912</ele>
        <time>2022-03-12T10:52:11.321Z</time>
      </trkpt>
      <trkpt lat="45.03007" lon="5.20314">
        <ele>273.955662</ele>
        <time>2022-03-12T10:52:14.335Z</time>
      </trkpt>
      <trkpt lat="45.03016" lon="5.20316">
        <ele>274.413399</ele>
        <time>2022-03-12T10:52:17.321Z</time>
      </trkpt>
      <trkpt lat="45.03026" lon="5.2032">
        <ele>274.918116</ele>
        <time>2022-03-12T10:52:20.331Z</time>
      </trkpt>
      <trkpt lat="45.03035" lon="5.20323">
        <ele>275.380686</ele>
        <time>2022-03-12T10:52:23.331Z</time>
      </trkpt>
      <trkpt lat="45.03046" lon="5.20325">
        <ele>275.902367</ele>
        <time>2022-03-12T10:52:27.330Z</time>
      </trkpt>
      <trkpt lat="45.03055" lon="5.20327">
        <ele>276.407455</ele>
        <time>2022-03-12T10:52:31.319Z</time>
      </trkpt>
      <trkpt lat="45.03066" lon="5.20328">
        <ele>277.221613</ele>
        <time>2022-03-12T10:52:36.329Z</time>
      </trkpt>
      <trkpt lat="45.03076" lon="5.2033">
        <ele>277.938502</ele>
        <time>2022-03-12T10:52:41.323Z</time>
      </trkpt>
      <trkpt lat="45.03086" lon="5.20332">
        <ele>278.668574</ele>
        <time>2022-03-12T10:52:47.327Z</time>
      </trkpt>
      <trkpt lat="45.03095" lon="5.20334">
        <ele>279.380508</ele>
        <time>2022-03-12T10:52:52.316Z</time>
      </trkpt>
      <trkpt lat="45.03104" lon="5.2034">
        <ele>280.0682</ele>
        <time>2022-03-12T10:52:57.329Z</time>
      </trkpt>
      <trkpt lat="45.03112" lon="5.20345">
        <ele>280.757164</ele>
        <time>2022-03-12T10:53:01.329Z</time>
      </trkpt>
      <trkpt lat="45.03122" lon="5.20349">
        <ele>281.491035</ele>
        <time>2022-03-12T10:53:05.320Z</time>
      </trkpt>
      <trkpt lat="45.03132" lon="5.20354">
        <ele>282.249105</ele>
        <time>2022-03-12T10:53:09.331Z</time>
      </trkpt>
      <trkpt lat="45.03141" lon="5.20358">
        <ele>283.010449</ele>
        <time>2022-03-12T10:53:13.318Z</time>
      </trkpt>
      <trkpt lat="45.03151" lon="5.20362">
        <ele>283.758798</ele>
        <time>2022-03-12T10:53:17.329Z</time>
      </trkpt>
      <trkpt lat="45.03162" lon="5.20365">
        <ele>284.534691</ele>
        <time>2022-03-12T10:53:21.330Z</time>
      </trkpt>
      <trkpt lat="45.03173" lon="5.20369">
        <ele>285.393008</ele>
        <time>2022-03-12T10:53:25.331Z</time>
      </trkpt>
      <trkpt lat="45.03184" lon="5.20373">
        <ele>286.241654</ele>
        <time>2022-03-12T10:53:29.319Z</time>
      </trkpt>
      <trkpt lat="45.03193" lon="5.20376">
        <ele>286.939971</ele>
        <time>2022-03-12T10:53:33.332Z</time>
      </trkpt>
      <trkpt lat="45.03204" lon="5.2038">
        <ele>287.751302</ele>
        <time>2022-03-12T10:53:38.323Z</time>
      </trkpt>
      <trkpt lat="45.03213" lon="5.20384">
        <ele>288.436818</ele>
        <time>2022-03-12T10:53:42.332Z</time>
      </trkpt>
      <trkpt lat="45.03222" lon="5.20387">
        <ele>289.161315</ele>
        <time>2022-03-12T10:53:46.315Z</time>
      </trkpt>
      <trkpt lat="45.03233" lon="5.20388">
        <ele>289.402965</ele>
        <time>2022-03-12T10:53:50.321Z</time>
      </trkpt>
      <trkpt lat="45.03243" lon="5.20387">
        <ele>289.240896</ele>
        <time>2022-03-12T10:53:54.325Z</time>
      </trkpt>
      <trkpt lat="45.03253" lon="5.20385">
        <ele>289.062376</ele>
        <time>2022-03-12T10:53:58.322Z</time>
      </trkpt>
      <trkpt lat="45.03263" lon="5.2038">
        <ele>288.895927</ele>
        <time>2022-03-12T10:54:02.327Z</time>
      </trkpt>
      <trkpt lat="45.03272" lon="5.20375">
        <ele>288.728143</ele>
        <time>2022-03-12T10:54:06.324Z</time>
      </trkpt>
      <trkpt lat="45.03281" lon="5.2037">
        <ele>288.576899</ele>
        <time>2022-03-12T10:54:10.328Z</time>
      </trkpt>
      <trkpt lat="45.03292" lon="5.20366">
        <ele>288.394048</ele>
        <time>2022-03-12T10:54:15.332Z</time>
      </trkpt>
      <trkpt lat="45.03301" lon="5.20365">
        <ele>288.244937</ele>
        <time>2022-03-12T10:54:19.324Z</time>
      </trkpt>
      <trkpt lat="45.03311" lon="5.20367">
        <ele>288.079065</ele>
        <time>2022-03-12T10:54:23.331Z</time>
      </trkpt>
      <trkpt lat="45.03322" lon="5.20369">
        <ele>287.892387</ele>
        <time>2022-03-12T10:54:27.312Z</time>
      </trkpt>
      <trkpt lat="45.03332" lon="5.20373">
        <ele>287.715577</ele>
        <time>2022-03-12T10:54:31.325Z</time>
      </trkpt>
      <trkpt lat="45.03341" lon="5.20382">
        <ele>287.543894</ele>
        <time>2022-03-12T10:54:35.324Z</time>
      </trkpt>
      <trkpt lat="45.03346" lon="5.20393">
        <ele>287.378242</ele>
        <time>2022-03-12T10:54:39.328Z</time>
      </trkpt>
      <trkpt lat="45.03351" lon="5.20409">
        <ele>287.178568</ele>
        <time>2022-03-12T10:54:43.322Z</time>
      </trkpt>
      <trkpt lat="45.03354" lon="5.20422">
        <ele>287.016424</ele>
        <time>2022-03-12T10:54:45.330Z</time>
      </trkpt>
      <trkpt lat="45.03358" lon="5.2044">
        <ele>286.797907</ele>
        <time>2022-03-12T10:54:47.321Z</time>
      </trkpt>
      <trkpt lat="45.0336" lon="5.2046">
        <ele>286.56014</ele>
        <time>2022-03-12T10:54:49.313Z</time>
      </trkpt>
      <trkpt lat="45.03359" lon="5.20483">
        <ele>285.799133</ele>
        <time>2022-03-12T10:54:51.326Z</time>
      </trkpt>
      <trkpt lat="45.03358" lon="5.20496">
        <ele>285.346498</ele>
        <time>2022-03-12T10:54:52.326Z</time>
      </trkpt>
      <trkpt lat="45.03357" lon="5.20509">
        <ele>284.890345</ele>
        <time>2022-03-12T10:54:53.332Z</time>
      </trkpt>
      <trkpt lat="45.03356" lon="5.20533">
        <ele>284.0365</ele>
        <time>2022-03-12T10:54:55.331Z</time>
      </trkpt>
      <trkpt lat="45.03359" lon="5.20554">
        <ele>283.249773</ele>
        <time>2022-03-12T10:54:57.332Z</time>
      </trkpt>
      <trkpt lat="45.03364" lon="5.20574">
        <ele>282.506747</ele>
        <time>2022-03-12T10:54:59.330Z</time>
      </trkpt>
      <trkpt lat="45.03372" lon="5.2059">
        <ele>281.821296</ele>
        <time>2022-03-12T10:55:01.325Z</time>
      </trkpt>
      <trkpt lat="45.03383" lon="5.20602">
        <ele>281.126187</ele>
        <time>2022-03-12T10:55:03.327Z</time>
      </trkpt>
      <trkpt lat="45.03394" lon="5.20611">
        <ele>280.472997</ele>
        <time>2022-03-12T10:55:05.331Z</time>
      </trkpt>
      <trkpt lat="45.03404" lon="5.2062">
        <ele>279.878541</ele>
        <time>2022-03-12T10:55:07.325Z</time>
      </trkpt>
      <trkpt lat="45.03414" lon="5.20628">
        <ele>279.300879</ele>
        <time>2022-03-12T10:55:09.325Z</time>
      </trkpt>
      <trkpt lat="45.03422" lon="5.20638">
        <ele>278.744865</ele>
        <time>2022-03-12T10:55:11.333Z</time>
      </trkpt>
      <trkpt lat="45.0343" lon="5.2065">
        <ele>278.17273</ele>
        <time>2022-03-12T10:55:13.328Z</time>
      </trkpt>
      <trkpt lat="45.03436" lon="5.20662">
        <ele>277.667037</ele>
        <time>2022-03-12T10:55:15.324Z</time>
      </trkpt>
      <trkpt lat="45.03439" lon="5.20673">
        <ele>277.510496</ele>
        <time>2022-03-12T10:55:17.323Z</time>
      </trkpt>
      <trkpt lat="45.03442" lon="5.20685">
        <ele>277.553129</ele>
        <time>2022-03-12T10:55:19.321Z</time>
      </trkpt>
      <trkpt lat="45.03446" lon="5.20703">
        <ele>277.612599</ele>
        <time>2022-03-12T10:55:22.320Z</time>
      </trkpt>
      <trkpt lat="45.03448" lon="5.20718">
        <ele>277.665351</ele>
        <time>2022-03-12T10:55:25.327Z</time>
      </trkpt>
      <trkpt lat="45.0345" lon="5.20733">
        <ele>277.715394</ele>
        <time>2022-03-12T10:55:28.327Z</time>
      </trkpt>
      <trkpt lat="45.0345" lon="5.20747">
        <ele>277.762501</ele>
        <time>2022-03-12T10:55:31.318Z</time>
      </trkpt>
      <trkpt lat="45.03451" lon="5.2076">
        <ele>277.807609</ele>
        <time>2022-03-12T10:55:34.323Z</time>
      </trkpt>
      <trkpt lat="45.03452" lon="5.20774">
        <ele>277.85257</ele>
        <time>2022-03-12T10:55:37.333Z</time>
      </trkpt>
      <trkpt lat="45.03456" lon="5.20785">
        <ele>277.895433</ele>
        <time>2022-03-12T10:55:40.332Z</time>
      </trkpt>
      <trkpt lat="45.03462" lon="5.20796">
        <ele>277.940635</ele>
        <time>2022-03-12T10:55:44.323Z</time>
      </trkpt>
      <trkpt lat="45.03472" lon="5.20799">
        <ele>277.986987</ele>
        <time>2022-03-12T10:55:51.334Z</time>
      </trkpt>
      <trkpt lat="45.03482" lon="5.20792">
        <ele>278.04151</ele>
        <time>2022-03-12T10:55:55.332Z</time>
      </trkpt>
      <trkpt lat="45.03492" lon="5.20795">
        <ele>278.088064</ele>
        <time>2022-03-12T10:55:58.324Z</time>
      </trkpt>
      <trkpt lat="45.03505" lon="5.20797">
        <ele>278.1488</ele>
        <time>2022-03-12T10:56:01.318Z</time>
      </trkpt>
      <trkpt lat="45.03516" lon="5.20799">
        <ele>278.203736</ele>
        <time>2022-03-12T10:56:03.318Z</time>
      </trkpt>
      <trkpt lat="45.0353" lon="5.208">
        <ele>278.267567</ele>
        <time>2022-03-12T10:56:05.328Z</time>
      </trkpt>
      <trkpt lat="45.03543" lon="5.20799">
        <ele>278.332296</ele>
        <time>2022-03-12T10:56:07.322Z</time>
      </trkpt>
      <trkpt lat="45.03558" lon="5.20797">
        <ele>277.044951</ele>
        <time>2022-03-12T10:56:09.334Z</time>
      </trkpt>
      <trkpt lat="45.03573" lon="5.20794">
        <ele>275.623439</ele>
        <time>2022-03-12T10:56:11.331Z</time>
      </trkpt>
      <trkpt lat="45.03588" lon="5.20791">
        <ele>274.234441</ele>
        <time>2022-03-12T10:56:13.330Z</time>
      </trkpt>
      <trkpt lat="45.03604" lon="5.20789">
        <ele>272.827582</ele>
        <time>2022-03-12T10:56:15.329Z</time>
      </trkpt>
      <trkpt lat="45.03619" lon="5.20791">
        <ele>271.445967</ele>
        <time>2022-03-12T10:56:17.328Z</time>
      </trkpt>
      <trkpt lat="45.03634" lon="5.20795">
        <ele>270.057367</ele>
        <time>2022-03-12T10:56:19.326Z</time>
      </trkpt>
      <trkpt lat="45.03647" lon="5.20797">
        <ele>268.832236</ele>
        <time>2022-03-12T10:56:21.331Z</time>
      </trkpt>
      <trkpt lat="45.03659" lon="5.20792">
        <ele>267.687287</ele>
        <time>2022-03-12T10:56:23.313Z</time>
      </trkpt>
      <trkpt lat="45.03669" lon="5.20779">
        <ele>266.504537</ele>
        <time>2022-03-12T10:56:25.318Z</time>
      </trkpt>
      <trkpt lat="45.03675" lon="5.20761">
        <ele>265.170829</ele>
        <time>2022-03-12T10:56:27.321Z</time>
      </trkpt>
      <trkpt lat="45.03681" lon="5.20738">
        <ele>263.63686</ele>
        <time>2022-03-12T10:56:29.323Z</time>
      </trkpt>
      <trkpt lat="45.03692" lon="5.2072">
        <ele>262.069727</ele>
        <time>2022-03-12T10:56:31.320Z</time>
      </trkpt>
      <trkpt lat="45.03708" lon="5.20709">
        <ele>260.656434</ele>
        <time>2022-03-12T10:56:33.327Z</time>
      </trkpt>
      <trkpt lat="45.03717" lon="5.20704">
        <ele>259.903551</ele>
        <time>2022-03-12T10:56:34.322Z</time>
      </trkpt>
      <trkpt lat="45.03726" lon="5.20697">
        <ele>259.131015</ele>
        <time>2022-03-12T10:56:35.324Z</time>
      </trkpt>
      <trkpt lat="45.03734" lon="5.20689">
        <ele>258.358588</ele>
        <time>2022-03-12T10:56:36.336Z</time>
      </trkpt>
      <trkpt lat="45.03741" lon="5.2068">
        <ele>257.592875</ele>
        <time>2022-03-12T10:56:37.330Z</time>
      </trkpt>
      <trkpt lat="45.03749" lon="5.2067">
        <ele>256.816383</ele>
        <time>2022-03-12T10:56:38.328Z</time>
      </trkpt>
      <trkpt lat="45.03756" lon="5.2066">
        <ele>256.045762</ele>
        <time>2022-03-12T10:56:39.326Z</time>
      </trkpt>
      <trkpt lat="45.03763" lon="5.20651">
        <ele>255.267872</ele>
        <time>2022-03-12T10:56:40.332Z</time>
      </trkpt>
      <trkpt lat="45.03771" lon="5.20641">
        <ele>254.484086</ele>
        <time>2022-03-12T10:56:41.330Z</time>
      </trkpt>
      <trkpt lat="45.03779" lon="5.20632">
        <ele>253.669241</ele>
        <time>2022-03-12T10:56:42.327Z</time>
      </trkpt>
      <trkpt lat="45.03787" lon="5.20624">
        <ele>252.871286</ele>
        <time>2022-03-12T10:56:43.323Z</time>
      </trkpt>
      <trkpt lat="45.03796" lon="5.20616">
        <ele>252.065641</ele>
        <time>2022-03-12T10:56:44.315Z</time>
      </trkpt>
      <trkpt lat="45.03805" lon="5.20608">
        <ele>251.230527</ele>
        <time>2022-03-12T10:56:45.324Z</time>
      </trkpt>
      <trkpt lat="45.03815" lon="5.20601">
        <ele>250.399731</ele>
        <time>2022-03-12T10:56:46.319Z</time>
      </trkpt>
      <trkpt lat="45.03824" lon="5.20594">
        <ele>249.578059</ele>
        <time>2022-03-12T10:56:47.323Z</time>
      </trkpt>
      <trkpt lat="45.03834" lon="5.20588">
        <ele>248.756388</ele>
        <time>2022-03-12T10:56:48.321Z</time>
      </trkpt>
      <trkpt lat="45.03843" lon="5.20581">
        <ele>247.953177</ele>
        <time>2022-03-12T10:56:49.318Z</time>
      </trkpt>
      <trkpt lat="45.03851" lon="5.20572">
        <ele>247.506708</ele>
        <time>2022-03-12T10:56:50.330Z</time>
      </trkpt>
      <trkpt lat="45.03857" lon="5.2056">
        <ele>247.056368</ele>
        <time>2022-03-12T10:56:51.326Z</time>
      </trkpt>
      <trkpt lat="45.03861" lon="5.20546">
        <ele>246.609569</ele>
        <time>2022-03-12T10:56:52.328Z</time>
      </trkpt>
      <trkpt lat="45.03863" lon="5.20533">
        <ele>246.172039</ele>
        <time>2022-03-12T10:56:53.318Z</time>
      </trkpt>
      <trkpt lat="45.03866" lon="5.2052">
        <ele>245.765748</ele>
        <time>2022-03-12T10:56:54.321Z</time>
      </trkpt>
      <trkpt lat="45.0387" lon="5.20509">
        <ele>245.374607</ele>
        <time>2022-03-12T10:56:55.332Z</time>
      </trkpt>
      <trkpt lat="45.03882" lon="5.20496">
        <ele>244.721499</ele>
        <time>2022-03-12T10:56:57.332Z</time>
      </trkpt>
      <trkpt lat="45.03897" lon="5.20493">
        <ele>244.090026</ele>
        <time>2022-03-12T10:56:59.332Z</time>
      </trkpt>
      <trkpt lat="45.03911" lon="5.20492">
        <ele>243.477637</ele>
        <time>2022-03-12T10:57:01.332Z</time>
      </trkpt>
      <trkpt lat="45.03924" lon="5.2049">
        <ele>242.894885</ele>
        <time>2022-03-12T10:57:03.331Z</time>
      </trkpt>
      <trkpt lat="45.03938" lon="5.20489">
        <ele>242.308259</ele>
        <time>2022-03-12T10:57:05.332Z</time>
      </trkpt>
      <trkpt lat="45.03951" lon="5.20487">
        <ele>241.743034</ele>
        <time>2022-03-12T10:57:07.331Z</time>
      </trkpt>
      <trkpt lat="45.03963" lon="5.20486">
        <ele>241.195741</ele>
        <time>2022-03-12T10:57:09.328Z</time>
      </trkpt>
      <trkpt lat="45.03975" lon="5.20483">
        <ele>240.663295</ele>
        <time>2022-03-12T10:57:11.328Z</time>
      </trkpt>
      <trkpt lat="45.03987" lon="5.20475">
        <ele>240.117999</ele>
        <time>2022-03-12T10:57:13.322Z</time>
      </trkpt>
      <trkpt lat="45.03995" lon="5.2046">
        <ele>239.530855</ele>
        <time>2022-03-12T10:57:15.322Z</time>
      </trkpt>
      <trkpt lat="45.03998" lon="5.20441">
        <ele>238.932696</ele>
        <time>2022-03-12T10:57:17.334Z</time>
      </trkpt>
      <trkpt lat="45.04" lon="5.20422">
        <ele>238.32493</ele>
        <time>2022-03-12T10:57:19.326Z</time>
      </trkpt>
      <trkpt lat="45.04" lon="5.20403">
        <ele>237.719881</ele>
        <time>2022-03-12T10:57:21.331Z</time>
      </trkpt>
      <trkpt lat="45.03996" lon="5.20384">
        <ele>237.092803</ele>
        <time>2022-03-12T10:57:23.330Z</time>
      </trkpt>
      <trkpt lat="45.03989" lon="5.20366">
        <ele>236.437111</ele>
        <time>2022-03-12T10:57:25.328Z</time>
      </trkpt>
      <trkpt lat="45.03979" lon="5.2035">
        <ele>235.775727</ele>
        <time>2022-03-12T10:57:27.332Z</time>
      </trkpt>
      <trkpt lat="45.03968" lon="5.20335">
        <ele>235.08258</ele>
        <time>2022-03-12T10:57:29.319Z</time>
      </trkpt>
      <trkpt lat="45.03955" lon="5.20321">
        <ele>234.38686</ele>
        <time>2022-03-12T10:57:31.324Z</time>
      </trkpt>
      <trkpt lat="45.03943" lon="5.20309">
        <ele>233.716964</ele>
        <time>2022-03-12T10:57:33.329Z</time>
      </trkpt>
      <trkpt lat="45.03932" lon="5.20297">
        <ele>233.068904</ele>
        <time>2022-03-12T10:57:35.323Z</time>
      </trkpt>
      <trkpt lat="45.03922" lon="5.20284">
        <ele>232.474222</ele>
        <time>2022-03-12T10:57:37.325Z</time>
      </trkpt>
      <trkpt lat="45.03914" lon="5.2027">
        <ele>232.190577</ele>
        <time>2022-03-12T10:57:39.329Z</time>
      </trkpt>
      <trkpt lat="45.03908" lon="5.20256">
        <ele>232.289138</ele>
        <time>2022-03-12T10:57:41.325Z</time>
      </trkpt>
      <trkpt lat="45.03902" lon="5.20242">
        <ele>232.383032</ele>
        <time>2022-03-12T10:57:43.331Z</time>
      </trkpt>
      <trkpt lat="45.03896" lon="5.20229">
        <ele>232.472157</ele>
        <time>2022-03-12T10:57:45.326Z</time>
      </trkpt>
      <trkpt lat="45.03891" lon="5.20216">
        <ele>232.556242</ele>
        <time>2022-03-12T10:57:47.327Z</time>
      </trkpt>
      <trkpt lat="45.03886" lon="5.20204">
        <ele>232.63698</ele>
        <time>2022-03-12T10:57:49.332Z</time>
      </trkpt>
      <trkpt lat="45.03881" lon="5.20193">
        <ele>232.714648</ele>
        <time>2022-03-12T10:57:51.317Z</time>
      </trkpt>
      <trkpt lat="45.03876" lon="5.20182">
        <ele>232.790618</ele>
        <time>2022-03-12T10:57:53.322Z</time>
      </trkpt>
      <trkpt lat="45.03872" lon="5.20171">
        <ele>232.864663</ele>
        <time>2022-03-12T10:57:55.323Z</time>
      </trkpt>
      <trkpt lat="45.03867" lon="5.2016">
        <ele>232.939547</ele>
        <time>2022-03-12T10:57:57.319Z</time>
      </trkpt>
      <trkpt lat="45.03862" lon="5.2015">
        <ele>233.01429</ele>
        <time>2022-03-12T10:57:59.328Z</time>
      </trkpt>
      <trkpt lat="45.03855" lon="5.2014">
        <ele>233.091847</ele>
        <time>2022-03-12T10:58:01.327Z</time>
      </trkpt>
      <trkpt lat="45.03844" lon="5.2013">
        <ele>233.200879</ele>
        <time>2022-03-12T10:58:04.323Z</time>
      </trkpt>
      <trkpt lat="45.03834" lon="5.20119">
        <ele>233.305947</ele>
        <time>2022-03-12T10:58:07.324Z</time>
      </trkpt>
      <trkpt lat="45.03824" lon="5.20109">
        <ele>233.407259</ele>
        <time>2022-03-12T10:58:10.328Z</time>
      </trkpt>
      <trkpt lat="45.03814" lon="5.20099">
        <ele>233.505851</ele>
        <time>2022-03-12T10:58:13.315Z</time>
      </trkpt>
      <trkpt lat="45.03806" lon="5.2009">
        <ele>233.590567</ele>
        <time>2022-03-12T10:58:16.313Z</time>
      </trkpt>
      <trkpt lat="45.03807" lon="5.20076">
        <ele>233.667769</ele>
        <time>2022-03-12T10:58:20.331Z</time>
      </trkpt>
      <trkpt lat="45.03811" lon="5.20064">
        <ele>233.738937</ele>
        <time>2022-03-12T10:58:23.329Z</time>
      </trkpt>
      <trkpt lat="45.03815" lon="5.2005">
        <ele>233.821254</ele>
        <time>2022-03-12T10:58:26.338Z</time>
      </trkpt>
      <trkpt lat="45.03819" lon="5.20033">
        <ele>233.921083</ele>
        <time>2022-03-12T10:58:29.317Z</time>
      </trkpt>
      <trkpt lat="45.03822" lon="5.2002">
        <ele>233.993251</ele>
        <time>2022-03-12T10:58:31.332Z</time>
      </trkpt>
      <trkpt lat="45.03825" lon="5.20007">
        <ele>234.068475</ele>
        <time>2022-03-12T10:58:33.330Z</time>
      </trkpt>
      <trkpt lat="45.03828" lon="5.19992">
        <ele>234.15065</ele>
        <time>2022-03-12T10:58:35.329Z</time>
      </trkpt>
      <trkpt lat="45.03831" lon="5.19977">
        <ele>234.235763</ele>
        <time>2022-03-12T10:58:37.326Z</time>
      </trkpt>
      <trkpt lat="45.03835" lon="5.19962">
        <ele>234.322981</ele>
        <time>2022-03-12T10:58:39.330Z</time>
      </trkpt>
      <trkpt lat="45.0384" lon="5.19948">
        <ele>234.407159</ele>
        <time>2022-03-12T10:58:41.331Z</time>
      </trkpt>
      <trkpt lat="45.03847" lon="5.19939">
        <ele>234.477046</ele>
        <time>2022-03-12T10:58:43.329Z</time>
      </trkpt>
      <trkpt lat="45.03857" lon="5.19942">
        <ele>234.554477</ele>
        <time>2022-03-12T10:58:45.328Z</time>
      </trkpt>
      <trkpt lat="45.03866" lon="5.19949">
        <ele>234.633566</ele>
        <time>2022-03-12T10:58:47.318Z</time>
      </trkpt>
      <trkpt lat="45.03877" lon="5.19954">
        <ele>234.722886</ele>
        <time>2022-03-12T10:58:50.318Z</time>
      </trkpt>
      <trkpt lat="45.03886" lon="5.19963">
        <ele>234.803497</ele>
        <time>2022-03-12T10:58:54.321Z</time>
      </trkpt>
      <trkpt lat="45.03877" lon="5.19969">
        <ele>234.880057</ele>
        <time>2022-03-12T10:59:04.315Z</time>
      </trkpt>
      <trkpt lat="45.03867" lon="5.1997">
        <ele>234.952073</ele>
        <time>2022-03-12T10:59:11.322Z</time>
      </trkpt>
      <trkpt lat="45.03874" lon="5.19962">
        <ele>234.954159</ele>
        <time>2022-03-12T11:41:25.324Z</time>
      </trkpt>
      <trkpt lat="45.03881" lon="5.19953">
        <ele>234.787989</ele>
        <time>2022-03-12T11:41:29.316Z</time>
      </trkpt>
      <trkpt lat="45.03888" lon="5.19946">
        <ele>234.622177</ele>
        <time>2022-03-12T11:41:32.324Z</time>
      </trkpt>
      <trkpt lat="45.03893" lon="5.19933">
        <ele>234.434932</ele>
        <time>2022-03-12T11:41:35.325Z</time>
      </trkpt>
      <trkpt lat="45.03898" lon="5.19919">
        <ele>234.239714</ele>
        <time>2022-03-12T11:41:38.333Z</time>
      </trkpt>
      <trkpt lat="45.03903" lon="5.19905">
        <ele>234.034708</ele>
        <time>2022-03-12T11:41:41.327Z</time>
      </trkpt>
      <trkpt lat="45.03908" lon="5.1989">
        <ele>233.818814</ele>
        <time>2022-03-12T11:41:44.335Z</time>
      </trkpt>
      <trkpt lat="45.03913" lon="5.19875">
        <ele>233.610739</ele>
        <time>2022-03-12T11:41:47.325Z</time>
      </trkpt>
      <trkpt lat="45.03917" lon="5.1986">
        <ele>233.402768</ele>
        <time>2022-03-12T11:41:50.327Z</time>
      </trkpt>
      <trkpt lat="45.03921" lon="5.19845">
        <ele>233.191009</ele>
        <time>2022-03-12T11:41:53.330Z</time>
      </trkpt>
      <trkpt lat="45.03926" lon="5.19831">
        <ele>232.992097</ele>
        <time>2022-03-12T11:41:56.322Z</time>
      </trkpt>
      <trkpt lat="45.0393" lon="5.19818">
        <ele>232.799947</ele>
        <time>2022-03-12T11:41:59.329Z</time>
      </trkpt>
      <trkpt lat="45.03935" lon="5.19805">
        <ele>232.608121</ele>
        <time>2022-03-12T11:42:02.316Z</time>
      </trkpt>
      <trkpt lat="45.03939" lon="5.19793">
        <ele>232.437396</ele>
        <time>2022-03-12T11:42:05.325Z</time>
      </trkpt>
      <trkpt lat="45.03943" lon="5.19781">
        <ele>232.270841</ele>
        <time>2022-03-12T11:42:09.329Z</time>
      </trkpt>
      <trkpt lat="45.03946" lon="5.19765">
        <ele>232.056883</ele>
        <time>2022-03-12T11:42:16.313Z</time>
      </trkpt>
      <trkpt lat="45.03952" lon="5.19752">
        <ele>231.854933</ele>
        <time>2022-03-12T11:42:19.325Z</time>
      </trkpt>
      <trkpt lat="45.03957" lon="5.19737">
        <ele>231.595623</ele>
        <time>2022-03-12T11:42:22.310Z</time>
      </trkpt>
      <trkpt lat="45.03962" lon="5.19722">
        <ele>231.23265</ele>
        <time>2022-03-12T11:42:25.329Z</time>
      </trkpt>
      <trkpt lat="45.03966" lon="5.19704">
        <ele>230.800978</ele>
        <time>2022-03-12T11:42:28.327Z</time>
      </trkpt>
      <trkpt lat="45.03971" lon="5.19686">
        <ele>230.371461</ele>
        <time>2022-03-12T11:42:31.324Z</time>
      </trkpt>
      <trkpt lat="45.03974" lon="5.19674">
        <ele>230.081083</ele>
        <time>2022-03-12T11:42:33.319Z</time>
      </trkpt>
      <trkpt lat="45.03978" lon="5.19662">
        <ele>229.782828</ele>
        <time>2022-03-12T11:42:35.315Z</time>
      </trkpt>
      <trkpt lat="45.03982" lon="5.19649">
        <ele>229.467007</ele>
        <time>2022-03-12T11:42:37.327Z</time>
      </trkpt>
      <trkpt lat="45.03987" lon="5.19636">
        <ele>229.153332</ele>
        <time>2022-03-12T11:42:39.332Z</time>
      </trkpt>
      <trkpt lat="45.03991" lon="5.19623">
        <ele>228.838872</ele>
        <time>2022-03-12T11:42:41.334Z</time>
      </trkpt>
      <trkpt lat="45.03996" lon="5.1961">
        <ele>228.508411</ele>
        <time>2022-03-12T11:42:43.328Z</time>
      </trkpt>
      <trkpt lat="45.04" lon="5.19597">
        <ele>228.183152</ele>
        <time>2022-03-12T11:42:45.330Z</time>
      </trkpt>
      <trkpt lat="45.04004" lon="5.19583">
        <ele>227.857091</ele>
        <time>2022-03-12T11:42:47.329Z</time>
      </trkpt>
      <trkpt lat="45.04008" lon="5.1957">
        <ele>227.533886</ele>
        <time>2022-03-12T11:42:49.332Z</time>
      </trkpt>
      <trkpt lat="45.04013" lon="5.19557">
        <ele>227.206785</ele>
        <time>2022-03-12T11:42:51.328Z</time>
      </trkpt>
      <trkpt lat="45.04016" lon="5.19544">
        <ele>226.892754</ele>
        <time>2022-03-12T11:42:53.325Z</time>
      </trkpt>
      <trkpt lat="45.04021" lon="5.19531">
        <ele>226.574313</ele>
        <time>2022-03-12T11:42:55.330Z</time>
      </trkpt>
      <trkpt lat="45.04025" lon="5.19517">
        <ele>226.243853</ele>
        <time>2022-03-12T11:42:57.323Z</time>
      </trkpt>
      <trkpt lat="45.0403" lon="5.19503">
        <ele>225.963601</ele>
        <time>2022-03-12T11:42:59.322Z</time>
      </trkpt>
      <trkpt lat="45.04034" lon="5.19489">
        <ele>225.781186</ele>
        <time>2022-03-12T11:43:01.335Z</time>
      </trkpt>
      <trkpt lat="45.04039" lon="5.19474">
        <ele>225.599154</ele>
        <time>2022-03-12T11:43:03.328Z</time>
      </trkpt>
      <trkpt lat="45.04044" lon="5.1946">
        <ele>225.408631</ele>
        <time>2022-03-12T11:43:05.327Z</time>
      </trkpt>
      <trkpt lat="45.04049" lon="5.19445">
        <ele>225.215364</ele>
        <time>2022-03-12T11:43:07.343Z</time>
      </trkpt>
      <trkpt lat="45.04055" lon="5.19429">
        <ele>225.01429</ele>
        <time>2022-03-12T11:43:09.320Z</time>
      </trkpt>
      <trkpt lat="45.0406" lon="5.19414">
        <ele>224.817856</ele>
        <time>2022-03-12T11:43:11.330Z</time>
      </trkpt>
      <trkpt lat="45.04064" lon="5.19399">
        <ele>224.623848</ele>
        <time>2022-03-12T11:43:13.317Z</time>
      </trkpt>
      <trkpt lat="45.04069" lon="5.19383">
        <ele>224.424083</ele>
        <time>2022-03-12T11:43:15.325Z</time>
      </trkpt>
      <trkpt lat="45.04072" lon="5.19366">
        <ele>224.219075</ele>
        <time>2022-03-12T11:43:17.324Z</time>
      </trkpt>
      <trkpt lat="45.04074" lon="5.19349">
        <ele>224.01646</ele>
        <time>2022-03-12T11:43:19.323Z</time>
      </trkpt>
      <trkpt lat="45.04074" lon="5.19331">
        <ele>223.80898</ele>
        <time>2022-03-12T11:43:21.333Z</time>
      </trkpt>
      <trkpt lat="45.04074" lon="5.19314">
        <ele>223.607217</ele>
        <time>2022-03-12T11:43:23.328Z</time>
      </trkpt>
      <trkpt lat="45.04073" lon="5.19297">
        <ele>223.40912</ele>
        <time>2022-03-12T11:43:25.330Z</time>
      </trkpt>
      <trkpt lat="45.0407" lon="5.1928">
        <ele>223.209711</ele>
        <time>2022-03-12T11:43:27.318Z</time>
      </trkpt>
      <trkpt lat="45.04068" lon="5.19263">
        <ele>222.975803</ele>
        <time>2022-03-12T11:43:29.326Z</time>
      </trkpt>
      <trkpt lat="45.04065" lon="5.19247">
        <ele>222.672871</ele>
        <time>2022-03-12T11:43:31.324Z</time>
      </trkpt>
      <trkpt lat="45.04063" lon="5.19231">
        <ele>222.381177</ele>
        <time>2022-03-12T11:43:33.323Z</time>
      </trkpt>
      <trkpt lat="45.04061" lon="5.19215">
        <ele>222.089383</ele>
        <time>2022-03-12T11:43:35.332Z</time>
      </trkpt>
      <trkpt lat="45.04061" lon="5.19198">
        <ele>221.800654</ele>
        <time>2022-03-12T11:43:37.327Z</time>
      </trkpt>
      <trkpt lat="45.04061" lon="5.19182">
        <ele>221.513408</ele>
        <time>2022-03-12T11:43:39.328Z</time>
      </trkpt>
      <trkpt lat="45.04063" lon="5.19166">
        <ele>221.226899</ele>
        <time>2022-03-12T11:43:41.329Z</time>
      </trkpt>
      <trkpt lat="45.04066" lon="5.1915">
        <ele>220.933816</ele>
        <time>2022-03-12T11:43:43.335Z</time>
      </trkpt>
      <trkpt lat="45.0407" lon="5.19135">
        <ele>220.638943</ele>
        <time>2022-03-12T11:43:45.331Z</time>
      </trkpt>
      <trkpt lat="45.04075" lon="5.1912">
        <ele>220.345341</ele>
        <time>2022-03-12T11:43:47.329Z</time>
      </trkpt>
      <trkpt lat="45.04082" lon="5.19106">
        <ele>220.039719</ele>
        <time>2022-03-12T11:43:49.325Z</time>
      </trkpt>
      <trkpt lat="45.0409" lon="5.19093">
        <ele>219.730195</ele>
        <time>2022-03-12T11:43:51.320Z</time>
      </trkpt>
      <trkpt lat="45.041" lon="5.19082">
        <ele>219.412656</ele>
        <time>2022-03-12T11:43:53.335Z</time>
      </trkpt>
      <trkpt lat="45.0411" lon="5.1907">
        <ele>219.091106</ele>
        <time>2022-03-12T11:43:55.332Z</time>
      </trkpt>
      <trkpt lat="45.0412" lon="5.19061">
        <ele>218.778997</ele>
        <time>2022-03-12T11:43:57.320Z</time>
      </trkpt>
      <trkpt lat="45.04131" lon="5.19052">
        <ele>218.573244</ele>
        <time>2022-03-12T11:43:59.324Z</time>
      </trkpt>
      <trkpt lat="45.04141" lon="5.19042">
        <ele>218.710196</ele>
        <time>2022-03-12T11:44:01.327Z</time>
      </trkpt>
      <trkpt lat="45.04151" lon="5.19031">
        <ele>218.847597</ele>
        <time>2022-03-12T11:44:03.325Z</time>
      </trkpt>
      <trkpt lat="45.04162" lon="5.19021">
        <ele>218.986789</ele>
        <time>2022-03-12T11:44:05.323Z</time>
      </trkpt>
      <trkpt lat="45.04172" lon="5.1901">
        <ele>219.122422</ele>
        <time>2022-03-12T11:44:07.336Z</time>
      </trkpt>
      <trkpt lat="45.04181" lon="5.19001">
        <ele>219.246882</ele>
        <time>2022-03-12T11:44:09.333Z</time>
      </trkpt>
      <trkpt lat="45.0419" lon="5.18991">
        <ele>219.371942</ele>
        <time>2022-03-12T11:44:12.317Z</time>
      </trkpt>
      <trkpt lat="45.04179" lon="5.18995">
        <ele>219.490207</ele>
        <time>2022-03-12T11:44:19.323Z</time>
      </trkpt>
      <trkpt lat="45.04171" lon="5.19005">
        <ele>219.616009</ele>
        <time>2022-03-12T11:44:22.327Z</time>
      </trkpt>
      <trkpt lat="45.04162" lon="5.19015">
        <ele>219.737447</ele>
        <time>2022-03-12T11:44:25.320Z</time>
      </trkpt>
      <trkpt lat="45.04153" lon="5.19024">
        <ele>219.855825</ele>
        <time>2022-03-12T11:44:28.327Z</time>
      </trkpt>
      <trkpt lat="45.04144" lon="5.19034">
        <ele>219.977201</ele>
        <time>2022-03-12T11:44:31.335Z</time>
      </trkpt>
      <trkpt lat="45.04136" lon="5.19042">
        <ele>220.087874</ele>
        <time>2022-03-12T11:44:34.315Z</time>
      </trkpt>
      <trkpt lat="45.04128" lon="5.19051">
        <ele>220.200737</ele>
        <time>2022-03-12T11:44:37.322Z</time>
      </trkpt>
      <trkpt lat="45.0412" lon="5.1906">
        <ele>220.311876</ele>
        <time>2022-03-12T11:44:40.326Z</time>
      </trkpt>
      <trkpt lat="45.04111" lon="5.19069">
        <ele>220.43104</ele>
        <time>2022-03-12T11:44:43.326Z</time>
      </trkpt>
      <trkpt lat="45.04103" lon="5.19079">
        <ele>220.513413</ele>
        <time>2022-03-12T11:44:46.327Z</time>
      </trkpt>
      <trkpt lat="45.04094" lon="5.19089">
        <ele>220.52907</ele>
        <time>2022-03-12T11:44:49.319Z</time>
      </trkpt>
      <trkpt lat="45.04086" lon="5.19099">
        <ele>220.544855</ele>
        <time>2022-03-12T11:44:52.328Z</time>
      </trkpt>
      <trkpt lat="45.04079" lon="5.19111">
        <ele>220.56052</ele>
        <time>2022-03-12T11:44:55.331Z</time>
      </trkpt>
      <trkpt lat="45.04073" lon="5.19125">
        <ele>220.576423</ele>
        <time>2022-03-12T11:44:58.332Z</time>
      </trkpt>
      <trkpt lat="45.04068" lon="5.19138">
        <ele>220.592184</ele>
        <time>2022-03-12T11:45:01.328Z</time>
      </trkpt>
      <trkpt lat="45.0406" lon="5.19148">
        <ele>220.606438</ele>
        <time>2022-03-12T11:45:04.317Z</time>
      </trkpt>
      <trkpt lat="45.0405" lon="5.19148">
        <ele>220.620925</ele>
        <time>2022-03-12T11:45:07.321Z</time>
      </trkpt>
      <trkpt lat="45.04041" lon="5.19136">
        <ele>220.639145</ele>
        <time>2022-03-12T11:45:10.323Z</time>
      </trkpt>
      <trkpt lat="45.04038" lon="5.19121">
        <ele>220.654376</ele>
        <time>2022-03-12T11:45:12.328Z</time>
      </trkpt>
      <trkpt lat="45.04036" lon="5.19106">
        <ele>220.670189</ele>
        <time>2022-03-12T11:45:14.326Z</time>
      </trkpt>
      <trkpt lat="45.04033" lon="5.1909">
        <ele>220.686407</ele>
        <time>2022-03-12T11:45:16.323Z</time>
      </trkpt>
      <trkpt lat="45.04031" lon="5.19075">
        <ele>220.702352</ele>
        <time>2022-03-12T11:45:18.327Z</time>
      </trkpt>
      <trkpt lat="45.04028" lon="5.19059">
        <ele>220.718794</ele>
        <time>2022-03-12T11:45:20.327Z</time>
      </trkpt>
      <trkpt lat="45.04025" lon="5.19044">
        <ele>220.734515</ele>
        <time>2022-03-12T11:45:22.329Z</time>
      </trkpt>
      <trkpt lat="45.04023" lon="5.19029">
        <ele>220.750166</ele>
        <time>2022-03-12T11:45:24.322Z</time>
      </trkpt>
      <trkpt lat="45.0402" lon="5.19014">
        <ele>220.761391</ele>
        <time>2022-03-12T11:45:26.332Z</time>
      </trkpt>
      <trkpt lat="45.04017" lon="5.18999">
        <ele>220.558193</ele>
        <time>2022-03-12T11:45:28.329Z</time>
      </trkpt>
      <trkpt lat="45.04015" lon="5.18984">
        <ele>220.35505</ele>
        <time>2022-03-12T11:45:30.321Z</time>
      </trkpt>
      <trkpt lat="45.04013" lon="5.18969">
        <ele>220.156875</ele>
        <time>2022-03-12T11:45:32.330Z</time>
      </trkpt>
      <trkpt lat="45.0401" lon="5.18953">
        <ele>219.951621</ele>
        <time>2022-03-12T11:45:34.321Z</time>
      </trkpt>
      <trkpt lat="45.04007" lon="5.18938">
        <ele>219.750572</ele>
        <time>2022-03-12T11:45:36.326Z</time>
      </trkpt>
      <trkpt lat="45.04004" lon="5.18923">
        <ele>219.54891</ele>
        <time>2022-03-12T11:45:38.328Z</time>
      </trkpt>
      <trkpt lat="45.04001" lon="5.18907">
        <ele>219.335048</ele>
        <time>2022-03-12T11:45:40.328Z</time>
      </trkpt>
      <trkpt lat="45.03998" lon="5.18891">
        <ele>219.120564</ele>
        <time>2022-03-12T11:45:42.331Z</time>
      </trkpt>
      <trkpt lat="45.03995" lon="5.18875">
        <ele>218.903923</ele>
        <time>2022-03-12T11:45:44.323Z</time>
      </trkpt>
      <trkpt lat="45.03993" lon="5.18859">
        <ele>218.688157</ele>
        <time>2022-03-12T11:45:46.312Z</time>
      </trkpt>
      <trkpt lat="45.0399" lon="5.18843">
        <ele>218.473654</ele>
        <time>2022-03-12T11:45:48.317Z</time>
      </trkpt>
      <trkpt lat="45.03987" lon="5.18826">
        <ele>218.253258</ele>
        <time>2022-03-12T11:45:50.325Z</time>
      </trkpt>
      <trkpt lat="45.03984" lon="5.1881">
        <ele>218.032861</ele>
        <time>2022-03-12T11:45:52.329Z</time>
      </trkpt>
      <trkpt lat="45.03981" lon="5.18793">
        <ele>217.809957</ele>
        <time>2022-03-12T11:45:54.321Z</time>
      </trkpt>
      <trkpt lat="45.03978" lon="5.18776">
        <ele>217.58956</ele>
        <time>2022-03-12T11:45:56.328Z</time>
      </trkpt>
      <trkpt lat="45.03975" lon="5.1876">
        <ele>217.455337</ele>
        <time>2022-03-12T11:45:58.325Z</time>
      </trkpt>
      <trkpt lat="45.03973" lon="5.18744">
        <ele>217.417262</ele>
        <time>2022-03-12T11:46:00.323Z</time>
      </trkpt>
      <trkpt lat="45.0397" lon="5.18728">
        <ele>217.378821</ele>
        <time>2022-03-12T11:46:02.329Z</time>
      </trkpt>
      <trkpt lat="45.03968" lon="5.18712">
        <ele>217.33963</ele>
        <time>2022-03-12T11:46:04.326Z</time>
      </trkpt>
      <trkpt lat="45.03964" lon="5.18695">
        <ele>217.299913</ele>
        <time>2022-03-12T11:46:06.322Z</time>
      </trkpt>
      <trkpt lat="45.03959" lon="5.1868">
        <ele>217.261137</ele>
        <time>2022-03-12T11:46:08.332Z</time>
      </trkpt>
      <trkpt lat="45.03954" lon="5.18665">
        <ele>217.222897</ele>
        <time>2022-03-12T11:46:10.325Z</time>
      </trkpt>
      <trkpt lat="45.03949" lon="5.18651">
        <ele>217.186185</ele>
        <time>2022-03-12T11:46:12.328Z</time>
      </trkpt>
      <trkpt lat="45.03944" lon="5.18637">
        <ele>217.149433</ele>
        <time>2022-03-12T11:46:14.331Z</time>
      </trkpt>
      <trkpt lat="45.03939" lon="5.18623">
        <ele>217.112972</ele>
        <time>2022-03-12T11:46:16.324Z</time>
      </trkpt>
      <trkpt lat="45.03933" lon="5.1861">
        <ele>217.077373</ele>
        <time>2022-03-12T11:46:18.324Z</time>
      </trkpt>
      <trkpt lat="45.03927" lon="5.18597">
        <ele>217.041405</ele>
        <time>2022-03-12T11:46:20.329Z</time>
      </trkpt>
      <trkpt lat="45.03921" lon="5.18583">
        <ele>217.00524</ele>
        <time>2022-03-12T11:46:22.328Z</time>
      </trkpt>
      <trkpt lat="45.03915" lon="5.18571">
        <ele>216.969513</ele>
        <time>2022-03-12T11:46:24.327Z</time>
      </trkpt>
      <trkpt lat="45.03909" lon="5.1856">
        <ele>216.936953</ele>
        <time>2022-03-12T11:46:26.321Z</time>
      </trkpt>
      <trkpt lat="45.03903" lon="5.18549">
        <ele>216.905706</ele>
        <time>2022-03-12T11:46:28.327Z</time>
      </trkpt>
      <trkpt lat="45.03896" lon="5.1854">
        <ele>216.878256</ele>
        <time>2022-03-12T11:46:30.328Z</time>
      </trkpt>
      <trkpt lat="45.03887" lon="5.18528">
        <ele>216.848886</ele>
        <time>2022-03-12T11:46:33.332Z</time>
      </trkpt>
      <trkpt lat="45.03878" lon="5.18516">
        <ele>216.820199</ele>
        <time>2022-03-12T11:46:36.325Z</time>
      </trkpt>
      <trkpt lat="45.0387" lon="5.18505">
        <ele>216.793743</ele>
        <time>2022-03-12T11:46:39.316Z</time>
      </trkpt>
      <trkpt lat="45.03862" lon="5.18495">
        <ele>216.768366</ele>
        <time>2022-03-12T11:46:42.324Z</time>
      </trkpt>
      <trkpt lat="45.03853" lon="5.18486">
        <ele>216.742681</ele>
        <time>2022-03-12T11:46:45.325Z</time>
      </trkpt>
      <trkpt lat="45.03844" lon="5.18479">
        <ele>216.718184</ele>
        <time>2022-03-12T11:46:48.326Z</time>
      </trkpt>
      <trkpt lat="45.03835" lon="5.18471">
        <ele>216.692959</ele>
        <time>2022-03-12T11:46:51.326Z</time>
      </trkpt>
      <trkpt lat="45.03825" lon="5.18463">
        <ele>216.665313</ele>
        <time>2022-03-12T11:46:54.329Z</time>
      </trkpt>
      <trkpt lat="45.03814" lon="5.18454">
        <ele>216.635922</ele>
        <time>2022-03-12T11:46:57.324Z</time>
      </trkpt>
      <trkpt lat="45.03804" lon="5.18441">
        <ele>216.604034</ele>
        <time>2022-03-12T11:47:00.327Z</time>
      </trkpt>
      <trkpt lat="45.038" lon="5.18428">
        <ele>216.58023</ele>
        <time>2022-03-12T11:47:02.320Z</time>
      </trkpt>
      <trkpt lat="45.03799" lon="5.18412">
        <ele>216.55374</ele>
        <time>2022-03-12T11:47:04.325Z</time>
      </trkpt>
      <trkpt lat="45.03798" lon="5.18395">
        <ele>216.525019</ele>
        <time>2022-03-12T11:47:06.327Z</time>
      </trkpt>
      <trkpt lat="45.03797" lon="5.18377">
        <ele>216.494985</ele>
        <time>2022-03-12T11:47:08.337Z</time>
      </trkpt>
      <trkpt lat="45.03796" lon="5.18359">
        <ele>216.465297</ele>
        <time>2022-03-12T11:47:10.329Z</time>
      </trkpt>
      <trkpt lat="45.03796" lon="5.18342">
        <ele>216.642818</ele>
        <time>2022-03-12T11:47:12.322Z</time>
      </trkpt>
      <trkpt lat="45.03795" lon="5.18325">
        <ele>216.863173</ele>
        <time>2022-03-12T11:47:14.325Z</time>
      </trkpt>
      <trkpt lat="45.03795" lon="5.18309">
        <ele>217.075599</ele>
        <time>2022-03-12T11:47:16.343Z</time>
      </trkpt>
      <trkpt lat="45.03796" lon="5.18293">
        <ele>217.286453</ele>
        <time>2022-03-12T11:47:18.332Z</time>
      </trkpt>
      <trkpt lat="45.03798" lon="5.18277">
        <ele>217.492008</ele>
        <time>2022-03-12T11:47:20.327Z</time>
      </trkpt>
      <trkpt lat="45.03799" lon="5.18262">
        <ele>217.690538</ele>
        <time>2022-03-12T11:47:22.335Z</time>
      </trkpt>
      <trkpt lat="45.038" lon="5.18247">
        <ele>217.889468</ele>
        <time>2022-03-12T11:47:24.326Z</time>
      </trkpt>
      <trkpt lat="45.03801" lon="5.18232">
        <ele>218.088798</ele>
        <time>2022-03-12T11:47:26.328Z</time>
      </trkpt>
      <trkpt lat="45.038" lon="5.18217">
        <ele>218.288412</ele>
        <time>2022-03-12T11:47:28.329Z</time>
      </trkpt>
      <trkpt lat="45.03799" lon="5.18201">
        <ele>218.493432</ele>
        <time>2022-03-12T11:47:30.322Z</time>
      </trkpt>
      <trkpt lat="45.03797" lon="5.18186">
        <ele>218.691475</ele>
        <time>2022-03-12T11:47:32.336Z</time>
      </trkpt>
      <trkpt lat="45.03796" lon="5.18171">
        <ele>218.891053</ele>
        <time>2022-03-12T11:47:34.330Z</time>
      </trkpt>
      <trkpt lat="45.03794" lon="5.18156">
        <ele>219.090438</ele>
        <time>2022-03-12T11:47:36.327Z</time>
      </trkpt>
      <trkpt lat="45.03793" lon="5.18141">
        <ele>219.291084</ele>
        <time>2022-03-12T11:47:38.320Z</time>
      </trkpt>
      <trkpt lat="45.03791" lon="5.18126">
        <ele>219.496103</ele>
        <time>2022-03-12T11:47:40.322Z</time>
      </trkpt>
      <trkpt lat="45.03789" lon="5.1811">
        <ele>219.708719</ele>
        <time>2022-03-12T11:47:42.324Z</time>
      </trkpt>
      <trkpt lat="45.03788" lon="5.18094">
        <ele>219.708981</ele>
        <time>2022-03-12T11:47:44.332Z</time>
      </trkpt>
      <trkpt lat="45.03787" lon="5.18078">
        <ele>219.55639</ele>
        <time>2022-03-12T11:47:46.340Z</time>
      </trkpt>
      <trkpt lat="45.03785" lon="5.18062">
        <ele>219.405511</ele>
        <time>2022-03-12T11:47:48.334Z</time>
      </trkpt>
      <trkpt lat="45.03784" lon="5.18045">
        <ele>219.249177</ele>
        <time>2022-03-12T11:47:50.329Z</time>
      </trkpt>
      <trkpt lat="45.03782" lon="5.18029">
        <ele>219.095889</ele>
        <time>2022-03-12T11:47:52.327Z</time>
      </trkpt>
      <trkpt lat="45.0378" lon="5.18012">
        <ele>218.934535</ele>
        <time>2022-03-12T11:47:54.324Z</time>
      </trkpt>
      <trkpt lat="45.03779" lon="5.17995">
        <ele>218.773042</ele>
        <time>2022-03-12T11:47:56.328Z</time>
      </trkpt>
      <trkpt lat="45.03777" lon="5.17979">
        <ele>218.61375</ele>
        <time>2022-03-12T11:47:58.326Z</time>
      </trkpt>
      <trkpt lat="45.03775" lon="5.17962">
        <ele>218.451243</ele>
        <time>2022-03-12T11:48:00.326Z</time>
      </trkpt>
      <trkpt lat="45.03773" lon="5.17945">
        <ele>218.289173</ele>
        <time>2022-03-12T11:48:02.331Z</time>
      </trkpt>
      <trkpt lat="45.03772" lon="5.17928">
        <ele>218.130299</ele>
        <time>2022-03-12T11:48:04.322Z</time>
      </trkpt>
      <trkpt lat="45.03771" lon="5.17911">
        <ele>217.969771</ele>
        <time>2022-03-12T11:48:06.337Z</time>
      </trkpt>
      <trkpt lat="45.03769" lon="5.17894">
        <ele>217.807488</ele>
        <time>2022-03-12T11:48:08.326Z</time>
      </trkpt>
      <trkpt lat="45.03767" lon="5.17877">
        <ele>217.6449</ele>
        <time>2022-03-12T11:48:10.324Z</time>
      </trkpt>
      <trkpt lat="45.03765" lon="5.1786">
        <ele>217.48714</ele>
        <time>2022-03-12T11:48:12.338Z</time>
      </trkpt>
      <trkpt lat="45.03764" lon="5.17844">
        <ele>217.356887</ele>
        <time>2022-03-12T11:48:14.326Z</time>
      </trkpt>
      <trkpt lat="45.03762" lon="5.17829">
        <ele>217.264656</ele>
        <time>2022-03-12T11:48:16.324Z</time>
      </trkpt>
      <trkpt lat="45.0376" lon="5.17814">
        <ele>217.172977</ele>
        <time>2022-03-12T11:48:18.327Z</time>
      </trkpt>
      <trkpt lat="45.03758" lon="5.17798">
        <ele>217.079568</ele>
        <time>2022-03-12T11:48:20.329Z</time>
      </trkpt>
      <trkpt lat="45.03756" lon="5.17782">
        <ele>216.981885</ele>
        <time>2022-03-12T11:48:22.325Z</time>
      </trkpt>
      <trkpt lat="45.03753" lon="5.17765">
        <ele>216.877607</ele>
        <time>2022-03-12T11:48:24.320Z</time>
      </trkpt>
      <trkpt lat="45.03751" lon="5.17749">
        <ele>216.775855</ele>
        <time>2022-03-12T11:48:26.334Z</time>
      </trkpt>
      <trkpt lat="45.03747" lon="5.17733">
        <ele>216.67397</ele>
        <time>2022-03-12T11:48:28.327Z</time>
      </trkpt>
      <trkpt lat="45.03743" lon="5.17716">
        <ele>216.567878</ele>
        <time>2022-03-12T11:48:30.326Z</time>
      </trkpt>
      <trkpt lat="45.03739" lon="5.17699">
        <ele>216.464593</ele>
        <time>2022-03-12T11:48:32.324Z</time>
      </trkpt>
      <trkpt lat="45.03735" lon="5.17683">
        <ele>216.363306</ele>
        <time>2022-03-12T11:48:34.325Z</time>
      </trkpt>
      <trkpt lat="45.03732" lon="5.17667">
        <ele>216.262249</ele>
        <time>2022-03-12T11:48:36.323Z</time>
      </trkpt>
      <trkpt lat="45.03728" lon="5.17651">
        <ele>216.162262</ele>
        <time>2022-03-12T11:48:38.321Z</time>
      </trkpt>
      <trkpt lat="45.03726" lon="5.17637">
        <ele>216.071578</ele>
        <time>2022-03-12T11:48:40.325Z</time>
      </trkpt>
      <trkpt lat="45.03723" lon="5.17622">
        <ele>215.982382</ele>
        <time>2022-03-12T11:48:42.327Z</time>
      </trkpt>
      <trkpt lat="45.03718" lon="5.17608">
        <ele>215.888047</ele>
        <time>2022-03-12T11:48:44.326Z</time>
      </trkpt>
      <trkpt lat="45.03714" lon="5.17592">
        <ele>215.859963</ele>
        <time>2022-03-12T11:48:46.322Z</time>
      </trkpt>
      <trkpt lat="45.03711" lon="5.17576">
        <ele>215.842116</ele>
        <time>2022-03-12T11:48:48.336Z</time>
      </trkpt>
      <trkpt lat="45.03708" lon="5.1756">
        <ele>215.824142</ele>
        <time>2022-03-12T11:48:50.327Z</time>
      </trkpt>
      <trkpt lat="45.03706" lon="5.17544">
        <ele>215.806578</ele>
        <time>2022-03-12T11:48:52.321Z</time>
      </trkpt>
      <trkpt lat="45.03704" lon="5.17528">
        <ele>215.78864</ele>
        <time>2022-03-12T11:48:54.336Z</time>
      </trkpt>
      <trkpt lat="45.03703" lon="5.17512">
        <ele>215.771421</ele>
        <time>2022-03-12T11:48:56.325Z</time>
      </trkpt>
      <trkpt lat="45.03702" lon="5.17496">
        <ele>215.754703</ele>
        <time>2022-03-12T11:48:58.325Z</time>
      </trkpt>
      <trkpt lat="45.03702" lon="5.17481">
        <ele>215.738563</ele>
        <time>2022-03-12T11:49:00.326Z</time>
      </trkpt>
      <trkpt lat="45.03702" lon="5.17467">
        <ele>215.722962</ele>
        <time>2022-03-12T11:49:02.328Z</time>
      </trkpt>
      <trkpt lat="45.03702" lon="5.17452">
        <ele>215.707356</ele>
        <time>2022-03-12T11:49:04.336Z</time>
      </trkpt>
      <trkpt lat="45.03702" lon="5.17438">
        <ele>215.691435</ele>
        <time>2022-03-12T11:49:06.322Z</time>
      </trkpt>
      <trkpt lat="45.03702" lon="5.17423">
        <ele>215.675507</ele>
        <time>2022-03-12T11:49:08.334Z</time>
      </trkpt>
      <trkpt lat="45.03703" lon="5.17408">
        <ele>215.659138</ele>
        <time>2022-03-12T11:49:10.327Z</time>
      </trkpt>
      <trkpt lat="45.03704" lon="5.17392">
        <ele>215.642108</ele>
        <time>2022-03-12T11:49:12.322Z</time>
      </trkpt>
      <trkpt lat="45.03704" lon="5.17375">
        <ele>215.624137</ele>
        <time>2022-03-12T11:49:14.330Z</time>
      </trkpt>
      <trkpt lat="45.03704" lon="5.17358">
        <ele>215.606048</ele>
        <time>2022-03-12T11:49:16.331Z</time>
      </trkpt>
      <trkpt lat="45.03705" lon="5.17342">
        <ele>215.39272</ele>
        <time>2022-03-12T11:49:18.322Z</time>
      </trkpt>
      <trkpt lat="45.03706" lon="5.17326">
        <ele>215.123499</ele>
        <time>2022-03-12T11:49:20.335Z</time>
      </trkpt>
      <trkpt lat="45.03706" lon="5.17309">
        <ele>214.847725</ele>
        <time>2022-03-12T11:49:22.324Z</time>
      </trkpt>
      <trkpt lat="45.03706" lon="5.17292">
        <ele>214.561799</ele>
        <time>2022-03-12T11:49:24.321Z</time>
      </trkpt>
      <trkpt lat="45.03707" lon="5.17275">
        <ele>214.262498</ele>
        <time>2022-03-12T11:49:26.325Z</time>
      </trkpt>
      <trkpt lat="45.03707" lon="5.17257">
        <ele>213.963197</ele>
        <time>2022-03-12T11:49:28.322Z</time>
      </trkpt>
      <trkpt lat="45.03708" lon="5.17239">
        <ele>213.660162</ele>
        <time>2022-03-12T11:49:30.329Z</time>
      </trkpt>
      <trkpt lat="45.03708" lon="5.17221">
        <ele>213.36239</ele>
        <time>2022-03-12T11:49:32.327Z</time>
      </trkpt>
      <trkpt lat="45.03708" lon="5.17204">
        <ele>213.071491</ele>
        <time>2022-03-12T11:49:34.325Z</time>
      </trkpt>
      <trkpt lat="45.0371" lon="5.17187">
        <ele>212.779547</ele>
        <time>2022-03-12T11:49:36.339Z</time>
      </trkpt>
      <trkpt lat="45.03714" lon="5.17169">
        <ele>212.478669</ele>
        <time>2022-03-12T11:49:38.324Z</time>
      </trkpt>
      <trkpt lat="45.03718" lon="5.17152">
        <ele>212.171935</ele>
        <time>2022-03-12T11:49:40.327Z</time>
      </trkpt>
      <trkpt lat="45.03723" lon="5.17135">
        <ele>211.860545</ele>
        <time>2022-03-12T11:49:42.327Z</time>
      </trkpt>
      <trkpt lat="45.03728" lon="5.17118">
        <ele>211.549686</ele>
        <time>2022-03-12T11:49:44.330Z</time>
      </trkpt>
      <trkpt lat="45.03732" lon="5.17101">
        <ele>211.30691</ele>
        <time>2022-03-12T11:49:46.332Z</time>
      </trkpt>
      <trkpt lat="45.03734" lon="5.17085">
        <ele>211.242392</ele>
        <time>2022-03-12T11:49:48.322Z</time>
      </trkpt>
      <trkpt lat="45.03735" lon="5.17068">
        <ele>211.178881</ele>
        <time>2022-03-12T11:49:50.326Z</time>
      </trkpt>
      <trkpt lat="45.03736" lon="5.17052">
        <ele>211.118813</ele>
        <time>2022-03-12T11:49:52.323Z</time>
      </trkpt>
      <trkpt lat="45.03736" lon="5.17037">
        <ele>211.06269</ele>
        <time>2022-03-12T11:49:54.327Z</time>
      </trkpt>
      <trkpt lat="45.03737" lon="5.17024">
        <ele>211.012152</ele>
        <time>2022-03-12T11:49:56.321Z</time>
      </trkpt>
      <trkpt lat="45.03744" lon="5.17007">
        <ele>210.938794</ele>
        <time>2022-03-12T11:49:59.327Z</time>
      </trkpt>
      <trkpt lat="45.03751" lon="5.16997">
        <ele>210.88465</ele>
        <time>2022-03-12T11:50:01.320Z</time>
      </trkpt>
      <trkpt lat="45.03759" lon="5.16986">
        <ele>210.82649</ele>
        <time>2022-03-12T11:50:03.322Z</time>
      </trkpt>
      <trkpt lat="45.03767" lon="5.16975">
        <ele>210.767931</ele>
        <time>2022-03-12T11:50:05.328Z</time>
      </trkpt>
      <trkpt lat="45.03775" lon="5.16964">
        <ele>210.707542</ele>
        <time>2022-03-12T11:50:07.322Z</time>
      </trkpt>
      <trkpt lat="45.03783" lon="5.16953">
        <ele>210.646386</ele>
        <time>2022-03-12T11:50:09.330Z</time>
      </trkpt>
      <trkpt lat="45.03792" lon="5.16942">
        <ele>210.583552</ele>
        <time>2022-03-12T11:50:11.328Z</time>
      </trkpt>
      <trkpt lat="45.03801" lon="5.16932">
        <ele>210.520544</ele>
        <time>2022-03-12T11:50:13.329Z</time>
      </trkpt>
      <trkpt lat="45.03811" lon="5.16921">
        <ele>210.454546</ele>
        <time>2022-03-12T11:50:15.328Z</time>
      </trkpt>
      <trkpt lat="45.03821" lon="5.16911">
        <ele>210.388397</ele>
        <time>2022-03-12T11:50:17.326Z</time>
      </trkpt>
      <trkpt lat="45.03831" lon="5.16902">
        <ele>210.111435</ele>
        <time>2022-03-12T11:50:19.326Z</time>
      </trkpt>
      <trkpt lat="45.03841" lon="5.16893">
        <ele>209.644013</ele>
        <time>2022-03-12T11:50:21.328Z</time>
      </trkpt>
      <trkpt lat="45.03851" lon="5.16884">
        <ele>209.187155</ele>
        <time>2022-03-12T11:50:23.328Z</time>
      </trkpt>
      <trkpt lat="45.03861" lon="5.16874">
        <ele>208.72708</ele>
        <time>2022-03-12T11:50:25.332Z</time>
      </trkpt>
      <trkpt lat="45.03872" lon="5.16866">
        <ele>208.243082</ele>
        <time>2022-03-12T11:50:27.329Z</time>
      </trkpt>
      <trkpt lat="45.03884" lon="5.16857">
        <ele>207.733008</ele>
        <time>2022-03-12T11:50:29.313Z</time>
      </trkpt>
      <trkpt lat="45.03896" lon="5.16847">
        <ele>207.203505</ele>
        <time>2022-03-12T11:50:31.324Z</time>
      </trkpt>
      <trkpt lat="45.03909" lon="5.16838">
        <ele>206.671878</ele>
        <time>2022-03-12T11:50:33.326Z</time>
      </trkpt>
      <trkpt lat="45.03921" lon="5.16828">
        <ele>206.128537</ele>
        <time>2022-03-12T11:50:35.323Z</time>
      </trkpt>
      <trkpt lat="45.03933" lon="5.16818">
        <ele>205.575046</ele>
        <time>2022-03-12T11:50:37.335Z</time>
      </trkpt>
      <trkpt lat="45.03945" lon="5.16806">
        <ele>205.023172</ele>
        <time>2022-03-12T11:50:39.315Z</time>
      </trkpt>
      <trkpt lat="45.03957" lon="5.16793">
        <ele>204.456013</ele>
        <time>2022-03-12T11:50:41.322Z</time>
      </trkpt>
      <trkpt lat="45.03967" lon="5.16778">
        <ele>203.886694</ele>
        <time>2022-03-12T11:50:43.322Z</time>
      </trkpt>
      <trkpt lat="45.03978" lon="5.16763">
        <ele>203.28826</ele>
        <time>2022-03-12T11:50:45.327Z</time>
      </trkpt>
      <trkpt lat="45.03989" lon="5.16747">
        <ele>202.615738</ele>
        <time>2022-03-12T11:50:47.320Z</time>
      </trkpt>
      <trkpt lat="45.03999" lon="5.1673">
        <ele>201.948271</ele>
        <time>2022-03-12T11:50:49.321Z</time>
      </trkpt>
      <trkpt lat="45.04007" lon="5.16711">
        <ele>201.287588</ele>
        <time>2022-03-12T11:50:51.330Z</time>
      </trkpt>
      <trkpt lat="45.04014" lon="5.16694">
        <ele>200.67603</ele>
        <time>2022-03-12T11:50:53.335Z</time>
      </trkpt>
      <trkpt lat="45.04019" lon="5.16676">
        <ele>200.085396</ele>
        <time>2022-03-12T11:50:55.329Z</time>
      </trkpt>
      <trkpt lat="45.04024" lon="5.16657">
        <ele>199.492664</ele>
        <time>2022-03-12T11:50:57.325Z</time>
      </trkpt>
      <trkpt lat="45.04027" lon="5.16638">
        <ele>198.878741</ele>
        <time>2022-03-12T11:50:59.329Z</time>
      </trkpt>
      <trkpt lat="45.0403" lon="5.16617">
        <ele>198.237123</ele>
        <time>2022-03-12T11:51:01.311Z</time>
      </trkpt>
      <trkpt lat="45.0403" lon="5.16594">
        <ele>197.565507</ele>
        <time>2022-03-12T11:51:03.333Z</time>
      </trkpt>
      <trkpt lat="45.0403" lon="5.16571">
        <ele>196.855256</ele>
        <time>2022-03-12T11:51:05.329Z</time>
      </trkpt>
      <trkpt lat="45.04031" lon="5.16547">
        <ele>196.120789</ele>
        <time>2022-03-12T11:51:07.329Z</time>
      </trkpt>
      <trkpt lat="45.04029" lon="5.16521">
        <ele>195.884946</ele>
        <time>2022-03-12T11:51:09.333Z</time>
      </trkpt>
      <trkpt lat="45.04029" lon="5.16507">
        <ele>195.987918</ele>
        <time>2022-03-12T11:51:10.328Z</time>
      </trkpt>
      <trkpt lat="45.04028" lon="5.16494">
        <ele>196.091091</ele>
        <time>2022-03-12T11:51:11.327Z</time>
      </trkpt>
      <trkpt lat="45.04027" lon="5.1648">
        <ele>196.193221</ele>
        <time>2022-03-12T11:51:12.323Z</time>
      </trkpt>
      <trkpt lat="45.04026" lon="5.16467">
        <ele>196.293163</ele>
        <time>2022-03-12T11:51:13.324Z</time>
      </trkpt>
      <trkpt lat="45.04024" lon="5.16443">
        <ele>196.479867</ele>
        <time>2022-03-12T11:51:15.332Z</time>
      </trkpt>
      <trkpt lat="45.04022" lon="5.1642">
        <ele>196.654496</ele>
        <time>2022-03-12T11:51:17.334Z</time>
      </trkpt>
      <trkpt lat="45.0402" lon="5.164">
        <ele>196.808344</ele>
        <time>2022-03-12T11:51:19.324Z</time>
      </trkpt>
      <trkpt lat="45.04018" lon="5.16383">
        <ele>196.937272</ele>
        <time>2022-03-12T11:51:21.324Z</time>
      </trkpt>
      <trkpt lat="45.04016" lon="5.1637">
        <ele>197.044801</ele>
        <time>2022-03-12T11:51:23.318Z</time>
      </trkpt>
      <trkpt lat="45.04014" lon="5.16352">
        <ele>197.179067</ele>
        <time>2022-03-12T11:51:26.329Z</time>
      </trkpt>
      <trkpt lat="45.04012" lon="5.16336">
        <ele>197.304814</ele>
        <time>2022-03-12T11:51:29.329Z</time>
      </trkpt>
      <trkpt lat="45.04009" lon="5.16321">
        <ele>197.422739</ele>
        <time>2022-03-12T11:51:32.315Z</time>
      </trkpt>
      <trkpt lat="45.04007" lon="5.16306">
        <ele>197.539405</ele>
        <time>2022-03-12T11:51:35.320Z</time>
      </trkpt>
      <trkpt lat="45.04004" lon="5.1629">
        <ele>197.659508</ele>
        <time>2022-03-12T11:51:38.332Z</time>
      </trkpt>
      <trkpt lat="45.04001" lon="5.16275">
        <ele>197.805669</ele>
        <time>2022-03-12T11:51:41.323Z</time>
      </trkpt>
      <trkpt lat="45.03999" lon="5.16259">
        <ele>197.971682</ele>
        <time>2022-03-12T11:51:44.339Z</time>
      </trkpt>
      <trkpt lat="45.03997" lon="5.16241">
        <ele>198.153627</ele>
        <time>2022-03-12T11:51:47.322Z</time>
      </trkpt>
      <trkpt lat="45.03997" lon="5.16223">
        <ele>198.341396</ele>
        <time>2022-03-12T11:51:50.322Z</time>
      </trkpt>
      <trkpt lat="45.03998" lon="5.1621">
        <ele>198.471439</ele>
        <time>2022-03-12T11:51:52.325Z</time>
      </trkpt>
      <trkpt lat="45.03998" lon="5.16197">
        <ele>198.60358</ele>
        <time>2022-03-12T11:51:54.333Z</time>
      </trkpt>
      <trkpt lat="45.03999" lon="5.16183">
        <ele>198.739858</ele>
        <time>2022-03-12T11:51:56.340Z</time>
      </trkpt>
      <trkpt lat="45.04" lon="5.1617">
        <ele>198.873593</ele>
        <time>2022-03-12T11:51:58.323Z</time>
      </trkpt>
      <trkpt lat="45.04001" lon="5.16157">
        <ele>199.013006</ele>
        <time>2022-03-12T11:52:00.320Z</time>
      </trkpt>
      <trkpt lat="45.04001" lon="5.16143">
        <ele>199.153138</ele>
        <time>2022-03-12T11:52:02.323Z</time>
      </trkpt>
      <trkpt lat="45.04001" lon="5.16129">
        <ele>199.289265</ele>
        <time>2022-03-12T11:52:04.327Z</time>
      </trkpt>
      <trkpt lat="45.04001" lon="5.16116">
        <ele>199.426293</ele>
        <time>2022-03-12T11:52:06.327Z</time>
      </trkpt>
      <trkpt lat="45.04002" lon="5.16103">
        <ele>199.561315</ele>
        <time>2022-03-12T11:52:08.327Z</time>
      </trkpt>
      <trkpt lat="45.04002" lon="5.16084">
        <ele>199.752264</ele>
        <time>2022-03-12T11:52:11.322Z</time>
      </trkpt>
      <trkpt lat="45.04002" lon="5.16065">
        <ele>199.944114</ele>
        <time>2022-03-12T11:52:14.325Z</time>
      </trkpt>
      <trkpt lat="45.04004" lon="5.16046">
        <ele>200.136307</ele>
        <time>2022-03-12T11:52:17.329Z</time>
      </trkpt>
      <trkpt lat="45.04006" lon="5.16033">
        <ele>200.270011</ele>
        <time>2022-03-12T11:52:19.332Z</time>
      </trkpt>
      <trkpt lat="45.0401" lon="5.16021">
        <ele>200.171329</ele>
        <time>2022-03-12T11:52:21.334Z</time>
      </trkpt>
      <trkpt lat="45.04014" lon="5.16009">
        <ele>200.023344</ele>
        <time>2022-03-12T11:52:23.333Z</time>
      </trkpt>
      <trkpt lat="45.0402" lon="5.15998">
        <ele>199.876048</ele>
        <time>2022-03-12T11:52:25.325Z</time>
      </trkpt>
      <trkpt lat="45.04027" lon="5.15988">
        <ele>199.715713</ele>
        <time>2022-03-12T11:52:27.328Z</time>
      </trkpt>
      <trkpt lat="45.04035" lon="5.15977">
        <ele>199.549306</ele>
        <time>2022-03-12T11:52:29.316Z</time>
      </trkpt>
      <trkpt lat="45.04043" lon="5.15967">
        <ele>199.377526</ele>
        <time>2022-03-12T11:52:31.330Z</time>
      </trkpt>
      <trkpt lat="45.04051" lon="5.15958">
        <ele>199.212621</ele>
        <time>2022-03-12T11:52:33.321Z</time>
      </trkpt>
      <trkpt lat="45.04059" lon="5.15947">
        <ele>199.049633</ele>
        <time>2022-03-12T11:52:35.320Z</time>
      </trkpt>
      <trkpt lat="45.04067" lon="5.15936">
        <ele>198.876063</ele>
        <time>2022-03-12T11:52:37.320Z</time>
      </trkpt>
      <trkpt lat="45.04074" lon="5.15925">
        <ele>198.704635</ele>
        <time>2022-03-12T11:52:39.339Z</time>
      </trkpt>
      <trkpt lat="45.04081" lon="5.15912">
        <ele>198.524624</ele>
        <time>2022-03-12T11:52:41.333Z</time>
      </trkpt>
      <trkpt lat="45.04089" lon="5.15899">
        <ele>198.344473</ele>
        <time>2022-03-12T11:52:43.335Z</time>
      </trkpt>
      <trkpt lat="45.04096" lon="5.15886">
        <ele>198.160163</ele>
        <time>2022-03-12T11:52:45.326Z</time>
      </trkpt>
      <trkpt lat="45.04103" lon="5.15873">
        <ele>197.983061</ele>
        <time>2022-03-12T11:52:47.324Z</time>
      </trkpt>
      <trkpt lat="45.0411" lon="5.1586">
        <ele>197.800701</ele>
        <time>2022-03-12T11:52:49.334Z</time>
      </trkpt>
      <trkpt lat="45.04115" lon="5.15845">
        <ele>197.619747</ele>
        <time>2022-03-12T11:52:51.328Z</time>
      </trkpt>
      <trkpt lat="45.04121" lon="5.1583">
        <ele>197.379065</ele>
        <time>2022-03-12T11:52:53.332Z</time>
      </trkpt>
      <trkpt lat="45.04127" lon="5.15815">
        <ele>197.020927</ele>
        <time>2022-03-12T11:52:55.329Z</time>
      </trkpt>
      <trkpt lat="45.04133" lon="5.158">
        <ele>196.649769</ele>
        <time>2022-03-12T11:52:57.334Z</time>
      </trkpt>
      <trkpt lat="45.0414" lon="5.15784">
        <ele>196.264756</ele>
        <time>2022-03-12T11:52:59.327Z</time>
      </trkpt>
      <trkpt lat="45.04146" lon="5.15768">
        <ele>195.878413</ele>
        <time>2022-03-12T11:53:01.325Z</time>
      </trkpt>
      <trkpt lat="45.0415" lon="5.1575">
        <ele>195.490815</ele>
        <time>2022-03-12T11:53:03.332Z</time>
      </trkpt>
      <trkpt lat="45.04154" lon="5.15731">
        <ele>195.078522</ele>
        <time>2022-03-12T11:53:05.332Z</time>
      </trkpt>
      <trkpt lat="45.04158" lon="5.15711">
        <ele>194.639203</ele>
        <time>2022-03-12T11:53:07.324Z</time>
      </trkpt>
      <trkpt lat="45.04161" lon="5.15689">
        <ele>194.162043</ele>
        <time>2022-03-12T11:53:09.328Z</time>
      </trkpt>
      <trkpt lat="45.04165" lon="5.15666">
        <ele>193.66986</ele>
        <time>2022-03-12T11:53:11.331Z</time>
      </trkpt>
      <trkpt lat="45.04169" lon="5.15644">
        <ele>193.20014</ele>
        <time>2022-03-12T11:53:13.328Z</time>
      </trkpt>
      <trkpt lat="45.04172" lon="5.15624">
        <ele>192.770492</ele>
        <time>2022-03-12T11:53:15.338Z</time>
      </trkpt>
      <trkpt lat="45.04175" lon="5.15605">
        <ele>192.359133</ele>
        <time>2022-03-12T11:53:17.327Z</time>
      </trkpt>
      <trkpt lat="45.04178" lon="5.15587">
        <ele>192.201107</ele>
        <time>2022-03-12T11:53:19.323Z</time>
      </trkpt>
      <trkpt lat="45.0418" lon="5.15568">
        <ele>192.261351</ele>
        <time>2022-03-12T11:53:21.325Z</time>
      </trkpt>
      <trkpt lat="45.04182" lon="5.1555">
        <ele>192.321954</ele>
        <time>2022-03-12T11:53:23.328Z</time>
      </trkpt>
      <trkpt lat="45.04185" lon="5.15532">
        <ele>192.381954</ele>
        <time>2022-03-12T11:53:25.336Z</time>
      </trkpt>
      <trkpt lat="45.04188" lon="5.15514">
        <ele>192.442339</ele>
        <time>2022-03-12T11:53:27.329Z</time>
      </trkpt>
      <trkpt lat="45.0419" lon="5.15497">
        <ele>192.501202</ele>
        <time>2022-03-12T11:53:29.321Z</time>
      </trkpt>
      <trkpt lat="45.04192" lon="5.15479">
        <ele>192.559691</ele>
        <time>2022-03-12T11:53:31.333Z</time>
      </trkpt>
      <trkpt lat="45.04194" lon="5.15462">
        <ele>192.61606</ele>
        <time>2022-03-12T11:53:33.333Z</time>
      </trkpt>
      <trkpt lat="45.04195" lon="5.15445">
        <ele>192.672364</ele>
        <time>2022-03-12T11:53:35.333Z</time>
      </trkpt>
      <trkpt lat="45.04197" lon="5.15427">
        <ele>192.730568</ele>
        <time>2022-03-12T11:53:37.326Z</time>
      </trkpt>
      <trkpt lat="45.04198" lon="5.15409">
        <ele>192.789703</ele>
        <time>2022-03-12T11:53:39.329Z</time>
      </trkpt>
      <trkpt lat="45.04199" lon="5.15391">
        <ele>192.848796</ele>
        <time>2022-03-12T11:53:41.325Z</time>
      </trkpt>
      <trkpt lat="45.042" lon="5.15373">
        <ele>192.90883</ele>
        <time>2022-03-12T11:53:43.330Z</time>
      </trkpt>
      <trkpt lat="45.04201" lon="5.15355">
        <ele>192.966012</ele>
        <time>2022-03-12T11:53:45.337Z</time>
      </trkpt>
      <trkpt lat="45.04202" lon="5.1534">
        <ele>193.277268</ele>
        <time>2022-03-12T11:53:47.326Z</time>
      </trkpt>
      <trkpt lat="45.04203" lon="5.15322">
        <ele>194.34284</ele>
        <time>2022-03-12T11:53:50.324Z</time>
      </trkpt>
      <trkpt lat="45.04204" lon="5.15309">
        <ele>195.151725</ele>
        <time>2022-03-12T11:53:53.322Z</time>
      </trkpt>
      <trkpt lat="45.04205" lon="5.15294">
        <ele>196.080667</ele>
        <time>2022-03-12T11:53:57.320Z</time>
      </trkpt>
      <trkpt lat="45.04206" lon="5.15278">
        <ele>197.023515</ele>
        <time>2022-03-12T11:54:01.316Z</time>
      </trkpt>
      <trkpt lat="45.04207" lon="5.15263">
        <ele>197.935252</ele>
        <time>2022-03-12T11:54:05.329Z</time>
      </trkpt>
      <trkpt lat="45.04207" lon="5.15248">
        <ele>198.852076</ele>
        <time>2022-03-12T11:54:09.337Z</time>
      </trkpt>
      <trkpt lat="45.04207" lon="5.15235">
        <ele>199.67198</ele>
        <time>2022-03-12T11:54:13.318Z</time>
      </trkpt>
      <trkpt lat="45.04205" lon="5.15222">
        <ele>200.482851</ele>
        <time>2022-03-12T11:54:19.325Z</time>
      </trkpt>
      <trkpt lat="45.04205" lon="5.15208">
        <ele>201.32053</ele>
        <time>2022-03-12T11:54:24.318Z</time>
      </trkpt>
      <trkpt lat="45.04205" lon="5.15194">
        <ele>202.139489</ele>
        <time>2022-03-12T11:54:28.330Z</time>
      </trkpt>
      <trkpt lat="45.04206" lon="5.1518">
        <ele>202.983621</ele>
        <time>2022-03-12T11:54:32.320Z</time>
      </trkpt>
      <trkpt lat="45.04206" lon="5.15167">
        <ele>203.808465</ele>
        <time>2022-03-12T11:54:36.312Z</time>
      </trkpt>
      <trkpt lat="45.04208" lon="5.15153">
        <ele>204.644814</ele>
        <time>2022-03-12T11:54:40.330Z</time>
      </trkpt>
      <trkpt lat="45.04211" lon="5.15141">
        <ele>205.431247</ele>
        <time>2022-03-12T11:54:44.317Z</time>
      </trkpt>
      <trkpt lat="45.04214" lon="5.15126">
        <ele>206.374838</ele>
        <time>2022-03-12T11:54:49.324Z</time>
      </trkpt>
      <trkpt lat="45.04217" lon="5.15114">
        <ele>207.152572</ele>
        <time>2022-03-12T11:54:53.323Z</time>
      </trkpt>
      <trkpt lat="45.04221" lon="5.15102">
        <ele>207.964932</ele>
        <time>2022-03-12T11:54:57.326Z</time>
      </trkpt>
      <trkpt lat="45.04223" lon="5.15089">
        <ele>208.535235</ele>
        <time>2022-03-12T11:55:01.329Z</time>
      </trkpt>
      <trkpt lat="45.04225" lon="5.15074">
        <ele>208.825499</ele>
        <time>2022-03-12T11:55:06.313Z</time>
      </trkpt>
      <trkpt lat="45.04227" lon="5.15059">
        <ele>209.122717</ele>
        <time>2022-03-12T11:55:11.322Z</time>
      </trkpt>
      <trkpt lat="45.04229" lon="5.15044">
        <ele>209.40359</ele>
        <time>2022-03-12T11:55:16.319Z</time>
      </trkpt>
      <trkpt lat="45.0423" lon="5.15031">
        <ele>209.666745</ele>
        <time>2022-03-12T11:55:21.331Z</time>
      </trkpt>
      <trkpt lat="45.04231" lon="5.15017">
        <ele>209.933846</ele>
        <time>2022-03-12T11:55:26.320Z</time>
      </trkpt>
      <trkpt lat="45.0423" lon="5.15002">
        <ele>210.205641</ele>
        <time>2022-03-12T11:55:31.322Z</time>
      </trkpt>
      <trkpt lat="45.04228" lon="5.14989">
        <ele>210.471542</ele>
        <time>2022-03-12T11:55:36.318Z</time>
      </trkpt>
      <trkpt lat="45.04225" lon="5.14975">
        <ele>210.734215</ele>
        <time>2022-03-12T11:55:41.327Z</time>
      </trkpt>
      <trkpt lat="45.04223" lon="5.14961">
        <ele>211.010402</ele>
        <time>2022-03-12T11:55:45.335Z</time>
      </trkpt>
      <trkpt lat="45.04221" lon="5.14945">
        <ele>211.33192</ele>
        <time>2022-03-12T11:55:49.331Z</time>
      </trkpt>
      <trkpt lat="45.04218" lon="5.14931">
        <ele>211.591205</ele>
        <time>2022-03-12T11:55:52.318Z</time>
      </trkpt>
      <trkpt lat="45.04215" lon="5.14917">
        <ele>211.87222</ele>
        <time>2022-03-12T11:55:55.316Z</time>
      </trkpt>
      <trkpt lat="45.04211" lon="5.14904">
        <ele>212.153954</ele>
        <time>2022-03-12T11:55:58.327Z</time>
      </trkpt>
      <trkpt lat="45.04205" lon="5.14892">
        <ele>212.414576</ele>
        <time>2022-03-12T11:56:01.327Z</time>
      </trkpt>
      <trkpt lat="45.042" lon="5.1488">
        <ele>212.687472</ele>
        <time>2022-03-12T11:56:04.316Z</time>
      </trkpt>
      <trkpt lat="45.04194" lon="5.14869">
        <ele>212.963427</ele>
        <time>2022-03-12T11:56:07.318Z</time>
      </trkpt>
      <trkpt lat="45.04187" lon="5.14856">
        <ele>213.259531</ele>
        <time>2022-03-12T11:56:10.322Z</time>
      </trkpt>
      <trkpt lat="45.0418" lon="5.14842">
        <ele>213.256295</ele>
        <time>2022-03-12T11:56:13.334Z</time>
      </trkpt>
      <trkpt lat="45.04174" lon="5.1483">
        <ele>213.242034</ele>
        <time>2022-03-12T11:56:15.332Z</time>
      </trkpt>
      <trkpt lat="45.04167" lon="5.14817">
        <ele>213.226066</ele>
        <time>2022-03-12T11:56:17.330Z</time>
      </trkpt>
      <trkpt lat="45.04159" lon="5.14802">
        <ele>213.207937</ele>
        <time>2022-03-12T11:56:19.332Z</time>
      </trkpt>
      <trkpt lat="45.04151" lon="5.14786">
        <ele>213.187793</ele>
        <time>2022-03-12T11:56:21.331Z</time>
      </trkpt>
      <trkpt lat="45.04143" lon="5.14769">
        <ele>213.167401</ele>
        <time>2022-03-12T11:56:23.328Z</time>
      </trkpt>
      <trkpt lat="45.04141" lon="5.14749">
        <ele>213.147433</ele>
        <time>2022-03-12T11:56:25.334Z</time>
      </trkpt>
      <trkpt lat="45.04146" lon="5.1473">
        <ele>213.127359</ele>
        <time>2022-03-12T11:56:27.335Z</time>
      </trkpt>
      <trkpt lat="45.04154" lon="5.14714">
        <ele>213.1077</ele>
        <time>2022-03-12T11:56:29.325Z</time>
      </trkpt>
      <trkpt lat="45.04163" lon="5.14701">
        <ele>213.089786</ele>
        <time>2022-03-12T11:56:31.314Z</time>
      </trkpt>
      <trkpt lat="45.0417" lon="5.14688">
        <ele>213.073992</ele>
        <time>2022-03-12T11:56:33.329Z</time>
      </trkpt>
      <trkpt lat="45.04173" lon="5.14675">
        <ele>213.060086</ele>
        <time>2022-03-12T11:56:35.327Z</time>
      </trkpt>
      <trkpt lat="45.0417" lon="5.14658">
        <ele>213.043469</ele>
        <time>2022-03-12T11:56:38.323Z</time>
      </trkpt>
      <trkpt lat="45.04166" lon="5.14645">
        <ele>213.028743</ele>
        <time>2022-03-12T11:56:41.325Z</time>
      </trkpt>
      <trkpt lat="45.04162" lon="5.14633">
        <ele>213.126085</ele>
        <time>2022-03-12T11:56:44.321Z</time>
      </trkpt>
      <trkpt lat="45.04157" lon="5.14621">
        <ele>213.344898</ele>
        <time>2022-03-12T11:56:47.326Z</time>
      </trkpt>
      <trkpt lat="45.04154" lon="5.14609">
        <ele>213.555225</ele>
        <time>2022-03-12T11:56:50.319Z</time>
      </trkpt>
      <trkpt lat="45.0415" lon="5.14598">
        <ele>213.76406</ele>
        <time>2022-03-12T11:56:53.316Z</time>
      </trkpt>
      <trkpt lat="45.04146" lon="5.14586">
        <ele>213.973892</ele>
        <time>2022-03-12T11:56:56.325Z</time>
      </trkpt>
      <trkpt lat="45.04142" lon="5.14575">
        <ele>214.188723</ele>
        <time>2022-03-12T11:56:59.318Z</time>
      </trkpt>
      <trkpt lat="45.04138" lon="5.14562">
        <ele>214.421046</ele>
        <time>2022-03-12T11:57:02.313Z</time>
      </trkpt>
      <trkpt lat="45.04133" lon="5.14549">
        <ele>214.664521</ele>
        <time>2022-03-12T11:57:05.315Z</time>
      </trkpt>
      <trkpt lat="45.04128" lon="5.14535">
        <ele>214.913124</ele>
        <time>2022-03-12T11:57:08.316Z</time>
      </trkpt>
      <trkpt lat="45.04123" lon="5.14521">
        <ele>215.173301</ele>
        <time>2022-03-12T11:57:11.321Z</time>
      </trkpt>
      <trkpt lat="45.04118" lon="5.14507">
        <ele>215.435331</ele>
        <time>2022-03-12T11:57:14.321Z</time>
      </trkpt>
      <trkpt lat="45.04112" lon="5.14492">
        <ele>215.712604</ele>
        <time>2022-03-12T11:57:17.328Z</time>
      </trkpt>
      <trkpt lat="45.04107" lon="5.14476">
        <ele>215.998542</ele>
        <time>2022-03-12T11:57:20.327Z</time>
      </trkpt>
      <trkpt lat="45.04102" lon="5.1446">
        <ele>216.295678</ele>
        <time>2022-03-12T11:57:23.322Z</time>
      </trkpt>
      <trkpt lat="45.04097" lon="5.14449">
        <ele>216.506478</ele>
        <time>2022-03-12T11:57:25.322Z</time>
      </trkpt>
      <trkpt lat="45.04094" lon="5.14437">
        <ele>216.719796</ele>
        <time>2022-03-12T11:57:27.333Z</time>
      </trkpt>
      <trkpt lat="45.04089" lon="5.14425">
        <ele>216.938924</ele>
        <time>2022-03-12T11:57:29.320Z</time>
      </trkpt>
      <trkpt lat="45.04084" lon="5.14414">
        <ele>217.158247</ele>
        <time>2022-03-12T11:57:31.332Z</time>
      </trkpt>
      <trkpt lat="45.04079" lon="5.14403">
        <ele>217.15604</ele>
        <time>2022-03-12T11:57:33.335Z</time>
      </trkpt>
      <trkpt lat="45.0407" lon="5.14389">
        <ele>217.056869</ele>
        <time>2022-03-12T11:57:36.325Z</time>
      </trkpt>
      <trkpt lat="45.04061" lon="5.14377">
        <ele>216.960628</ele>
        <time>2022-03-12T11:57:39.325Z</time>
      </trkpt>
      <trkpt lat="45.04052" lon="5.14364">
        <ele>216.867506</ele>
        <time>2022-03-12T11:57:42.324Z</time>
      </trkpt>
      <trkpt lat="45.04043" lon="5.14352">
        <ele>216.772565</ele>
        <time>2022-03-12T11:57:45.331Z</time>
      </trkpt>
      <trkpt lat="45.04034" lon="5.14341">
        <ele>216.679278</ele>
        <time>2022-03-12T11:57:48.317Z</time>
      </trkpt>
      <trkpt lat="45.04023" lon="5.14331">
        <ele>216.582473</ele>
        <time>2022-03-12T11:57:51.322Z</time>
      </trkpt>
      <trkpt lat="45.04015" lon="5.14325">
        <ele>216.514466</ele>
        <time>2022-03-12T11:57:53.316Z</time>
      </trkpt>
      <trkpt lat="45.04007" lon="5.1432">
        <ele>216.443691</ele>
        <time>2022-03-12T11:57:55.323Z</time>
      </trkpt>
      <trkpt lat="45.03998" lon="5.14314">
        <ele>216.371537</ele>
        <time>2022-03-12T11:57:57.333Z</time>
      </trkpt>
      <trkpt lat="45.03989" lon="5.14308">
        <ele>216.298207</ele>
        <time>2022-03-12T11:57:59.340Z</time>
      </trkpt>
      <trkpt lat="45.0398" lon="5.14301">
        <ele>216.218021</ele>
        <time>2022-03-12T11:58:01.326Z</time>
      </trkpt>
      <trkpt lat="45.03971" lon="5.14293">
        <ele>216.138931</ele>
        <time>2022-03-12T11:58:03.321Z</time>
      </trkpt>
      <trkpt lat="45.03962" lon="5.14285">
        <ele>216.060704</ele>
        <time>2022-03-12T11:58:05.328Z</time>
      </trkpt>
      <trkpt lat="45.03954" lon="5.14277">
        <ele>215.980952</ele>
        <time>2022-03-12T11:58:07.326Z</time>
      </trkpt>
      <trkpt lat="45.03945" lon="5.14269">
        <ele>215.904816</ele>
        <time>2022-03-12T11:58:09.330Z</time>
      </trkpt>
      <trkpt lat="45.03938" lon="5.14262">
        <ele>215.962818</ele>
        <time>2022-03-12T11:58:11.328Z</time>
      </trkpt>
      <trkpt lat="45.0393" lon="5.14254">
        <ele>216.611756</ele>
        <time>2022-03-12T11:58:13.332Z</time>
      </trkpt>
      <trkpt lat="45.0392" lon="5.14242">
        <ele>217.559155</ele>
        <time>2022-03-12T11:58:16.335Z</time>
      </trkpt>
      <trkpt lat="45.03911" lon="5.14231">
        <ele>218.407562</ele>
        <time>2022-03-12T11:58:19.327Z</time>
      </trkpt>
      <trkpt lat="45.03902" lon="5.14221">
        <ele>219.179313</ele>
        <time>2022-03-12T11:58:22.312Z</time>
      </trkpt>
      <trkpt lat="45.03894" lon="5.14213">
        <ele>219.894173</ele>
        <time>2022-03-12T11:58:25.324Z</time>
      </trkpt>
      <trkpt lat="45.03886" lon="5.14206">
        <ele>220.586364</ele>
        <time>2022-03-12T11:58:28.329Z</time>
      </trkpt>
      <trkpt lat="45.03876" lon="5.14197">
        <ele>221.40725</ele>
        <time>2022-03-12T11:58:32.324Z</time>
      </trkpt>
      <trkpt lat="45.03866" lon="5.14191">
        <ele>222.172388</ele>
        <time>2022-03-12T11:58:36.322Z</time>
      </trkpt>
      <trkpt lat="45.03856" lon="5.14185">
        <ele>222.952816</ele>
        <time>2022-03-12T11:58:40.326Z</time>
      </trkpt>
      <trkpt lat="45.03845" lon="5.1418">
        <ele>223.739794</ele>
        <time>2022-03-12T11:58:44.329Z</time>
      </trkpt>
      <trkpt lat="45.03835" lon="5.14176">
        <ele>224.526966</ele>
        <time>2022-03-12T11:58:48.319Z</time>
      </trkpt>
      <trkpt lat="45.03824" lon="5.14173">
        <ele>225.277898</ele>
        <time>2022-03-12T11:58:52.327Z</time>
      </trkpt>
      <trkpt lat="45.03814" lon="5.14169">
        <ele>226.014582</ele>
        <time>2022-03-12T11:58:56.324Z</time>
      </trkpt>
      <trkpt lat="45.03805" lon="5.14164">
        <ele>226.696408</ele>
        <time>2022-03-12T11:59:00.329Z</time>
      </trkpt>
      <trkpt lat="45.03796" lon="5.14159">
        <ele>227.393267</ele>
        <time>2022-03-12T11:59:04.325Z</time>
      </trkpt>
      <trkpt lat="45.03786" lon="5.14155">
        <ele>228.134181</ele>
        <time>2022-03-12T11:59:08.321Z</time>
      </trkpt>
      <trkpt lat="45.03777" lon="5.1415">
        <ele>228.826655</ele>
        <time>2022-03-12T11:59:12.325Z</time>
      </trkpt>
      <trkpt lat="45.03768" lon="5.14147">
        <ele>229.47235</ele>
        <time>2022-03-12T11:59:16.346Z</time>
      </trkpt>
      <trkpt lat="45.03758" lon="5.14141">
        <ele>230.205013</ele>
        <time>2022-03-12T11:59:21.332Z</time>
      </trkpt>
      <trkpt lat="45.03748" lon="5.14134">
        <ele>230.957987</ele>
        <time>2022-03-12T11:59:26.341Z</time>
      </trkpt>
      <trkpt lat="45.03739" lon="5.14126">
        <ele>231.689046</ele>
        <time>2022-03-12T11:59:31.337Z</time>
      </trkpt>
      <trkpt lat="45.03732" lon="5.14118">
        <ele>232.31668</ele>
        <time>2022-03-12T11:59:35.321Z</time>
      </trkpt>
      <trkpt lat="45.03725" lon="5.14109">
        <ele>232.957843</ele>
        <time>2022-03-12T11:59:39.324Z</time>
      </trkpt>
      <trkpt lat="45.0372" lon="5.14098">
        <ele>233.591501</ele>
        <time>2022-03-12T11:59:43.328Z</time>
      </trkpt>
      <trkpt lat="45.03714" lon="5.14084">
        <ele>234.357559</ele>
        <time>2022-03-12T11:59:48.321Z</time>
      </trkpt>
      <trkpt lat="45.0371" lon="5.14072">
        <ele>235.000886</ele>
        <time>2022-03-12T11:59:52.330Z</time>
      </trkpt>
      <trkpt lat="45.03706" lon="5.14061">
        <ele>235.622373</ele>
        <time>2022-03-12T11:59:56.324Z</time>
      </trkpt>
      <trkpt lat="45.03702" lon="5.14048">
        <ele>236.296553</ele>
        <time>2022-03-12T12:00:00.324Z</time>
      </trkpt>
      <trkpt lat="45.03698" lon="5.14035">
        <ele>236.967969</ele>
        <time>2022-03-12T12:00:04.324Z</time>
      </trkpt>
      <trkpt lat="45.03694" lon="5.14022">
        <ele>237.699252</ele>
        <time>2022-03-12T12:00:09.314Z</time>
      </trkpt>
      <trkpt lat="45.03689" lon="5.14008">
        <ele>238.442033</ele>
        <time>2022-03-12T12:00:14.323Z</time>
      </trkpt>
      <trkpt lat="45.03685" lon="5.13996">
        <ele>239.075256</ele>
        <time>2022-03-12T12:00:18.337Z</time>
      </trkpt>
      <trkpt lat="45.03681" lon="5.13984">
        <ele>239.724558</ele>
        <time>2022-03-12T12:00:22.314Z</time>
      </trkpt>
      <trkpt lat="45.03676" lon="5.13973">
        <ele>240.366107</ele>
        <time>2022-03-12T12:00:26.317Z</time>
      </trkpt>
      <trkpt lat="45.03669" lon="5.13964">
        <ele>240.932809</ele>
        <time>2022-03-12T12:00:30.322Z</time>
      </trkpt>
      <trkpt lat="45.03661" lon="5.13956">
        <ele>240.864297</ele>
        <time>2022-03-12T12:00:34.328Z</time>
      </trkpt>
      <trkpt lat="45.03653" lon="5.13948">
        <ele>240.79154</ele>
        <time>2022-03-12T12:00:38.318Z</time>
      </trkpt>
      <trkpt lat="45.03643" lon="5.13944">
        <ele>240.718872</ele>
        <time>2022-03-12T12:00:42.319Z</time>
      </trkpt>
      <trkpt lat="45.03631" lon="5.13943">
        <ele>240.63787</ele>
        <time>2022-03-12T12:00:46.321Z</time>
      </trkpt>
      <trkpt lat="45.0362" lon="5.13944">
        <ele>240.559096</ele>
        <time>2022-03-12T12:00:50.325Z</time>
      </trkpt>
      <trkpt lat="45.0361" lon="5.13948">
        <ele>240.485358</ele>
        <time>2022-03-12T12:00:55.320Z</time>
      </trkpt>
      <trkpt lat="45.03601" lon="5.13954">
        <ele>240.411678</ele>
        <time>2022-03-12T12:01:25.325Z</time>
      </trkpt>
      <trkpt lat="45.03591" lon="5.13958">
        <ele>240.341555</ele>
        <time>2022-03-12T12:01:29.310Z</time>
      </trkpt>
      <trkpt lat="45.03582" lon="5.13962">
        <ele>240.274743</ele>
        <time>2022-03-12T12:01:33.328Z</time>
      </trkpt>
      <trkpt lat="45.03573" lon="5.13967">
        <ele>240.204968</ele>
        <time>2022-03-12T12:01:37.323Z</time>
      </trkpt>
      <trkpt lat="45.03564" lon="5.13972">
        <ele>240.133354</ele>
        <time>2022-03-12T12:01:41.322Z</time>
      </trkpt>
      <trkpt lat="45.03552" lon="5.13976">
        <ele>240.050479</ele>
        <time>2022-03-12T12:01:45.323Z</time>
      </trkpt>
      <trkpt lat="45.03541" lon="5.13981">
        <ele>239.968652</ele>
        <time>2022-03-12T12:01:48.329Z</time>
      </trkpt>
      <trkpt lat="45.03528" lon="5.13985">
        <ele>239.869578</ele>
        <time>2022-03-12T12:01:51.328Z</time>
      </trkpt>
      <trkpt lat="45.03517" lon="5.13986">
        <ele>239.79363</ele>
        <time>2022-03-12T12:01:53.327Z</time>
      </trkpt>
      <trkpt lat="45.03505" lon="5.13982">
        <ele>239.705847</ele>
        <time>2022-03-12T12:01:55.333Z</time>
      </trkpt>
      <trkpt lat="45.03492" lon="5.13972">
        <ele>239.807226</ele>
        <time>2022-03-12T12:01:57.336Z</time>
      </trkpt>
      <trkpt lat="45.03481" lon="5.13957">
        <ele>240.056636</ele>
        <time>2022-03-12T12:01:59.333Z</time>
      </trkpt>
      <trkpt lat="45.03474" lon="5.13937">
        <ele>240.316747</ele>
        <time>2022-03-12T12:02:01.326Z</time>
      </trkpt>
      <trkpt lat="45.0347" lon="5.13915">
        <ele>240.575833</ele>
        <time>2022-03-12T12:02:03.341Z</time>
      </trkpt>
      <trkpt lat="45.0347" lon="5.13893">
        <ele>240.817973</ele>
        <time>2022-03-12T12:02:05.328Z</time>
      </trkpt>
      <trkpt lat="45.03471" lon="5.13874">
        <ele>241.036705</ele>
        <time>2022-03-12T12:02:07.322Z</time>
      </trkpt>
      <trkpt lat="45.03472" lon="5.13858">
        <ele>241.222733</ele>
        <time>2022-03-12T12:02:09.336Z</time>
      </trkpt>
      <trkpt lat="45.03472" lon="5.13844">
        <ele>241.382654</ele>
        <time>2022-03-12T12:02:11.329Z</time>
      </trkpt>
      <trkpt lat="45.03471" lon="5.13831">
        <ele>241.531685</ele>
        <time>2022-03-12T12:02:13.324Z</time>
      </trkpt>
      <trkpt lat="45.03469" lon="5.13819">
        <ele>241.677689</ele>
        <time>2022-03-12T12:02:15.321Z</time>
      </trkpt>
      <trkpt lat="45.03463" lon="5.13804">
        <ele>241.873969</ele>
        <time>2022-03-12T12:02:18.323Z</time>
      </trkpt>
      <trkpt lat="45.03457" lon="5.13791">
        <ele>242.043868</ele>
        <time>2022-03-12T12:02:21.333Z</time>
      </trkpt>
      <trkpt lat="45.0345" lon="5.13781">
        <ele>242.208067</ele>
        <time>2022-03-12T12:02:25.327Z</time>
      </trkpt>
      <trkpt lat="45.03441" lon="5.13773">
        <ele>242.386892</ele>
        <time>2022-03-12T12:02:29.325Z</time>
      </trkpt>
      <trkpt lat="45.0343" lon="5.13765">
        <ele>242.575205</ele>
        <time>2022-03-12T12:02:33.325Z</time>
      </trkpt>
      <trkpt lat="45.03422" lon="5.13759">
        <ele>242.645908</ele>
        <time>2022-03-12T12:02:36.332Z</time>
      </trkpt>
      <trkpt lat="45.03413" lon="5.13752">
        <ele>242.727051</ele>
        <time>2022-03-12T12:02:39.335Z</time>
      </trkpt>
      <trkpt lat="45.03403" lon="5.13744">
        <ele>242.812732</ele>
        <time>2022-03-12T12:02:42.321Z</time>
      </trkpt>
      <trkpt lat="45.03393" lon="5.13737">
        <ele>242.900604</ele>
        <time>2022-03-12T12:02:45.322Z</time>
      </trkpt>
      <trkpt lat="45.03382" lon="5.13728">
        <ele>242.995761</ele>
        <time>2022-03-12T12:02:48.313Z</time>
      </trkpt>
      <trkpt lat="45.03371" lon="5.1372">
        <ele>243.098899</ele>
        <time>2022-03-12T12:02:51.327Z</time>
      </trkpt>
      <trkpt lat="45.03362" lon="5.13713">
        <ele>243.17165</ele>
        <time>2022-03-12T12:02:53.320Z</time>
      </trkpt>
      <trkpt lat="45.03354" lon="5.13707">
        <ele>243.243326</ele>
        <time>2022-03-12T12:02:55.332Z</time>
      </trkpt>
      <trkpt lat="45.03347" lon="5.13699">
        <ele>243.314526</ele>
        <time>2022-03-12T12:02:57.335Z</time>
      </trkpt>
      <trkpt lat="45.0334" lon="5.1369">
        <ele>243.388632</ele>
        <time>2022-03-12T12:02:59.323Z</time>
      </trkpt>
      <trkpt lat="45.03333" lon="5.1368">
        <ele>243.464006</ele>
        <time>2022-03-12T12:03:01.325Z</time>
      </trkpt>
      <trkpt lat="45.03326" lon="5.13664">
        <ele>243.568725</ele>
        <time>2022-03-12T12:03:04.332Z</time>
      </trkpt>
      <trkpt lat="45.0332" lon="5.13648">
        <ele>243.668694</ele>
        <time>2022-03-12T12:03:07.332Z</time>
      </trkpt>
      <trkpt lat="45.03314" lon="5.13632">
        <ele>243.763439</ele>
        <time>2022-03-12T12:03:10.321Z</time>
      </trkpt>
      <trkpt lat="45.03309" lon="5.13617">
        <ele>243.858799</ele>
        <time>2022-03-12T12:03:13.321Z</time>
      </trkpt>
      <trkpt lat="45.03303" lon="5.13602">
        <ele>243.950454</ele>
        <time>2022-03-12T12:03:16.318Z</time>
      </trkpt>
      <trkpt lat="45.03296" lon="5.13589">
        <ele>244.026789</ele>
        <time>2022-03-12T12:03:19.325Z</time>
      </trkpt>
      <trkpt lat="45.03288" lon="5.13575">
        <ele>244.105661</ele>
        <time>2022-03-12T12:03:22.324Z</time>
      </trkpt>
      <trkpt lat="45.03282" lon="5.13565">
        <ele>244.160653</ele>
        <time>2022-03-12T12:03:24.329Z</time>
      </trkpt>
      <trkpt lat="45.03275" lon="5.13556">
        <ele>244.216802</ele>
        <time>2022-03-12T12:03:26.331Z</time>
      </trkpt>
      <trkpt lat="45.03268" lon="5.13547">
        <ele>244.275371</ele>
        <time>2022-03-12T12:03:28.329Z</time>
      </trkpt>
      <trkpt lat="45.0326" lon="5.13539">
        <ele>244.336946</ele>
        <time>2022-03-12T12:03:30.323Z</time>
      </trkpt>
      <trkpt lat="45.03251" lon="5.1353">
        <ele>244.401526</ele>
        <time>2022-03-12T12:03:32.328Z</time>
      </trkpt>
      <trkpt lat="45.03242" lon="5.13521">
        <ele>244.466599</ele>
        <time>2022-03-12T12:03:34.324Z</time>
      </trkpt>
      <trkpt lat="45.03233" lon="5.13513">
        <ele>244.532177</ele>
        <time>2022-03-12T12:03:36.332Z</time>
      </trkpt>
      <trkpt lat="45.03225" lon="5.13504">
        <ele>244.598491</ele>
        <time>2022-03-12T12:03:38.327Z</time>
      </trkpt>
      <trkpt lat="45.03216" lon="5.13496">
        <ele>244.663082</ele>
        <time>2022-03-12T12:03:40.331Z</time>
      </trkpt>
      <trkpt lat="45.03207" lon="5.13488">
        <ele>244.725984</ele>
        <time>2022-03-12T12:03:42.328Z</time>
      </trkpt>
      <trkpt lat="45.03198" lon="5.13481">
        <ele>244.786412</ele>
        <time>2022-03-12T12:03:44.320Z</time>
      </trkpt>
      <trkpt lat="45.0319" lon="5.13475">
        <ele>244.844426</ele>
        <time>2022-03-12T12:03:46.334Z</time>
      </trkpt>
      <trkpt lat="45.03177" lon="5.13469">
        <ele>244.925647</ele>
        <time>2022-03-12T12:03:49.330Z</time>
      </trkpt>
      <trkpt lat="45.03166" lon="5.13461">
        <ele>245.002626</ele>
        <time>2022-03-12T12:03:52.324Z</time>
      </trkpt>
      <trkpt lat="45.03155" lon="5.13455">
        <ele>245.106128</ele>
        <time>2022-03-12T12:03:55.317Z</time>
      </trkpt>
      <trkpt lat="45.03143" lon="5.13449">
        <ele>245.380022</ele>
        <time>2022-03-12T12:03:58.334Z</time>
      </trkpt>
      <trkpt lat="45.03132" lon="5.13446">
        <ele>245.644356</ele>
        <time>2022-03-12T12:04:01.332Z</time>
      </trkpt>
      <trkpt lat="45.03121" lon="5.13445">
        <ele>245.89352</ele>
        <time>2022-03-12T12:04:04.333Z</time>
      </trkpt>
      <trkpt lat="45.03111" lon="5.13447">
        <ele>246.124883</ele>
        <time>2022-03-12T12:04:07.326Z</time>
      </trkpt>
      <trkpt lat="45.03101" lon="5.13449">
        <ele>246.353896</ele>
        <time>2022-03-12T12:04:10.324Z</time>
      </trkpt>
      <trkpt lat="45.03091" lon="5.13452">
        <ele>246.578002</ele>
        <time>2022-03-12T12:04:13.323Z</time>
      </trkpt>
      <trkpt lat="45.03081" lon="5.13454">
        <ele>246.796727</ele>
        <time>2022-03-12T12:04:16.307Z</time>
      </trkpt>
      <trkpt lat="45.03072" lon="5.13458">
        <ele>247.019457</ele>
        <time>2022-03-12T12:04:19.323Z</time>
      </trkpt>
      <trkpt lat="45.03062" lon="5.13461">
        <ele>247.237884</ele>
        <time>2022-03-12T12:04:22.317Z</time>
      </trkpt>
      <trkpt lat="45.03053" lon="5.13463">
        <ele>247.446185</ele>
        <time>2022-03-12T12:04:25.323Z</time>
      </trkpt>
      <trkpt lat="45.03044" lon="5.13467">
        <ele>247.658938</ele>
        <time>2022-03-12T12:04:28.322Z</time>
      </trkpt>
      <trkpt lat="45.03033" lon="5.1347">
        <ele>247.92105</ele>
        <time>2022-03-12T12:04:32.327Z</time>
      </trkpt>
      <trkpt lat="45.03023" lon="5.13472">
        <ele>248.152824</ele>
        <time>2022-03-12T12:04:36.326Z</time>
      </trkpt>
      <trkpt lat="45.03013" lon="5.13473">
        <ele>248.37267</ele>
        <time>2022-03-12T12:04:39.320Z</time>
      </trkpt>
      <trkpt lat="45.03" lon="5.13472">
        <ele>248.667155</ele>
        <time>2022-03-12T12:04:42.330Z</time>
      </trkpt>
      <trkpt lat="45.0299" lon="5.13468">
        <ele>248.911754</ele>
        <time>2022-03-12T12:04:44.329Z</time>
      </trkpt>
      <trkpt lat="45.02978" lon="5.13463">
        <ele>248.971236</ele>
        <time>2022-03-12T12:04:46.332Z</time>
      </trkpt>
      <trkpt lat="45.02965" lon="5.13456">
        <ele>248.16925</ele>
        <time>2022-03-12T12:04:48.333Z</time>
      </trkpt>
      <trkpt lat="45.0295" lon="5.13449">
        <ele>247.281265</ele>
        <time>2022-03-12T12:04:50.318Z</time>
      </trkpt>
      <trkpt lat="45.02934" lon="5.13445">
        <ele>246.322134</ele>
        <time>2022-03-12T12:04:52.318Z</time>
      </trkpt>
      <trkpt lat="45.02916" lon="5.13443">
        <ele>245.282951</ele>
        <time>2022-03-12T12:04:54.319Z</time>
      </trkpt>
      <trkpt lat="45.02906" lon="5.13443">
        <ele>244.740727</ele>
        <time>2022-03-12T12:04:55.326Z</time>
      </trkpt>
      <trkpt lat="45.02897" lon="5.13443">
        <ele>244.192967</ele>
        <time>2022-03-12T12:04:56.328Z</time>
      </trkpt>
      <trkpt lat="45.02887" lon="5.13442">
        <ele>243.62769</ele>
        <time>2022-03-12T12:04:57.322Z</time>
      </trkpt>
      <trkpt lat="45.02877" lon="5.13442">
        <ele>243.062119</ele>
        <time>2022-03-12T12:04:58.326Z</time>
      </trkpt>
      <trkpt lat="45.02867" lon="5.1344">
        <ele>242.488468</ele>
        <time>2022-03-12T12:04:59.311Z</time>
      </trkpt>
      <trkpt lat="45.02858" lon="5.13438">
        <ele>241.917578</ele>
        <time>2022-03-12T12:05:00.330Z</time>
      </trkpt>
      <trkpt lat="45.02848" lon="5.13436">
        <ele>241.349099</ele>
        <time>2022-03-12T12:05:01.336Z</time>
      </trkpt>
      <trkpt lat="45.02838" lon="5.13433">
        <ele>240.789597</ele>
        <time>2022-03-12T12:05:02.325Z</time>
      </trkpt>
      <trkpt lat="45.02829" lon="5.1343">
        <ele>240.245876</ele>
        <time>2022-03-12T12:05:03.330Z</time>
      </trkpt>
      <trkpt lat="45.0282" lon="5.13426">
        <ele>239.701962</ele>
        <time>2022-03-12T12:05:04.329Z</time>
      </trkpt>
      <trkpt lat="45.02812" lon="5.13421">
        <ele>239.182849</ele>
        <time>2022-03-12T12:05:05.328Z</time>
      </trkpt>
      <trkpt lat="45.02795" lon="5.13413">
        <ele>238.801009</ele>
        <time>2022-03-12T12:05:07.332Z</time>
      </trkpt>
      <trkpt lat="45.02781" lon="5.13403">
        <ele>238.86517</ele>
        <time>2022-03-12T12:05:09.317Z</time>
      </trkpt>
      <trkpt lat="45.02767" lon="5.13393">
        <ele>238.926473</ele>
        <time>2022-03-12T12:05:11.319Z</time>
      </trkpt>
      <trkpt lat="45.02754" lon="5.13384">
        <ele>238.98274</ele>
        <time>2022-03-12T12:05:13.328Z</time>
      </trkpt>
      <trkpt lat="45.02743" lon="5.13376">
        <ele>239.033032</ele>
        <time>2022-03-12T12:05:15.327Z</time>
      </trkpt>
      <trkpt lat="45.02732" lon="5.13369">
        <ele>239.079717</ele>
        <time>2022-03-12T12:05:17.320Z</time>
      </trkpt>
      <trkpt lat="45.02722" lon="5.13364">
        <ele>239.121078</ele>
        <time>2022-03-12T12:05:19.320Z</time>
      </trkpt>
      <trkpt lat="45.02713" lon="5.13361">
        <ele>239.158134</ele>
        <time>2022-03-12T12:05:21.326Z</time>
      </trkpt>
      <trkpt lat="45.027" lon="5.13359">
        <ele>239.210082</ele>
        <time>2022-03-12T12:05:24.325Z</time>
      </trkpt>
      <trkpt lat="45.02687" lon="5.13358">
        <ele>239.261714</ele>
        <time>2022-03-12T12:05:27.326Z</time>
      </trkpt>
      <trkpt lat="45.02674" lon="5.1336">
        <ele>239.314247</ele>
        <time>2022-03-12T12:05:30.322Z</time>
      </trkpt>
      <trkpt lat="45.02661" lon="5.13361">
        <ele>239.366781</ele>
        <time>2022-03-12T12:05:33.330Z</time>
      </trkpt>
      <trkpt lat="45.02648" lon="5.13363">
        <ele>239.419009</ele>
        <time>2022-03-12T12:05:36.334Z</time>
      </trkpt>
      <trkpt lat="45.02635" lon="5.13364">
        <ele>239.470841</ele>
        <time>2022-03-12T12:05:39.325Z</time>
      </trkpt>
      <trkpt lat="45.02622" lon="5.13366">
        <ele>239.701715</ele>
        <time>2022-03-12T12:05:42.322Z</time>
      </trkpt>
      <trkpt lat="45.02613" lon="5.13367">
        <ele>239.870713</ele>
        <time>2022-03-12T12:05:44.324Z</time>
      </trkpt>
      <trkpt lat="45.026" lon="5.1337">
        <ele>240.107889</ele>
        <time>2022-03-12T12:05:47.323Z</time>
      </trkpt>
      <trkpt lat="45.02588" lon="5.13372">
        <ele>240.340115</ele>
        <time>2022-03-12T12:05:50.331Z</time>
      </trkpt>
      <trkpt lat="45.02576" lon="5.13375">
        <ele>240.572377</ele>
        <time>2022-03-12T12:05:53.318Z</time>
      </trkpt>
      <trkpt lat="45.02564" lon="5.13378">
        <ele>240.80167</ele>
        <time>2022-03-12T12:05:56.327Z</time>
      </trkpt>
      <trkpt lat="45.02553" lon="5.13384">
        <ele>241.029973</ele>
        <time>2022-03-12T12:05:59.325Z</time>
      </trkpt>
      <trkpt lat="45.02541" lon="5.13391">
        <ele>241.264782</ele>
        <time>2022-03-12T12:06:02.319Z</time>
      </trkpt>
      <trkpt lat="45.0253" lon="5.13398">
        <ele>241.492676</ele>
        <time>2022-03-12T12:06:05.327Z</time>
      </trkpt>
      <trkpt lat="45.02519" lon="5.13405">
        <ele>241.725128</ele>
        <time>2022-03-12T12:06:08.323Z</time>
      </trkpt>
      <trkpt lat="45.02508" lon="5.13413">
        <ele>241.952125</ele>
        <time>2022-03-12T12:06:11.318Z</time>
      </trkpt>
      <trkpt lat="45.02497" lon="5.1342">
        <ele>242.180019</ele>
        <time>2022-03-12T12:06:14.314Z</time>
      </trkpt>
      <trkpt lat="45.02486" lon="5.13428">
        <ele>242.409051</ele>
        <time>2022-03-12T12:06:17.319Z</time>
      </trkpt>
      <trkpt lat="45.02475" lon="5.13435">
        <ele>242.636385</ele>
        <time>2022-03-12T12:06:20.321Z</time>
      </trkpt>
      <trkpt lat="45.02464" lon="5.13442">
        <ele>242.868652</ele>
        <time>2022-03-12T12:06:23.321Z</time>
      </trkpt>
      <trkpt lat="45.02453" lon="5.1345">
        <ele>243.169729</ele>
        <time>2022-03-12T12:06:26.322Z</time>
      </trkpt>
      <trkpt lat="45.02442" lon="5.13457">
        <ele>243.46344</ele>
        <time>2022-03-12T12:06:29.324Z</time>
      </trkpt>
      <trkpt lat="45.02432" lon="5.13464">
        <ele>243.751201</ele>
        <time>2022-03-12T12:06:32.335Z</time>
      </trkpt>
      <trkpt lat="45.02421" lon="5.13472">
        <ele>244.038199</ele>
        <time>2022-03-12T12:06:35.320Z</time>
      </trkpt>
      <trkpt lat="45.02411" lon="5.13478">
        <ele>244.317768</ele>
        <time>2022-03-12T12:06:38.319Z</time>
      </trkpt>
      <trkpt lat="45.024" lon="5.13486">
        <ele>244.604886</ele>
        <time>2022-03-12T12:06:41.323Z</time>
      </trkpt>
      <trkpt lat="45.0239" lon="5.13493">
        <ele>244.882465</ele>
        <time>2022-03-12T12:06:44.332Z</time>
      </trkpt>
      <trkpt lat="45.0238" lon="5.13499">
        <ele>245.156443</ele>
        <time>2022-03-12T12:06:47.308Z</time>
      </trkpt>
      <trkpt lat="45.02369" lon="5.13506">
        <ele>245.442861</ele>
        <time>2022-03-12T12:06:50.322Z</time>
      </trkpt>
      <trkpt lat="45.02358" lon="5.13511">
        <ele>245.729386</ele>
        <time>2022-03-12T12:06:53.322Z</time>
      </trkpt>
      <trkpt lat="45.02347" lon="5.13516">
        <ele>246.029021</ele>
        <time>2022-03-12T12:06:56.336Z</time>
      </trkpt>
      <trkpt lat="45.02334" lon="5.1352">
        <ele>246.342856</ele>
        <time>2022-03-12T12:06:59.320Z</time>
      </trkpt>
      <trkpt lat="45.02322" lon="5.13525">
        <ele>246.6477</ele>
        <time>2022-03-12T12:07:02.321Z</time>
      </trkpt>
      <trkpt lat="45.0231" lon="5.13529">
        <ele>246.950161</ele>
        <time>2022-03-12T12:07:05.328Z</time>
      </trkpt>
      <trkpt lat="45.02298" lon="5.13534">
        <ele>247.255512</ele>
        <time>2022-03-12T12:07:08.327Z</time>
      </trkpt>
      <trkpt lat="45.02286" lon="5.13539">
        <ele>247.597041</ele>
        <time>2022-03-12T12:07:11.326Z</time>
      </trkpt>
      <trkpt lat="45.02275" lon="5.13545">
        <ele>247.936364</ele>
        <time>2022-03-12T12:07:14.325Z</time>
      </trkpt>
      <trkpt lat="45.02263" lon="5.13553">
        <ele>248.280232</ele>
        <time>2022-03-12T12:07:17.326Z</time>
      </trkpt>
      <trkpt lat="45.02252" lon="5.1356">
        <ele>248.613372</ele>
        <time>2022-03-12T12:07:20.326Z</time>
      </trkpt>
      <trkpt lat="45.02242" lon="5.13568">
        <ele>248.932807</ele>
        <time>2022-03-12T12:07:23.319Z</time>
      </trkpt>
      <trkpt lat="45.02231" lon="5.13576">
        <ele>249.257353</ele>
        <time>2022-03-12T12:07:26.318Z</time>
      </trkpt>
      <trkpt lat="45.02221" lon="5.13584">
        <ele>249.569985</ele>
        <time>2022-03-12T12:07:29.322Z</time>
      </trkpt>
      <trkpt lat="45.02212" lon="5.13591">
        <ele>249.863894</ele>
        <time>2022-03-12T12:07:32.330Z</time>
      </trkpt>
      <trkpt lat="45.02203" lon="5.13599">
        <ele>250.154791</ele>
        <time>2022-03-12T12:07:35.322Z</time>
      </trkpt>
      <trkpt lat="45.02193" lon="5.13607">
        <ele>250.460343</ele>
        <time>2022-03-12T12:07:38.322Z</time>
      </trkpt>
      <trkpt lat="45.02184" lon="5.13614">
        <ele>250.744597</ele>
        <time>2022-03-12T12:07:41.322Z</time>
      </trkpt>
      <trkpt lat="45.02175" lon="5.13623">
        <ele>251.02898</ele>
        <time>2022-03-12T12:07:44.321Z</time>
      </trkpt>
      <trkpt lat="45.02167" lon="5.13631">
        <ele>251.301214</ele>
        <time>2022-03-12T12:07:47.328Z</time>
      </trkpt>
      <trkpt lat="45.02159" lon="5.13639">
        <ele>251.572282</ele>
        <time>2022-03-12T12:07:50.332Z</time>
      </trkpt>
      <trkpt lat="45.02151" lon="5.13648">
        <ele>251.845739</ele>
        <time>2022-03-12T12:07:53.322Z</time>
      </trkpt>
      <trkpt lat="45.02143" lon="5.13658">
        <ele>252.129977</ele>
        <time>2022-03-12T12:07:56.324Z</time>
      </trkpt>
      <trkpt lat="45.02135" lon="5.13667">
        <ele>252.425799</ele>
        <time>2022-03-12T12:07:59.319Z</time>
      </trkpt>
      <trkpt lat="45.02127" lon="5.13677">
        <ele>252.726784</ele>
        <time>2022-03-12T12:08:02.333Z</time>
      </trkpt>
      <trkpt lat="45.02118" lon="5.13688">
        <ele>253.034504</ele>
        <time>2022-03-12T12:08:05.327Z</time>
      </trkpt>
      <trkpt lat="45.0211" lon="5.13697">
        <ele>253.335098</ele>
        <time>2022-03-12T12:08:08.332Z</time>
      </trkpt>
      <trkpt lat="45.02102" lon="5.13707">
        <ele>253.625711</ele>
        <time>2022-03-12T12:08:11.318Z</time>
      </trkpt>
      <trkpt lat="45.02094" lon="5.13718">
        <ele>253.916939</ele>
        <time>2022-03-12T12:08:14.325Z</time>
      </trkpt>
      <trkpt lat="45.02086" lon="5.13728">
        <ele>254.217624</ele>
        <time>2022-03-12T12:08:17.329Z</time>
      </trkpt>
      <trkpt lat="45.02078" lon="5.13738">
        <ele>254.527884</ele>
        <time>2022-03-12T12:08:20.323Z</time>
      </trkpt>
      <trkpt lat="45.0207" lon="5.13748">
        <ele>254.828051</ele>
        <time>2022-03-12T12:08:23.326Z</time>
      </trkpt>
      <trkpt lat="45.02061" lon="5.13758">
        <ele>255.126941</ele>
        <time>2022-03-12T12:08:26.325Z</time>
      </trkpt>
      <trkpt lat="45.02053" lon="5.13769">
        <ele>255.430472</ele>
        <time>2022-03-12T12:08:29.323Z</time>
      </trkpt>
      <trkpt lat="45.02045" lon="5.1378">
        <ele>255.748495</ele>
        <time>2022-03-12T12:08:32.322Z</time>
      </trkpt>
      <trkpt lat="45.02036" lon="5.1379">
        <ele>256.068436</ele>
        <time>2022-03-12T12:08:35.320Z</time>
      </trkpt>
      <trkpt lat="45.02027" lon="5.13801">
        <ele>256.385008</ele>
        <time>2022-03-12T12:08:38.322Z</time>
      </trkpt>
      <trkpt lat="45.02019" lon="5.13811">
        <ele>256.690359</ele>
        <time>2022-03-12T12:08:41.330Z</time>
      </trkpt>
      <trkpt lat="45.0201" lon="5.13822">
        <ele>257.003188</ele>
        <time>2022-03-12T12:08:44.331Z</time>
      </trkpt>
      <trkpt lat="45.02001" lon="5.13831">
        <ele>257.315025</ele>
        <time>2022-03-12T12:08:47.318Z</time>
      </trkpt>
      <trkpt lat="45.01992" lon="5.13841">
        <ele>257.623513</ele>
        <time>2022-03-12T12:08:50.326Z</time>
      </trkpt>
      <trkpt lat="45.01983" lon="5.13851">
        <ele>257.933952</ele>
        <time>2022-03-12T12:08:53.328Z</time>
      </trkpt>
      <trkpt lat="45.01973" lon="5.1386">
        <ele>258.242491</ele>
        <time>2022-03-12T12:08:56.330Z</time>
      </trkpt>
      <trkpt lat="45.01965" lon="5.13869">
        <ele>258.523727</ele>
        <time>2022-03-12T12:08:59.330Z</time>
      </trkpt>
      <trkpt lat="45.01956" lon="5.13879">
        <ele>258.819286</ele>
        <time>2022-03-12T12:09:02.336Z</time>
      </trkpt>
      <trkpt lat="45.01948" lon="5.13889">
        <ele>259.11659</ele>
        <time>2022-03-12T12:09:05.317Z</time>
      </trkpt>
      <trkpt lat="45.0194" lon="5.13899">
        <ele>259.414767</ele>
        <time>2022-03-12T12:09:08.318Z</time>
      </trkpt>
      <trkpt lat="45.01931" lon="5.13909">
        <ele>259.713291</ele>
        <time>2022-03-12T12:09:11.313Z</time>
      </trkpt>
      <trkpt lat="45.01923" lon="5.1392">
        <ele>260.00814</ele>
        <time>2022-03-12T12:09:14.326Z</time>
      </trkpt>
      <trkpt lat="45.01916" lon="5.1393">
        <ele>260.282708</ele>
        <time>2022-03-12T12:09:17.328Z</time>
      </trkpt>
      <trkpt lat="45.01909" lon="5.1394">
        <ele>260.554056</ele>
        <time>2022-03-12T12:09:20.326Z</time>
      </trkpt>
      <trkpt lat="45.01901" lon="5.1395">
        <ele>260.828081</ele>
        <time>2022-03-12T12:09:23.329Z</time>
      </trkpt>
      <trkpt lat="45.01894" lon="5.1396">
        <ele>261.112449</ele>
        <time>2022-03-12T12:09:26.315Z</time>
      </trkpt>
      <trkpt lat="45.01886" lon="5.13971">
        <ele>261.402715</ele>
        <time>2022-03-12T12:09:29.321Z</time>
      </trkpt>
      <trkpt lat="45.01878" lon="5.13981">
        <ele>261.682499</ele>
        <time>2022-03-12T12:09:32.321Z</time>
      </trkpt>
      <trkpt lat="45.01871" lon="5.13991">
        <ele>261.951391</ele>
        <time>2022-03-12T12:09:35.324Z</time>
      </trkpt>
      <trkpt lat="45.01865" lon="5.14002">
        <ele>262.255386</ele>
        <time>2022-03-12T12:09:38.329Z</time>
      </trkpt>
      <trkpt lat="45.01857" lon="5.14013">
        <ele>262.560039</ele>
        <time>2022-03-12T12:09:41.329Z</time>
      </trkpt>
      <trkpt lat="45.0185" lon="5.14024">
        <ele>262.868705</ele>
        <time>2022-03-12T12:09:44.328Z</time>
      </trkpt>
      <trkpt lat="45.01843" lon="5.14034">
        <ele>263.176059</ele>
        <time>2022-03-12T12:09:47.324Z</time>
      </trkpt>
      <trkpt lat="45.01836" lon="5.14045">
        <ele>263.494035</ele>
        <time>2022-03-12T12:09:50.322Z</time>
      </trkpt>
      <trkpt lat="45.01829" lon="5.14057">
        <ele>263.816429</ele>
        <time>2022-03-12T12:09:53.322Z</time>
      </trkpt>
      <trkpt lat="45.01821" lon="5.1407">
        <ele>264.167609</ele>
        <time>2022-03-12T12:09:56.316Z</time>
      </trkpt>
      <trkpt lat="45.01813" lon="5.14083">
        <ele>264.528332</ele>
        <time>2022-03-12T12:09:59.318Z</time>
      </trkpt>
      <trkpt lat="45.01805" lon="5.14098">
        <ele>264.916956</ele>
        <time>2022-03-12T12:10:02.329Z</time>
      </trkpt>
      <trkpt lat="45.01799" lon="5.14107">
        <ele>265.182848</ele>
        <time>2022-03-12T12:10:04.319Z</time>
      </trkpt>
      <trkpt lat="45.01793" lon="5.14117">
        <ele>265.449079</ele>
        <time>2022-03-12T12:10:06.332Z</time>
      </trkpt>
      <trkpt lat="45.01786" lon="5.14131">
        <ele>265.825183</ele>
        <time>2022-03-12T12:10:09.321Z</time>
      </trkpt>
      <trkpt lat="45.01779" lon="5.14142">
        <ele>266.132842</ele>
        <time>2022-03-12T12:10:12.326Z</time>
      </trkpt>
      <trkpt lat="45.01772" lon="5.14152">
        <ele>266.419683</ele>
        <time>2022-03-12T12:10:15.320Z</time>
      </trkpt>
      <trkpt lat="45.01766" lon="5.14161">
        <ele>266.689263</ele>
        <time>2022-03-12T12:10:18.321Z</time>
      </trkpt>
      <trkpt lat="45.01757" lon="5.14173">
        <ele>267.043106</ele>
        <time>2022-03-12T12:10:22.319Z</time>
      </trkpt>
      <trkpt lat="45.0175" lon="5.14186">
        <ele>267.488858</ele>
        <time>2022-03-12T12:10:26.331Z</time>
      </trkpt>
      <trkpt lat="45.01742" lon="5.14199">
        <ele>268.178123</ele>
        <time>2022-03-12T12:10:30.335Z</time>
      </trkpt>
      <trkpt lat="45.01734" lon="5.1421">
        <ele>268.846253</ele>
        <time>2022-03-12T12:10:34.321Z</time>
      </trkpt>
      <trkpt lat="45.01727" lon="5.14221">
        <ele>269.505014</ele>
        <time>2022-03-12T12:10:38.336Z</time>
      </trkpt>
      <trkpt lat="45.01719" lon="5.14233">
        <ele>270.164836</ele>
        <time>2022-03-12T12:10:42.328Z</time>
      </trkpt>
      <trkpt lat="45.01712" lon="5.14243">
        <ele>270.778001</ele>
        <time>2022-03-12T12:10:46.320Z</time>
      </trkpt>
      <trkpt lat="45.01705" lon="5.14253">
        <ele>271.383988</ele>
        <time>2022-03-12T12:10:50.319Z</time>
      </trkpt>
      <trkpt lat="45.01698" lon="5.14263">
        <ele>271.963211</ele>
        <time>2022-03-12T12:10:54.324Z</time>
      </trkpt>
      <trkpt lat="45.01691" lon="5.14273">
        <ele>272.546542</ele>
        <time>2022-03-12T12:10:58.324Z</time>
      </trkpt>
      <trkpt lat="45.01684" lon="5.14284">
        <ele>273.168757</ele>
        <time>2022-03-12T12:11:02.334Z</time>
      </trkpt>
      <trkpt lat="45.01677" lon="5.14294">
        <ele>273.754451</ele>
        <time>2022-03-12T12:11:06.322Z</time>
      </trkpt>
      <trkpt lat="45.0167" lon="5.14305">
        <ele>274.367352</ele>
        <time>2022-03-12T12:11:10.325Z</time>
      </trkpt>
      <trkpt lat="45.01662" lon="5.14314">
        <ele>274.984579</ele>
        <time>2022-03-12T12:11:14.327Z</time>
      </trkpt>
      <trkpt lat="45.01653" lon="5.14323">
        <ele>275.620768</ele>
        <time>2022-03-12T12:11:18.325Z</time>
      </trkpt>
      <trkpt lat="45.01645" lon="5.14331">
        <ele>276.210775</ele>
        <time>2022-03-12T12:11:22.315Z</time>
      </trkpt>
      <trkpt lat="45.01638" lon="5.14341">
        <ele>276.846816</ele>
        <time>2022-03-12T12:11:26.324Z</time>
      </trkpt>
      <trkpt lat="45.01631" lon="5.14353">
        <ele>277.486382</ele>
        <time>2022-03-12T12:11:30.312Z</time>
      </trkpt>
      <trkpt lat="45.01625" lon="5.14364">
        <ele>278.036497</ele>
        <time>2022-03-12T12:11:34.333Z</time>
      </trkpt>
      <trkpt lat="45.01618" lon="5.14375">
        <ele>278.323895</ele>
        <time>2022-03-12T12:11:38.321Z</time>
      </trkpt>
      <trkpt lat="45.01612" lon="5.14387">
        <ele>278.612356</ele>
        <time>2022-03-12T12:11:42.328Z</time>
      </trkpt>
      <trkpt lat="45.01607" lon="5.14397">
        <ele>278.872625</ele>
        <time>2022-03-12T12:11:46.324Z</time>
      </trkpt>
      <trkpt lat="45.016" lon="5.1441">
        <ele>279.193185</ele>
        <time>2022-03-12T12:11:51.324Z</time>
      </trkpt>
      <trkpt lat="45.01594" lon="5.1442">
        <ele>279.464128</ele>
        <time>2022-03-12T12:11:55.330Z</time>
      </trkpt>
      <trkpt lat="45.01588" lon="5.14431">
        <ele>279.754286</ele>
        <time>2022-03-12T12:11:59.330Z</time>
      </trkpt>
      <trkpt lat="45.01582" lon="5.14443">
        <ele>280.039412</ele>
        <time>2022-03-12T12:12:03.333Z</time>
      </trkpt>
      <trkpt lat="45.01577" lon="5.14454">
        <ele>280.316404</ele>
        <time>2022-03-12T12:12:07.326Z</time>
      </trkpt>
      <trkpt lat="45.01571" lon="5.14466">
        <ele>280.598216</ele>
        <time>2022-03-12T12:12:11.335Z</time>
      </trkpt>
      <trkpt lat="45.01567" lon="5.14477">
        <ele>280.872836</ele>
        <time>2022-03-12T12:12:15.326Z</time>
      </trkpt>
      <trkpt lat="45.01563" lon="5.1449">
        <ele>281.149065</ele>
        <time>2022-03-12T12:12:19.324Z</time>
      </trkpt>
      <trkpt lat="45.01559" lon="5.14503">
        <ele>281.440976</ele>
        <time>2022-03-12T12:12:23.329Z</time>
      </trkpt>
      <trkpt lat="45.01556" lon="5.14516">
        <ele>281.710884</ele>
        <time>2022-03-12T12:12:27.308Z</time>
      </trkpt>
      <trkpt lat="45.01555" lon="5.14529">
        <ele>281.98831</ele>
        <time>2022-03-12T12:12:32.322Z</time>
      </trkpt>
      <trkpt lat="45.01553" lon="5.14543">
        <ele>282.265304</ele>
        <time>2022-03-12T12:12:37.327Z</time>
      </trkpt>
      <trkpt lat="45.01535" lon="5.1453">
        <ele>282.848486</ele>
        <time>2022-03-12T12:13:30.327Z</time>
      </trkpt>
      <trkpt lat="45.01527" lon="5.14519">
        <ele>283.13989</ele>
        <time>2022-03-12T12:13:32.331Z</time>
      </trkpt>
      <trkpt lat="45.01518" lon="5.14506">
        <ele>282.498211</ele>
        <time>2022-03-12T12:13:34.333Z</time>
      </trkpt>
      <trkpt lat="45.01508" lon="5.14492">
        <ele>281.773752</ele>
        <time>2022-03-12T12:13:36.323Z</time>
      </trkpt>
      <trkpt lat="45.01497" lon="5.14476">
        <ele>280.971065</ele>
        <time>2022-03-12T12:13:38.321Z</time>
      </trkpt>
      <trkpt lat="45.01485" lon="5.14459">
        <ele>280.107368</ele>
        <time>2022-03-12T12:13:40.322Z</time>
      </trkpt>
      <trkpt lat="45.01472" lon="5.14442">
        <ele>279.201726</ele>
        <time>2022-03-12T12:13:42.330Z</time>
      </trkpt>
      <trkpt lat="45.01466" lon="5.14433">
        <ele>278.740068</ele>
        <time>2022-03-12T12:13:43.329Z</time>
      </trkpt>
      <trkpt lat="45.0146" lon="5.14423">
        <ele>278.274214</ele>
        <time>2022-03-12T12:13:44.328Z</time>
      </trkpt>
      <trkpt lat="45.01453" lon="5.14414">
        <ele>277.798724</ele>
        <time>2022-03-12T12:13:45.331Z</time>
      </trkpt>
      <trkpt lat="45.01447" lon="5.14404">
        <ele>277.339055</ele>
        <time>2022-03-12T12:13:46.324Z</time>
      </trkpt>
      <trkpt lat="45.01442" lon="5.14393">
        <ele>276.868716</ele>
        <time>2022-03-12T12:13:47.324Z</time>
      </trkpt>
      <trkpt lat="45.01435" lon="5.1437">
        <ele>275.950046</ele>
        <time>2022-03-12T12:13:49.323Z</time>
      </trkpt>
      <trkpt lat="45.01431" lon="5.14345">
        <ele>275.045707</ele>
        <time>2022-03-12T12:13:51.333Z</time>
      </trkpt>
      <trkpt lat="45.01429" lon="5.14321">
        <ele>274.158108</ele>
        <time>2022-03-12T12:13:53.321Z</time>
      </trkpt>
      <trkpt lat="45.01427" lon="5.14297">
        <ele>273.337239</ele>
        <time>2022-03-12T12:13:55.332Z</time>
      </trkpt>
      <trkpt lat="45.01425" lon="5.14273">
        <ele>272.538636</ele>
        <time>2022-03-12T12:13:57.326Z</time>
      </trkpt>
      <trkpt lat="45.01424" lon="5.1425">
        <ele>271.743334</ele>
        <time>2022-03-12T12:13:59.326Z</time>
      </trkpt>
      <trkpt lat="45.01422" lon="5.14226">
        <ele>270.945025</ele>
        <time>2022-03-12T12:14:01.331Z</time>
      </trkpt>
      <trkpt lat="45.01421" lon="5.14202">
        <ele>270.136267</ele>
        <time>2022-03-12T12:14:03.336Z</time>
      </trkpt>
      <trkpt lat="45.0142" lon="5.14179">
        <ele>269.340163</ele>
        <time>2022-03-12T12:14:05.329Z</time>
      </trkpt>
      <trkpt lat="45.01418" lon="5.14155">
        <ele>268.544059</ele>
        <time>2022-03-12T12:14:07.326Z</time>
      </trkpt>
      <trkpt lat="45.01417" lon="5.14132">
        <ele>267.754675</ele>
        <time>2022-03-12T12:14:09.332Z</time>
      </trkpt>
      <trkpt lat="45.01415" lon="5.14109">
        <ele>266.969462</ele>
        <time>2022-03-12T12:14:11.338Z</time>
      </trkpt>
      <trkpt lat="45.01413" lon="5.14085">
        <ele>266.169661</ele>
        <time>2022-03-12T12:14:13.330Z</time>
      </trkpt>
      <trkpt lat="45.0141" lon="5.14061">
        <ele>265.282477</ele>
        <time>2022-03-12T12:14:15.327Z</time>
      </trkpt>
      <trkpt lat="45.01408" lon="5.14048">
        <ele>264.56231</ele>
        <time>2022-03-12T12:14:16.328Z</time>
      </trkpt>
      <trkpt lat="45.01407" lon="5.14036">
        <ele>263.839412</ele>
        <time>2022-03-12T12:14:17.335Z</time>
      </trkpt>
      <trkpt lat="45.01406" lon="5.14023">
        <ele>263.120996</ele>
        <time>2022-03-12T12:14:18.334Z</time>
      </trkpt>
      <trkpt lat="45.01406" lon="5.13999">
        <ele>261.817215</ele>
        <time>2022-03-12T12:14:20.327Z</time>
      </trkpt>
      <trkpt lat="45.01412" lon="5.13978">
        <ele>260.512317</ele>
        <time>2022-03-12T12:14:22.332Z</time>
      </trkpt>
      <trkpt lat="45.01424" lon="5.13961">
        <ele>259.177744</ele>
        <time>2022-03-12T12:14:24.330Z</time>
      </trkpt>
      <trkpt lat="45.01438" lon="5.13948">
        <ele>257.848213</ele>
        <time>2022-03-12T12:14:26.333Z</time>
      </trkpt>
      <trkpt lat="45.01454" lon="5.13936">
        <ele>256.427872</ele>
        <time>2022-03-12T12:14:28.335Z</time>
      </trkpt>
      <trkpt lat="45.01463" lon="5.1393">
        <ele>255.693249</ele>
        <time>2022-03-12T12:14:29.325Z</time>
      </trkpt>
      <trkpt lat="45.01471" lon="5.13923">
        <ele>254.945539</ele>
        <time>2022-03-12T12:14:30.328Z</time>
      </trkpt>
      <trkpt lat="45.01479" lon="5.13916">
        <ele>254.173152</ele>
        <time>2022-03-12T12:14:31.324Z</time>
      </trkpt>
      <trkpt lat="45.01488" lon="5.13909">
        <ele>253.397978</ele>
        <time>2022-03-12T12:14:32.324Z</time>
      </trkpt>
      <trkpt lat="45.01497" lon="5.13902">
        <ele>252.595004</ele>
        <time>2022-03-12T12:14:33.323Z</time>
      </trkpt>
      <trkpt lat="45.01505" lon="5.13894">
        <ele>251.790357</ele>
        <time>2022-03-12T12:14:34.327Z</time>
      </trkpt>
      <trkpt lat="45.01513" lon="5.13885">
        <ele>250.934855</ele>
        <time>2022-03-12T12:14:35.324Z</time>
      </trkpt>
      <trkpt lat="45.01522" lon="5.13875">
        <ele>249.973883</ele>
        <time>2022-03-12T12:14:36.318Z</time>
      </trkpt>
      <trkpt lat="45.0153" lon="5.13865">
        <ele>249.024903</ele>
        <time>2022-03-12T12:14:37.330Z</time>
      </trkpt>
      <trkpt lat="45.01539" lon="5.13856">
        <ele>248.044395</ele>
        <time>2022-03-12T12:14:38.331Z</time>
      </trkpt>
      <trkpt lat="45.01547" lon="5.13845">
        <ele>247.065385</ele>
        <time>2022-03-12T12:14:39.340Z</time>
      </trkpt>
      <trkpt lat="45.01555" lon="5.13834">
        <ele>246.090873</ele>
        <time>2022-03-12T12:14:40.323Z</time>
      </trkpt>
      <trkpt lat="45.01562" lon="5.13822">
        <ele>245.083932</ele>
        <time>2022-03-12T12:14:41.320Z</time>
      </trkpt>
      <trkpt lat="45.01569" lon="5.13809">
        <ele>244.077053</ele>
        <time>2022-03-12T12:14:42.327Z</time>
      </trkpt>
      <trkpt lat="45.01575" lon="5.13796">
        <ele>243.059647</ele>
        <time>2022-03-12T12:14:43.325Z</time>
      </trkpt>
      <trkpt lat="45.01581" lon="5.13782">
        <ele>242.029023</ele>
        <time>2022-03-12T12:14:44.319Z</time>
      </trkpt>
      <trkpt lat="45.01587" lon="5.13767">
        <ele>241.002857</ele>
        <time>2022-03-12T12:14:45.319Z</time>
      </trkpt>
      <trkpt lat="45.01593" lon="5.13754">
        <ele>240.016424</ele>
        <time>2022-03-12T12:14:46.325Z</time>
      </trkpt>
      <trkpt lat="45.016" lon="5.13741">
        <ele>239.004525</ele>
        <time>2022-03-12T12:14:47.333Z</time>
      </trkpt>
      <trkpt lat="45.01607" lon="5.13728">
        <ele>237.981998</ele>
        <time>2022-03-12T12:14:48.322Z</time>
      </trkpt>
      <trkpt lat="45.01614" lon="5.13715">
        <ele>236.949489</ele>
        <time>2022-03-12T12:14:49.326Z</time>
      </trkpt>
      <trkpt lat="45.01621" lon="5.13702">
        <ele>235.91698</ele>
        <time>2022-03-12T12:14:50.316Z</time>
      </trkpt>
      <trkpt lat="45.01628" lon="5.13689">
        <ele>234.913713</ele>
        <time>2022-03-12T12:14:51.316Z</time>
      </trkpt>
      <trkpt lat="45.01635" lon="5.13677">
        <ele>233.900756</ele>
        <time>2022-03-12T12:14:52.322Z</time>
      </trkpt>
      <trkpt lat="45.01642" lon="5.13666">
        <ele>232.881262</ele>
        <time>2022-03-12T12:14:53.320Z</time>
      </trkpt>
      <trkpt lat="45.01651" lon="5.13655">
        <ele>231.854931</ele>
        <time>2022-03-12T12:14:54.319Z</time>
      </trkpt>
      <trkpt lat="45.01659" lon="5.13644">
        <ele>230.793075</ele>
        <time>2022-03-12T12:14:55.320Z</time>
      </trkpt>
      <trkpt lat="45.01668" lon="5.13634">
        <ele>229.723661</ele>
        <time>2022-03-12T12:14:56.318Z</time>
      </trkpt>
      <trkpt lat="45.01678" lon="5.13623">
        <ele>228.610459</ele>
        <time>2022-03-12T12:14:57.318Z</time>
      </trkpt>
      <trkpt lat="45.01687" lon="5.13613">
        <ele>227.499234</ele>
        <time>2022-03-12T12:14:58.319Z</time>
      </trkpt>
      <trkpt lat="45.01697" lon="5.13602">
        <ele>226.388009</ele>
        <time>2022-03-12T12:14:59.318Z</time>
      </trkpt>
      <trkpt lat="45.01706" lon="5.13593">
        <ele>225.341156</ele>
        <time>2022-03-12T12:15:00.321Z</time>
      </trkpt>
      <trkpt lat="45.01714" lon="5.13584">
        <ele>224.340253</ele>
        <time>2022-03-12T12:15:01.326Z</time>
      </trkpt>
      <trkpt lat="45.01723" lon="5.13575">
        <ele>223.391943</ele>
        <time>2022-03-12T12:15:02.331Z</time>
      </trkpt>
      <trkpt lat="45.01732" lon="5.13569">
        <ele>222.459596</ele>
        <time>2022-03-12T12:15:03.333Z</time>
      </trkpt>
      <trkpt lat="45.01741" lon="5.13564">
        <ele>221.585491</ele>
        <time>2022-03-12T12:15:04.323Z</time>
      </trkpt>
      <trkpt lat="45.01749" lon="5.1356">
        <ele>220.748128</ele>
        <time>2022-03-12T12:15:05.332Z</time>
      </trkpt>
      <trkpt lat="45.01758" lon="5.13556">
        <ele>219.923286</ele>
        <time>2022-03-12T12:15:06.322Z</time>
      </trkpt>
      <trkpt lat="45.01774" lon="5.13548">
        <ele>218.47769</ele>
        <time>2022-03-12T12:15:08.330Z</time>
      </trkpt>
      <trkpt lat="45.01785" lon="5.13538">
        <ele>217.604107</ele>
        <time>2022-03-12T12:15:10.332Z</time>
      </trkpt>
      <trkpt lat="45.01795" lon="5.13524">
        <ele>216.709727</ele>
        <time>2022-03-12T12:15:12.313Z</time>
      </trkpt>
      <trkpt lat="45.01805" lon="5.13509">
        <ele>215.768818</ele>
        <time>2022-03-12T12:15:14.318Z</time>
      </trkpt>
      <trkpt lat="45.01817" lon="5.13494">
        <ele>214.726351</ele>
        <time>2022-03-12T12:15:16.329Z</time>
      </trkpt>
      <trkpt lat="45.0183" lon="5.13478">
        <ele>213.622225</ele>
        <time>2022-03-12T12:15:18.324Z</time>
      </trkpt>
      <trkpt lat="45.01844" lon="5.13463">
        <ele>212.503432</ele>
        <time>2022-03-12T12:15:20.322Z</time>
      </trkpt>
      <trkpt lat="45.0186" lon="5.13453">
        <ele>211.40584</ele>
        <time>2022-03-12T12:15:22.323Z</time>
      </trkpt>
      <trkpt lat="45.01868" lon="5.13449">
        <ele>210.820375</ele>
        <time>2022-03-12T12:15:23.330Z</time>
      </trkpt>
      <trkpt lat="45.01878" lon="5.13446">
        <ele>210.177715</ele>
        <time>2022-03-12T12:15:24.331Z</time>
      </trkpt>
      <trkpt lat="45.01888" lon="5.13442">
        <ele>209.530441</ele>
        <time>2022-03-12T12:15:25.329Z</time>
      </trkpt>
      <trkpt lat="45.01897" lon="5.13438">
        <ele>208.880066</ele>
        <time>2022-03-12T12:15:26.323Z</time>
      </trkpt>
      <trkpt lat="45.01907" lon="5.13433">
        <ele>208.219206</ele>
        <time>2022-03-12T12:15:27.324Z</time>
      </trkpt>
      <trkpt lat="45.01917" lon="5.13428">
        <ele>207.55529</ele>
        <time>2022-03-12T12:15:28.322Z</time>
      </trkpt>
      <trkpt lat="45.01927" lon="5.13423">
        <ele>207.028547</ele>
        <time>2022-03-12T12:15:29.338Z</time>
      </trkpt>
      <trkpt lat="45.01937" lon="5.13419">
        <ele>206.677105</ele>
        <time>2022-03-12T12:15:30.332Z</time>
      </trkpt>
      <trkpt lat="45.01947" lon="5.13416">
        <ele>206.32794</ele>
        <time>2022-03-12T12:15:31.323Z</time>
      </trkpt>
      <trkpt lat="45.01958" lon="5.13414">
        <ele>205.969266</ele>
        <time>2022-03-12T12:15:32.332Z</time>
      </trkpt>
      <trkpt lat="45.01968" lon="5.13412">
        <ele>205.63155</ele>
        <time>2022-03-12T12:15:33.327Z</time>
      </trkpt>
      <trkpt lat="45.01977" lon="5.13411">
        <ele>205.324786</ele>
        <time>2022-03-12T12:15:34.330Z</time>
      </trkpt>
      <trkpt lat="45.01993" lon="5.13404">
        <ele>204.772068</ele>
        <time>2022-03-12T12:15:36.320Z</time>
      </trkpt>
      <trkpt lat="45.02002" lon="5.13385">
        <ele>204.227733</ele>
        <time>2022-03-12T12:15:38.332Z</time>
      </trkpt>
      <trkpt lat="45.02005" lon="5.13373">
        <ele>203.927679</ele>
        <time>2022-03-12T12:15:39.326Z</time>
      </trkpt>
      <trkpt lat="45.02006" lon="5.1336">
        <ele>203.622008</ele>
        <time>2022-03-12T12:15:40.329Z</time>
      </trkpt>
      <trkpt lat="45.02008" lon="5.13348">
        <ele>203.321213</ele>
        <time>2022-03-12T12:15:41.324Z</time>
      </trkpt>
      <trkpt lat="45.02012" lon="5.13336">
        <ele>203.023382</ele>
        <time>2022-03-12T12:15:42.322Z</time>
      </trkpt>
      <trkpt lat="45.02021" lon="5.13316">
        <ele>202.461525</ele>
        <time>2022-03-12T12:15:44.329Z</time>
      </trkpt>
      <trkpt lat="45.02034" lon="5.13306">
        <ele>201.953363</ele>
        <time>2022-03-12T12:15:46.335Z</time>
      </trkpt>
      <trkpt lat="45.02048" lon="5.13304">
        <ele>201.497122</ele>
        <time>2022-03-12T12:15:48.322Z</time>
      </trkpt>
      <trkpt lat="45.02061" lon="5.13305">
        <ele>201.470327</ele>
        <time>2022-03-12T12:15:50.327Z</time>
      </trkpt>
      <trkpt lat="45.02073" lon="5.133">
        <ele>202.171588</ele>
        <time>2022-03-12T12:15:52.326Z</time>
      </trkpt>
      <trkpt lat="45.02081" lon="5.13288">
        <ele>202.865682</ele>
        <time>2022-03-12T12:15:54.331Z</time>
      </trkpt>
      <trkpt lat="45.02083" lon="5.13273">
        <ele>203.469245</ele>
        <time>2022-03-12T12:15:56.332Z</time>
      </trkpt>
      <trkpt lat="45.02081" lon="5.1326">
        <ele>204.042366</ele>
        <time>2022-03-12T12:15:58.335Z</time>
      </trkpt>
      <trkpt lat="45.02078" lon="5.13243">
        <ele>204.739995</ele>
        <time>2022-03-12T12:16:01.322Z</time>
      </trkpt>
      <trkpt lat="45.02079" lon="5.13228">
        <ele>205.369718</ele>
        <time>2022-03-12T12:16:04.332Z</time>
      </trkpt>
      <trkpt lat="45.0208" lon="5.13215">
        <ele>205.920697</ele>
        <time>2022-03-12T12:16:07.352Z</time>
      </trkpt>
      <trkpt lat="45.02083" lon="5.13199">
        <ele>206.594559</ele>
        <time>2022-03-12T12:16:11.324Z</time>
      </trkpt>
      <trkpt lat="45.02087" lon="5.13184">
        <ele>207.249243</ele>
        <time>2022-03-12T12:16:15.329Z</time>
      </trkpt>
      <trkpt lat="45.02091" lon="5.13172">
        <ele>207.790483</ele>
        <time>2022-03-12T12:16:19.325Z</time>
      </trkpt>
      <trkpt lat="45.02096" lon="5.13159">
        <ele>208.405966</ele>
        <time>2022-03-12T12:16:23.322Z</time>
      </trkpt>
      <trkpt lat="45.02101" lon="5.13147">
        <ele>208.975987</ele>
        <time>2022-03-12T12:16:27.336Z</time>
      </trkpt>
      <trkpt lat="45.02103" lon="5.13134">
        <ele>209.536144</ele>
        <time>2022-03-12T12:16:31.335Z</time>
      </trkpt>
      <trkpt lat="45.02103" lon="5.13119">
        <ele>210.177601</ele>
        <time>2022-03-12T12:16:36.320Z</time>
      </trkpt>
      <trkpt lat="45.02103" lon="5.13106">
        <ele>210.712057</ele>
        <time>2022-03-12T12:16:40.310Z</time>
      </trkpt>
      <trkpt lat="45.02102" lon="5.13093">
        <ele>211.271885</ele>
        <time>2022-03-12T12:16:45.313Z</time>
      </trkpt>
      <trkpt lat="45.02097" lon="5.13079">
        <ele>212.046934</ele>
        <time>2022-03-12T12:16:50.326Z</time>
      </trkpt>
      <trkpt lat="45.02092" lon="5.13067">
        <ele>213.009955</ele>
        <time>2022-03-12T12:16:54.339Z</time>
      </trkpt>
      <trkpt lat="45.02085" lon="5.13056">
        <ele>214.075818</ele>
        <time>2022-03-12T12:16:59.315Z</time>
      </trkpt>
      <trkpt lat="45.02076" lon="5.13047">
        <ele>215.188516</ele>
        <time>2022-03-12T12:17:04.317Z</time>
      </trkpt>
      <trkpt lat="45.02066" lon="5.13044">
        <ele>216.163601</ele>
        <time>2022-03-12T12:17:08.330Z</time>
      </trkpt>
      <trkpt lat="45.02056" lon="5.13041">
        <ele>217.203119</ele>
        <time>2022-03-12T12:17:13.314Z</time>
      </trkpt>
      <trkpt lat="45.02047" lon="5.13039">
        <ele>218.126004</ele>
        <time>2022-03-12T12:17:17.329Z</time>
      </trkpt>
      <trkpt lat="45.02036" lon="5.13038">
        <ele>219.227051</ele>
        <time>2022-03-12T12:17:22.320Z</time>
      </trkpt>
      <trkpt lat="45.02027" lon="5.13038">
        <ele>220.135237</ele>
        <time>2022-03-12T12:17:26.324Z</time>
      </trkpt>
      <trkpt lat="45.02016" lon="5.13039">
        <ele>221.248537</ele>
        <time>2022-03-12T12:17:31.318Z</time>
      </trkpt>
      <trkpt lat="45.02006" lon="5.13042">
        <ele>222.28576</ele>
        <time>2022-03-12T12:17:36.327Z</time>
      </trkpt>
      <trkpt lat="45.01997" lon="5.13045">
        <ele>223.235368</ele>
        <time>2022-03-12T12:17:40.331Z</time>
      </trkpt>
      <trkpt lat="45.01988" lon="5.13047">
        <ele>224.210453</ele>
        <time>2022-03-12T12:17:45.322Z</time>
      </trkpt>
      <trkpt lat="45.01976" lon="5.1305">
        <ele>225.358152</ele>
        <time>2022-03-12T12:17:50.322Z</time>
      </trkpt>
      <trkpt lat="45.01966" lon="5.13052">
        <ele>226.407265</ele>
        <time>2022-03-12T12:17:55.327Z</time>
      </trkpt>
      <trkpt lat="45.01957" lon="5.13052">
        <ele>227.346157</ele>
        <time>2022-03-12T12:17:59.320Z</time>
      </trkpt>
      <trkpt lat="45.01947" lon="5.13054">
        <ele>228.349456</ele>
        <time>2022-03-12T12:18:04.321Z</time>
      </trkpt>
      <trkpt lat="45.01938" lon="5.13052">
        <ele>229.262364</ele>
        <time>2022-03-12T12:18:09.318Z</time>
      </trkpt>
      <trkpt lat="45.01928" lon="5.13051">
        <ele>230.134908</ele>
        <time>2022-03-12T12:18:14.325Z</time>
      </trkpt>
      <trkpt lat="45.01919" lon="5.13052">
        <ele>230.777699</ele>
        <time>2022-03-12T12:18:19.334Z</time>
      </trkpt>
      <trkpt lat="45.01908" lon="5.13051">
        <ele>231.531387</ele>
        <time>2022-03-12T12:18:25.328Z</time>
      </trkpt>
      <trkpt lat="45.01898" lon="5.13051">
        <ele>232.222549</ele>
        <time>2022-03-12T12:18:30.321Z</time>
      </trkpt>
      <trkpt lat="45.01889" lon="5.13051">
        <ele>232.851444</ele>
        <time>2022-03-12T12:18:34.322Z</time>
      </trkpt>
      <trkpt lat="45.01879" lon="5.13052">
        <ele>233.543642</ele>
        <time>2022-03-12T12:18:39.328Z</time>
      </trkpt>
      <trkpt lat="45.01868" lon="5.13051">
        <ele>234.265179</ele>
        <time>2022-03-12T12:18:44.318Z</time>
      </trkpt>
      <trkpt lat="45.0186" lon="5.13046">
        <ele>234.911854</ele>
        <time>2022-03-12T12:18:49.318Z</time>
      </trkpt>
      <trkpt lat="45.01849" lon="5.13043">
        <ele>235.631842</ele>
        <time>2022-03-12T12:18:54.323Z</time>
      </trkpt>
      <trkpt lat="45.0184" lon="5.13042">
        <ele>236.298808</ele>
        <time>2022-03-12T12:18:59.324Z</time>
      </trkpt>
      <trkpt lat="45.01831" lon="5.13042">
        <ele>236.920792</ele>
        <time>2022-03-12T12:19:04.316Z</time>
      </trkpt>
      <trkpt lat="45.0182" lon="5.13043">
        <ele>237.641187</ele>
        <time>2022-03-12T12:19:09.327Z</time>
      </trkpt>
      <trkpt lat="45.01811" lon="5.13043">
        <ele>238.283978</ele>
        <time>2022-03-12T12:19:13.333Z</time>
      </trkpt>
      <trkpt lat="45.018" lon="5.13044">
        <ele>239.023851</ele>
        <time>2022-03-12T12:19:18.313Z</time>
      </trkpt>
      <trkpt lat="45.01791" lon="5.13042">
        <ele>239.669698</ele>
        <time>2022-03-12T12:19:22.330Z</time>
      </trkpt>
      <trkpt lat="45.01781" lon="5.13042">
        <ele>240.395412</ele>
        <time>2022-03-12T12:19:27.324Z</time>
      </trkpt>
      <trkpt lat="45.01772" lon="5.13042">
        <ele>241.017396</ele>
        <time>2022-03-12T12:19:31.326Z</time>
      </trkpt>
      <trkpt lat="45.01761" lon="5.1304">
        <ele>241.734633</ele>
        <time>2022-03-12T12:19:36.309Z</time>
      </trkpt>
      <trkpt lat="45.01751" lon="5.13041">
        <ele>242.433506</ele>
        <time>2022-03-12T12:19:41.333Z</time>
      </trkpt>
      <trkpt lat="45.01741" lon="5.13045">
        <ele>243.133771</ele>
        <time>2022-03-12T12:19:47.322Z</time>
      </trkpt>
      <trkpt lat="45.01731" lon="5.13049">
        <ele>243.798375</ele>
        <time>2022-03-12T12:19:52.315Z</time>
      </trkpt>
      <trkpt lat="45.01721" lon="5.13053">
        <ele>244.485064</ele>
        <time>2022-03-12T12:19:57.311Z</time>
      </trkpt>
      <trkpt lat="45.0171" lon="5.13058">
        <ele>245.229673</ele>
        <time>2022-03-12T12:20:02.322Z</time>
      </trkpt>
      <trkpt lat="45.01699" lon="5.13062">
        <ele>245.937624</ele>
        <time>2022-03-12T12:20:07.323Z</time>
      </trkpt>
      <trkpt lat="45.0169" lon="5.13067">
        <ele>246.605634</ele>
        <time>2022-03-12T12:20:12.314Z</time>
      </trkpt>
      <trkpt lat="45.01679" lon="5.13071">
        <ele>247.332462</ele>
        <time>2022-03-12T12:20:17.323Z</time>
      </trkpt>
      <trkpt lat="45.01668" lon="5.13072">
        <ele>248.030599</ele>
        <time>2022-03-12T12:20:22.328Z</time>
      </trkpt>
      <trkpt lat="45.01657" lon="5.13068">
        <ele>248.754054</ele>
        <time>2022-03-12T12:20:27.321Z</time>
      </trkpt>
      <trkpt lat="45.01648" lon="5.13061">
        <ele>249.437271</ele>
        <time>2022-03-12T12:20:32.327Z</time>
      </trkpt>
      <trkpt lat="45.01639" lon="5.13053">
        <ele>250.14695</ele>
        <time>2022-03-12T12:20:37.319Z</time>
      </trkpt>
      <trkpt lat="45.0163" lon="5.13048">
        <ele>250.782521</ele>
        <time>2022-03-12T12:20:41.324Z</time>
      </trkpt>
      <trkpt lat="45.0162" lon="5.13042">
        <ele>251.471768</ele>
        <time>2022-03-12T12:20:45.328Z</time>
      </trkpt>
      <trkpt lat="45.01612" lon="5.13036">
        <ele>252.062759</ele>
        <time>2022-03-12T12:20:48.324Z</time>
      </trkpt>
      <trkpt lat="45.01601" lon="5.1303">
        <ele>252.808674</ele>
        <time>2022-03-12T12:20:52.322Z</time>
      </trkpt>
      <trkpt lat="45.01592" lon="5.13023">
        <ele>253.517304</ele>
        <time>2022-03-12T12:20:56.321Z</time>
      </trkpt>
      <trkpt lat="45.01584" lon="5.13016">
        <ele>254.026066</ele>
        <time>2022-03-12T12:20:59.336Z</time>
      </trkpt>
      <trkpt lat="45.01576" lon="5.13008">
        <ele>254.085524</ele>
        <time>2022-03-12T12:21:02.317Z</time>
      </trkpt>
      <trkpt lat="45.01569" lon="5.12998">
        <ele>254.143748</ele>
        <time>2022-03-12T12:21:05.321Z</time>
      </trkpt>
      <trkpt lat="45.01563" lon="5.12987">
        <ele>254.20304</ele>
        <time>2022-03-12T12:21:08.329Z</time>
      </trkpt>
      <trkpt lat="45.01559" lon="5.12975">
        <ele>254.260466</ele>
        <time>2022-03-12T12:21:11.331Z</time>
      </trkpt>
      <trkpt lat="45.01555" lon="5.12962">
        <ele>254.317177</ele>
        <time>2022-03-12T12:21:14.321Z</time>
      </trkpt>
      <trkpt lat="45.01552" lon="5.1295">
        <ele>254.372857</ele>
        <time>2022-03-12T12:21:17.329Z</time>
      </trkpt>
      <trkpt lat="45.01548" lon="5.12938">
        <ele>254.427844</ele>
        <time>2022-03-12T12:21:20.321Z</time>
      </trkpt>
      <trkpt lat="45.01545" lon="5.12925">
        <ele>254.483526</ele>
        <time>2022-03-12T12:21:23.323Z</time>
      </trkpt>
      <trkpt lat="45.01541" lon="5.12913">
        <ele>254.540635</ele>
        <time>2022-03-12T12:21:26.321Z</time>
      </trkpt>
      <trkpt lat="45.01537" lon="5.129">
        <ele>254.599776</ele>
        <time>2022-03-12T12:21:29.322Z</time>
      </trkpt>
      <trkpt lat="45.01534" lon="5.12888">
        <ele>254.657666</ele>
        <time>2022-03-12T12:21:32.321Z</time>
      </trkpt>
      <trkpt lat="45.0153" lon="5.12875">
        <ele>254.715543</ele>
        <time>2022-03-12T12:21:35.326Z</time>
      </trkpt>
      <trkpt lat="45.01526" lon="5.12863">
        <ele>254.770765</ele>
        <time>2022-03-12T12:21:38.329Z</time>
      </trkpt>
      <trkpt lat="45.01522" lon="5.12851">
        <ele>254.826302</ele>
        <time>2022-03-12T12:21:41.331Z</time>
      </trkpt>
      <trkpt lat="45.01519" lon="5.12839">
        <ele>254.880513</ele>
        <time>2022-03-12T12:21:44.330Z</time>
      </trkpt>
      <trkpt lat="45.01515" lon="5.12826">
        <ele>254.940409</ele>
        <time>2022-03-12T12:21:47.336Z</time>
      </trkpt>
      <trkpt lat="45.01511" lon="5.12812">
        <ele>255.002665</ele>
        <time>2022-03-12T12:21:50.329Z</time>
      </trkpt>
      <trkpt lat="45.01509" lon="5.12798">
        <ele>255.062471</ele>
        <time>2022-03-12T12:21:53.326Z</time>
      </trkpt>
      <trkpt lat="45.01501" lon="5.12793">
        <ele>255.160261</ele>
        <time>2022-03-12T12:21:59.331Z</time>
      </trkpt>
      <trkpt lat="45.01493" lon="5.12806">
        <ele>255.352586</ele>
        <time>2022-03-12T12:23:00.346Z</time>
      </trkpt>
      <trkpt lat="45.01483" lon="5.12813">
        <ele>255.532969</ele>
        <time>2022-03-12T12:23:03.326Z</time>
      </trkpt>
      <trkpt lat="45.01473" lon="5.12821">
        <ele>255.729066</ele>
        <time>2022-03-12T12:23:06.314Z</time>
      </trkpt>
      <trkpt lat="45.01462" lon="5.12827">
        <ele>255.919282</ele>
        <time>2022-03-12T12:23:09.311Z</time>
      </trkpt>
      <trkpt lat="45.01451" lon="5.12833">
        <ele>256.116439</ele>
        <time>2022-03-12T12:23:12.337Z</time>
      </trkpt>
      <trkpt lat="45.01439" lon="5.12839">
        <ele>256.311261</ele>
        <time>2022-03-12T12:23:15.325Z</time>
      </trkpt>
      <trkpt lat="45.01428" lon="5.12844">
        <ele>256.507783</ele>
        <time>2022-03-12T12:23:18.327Z</time>
      </trkpt>
      <trkpt lat="45.01417" lon="5.1285">
        <ele>256.701072</ele>
        <time>2022-03-12T12:23:21.331Z</time>
      </trkpt>
      <trkpt lat="45.01407" lon="5.12858">
        <ele>256.891582</ele>
        <time>2022-03-12T12:23:24.323Z</time>
      </trkpt>
      <trkpt lat="45.01396" lon="5.12866">
        <ele>257.088738</ele>
        <time>2022-03-12T12:23:27.319Z</time>
      </trkpt>
      <trkpt lat="45.01385" lon="5.12872">
        <ele>257.279564</ele>
        <time>2022-03-12T12:23:30.329Z</time>
      </trkpt>
      <trkpt lat="45.01374" lon="5.12878">
        <ele>257.469952</ele>
        <time>2022-03-12T12:23:33.328Z</time>
      </trkpt>
      <trkpt lat="45.01364" lon="5.12885">
        <ele>257.657171</ele>
        <time>2022-03-12T12:23:36.330Z</time>
      </trkpt>
      <trkpt lat="45.01353" lon="5.1289">
        <ele>257.844347</ele>
        <time>2022-03-12T12:23:39.315Z</time>
      </trkpt>
      <trkpt lat="45.01342" lon="5.12895">
        <ele>258.023261</ele>
        <time>2022-03-12T12:23:42.326Z</time>
      </trkpt>
      <trkpt lat="45.01331" lon="5.12901">
        <ele>257.69116</ele>
        <time>2022-03-12T12:23:45.327Z</time>
      </trkpt>
      <trkpt lat="45.0132" lon="5.12905">
        <ele>257.357547</ele>
        <time>2022-03-12T12:23:48.314Z</time>
      </trkpt>
      <trkpt lat="45.0131" lon="5.12909">
        <ele>257.046893</ele>
        <time>2022-03-12T12:23:51.315Z</time>
      </trkpt>
      <trkpt lat="45.013" lon="5.12912">
        <ele>256.736741</ele>
        <time>2022-03-12T12:23:54.330Z</time>
      </trkpt>
      <trkpt lat="45.01289" lon="5.12916">
        <ele>256.415697</ele>
        <time>2022-03-12T12:23:57.323Z</time>
      </trkpt>
      <trkpt lat="45.01278" lon="5.12918">
        <ele>256.10094</ele>
        <time>2022-03-12T12:24:00.317Z</time>
      </trkpt>
      <trkpt lat="45.01269" lon="5.12919">
        <ele>255.821932</ele>
        <time>2022-03-12T12:24:03.320Z</time>
      </trkpt>
      <trkpt lat="45.01257" lon="5.12917">
        <ele>255.48433</ele>
        <time>2022-03-12T12:24:07.322Z</time>
      </trkpt>
      <trkpt lat="45.01248" lon="5.12914">
        <ele>255.194524</ele>
        <time>2022-03-12T12:24:10.322Z</time>
      </trkpt>
      <trkpt lat="45.01235" lon="5.12912">
        <ele>254.814438</ele>
        <time>2022-03-12T12:24:13.323Z</time>
      </trkpt>
      <trkpt lat="45.01224" lon="5.1291">
        <ele>254.497584</ele>
        <time>2022-03-12T12:24:15.328Z</time>
      </trkpt>
      <trkpt lat="45.01212" lon="5.12908">
        <ele>254.14909</ele>
        <time>2022-03-12T12:24:17.332Z</time>
      </trkpt>
      <trkpt lat="45.01199" lon="5.12905">
        <ele>253.750229</ele>
        <time>2022-03-12T12:24:19.319Z</time>
      </trkpt>
      <trkpt lat="45.01184" lon="5.12902">
        <ele>253.321226</ele>
        <time>2022-03-12T12:24:21.321Z</time>
      </trkpt>
      <trkpt lat="45.01169" lon="5.12898">
        <ele>252.865269</ele>
        <time>2022-03-12T12:24:23.327Z</time>
      </trkpt>
      <trkpt lat="45.01155" lon="5.12892">
        <ele>253.236671</ele>
        <time>2022-03-12T12:24:25.329Z</time>
      </trkpt>
      <trkpt lat="45.01142" lon="5.12882">
        <ele>253.808613</ele>
        <time>2022-03-12T12:24:27.329Z</time>
      </trkpt>
      <trkpt lat="45.01131" lon="5.12871">
        <ele>254.335991</ele>
        <time>2022-03-12T12:24:29.331Z</time>
      </trkpt>
      <trkpt lat="45.01123" lon="5.1286">
        <ele>254.789724</ele>
        <time>2022-03-12T12:24:31.322Z</time>
      </trkpt>
      <trkpt lat="45.01116" lon="5.1285">
        <ele>255.16687</ele>
        <time>2022-03-12T12:24:33.335Z</time>
      </trkpt>
      <trkpt lat="45.01109" lon="5.12836">
        <ele>255.626227</ele>
        <time>2022-03-12T12:24:36.324Z</time>
      </trkpt>
      <trkpt lat="45.01103" lon="5.12825">
        <ele>256.026558</ele>
        <time>2022-03-12T12:24:39.323Z</time>
      </trkpt>
      <trkpt lat="45.01095" lon="5.12818">
        <ele>256.403677</ele>
        <time>2022-03-12T12:24:42.333Z</time>
      </trkpt>
      <trkpt lat="45.01086" lon="5.12818">
        <ele>256.758201</ele>
        <time>2022-03-12T12:24:45.327Z</time>
      </trkpt>
      <trkpt lat="45.01075" lon="5.1282">
        <ele>257.177783</ele>
        <time>2022-03-12T12:24:49.336Z</time>
      </trkpt>
      <trkpt lat="45.01065" lon="5.12822">
        <ele>257.583368</ele>
        <time>2022-03-12T12:24:53.325Z</time>
      </trkpt>
      <trkpt lat="45.01055" lon="5.12819">
        <ele>257.972746</ele>
        <time>2022-03-12T12:24:57.323Z</time>
      </trkpt>
      <trkpt lat="45.01046" lon="5.12813">
        <ele>258.368258</ele>
        <time>2022-03-12T12:25:01.317Z</time>
      </trkpt>
      <trkpt lat="45.01038" lon="5.12804">
        <ele>258.786325</ele>
        <time>2022-03-12T12:25:05.334Z</time>
      </trkpt>
      <trkpt lat="45.0103" lon="5.12795">
        <ele>259.168357</ele>
        <time>2022-03-12T12:25:09.328Z</time>
      </trkpt>
      <trkpt lat="45.01022" lon="5.12787">
        <ele>259.551055</ele>
        <time>2022-03-12T12:25:13.325Z</time>
      </trkpt>
      <trkpt lat="45.01014" lon="5.12779">
        <ele>259.909007</ele>
        <time>2022-03-12T12:25:17.324Z</time>
      </trkpt>
      <trkpt lat="45.01006" lon="5.1277">
        <ele>260.152272</ele>
        <time>2022-03-12T12:25:21.326Z</time>
      </trkpt>
      <trkpt lat="45.00999" lon="5.12761">
        <ele>260.379026</ele>
        <time>2022-03-12T12:25:25.319Z</time>
      </trkpt>
      <trkpt lat="45.00993" lon="5.12752">
        <ele>260.598352</ele>
        <time>2022-03-12T12:25:29.322Z</time>
      </trkpt>
      <trkpt lat="45.00985" lon="5.12741">
        <ele>260.865668</ele>
        <time>2022-03-12T12:25:34.326Z</time>
      </trkpt>
      <trkpt lat="45.00978" lon="5.1273">
        <ele>261.107094</ele>
        <time>2022-03-12T12:25:38.309Z</time>
      </trkpt>
      <trkpt lat="45.0097" lon="5.12719">
        <ele>261.389176</ele>
        <time>2022-03-12T12:25:42.318Z</time>
      </trkpt>
      <trkpt lat="45.00962" lon="5.12707">
        <ele>261.67006</ele>
        <time>2022-03-12T12:25:46.324Z</time>
      </trkpt>
      <trkpt lat="45.00955" lon="5.12697">
        <ele>261.896658</ele>
        <time>2022-03-12T12:25:49.328Z</time>
      </trkpt>
      <trkpt lat="45.00949" lon="5.12687">
        <ele>262.121235</ele>
        <time>2022-03-12T12:25:52.330Z</time>
      </trkpt>
      <trkpt lat="45.00942" lon="5.12677">
        <ele>262.365617</ele>
        <time>2022-03-12T12:25:55.330Z</time>
      </trkpt>
      <trkpt lat="45.00934" lon="5.12667">
        <ele>262.612894</ele>
        <time>2022-03-12T12:25:58.331Z</time>
      </trkpt>
      <trkpt lat="45.00927" lon="5.12655">
        <ele>262.883189</ele>
        <time>2022-03-12T12:26:01.338Z</time>
      </trkpt>
      <trkpt lat="45.00919" lon="5.12642">
        <ele>263.165567</ele>
        <time>2022-03-12T12:26:04.325Z</time>
      </trkpt>
      <trkpt lat="45.00911" lon="5.1263">
        <ele>263.457179</ele>
        <time>2022-03-12T12:26:07.338Z</time>
      </trkpt>
      <trkpt lat="45.00903" lon="5.12618">
        <ele>263.736829</ele>
        <time>2022-03-12T12:26:10.321Z</time>
      </trkpt>
      <trkpt lat="45.00896" lon="5.12605">
        <ele>264.009115</ele>
        <time>2022-03-12T12:26:13.318Z</time>
      </trkpt>
      <trkpt lat="45.00887" lon="5.12592">
        <ele>264.022637</ele>
        <time>2022-03-12T12:26:16.321Z</time>
      </trkpt>
      <trkpt lat="45.0088" lon="5.12576">
        <ele>263.692004</ele>
        <time>2022-03-12T12:26:19.323Z</time>
      </trkpt>
      <trkpt lat="45.00872" lon="5.12561">
        <ele>263.367157</ele>
        <time>2022-03-12T12:26:22.332Z</time>
      </trkpt>
      <trkpt lat="45.00865" lon="5.12547">
        <ele>263.053808</ele>
        <time>2022-03-12T12:26:25.332Z</time>
      </trkpt>
      <trkpt lat="45.00858" lon="5.12532">
        <ele>262.738891</ele>
        <time>2022-03-12T12:26:28.320Z</time>
      </trkpt>
      <trkpt lat="45.0085" lon="5.12517">
        <ele>262.40673</ele>
        <time>2022-03-12T12:26:31.324Z</time>
      </trkpt>
      <trkpt lat="45.00842" lon="5.12501">
        <ele>262.068945</ele>
        <time>2022-03-12T12:26:34.325Z</time>
      </trkpt>
      <trkpt lat="45.00837" lon="5.1249">
        <ele>261.83607</ele>
        <time>2022-03-12T12:26:36.328Z</time>
      </trkpt>
      <trkpt lat="45.00831" lon="5.1248">
        <ele>261.599968</ele>
        <time>2022-03-12T12:26:38.338Z</time>
      </trkpt>
      <trkpt lat="45.00825" lon="5.1247">
        <ele>261.363445</ele>
        <time>2022-03-12T12:26:40.333Z</time>
      </trkpt>
      <trkpt lat="45.00819" lon="5.12459">
        <ele>261.126654</ele>
        <time>2022-03-12T12:26:42.322Z</time>
      </trkpt>
      <trkpt lat="45.00812" lon="5.1245">
        <ele>260.89659</ele>
        <time>2022-03-12T12:26:44.325Z</time>
      </trkpt>
      <trkpt lat="45.00804" lon="5.12443">
        <ele>260.662367</ele>
        <time>2022-03-12T12:26:46.327Z</time>
      </trkpt>
      <trkpt lat="45.00795" lon="5.12438">
        <ele>260.430181</ele>
        <time>2022-03-12T12:26:48.324Z</time>
      </trkpt>
      <trkpt lat="45.00786" lon="5.12433">
        <ele>260.17655</ele>
        <time>2022-03-12T12:26:50.326Z</time>
      </trkpt>
      <trkpt lat="45.00776" lon="5.12427">
        <ele>259.912949</ele>
        <time>2022-03-12T12:26:52.314Z</time>
      </trkpt>
      <trkpt lat="45.00768" lon="5.12418">
        <ele>259.698841</ele>
        <time>2022-03-12T12:26:54.335Z</time>
      </trkpt>
      <trkpt lat="45.00762" lon="5.12407">
        <ele>259.752515</ele>
        <time>2022-03-12T12:26:56.321Z</time>
      </trkpt>
      <trkpt lat="45.00757" lon="5.12394">
        <ele>259.805592</ele>
        <time>2022-03-12T12:26:58.328Z</time>
      </trkpt>
      <trkpt lat="45.00754" lon="5.12381">
        <ele>259.856121</ele>
        <time>2022-03-12T12:27:00.320Z</time>
      </trkpt>
      <trkpt lat="45.00748" lon="5.12364">
        <ele>259.925215</ele>
        <time>2022-03-12T12:27:03.321Z</time>
      </trkpt>
      <trkpt lat="45.00743" lon="5.1235">
        <ele>259.986128</ele>
        <time>2022-03-12T12:27:06.331Z</time>
      </trkpt>
      <trkpt lat="45.00738" lon="5.12335">
        <ele>260.044689</ele>
        <time>2022-03-12T12:27:09.318Z</time>
      </trkpt>
      <trkpt lat="45.00734" lon="5.12323">
        <ele>260.096449</ele>
        <time>2022-03-12T12:27:12.337Z</time>
      </trkpt>
      <trkpt lat="45.00729" lon="5.12311">
        <ele>260.147878</ele>
        <time>2022-03-12T12:27:15.323Z</time>
      </trkpt>
      <trkpt lat="45.00724" lon="5.12297">
        <ele>260.204658</ele>
        <time>2022-03-12T12:27:18.333Z</time>
      </trkpt>
      <trkpt lat="45.00719" lon="5.12282">
        <ele>260.264902</ele>
        <time>2022-03-12T12:27:21.323Z</time>
      </trkpt>
      <trkpt lat="45.00713" lon="5.12269">
        <ele>260.324472</ele>
        <time>2022-03-12T12:27:24.330Z</time>
      </trkpt>
      <trkpt lat="45.00708" lon="5.12255">
        <ele>260.380845</ele>
        <time>2022-03-12T12:27:27.324Z</time>
      </trkpt>
      <trkpt lat="45.00702" lon="5.12241">
        <ele>260.443035</ele>
        <time>2022-03-12T12:27:30.320Z</time>
      </trkpt>
      <trkpt lat="45.00698" lon="5.12229">
        <ele>260.490773</ele>
        <time>2022-03-12T12:27:32.327Z</time>
      </trkpt>
      <trkpt lat="45.00694" lon="5.12217">
        <ele>260.542167</ele>
        <time>2022-03-12T12:27:34.321Z</time>
      </trkpt>
      <trkpt lat="45.0069" lon="5.12203">
        <ele>260.59673</ele>
        <time>2022-03-12T12:27:36.327Z</time>
      </trkpt>
      <trkpt lat="45.00685" lon="5.12189">
        <ele>260.568156</ele>
        <time>2022-03-12T12:27:38.325Z</time>
      </trkpt>
      <trkpt lat="45.0068" lon="5.12175">
        <ele>260.358894</ele>
        <time>2022-03-12T12:27:40.336Z</time>
      </trkpt>
      <trkpt lat="45.00675" lon="5.12161">
        <ele>260.149172</ele>
        <time>2022-03-12T12:27:42.338Z</time>
      </trkpt>
      <trkpt lat="45.00669" lon="5.12147">
        <ele>259.93945</ele>
        <time>2022-03-12T12:27:44.331Z</time>
      </trkpt>
      <trkpt lat="45.00664" lon="5.12134">
        <ele>259.737691</ele>
        <time>2022-03-12T12:27:46.326Z</time>
      </trkpt>
      <trkpt lat="45.00658" lon="5.1212">
        <ele>259.534184</ele>
        <time>2022-03-12T12:27:48.332Z</time>
      </trkpt>
      <trkpt lat="45.00652" lon="5.12108">
        <ele>259.331</ele>
        <time>2022-03-12T12:27:50.324Z</time>
      </trkpt>
      <trkpt lat="45.00645" lon="5.12096">
        <ele>259.128601</ele>
        <time>2022-03-12T12:27:52.319Z</time>
      </trkpt>
      <trkpt lat="45.00638" lon="5.12084">
        <ele>258.927903</ele>
        <time>2022-03-12T12:27:54.332Z</time>
      </trkpt>
      <trkpt lat="45.00631" lon="5.12072">
        <ele>258.722164</ele>
        <time>2022-03-12T12:27:56.335Z</time>
      </trkpt>
      <trkpt lat="45.00623" lon="5.1206">
        <ele>258.511453</ele>
        <time>2022-03-12T12:27:58.333Z</time>
      </trkpt>
      <trkpt lat="45.00616" lon="5.12048">
        <ele>258.299756</ele>
        <time>2022-03-12T12:28:00.321Z</time>
      </trkpt>
      <trkpt lat="45.00608" lon="5.12035">
        <ele>258.088059</ele>
        <time>2022-03-12T12:28:02.331Z</time>
      </trkpt>
      <trkpt lat="45.00601" lon="5.12023">
        <ele>257.879552</ele>
        <time>2022-03-12T12:28:04.334Z</time>
      </trkpt>
      <trkpt lat="45.00594" lon="5.12012">
        <ele>257.676657</ele>
        <time>2022-03-12T12:28:06.327Z</time>
      </trkpt>
      <trkpt lat="45.00587" lon="5.12">
        <ele>257.482132</ele>
        <time>2022-03-12T12:28:08.341Z</time>
      </trkpt>
      <trkpt lat="45.00581" lon="5.11989">
        <ele>257.312961</ele>
        <time>2022-03-12T12:28:10.318Z</time>
      </trkpt>
      <trkpt lat="45.00574" lon="5.11978">
        <ele>257.519935</ele>
        <time>2022-03-12T12:28:12.328Z</time>
      </trkpt>
      <trkpt lat="45.00567" lon="5.11967">
        <ele>257.725599</ele>
        <time>2022-03-12T12:28:14.334Z</time>
      </trkpt>
      <trkpt lat="45.00561" lon="5.11956">
        <ele>257.934372</ele>
        <time>2022-03-12T12:28:16.327Z</time>
      </trkpt>
      <trkpt lat="45.00554" lon="5.11945">
        <ele>258.139195</ele>
        <time>2022-03-12T12:28:18.336Z</time>
      </trkpt>
      <trkpt lat="45.00547" lon="5.11934">
        <ele>258.350167</ele>
        <time>2022-03-12T12:28:20.323Z</time>
      </trkpt>
      <trkpt lat="45.00541" lon="5.11923">
        <ele>258.556729</ele>
        <time>2022-03-12T12:28:22.330Z</time>
      </trkpt>
      <trkpt lat="45.00534" lon="5.11912">
        <ele>258.761874</ele>
        <time>2022-03-12T12:28:24.326Z</time>
      </trkpt>
      <trkpt lat="45.00529" lon="5.119">
        <ele>258.964425</ele>
        <time>2022-03-12T12:28:26.327Z</time>
      </trkpt>
      <trkpt lat="45.00524" lon="5.11887">
        <ele>259.165661</ele>
        <time>2022-03-12T12:28:28.321Z</time>
      </trkpt>
      <trkpt lat="45.00521" lon="5.11874">
        <ele>259.370115</ele>
        <time>2022-03-12T12:28:30.324Z</time>
      </trkpt>
      <trkpt lat="45.0052" lon="5.1186">
        <ele>259.567169</ele>
        <time>2022-03-12T12:28:32.327Z</time>
      </trkpt>
      <trkpt lat="45.0052" lon="5.11847">
        <ele>259.756812</ele>
        <time>2022-03-12T12:28:34.324Z</time>
      </trkpt>
      <trkpt lat="45.0052" lon="5.11834">
        <ele>259.942836</ele>
        <time>2022-03-12T12:28:36.328Z</time>
      </trkpt>
      <trkpt lat="45.00522" lon="5.11821">
        <ele>260.126905</ele>
        <time>2022-03-12T12:28:38.330Z</time>
      </trkpt>
      <trkpt lat="45.00523" lon="5.11802">
        <ele>260.395945</ele>
        <time>2022-03-12T12:28:41.331Z</time>
      </trkpt>
      <trkpt lat="45.00524" lon="5.11785">
        <ele>260.641548</ele>
        <time>2022-03-12T12:28:44.325Z</time>
      </trkpt>
      <trkpt lat="45.00525" lon="5.11769">
        <ele>260.871139</ele>
        <time>2022-03-12T12:28:47.332Z</time>
      </trkpt>
      <trkpt lat="45.00526" lon="5.11755">
        <ele>261.566147</ele>
        <time>2022-03-12T12:28:50.328Z</time>
      </trkpt>
      <trkpt lat="45.00527" lon="5.1174">
        <ele>262.570742</ele>
        <time>2022-03-12T12:28:54.323Z</time>
      </trkpt>
      <trkpt lat="45.00527" lon="5.11727">
        <ele>263.424269</ele>
        <time>2022-03-12T12:28:58.336Z</time>
      </trkpt>
      <trkpt lat="45.00528" lon="5.11712">
        <ele>264.408746</ele>
        <time>2022-03-12T12:29:03.324Z</time>
      </trkpt>
      <trkpt lat="45.00529" lon="5.11698">
        <ele>265.291191</ele>
        <time>2022-03-12T12:29:08.323Z</time>
      </trkpt>
      <trkpt lat="45.00528" lon="5.11684">
        <ele>266.232391</ele>
        <time>2022-03-12T12:29:14.330Z</time>
      </trkpt>
      <trkpt lat="45.00526" lon="5.11671">
        <ele>267.108876</ele>
        <time>2022-03-12T12:29:20.323Z</time>
      </trkpt>
      <trkpt lat="45.00523" lon="5.11659">
        <ele>267.94702</ele>
        <time>2022-03-12T12:29:26.316Z</time>
      </trkpt>
      <trkpt lat="45.00519" lon="5.11646">
        <ele>268.906639</ele>
        <time>2022-03-12T12:29:32.323Z</time>
      </trkpt>
      <trkpt lat="45.00515" lon="5.11634">
        <ele>269.788271</ele>
        <time>2022-03-12T12:29:38.324Z</time>
      </trkpt>
      <trkpt lat="45.00513" lon="5.1162">
        <ele>270.664758</ele>
        <time>2022-03-12T12:29:43.330Z</time>
      </trkpt>
      <trkpt lat="45.00512" lon="5.11607">
        <ele>271.547718</ele>
        <time>2022-03-12T12:29:48.330Z</time>
      </trkpt>
      <trkpt lat="45.00511" lon="5.11593">
        <ele>272.453621</ele>
        <time>2022-03-12T12:29:53.329Z</time>
      </trkpt>
      <trkpt lat="45.00511" lon="5.11579">
        <ele>273.398083</ele>
        <time>2022-03-12T12:29:58.327Z</time>
      </trkpt>
      <trkpt lat="45.00511" lon="5.11564">
        <ele>274.368359</ele>
        <time>2022-03-12T12:30:03.330Z</time>
      </trkpt>
      <trkpt lat="45.0051" lon="5.1155">
        <ele>275.321181</ele>
        <time>2022-03-12T12:30:08.316Z</time>
      </trkpt>
      <trkpt lat="45.0051" lon="5.11535">
        <ele>276.286015</ele>
        <time>2022-03-12T12:30:13.320Z</time>
      </trkpt>
      <trkpt lat="45.00509" lon="5.11522">
        <ele>277.127679</ele>
        <time>2022-03-12T12:30:17.331Z</time>
      </trkpt>
      <trkpt lat="45.00508" lon="5.11506">
        <ele>277.842986</ele>
        <time>2022-03-12T12:30:22.322Z</time>
      </trkpt>
      <trkpt lat="45.00508" lon="5.11493">
        <ele>278.215708</ele>
        <time>2022-03-12T12:30:26.339Z</time>
      </trkpt>
      <trkpt lat="45.00506" lon="5.1148">
        <ele>278.592006</ele>
        <time>2022-03-12T12:30:30.327Z</time>
      </trkpt>
      <trkpt lat="45.00506" lon="5.11465">
        <ele>279.009447</ele>
        <time>2022-03-12T12:30:34.316Z</time>
      </trkpt>
      <trkpt lat="45.00505" lon="5.1145">
        <ele>279.434253</ele>
        <time>2022-03-12T12:30:38.332Z</time>
      </trkpt>
      <trkpt lat="45.00504" lon="5.11434">
        <ele>279.875391</ele>
        <time>2022-03-12T12:30:42.338Z</time>
      </trkpt>
      <trkpt lat="45.00503" lon="5.11418">
        <ele>280.319317</ele>
        <time>2022-03-12T12:30:46.332Z</time>
      </trkpt>
      <trkpt lat="45.00502" lon="5.11402">
        <ele>280.76751</ele>
        <time>2022-03-12T12:30:50.322Z</time>
      </trkpt>
      <trkpt lat="45.00502" lon="5.11385">
        <ele>281.240517</ele>
        <time>2022-03-12T12:30:54.323Z</time>
      </trkpt>
      <trkpt lat="45.00502" lon="5.11371">
        <ele>281.654861</ele>
        <time>2022-03-12T12:30:58.313Z</time>
      </trkpt>
      <trkpt lat="45.00505" lon="5.11357">
        <ele>282.064244</ele>
        <time>2022-03-12T12:31:02.325Z</time>
      </trkpt>
      <trkpt lat="45.00509" lon="5.11341">
        <ele>282.522061</ele>
        <time>2022-03-12T12:31:06.317Z</time>
      </trkpt>
      <trkpt lat="45.00516" lon="5.11327">
        <ele>282.986096</ele>
        <time>2022-03-12T12:31:10.320Z</time>
      </trkpt>
      <trkpt lat="45.00522" lon="5.11313">
        <ele>283.459487</ele>
        <time>2022-03-12T12:31:14.324Z</time>
      </trkpt>
      <trkpt lat="45.00529" lon="5.11299">
        <ele>283.943917</ele>
        <time>2022-03-12T12:31:18.320Z</time>
      </trkpt>
      <trkpt lat="45.00535" lon="5.11287">
        <ele>284.33694</ele>
        <time>2022-03-12T12:31:21.316Z</time>
      </trkpt>
      <trkpt lat="45.00541" lon="5.11275">
        <ele>284.737636</ele>
        <time>2022-03-12T12:31:24.321Z</time>
      </trkpt>
      <trkpt lat="45.00547" lon="5.11263">
        <ele>284.889547</ele>
        <time>2022-03-12T12:31:27.331Z</time>
      </trkpt>
      <trkpt lat="45.00552" lon="5.1125">
        <ele>285.050007</ele>
        <time>2022-03-12T12:31:30.333Z</time>
      </trkpt>
      <trkpt lat="45.00556" lon="5.11237">
        <ele>285.203008</ele>
        <time>2022-03-12T12:31:33.317Z</time>
      </trkpt>
      <trkpt lat="45.00558" lon="5.11223">
        <ele>285.351079</ele>
        <time>2022-03-12T12:31:36.324Z</time>
      </trkpt>
      <trkpt lat="45.00557" lon="5.1121">
        <ele>285.489306</ele>
        <time>2022-03-12T12:31:39.323Z</time>
      </trkpt>
      <trkpt lat="45.00555" lon="5.11198">
        <ele>285.627521</ele>
        <time>2022-03-12T12:31:42.323Z</time>
      </trkpt>
      <trkpt lat="45.00552" lon="5.11185">
        <ele>285.764058</ele>
        <time>2022-03-12T12:31:45.323Z</time>
      </trkpt>
      <trkpt lat="45.00549" lon="5.11173">
        <ele>285.901147</ele>
        <time>2022-03-12T12:31:48.314Z</time>
      </trkpt>
      <trkpt lat="45.00544" lon="5.11162">
        <ele>286.038819</ele>
        <time>2022-03-12T12:31:51.323Z</time>
      </trkpt>
      <trkpt lat="45.00539" lon="5.11151">
        <ele>286.177755</ele>
        <time>2022-03-12T12:31:54.321Z</time>
      </trkpt>
      <trkpt lat="45.00535" lon="5.11139">
        <ele>286.318079</ele>
        <time>2022-03-12T12:31:57.324Z</time>
      </trkpt>
      <trkpt lat="45.00529" lon="5.11128">
        <ele>286.458095</ele>
        <time>2022-03-12T12:32:00.314Z</time>
      </trkpt>
      <trkpt lat="45.00521" lon="5.11123">
        <ele>286.598284</ele>
        <time>2022-03-12T12:32:04.321Z</time>
      </trkpt>
      <trkpt lat="45.00512" lon="5.1113">
        <ele>286.748452</ele>
        <time>2022-03-12T12:32:10.330Z</time>
      </trkpt>
      <trkpt lat="45.00504" lon="5.11143">
        <ele>286.936582</ele>
        <time>2022-03-12T12:33:38.337Z</time>
      </trkpt>
      <trkpt lat="45.00496" lon="5.11155">
        <ele>287.108088</ele>
        <time>2022-03-12T12:33:42.323Z</time>
      </trkpt>
      <trkpt lat="45.00488" lon="5.11165">
        <ele>287.261193</ele>
        <time>2022-03-12T12:33:46.320Z</time>
      </trkpt>
      <trkpt lat="45.0048" lon="5.11177">
        <ele>287.370049</ele>
        <time>2022-03-12T12:33:50.328Z</time>
      </trkpt>
      <trkpt lat="45.00473" lon="5.11186">
        <ele>287.097833</ele>
        <time>2022-03-12T12:33:53.322Z</time>
      </trkpt>
      <trkpt lat="45.00466" lon="5.11197">
        <ele>286.818538</ele>
        <time>2022-03-12T12:33:56.328Z</time>
      </trkpt>
      <trkpt lat="45.00458" lon="5.11206">
        <ele>286.546689</ele>
        <time>2022-03-12T12:33:59.330Z</time>
      </trkpt>
      <trkpt lat="45.0045" lon="5.11214">
        <ele>286.268998</ele>
        <time>2022-03-12T12:34:02.327Z</time>
      </trkpt>
      <trkpt lat="45.0044" lon="5.1122">
        <ele>285.973712</ele>
        <time>2022-03-12T12:34:05.323Z</time>
      </trkpt>
      <trkpt lat="45.00429" lon="5.11224">
        <ele>285.673353</ele>
        <time>2022-03-12T12:34:08.333Z</time>
      </trkpt>
      <trkpt lat="45.00418" lon="5.11226">
        <ele>285.367451</ele>
        <time>2022-03-12T12:34:11.332Z</time>
      </trkpt>
      <trkpt lat="45.00406" lon="5.11226">
        <ele>285.037276</ele>
        <time>2022-03-12T12:34:14.328Z</time>
      </trkpt>
      <trkpt lat="45.00397" lon="5.11227">
        <ele>284.789652</ele>
        <time>2022-03-12T12:34:16.326Z</time>
      </trkpt>
      <trkpt lat="45.00388" lon="5.11226">
        <ele>284.522774</ele>
        <time>2022-03-12T12:34:18.329Z</time>
      </trkpt>
      <trkpt lat="45.00377" lon="5.11226">
        <ele>284.228414</ele>
        <time>2022-03-12T12:34:20.325Z</time>
      </trkpt>
      <trkpt lat="45.00365" lon="5.11226">
        <ele>283.91204</ele>
        <time>2022-03-12T12:34:22.329Z</time>
      </trkpt>
      <trkpt lat="45.00354" lon="5.11228">
        <ele>283.584859</ele>
        <time>2022-03-12T12:34:24.325Z</time>
      </trkpt>
      <trkpt lat="45.00342" lon="5.11237">
        <ele>283.237906</ele>
        <time>2022-03-12T12:34:26.328Z</time>
      </trkpt>
      <trkpt lat="45.00334" lon="5.11249">
        <ele>282.892025</ele>
        <time>2022-03-12T12:34:28.332Z</time>
      </trkpt>
      <trkpt lat="45.00325" lon="5.11262">
        <ele>282.556049</ele>
        <time>2022-03-12T12:34:30.330Z</time>
      </trkpt>
      <trkpt lat="45.00318" lon="5.11275">
        <ele>282.701548</ele>
        <time>2022-03-12T12:34:32.327Z</time>
      </trkpt>
      <trkpt lat="45.00309" lon="5.11286">
        <ele>283.014025</ele>
        <time>2022-03-12T12:34:34.332Z</time>
      </trkpt>
      <trkpt lat="45.003" lon="5.11296">
        <ele>283.319044</ele>
        <time>2022-03-12T12:34:36.338Z</time>
      </trkpt>
      <trkpt lat="45.00291" lon="5.11304">
        <ele>283.607967</ele>
        <time>2022-03-12T12:34:38.327Z</time>
      </trkpt>
      <trkpt lat="45.00282" lon="5.11311">
        <ele>283.883913</ele>
        <time>2022-03-12T12:34:40.334Z</time>
      </trkpt>
      <trkpt lat="45.00273" lon="5.11318">
        <ele>284.153823</ele>
        <time>2022-03-12T12:34:42.324Z</time>
      </trkpt>
      <trkpt lat="45.00265" lon="5.11325">
        <ele>284.412565</ele>
        <time>2022-03-12T12:34:44.329Z</time>
      </trkpt>
      <trkpt lat="45.00253" lon="5.11333">
        <ele>284.755637</ele>
        <time>2022-03-12T12:34:47.327Z</time>
      </trkpt>
      <trkpt lat="45.00243" lon="5.11341">
        <ele>285.077355</ele>
        <time>2022-03-12T12:34:50.315Z</time>
      </trkpt>
      <trkpt lat="45.00233" lon="5.11349">
        <ele>285.382607</ele>
        <time>2022-03-12T12:34:53.311Z</time>
      </trkpt>
      <trkpt lat="45.00223" lon="5.11355">
        <ele>285.662942</ele>
        <time>2022-03-12T12:34:56.330Z</time>
      </trkpt>
      <trkpt lat="45.00215" lon="5.11361">
        <ele>285.914925</ele>
        <time>2022-03-12T12:34:59.325Z</time>
      </trkpt>
      <trkpt lat="45.00205" lon="5.11368">
        <ele>286.216936</ele>
        <time>2022-03-12T12:35:03.331Z</time>
      </trkpt>
      <trkpt lat="45.00195" lon="5.11373">
        <ele>286.491092</ele>
        <time>2022-03-12T12:35:07.314Z</time>
      </trkpt>
      <trkpt lat="45.00187" lon="5.11378">
        <ele>286.738329</ele>
        <time>2022-03-12T12:35:11.328Z</time>
      </trkpt>
      <trkpt lat="45.00178" lon="5.11383">
        <ele>286.979162</ele>
        <time>2022-03-12T12:35:15.329Z</time>
      </trkpt>
      <trkpt lat="45.0017" lon="5.11389">
        <ele>287.227022</ele>
        <time>2022-03-12T12:35:19.323Z</time>
      </trkpt>
      <trkpt lat="45.0016" lon="5.11394">
        <ele>287.512632</ele>
        <time>2022-03-12T12:35:23.319Z</time>
      </trkpt>
      <trkpt lat="45.00149" lon="5.114">
        <ele>287.821225</ele>
        <time>2022-03-12T12:35:27.332Z</time>
      </trkpt>
      <trkpt lat="45.00139" lon="5.11405">
        <ele>288.128225</ele>
        <time>2022-03-12T12:35:31.337Z</time>
      </trkpt>
      <trkpt lat="45.00128" lon="5.11412">
        <ele>288.433948</ele>
        <time>2022-03-12T12:35:35.342Z</time>
      </trkpt>
      <trkpt lat="45.0012" lon="5.11417">
        <ele>288.676481</ele>
        <time>2022-03-12T12:35:38.325Z</time>
      </trkpt>
      <trkpt lat="45.00111" lon="5.11423">
        <ele>288.941623</ele>
        <time>2022-03-12T12:35:41.329Z</time>
      </trkpt>
      <trkpt lat="45.00102" lon="5.11428">
        <ele>289.203786</ele>
        <time>2022-03-12T12:35:44.331Z</time>
      </trkpt>
      <trkpt lat="45.00093" lon="5.11433">
        <ele>289.478478</ele>
        <time>2022-03-12T12:35:47.330Z</time>
      </trkpt>
      <trkpt lat="45.00082" lon="5.11439">
        <ele>289.777109</ele>
        <time>2022-03-12T12:35:50.319Z</time>
      </trkpt>
      <trkpt lat="45.00072" lon="5.11445">
        <ele>290.08499</ele>
        <time>2022-03-12T12:35:53.329Z</time>
      </trkpt>
      <trkpt lat="45.00061" lon="5.11451">
        <ele>290.402229</ele>
        <time>2022-03-12T12:35:56.329Z</time>
      </trkpt>
      <trkpt lat="45.0005" lon="5.11457">
        <ele>290.723855</ele>
        <time>2022-03-12T12:35:59.321Z</time>
      </trkpt>
      <trkpt lat="45.00038" lon="5.11464">
        <ele>291.051779</ele>
        <time>2022-03-12T12:36:02.321Z</time>
      </trkpt>
      <trkpt lat="45.00028" lon="5.11471">
        <ele>291.369705</ele>
        <time>2022-03-12T12:36:05.326Z</time>
      </trkpt>
      <trkpt lat="45.00018" lon="5.1148">
        <ele>291.696963</ele>
        <time>2022-03-12T12:36:08.332Z</time>
      </trkpt>
      <trkpt lat="45.0001" lon="5.11494">
        <ele>292.019503</ele>
        <time>2022-03-12T12:36:11.324Z</time>
      </trkpt>
      <trkpt lat="45.00007" lon="5.11511">
        <ele>291.721086</ele>
        <time>2022-03-12T12:36:14.322Z</time>
      </trkpt>
      <trkpt lat="45.00004" lon="5.11527">
        <ele>291.103998</ele>
        <time>2022-03-12T12:36:17.322Z</time>
      </trkpt>
      <trkpt lat="45.00002" lon="5.11543">
        <ele>290.542096</ele>
        <time>2022-03-12T12:36:20.330Z</time>
      </trkpt>
      <trkpt lat="45.00001" lon="5.11557">
        <ele>290.042925</ele>
        <time>2022-03-12T12:36:23.343Z</time>
      </trkpt>
      <trkpt lat="44.99994" lon="5.11565">
        <ele>289.554362</ele>
        <time>2022-03-12T12:36:28.324Z</time>
      </trkpt>
      <trkpt lat="44.99985" lon="5.11567">
        <ele>289.082247</ele>
        <time>2022-03-12T12:37:04.325Z</time>
      </trkpt>
      <trkpt lat="44.99974" lon="5.11566">
        <ele>288.53283</ele>
        <time>2022-03-12T12:37:08.325Z</time>
      </trkpt>
      <trkpt lat="44.99964" lon="5.11566">
        <ele>288.024452</ele>
        <time>2022-03-12T12:37:11.324Z</time>
      </trkpt>
      <trkpt lat="44.99952" lon="5.11566">
        <ele>287.439777</ele>
        <time>2022-03-12T12:37:14.322Z</time>
      </trkpt>
      <trkpt lat="44.99941" lon="5.11567">
        <ele>286.878668</ele>
        <time>2022-03-12T12:37:17.326Z</time>
      </trkpt>
      <trkpt lat="44.99928" lon="5.11568">
        <ele>286.221942</ele>
        <time>2022-03-12T12:37:20.327Z</time>
      </trkpt>
      <trkpt lat="44.99918" lon="5.11569">
        <ele>285.686157</ele>
        <time>2022-03-12T12:37:22.338Z</time>
      </trkpt>
      <trkpt lat="44.99907" lon="5.11571">
        <ele>285.120267</ele>
        <time>2022-03-12T12:37:24.334Z</time>
      </trkpt>
      <trkpt lat="44.99895" lon="5.11571">
        <ele>284.52483</ele>
        <time>2022-03-12T12:37:26.332Z</time>
      </trkpt>
      <trkpt lat="44.99882" lon="5.11572">
        <ele>283.878255</ele>
        <time>2022-03-12T12:37:28.328Z</time>
      </trkpt>
      <trkpt lat="44.99869" lon="5.11573">
        <ele>283.191976</ele>
        <time>2022-03-12T12:37:30.325Z</time>
      </trkpt>
      <trkpt lat="44.99855" lon="5.11574">
        <ele>282.403474</ele>
        <time>2022-03-12T12:37:32.337Z</time>
      </trkpt>
      <trkpt lat="44.9984" lon="5.11577">
        <ele>281.519925</ele>
        <time>2022-03-12T12:37:34.329Z</time>
      </trkpt>
      <trkpt lat="44.99825" lon="5.11581">
        <ele>280.650885</ele>
        <time>2022-03-12T12:37:36.327Z</time>
      </trkpt>
      <trkpt lat="44.9981" lon="5.11588">
        <ele>279.767211</ele>
        <time>2022-03-12T12:37:38.336Z</time>
      </trkpt>
      <trkpt lat="44.99796" lon="5.11599">
        <ele>278.80801</ele>
        <time>2022-03-12T12:37:40.323Z</time>
      </trkpt>
      <trkpt lat="44.99782" lon="5.11614">
        <ele>277.791596</ele>
        <time>2022-03-12T12:37:42.325Z</time>
      </trkpt>
      <trkpt lat="44.99768" lon="5.11629">
        <ele>276.801399</ele>
        <time>2022-03-12T12:37:44.335Z</time>
      </trkpt>
      <trkpt lat="44.99755" lon="5.11643">
        <ele>275.858967</ele>
        <time>2022-03-12T12:37:46.326Z</time>
      </trkpt>
      <trkpt lat="44.99743" lon="5.11657">
        <ele>274.93931</ele>
        <time>2022-03-12T12:37:48.313Z</time>
      </trkpt>
      <trkpt lat="44.99729" lon="5.11665">
        <ele>274.076816</ele>
        <time>2022-03-12T12:37:50.324Z</time>
      </trkpt>
      <trkpt lat="44.99713" lon="5.1166">
        <ele>273.134317</ele>
        <time>2022-03-12T12:37:52.325Z</time>
      </trkpt>
      <trkpt lat="44.99698" lon="5.11649">
        <ele>272.132643</ele>
        <time>2022-03-12T12:37:54.347Z</time>
      </trkpt>
      <trkpt lat="44.99682" lon="5.11638">
        <ele>271.110155</ele>
        <time>2022-03-12T12:37:56.327Z</time>
      </trkpt>
      <trkpt lat="44.99666" lon="5.11626">
        <ele>270.073481</ele>
        <time>2022-03-12T12:37:58.321Z</time>
      </trkpt>
      <trkpt lat="44.99651" lon="5.11614">
        <ele>269.0439</ele>
        <time>2022-03-12T12:38:00.325Z</time>
      </trkpt>
      <trkpt lat="44.99643" lon="5.11609">
        <ele>268.510152</ele>
        <time>2022-03-12T12:38:01.336Z</time>
      </trkpt>
      <trkpt lat="44.99627" lon="5.11598">
        <ele>267.479769</ele>
        <time>2022-03-12T12:38:03.327Z</time>
      </trkpt>
      <trkpt lat="44.99618" lon="5.11593">
        <ele>266.949469</ele>
        <time>2022-03-12T12:38:04.326Z</time>
      </trkpt>
      <trkpt lat="44.99602" lon="5.11582">
        <ele>265.897908</ele>
        <time>2022-03-12T12:38:06.328Z</time>
      </trkpt>
      <trkpt lat="44.99594" lon="5.11576">
        <ele>265.358911</ele>
        <time>2022-03-12T12:38:07.334Z</time>
      </trkpt>
      <trkpt lat="44.99585" lon="5.11571">
        <ele>264.821595</ele>
        <time>2022-03-12T12:38:08.316Z</time>
      </trkpt>
      <trkpt lat="44.99577" lon="5.11566">
        <ele>264.283819</ele>
        <time>2022-03-12T12:38:09.326Z</time>
      </trkpt>
      <trkpt lat="44.99568" lon="5.11561">
        <ele>263.747617</ele>
        <time>2022-03-12T12:38:10.329Z</time>
      </trkpt>
      <trkpt lat="44.9956" lon="5.11556">
        <ele>263.204443</ele>
        <time>2022-03-12T12:38:11.330Z</time>
      </trkpt>
      <trkpt lat="44.99551" lon="5.11551">
        <ele>262.645021</ele>
        <time>2022-03-12T12:38:12.329Z</time>
      </trkpt>
      <trkpt lat="44.99542" lon="5.11546">
        <ele>262.097254</ele>
        <time>2022-03-12T12:38:13.331Z</time>
      </trkpt>
      <trkpt lat="44.99533" lon="5.1154">
        <ele>261.857936</ele>
        <time>2022-03-12T12:38:14.333Z</time>
      </trkpt>
      <trkpt lat="44.99524" lon="5.11534">
        <ele>261.608244</ele>
        <time>2022-03-12T12:38:15.333Z</time>
      </trkpt>
      <trkpt lat="44.99515" lon="5.11527">
        <ele>261.358497</ele>
        <time>2022-03-12T12:38:16.324Z</time>
      </trkpt>
      <trkpt lat="44.99506" lon="5.11521">
        <ele>261.104995</ele>
        <time>2022-03-12T12:38:17.320Z</time>
      </trkpt>
      <trkpt lat="44.99497" lon="5.11514">
        <ele>260.859399</ele>
        <time>2022-03-12T12:38:18.343Z</time>
      </trkpt>
      <trkpt lat="44.99488" lon="5.11507">
        <ele>260.615127</ele>
        <time>2022-03-12T12:38:19.320Z</time>
      </trkpt>
      <trkpt lat="44.9948" lon="5.115">
        <ele>260.37609</ele>
        <time>2022-03-12T12:38:20.328Z</time>
      </trkpt>
      <trkpt lat="44.99472" lon="5.11492">
        <ele>260.142229</ele>
        <time>2022-03-12T12:38:21.331Z</time>
      </trkpt>
      <trkpt lat="44.99465" lon="5.11483">
        <ele>259.909046</ele>
        <time>2022-03-12T12:38:22.336Z</time>
      </trkpt>
      <trkpt lat="44.99458" lon="5.11475">
        <ele>259.684874</ele>
        <time>2022-03-12T12:38:23.333Z</time>
      </trkpt>
      <trkpt lat="44.99451" lon="5.11467">
        <ele>259.461506</ele>
        <time>2022-03-12T12:38:24.325Z</time>
      </trkpt>
      <trkpt lat="44.99439" lon="5.11451">
        <ele>259.050253</ele>
        <time>2022-03-12T12:38:26.325Z</time>
      </trkpt>
      <trkpt lat="44.99428" lon="5.11436">
        <ele>258.680717</ele>
        <time>2022-03-12T12:38:28.311Z</time>
      </trkpt>
      <trkpt lat="44.99417" lon="5.11423">
        <ele>258.337963</ele>
        <time>2022-03-12T12:38:30.334Z</time>
      </trkpt>
      <trkpt lat="44.99408" lon="5.11411">
        <ele>258.015471</ele>
        <time>2022-03-12T12:38:32.324Z</time>
      </trkpt>
      <trkpt lat="44.99398" lon="5.11399">
        <ele>257.711885</ele>
        <time>2022-03-12T12:38:34.328Z</time>
      </trkpt>
      <trkpt lat="44.99389" lon="5.11388">
        <ele>257.707375</ele>
        <time>2022-03-12T12:38:36.338Z</time>
      </trkpt>
      <trkpt lat="44.9938" lon="5.11378">
        <ele>257.72408</ele>
        <time>2022-03-12T12:38:38.325Z</time>
      </trkpt>
      <trkpt lat="44.99371" lon="5.11367">
        <ele>257.74112</ele>
        <time>2022-03-12T12:38:40.327Z</time>
      </trkpt>
      <trkpt lat="44.99362" lon="5.11355">
        <ele>257.758473</ele>
        <time>2022-03-12T12:38:42.329Z</time>
      </trkpt>
      <trkpt lat="44.99353" lon="5.11344">
        <ele>257.776003</ele>
        <time>2022-03-12T12:38:44.327Z</time>
      </trkpt>
      <trkpt lat="44.99345" lon="5.11332">
        <ele>257.793141</ele>
        <time>2022-03-12T12:38:46.336Z</time>
      </trkpt>
      <trkpt lat="44.99337" lon="5.1132">
        <ele>257.810087</ele>
        <time>2022-03-12T12:38:48.313Z</time>
      </trkpt>
      <trkpt lat="44.99329" lon="5.11308">
        <ele>257.827172</ele>
        <time>2022-03-12T12:38:50.339Z</time>
      </trkpt>
      <trkpt lat="44.99321" lon="5.11295">
        <ele>257.84443</ele>
        <time>2022-03-12T12:38:52.318Z</time>
      </trkpt>
      <trkpt lat="44.99313" lon="5.11282">
        <ele>257.861957</ele>
        <time>2022-03-12T12:38:54.325Z</time>
      </trkpt>
      <trkpt lat="44.99306" lon="5.11269">
        <ele>257.879751</ele>
        <time>2022-03-12T12:38:56.329Z</time>
      </trkpt>
      <trkpt lat="44.99298" lon="5.11256">
        <ele>257.897071</ele>
        <time>2022-03-12T12:38:58.334Z</time>
      </trkpt>
      <trkpt lat="44.9929" lon="5.11243">
        <ele>257.914663</ele>
        <time>2022-03-12T12:39:00.329Z</time>
      </trkpt>
      <trkpt lat="44.99282" lon="5.11231">
        <ele>257.931808</ele>
        <time>2022-03-12T12:39:02.328Z</time>
      </trkpt>
      <trkpt lat="44.99273" lon="5.11219">
        <ele>257.948811</ele>
        <time>2022-03-12T12:39:04.320Z</time>
      </trkpt>
      <trkpt lat="44.99265" lon="5.11208">
        <ele>258.056835</ele>
        <time>2022-03-12T12:39:06.327Z</time>
      </trkpt>
      <trkpt lat="44.99257" lon="5.11198">
        <ele>258.181044</ele>
        <time>2022-03-12T12:39:08.326Z</time>
      </trkpt>
      <trkpt lat="44.99249" lon="5.11188">
        <ele>258.299201</ele>
        <time>2022-03-12T12:39:10.334Z</time>
      </trkpt>
      <trkpt lat="44.99242" lon="5.11179">
        <ele>258.403841</ele>
        <time>2022-03-12T12:39:12.323Z</time>
      </trkpt>
      <trkpt lat="44.99233" lon="5.11168">
        <ele>258.543301</ele>
        <time>2022-03-12T12:39:15.331Z</time>
      </trkpt>
      <trkpt lat="44.99224" lon="5.11157">
        <ele>258.665923</ele>
        <time>2022-03-12T12:39:18.327Z</time>
      </trkpt>
      <trkpt lat="44.99217" lon="5.11149">
        <ele>258.77004</ele>
        <time>2022-03-12T12:39:21.311Z</time>
      </trkpt>
      <trkpt lat="44.9921" lon="5.11138">
        <ele>258.887983</ele>
        <time>2022-03-12T12:39:25.323Z</time>
      </trkpt>
      <trkpt lat="44.99202" lon="5.11129">
        <ele>259.001522</ele>
        <time>2022-03-12T12:39:29.330Z</time>
      </trkpt>
      <trkpt lat="44.99194" lon="5.11119">
        <ele>259.122584</ele>
        <time>2022-03-12T12:39:33.357Z</time>
      </trkpt>
      <trkpt lat="44.99186" lon="5.11111">
        <ele>259.233518</ele>
        <time>2022-03-12T12:39:37.336Z</time>
      </trkpt>
      <trkpt lat="44.99176" lon="5.11101">
        <ele>259.369718</ele>
        <time>2022-03-12T12:39:41.333Z</time>
      </trkpt>
      <trkpt lat="44.99167" lon="5.11093">
        <ele>259.487182</ele>
        <time>2022-03-12T12:39:44.327Z</time>
      </trkpt>
      <trkpt lat="44.99157" lon="5.11085">
        <ele>259.617381</ele>
        <time>2022-03-12T12:39:47.319Z</time>
      </trkpt>
      <trkpt lat="44.99147" lon="5.11077">
        <ele>259.748946</ele>
        <time>2022-03-12T12:39:50.321Z</time>
      </trkpt>
      <trkpt lat="44.99136" lon="5.1107">
        <ele>259.884363</ele>
        <time>2022-03-12T12:39:53.322Z</time>
      </trkpt>
      <trkpt lat="44.99125" lon="5.11063">
        <ele>259.923136</ele>
        <time>2022-03-12T12:39:56.319Z</time>
      </trkpt>
      <trkpt lat="44.99113" lon="5.11055">
        <ele>259.787313</ele>
        <time>2022-03-12T12:39:59.332Z</time>
      </trkpt>
      <trkpt lat="44.99101" lon="5.11047">
        <ele>259.643047</ele>
        <time>2022-03-12T12:40:02.330Z</time>
      </trkpt>
      <trkpt lat="44.99093" lon="5.11042">
        <ele>259.542097</ele>
        <time>2022-03-12T12:40:04.309Z</time>
      </trkpt>
      <trkpt lat="44.99084" lon="5.11035">
        <ele>259.438809</ele>
        <time>2022-03-12T12:40:06.332Z</time>
      </trkpt>
      <trkpt lat="44.99076" lon="5.11029">
        <ele>259.331233</ele>
        <time>2022-03-12T12:40:08.328Z</time>
      </trkpt>
      <trkpt lat="44.99067" lon="5.11022">
        <ele>259.224013</ele>
        <time>2022-03-12T12:40:10.327Z</time>
      </trkpt>
      <trkpt lat="44.99058" lon="5.11015">
        <ele>259.117007</ele>
        <time>2022-03-12T12:40:12.332Z</time>
      </trkpt>
      <trkpt lat="44.9905" lon="5.11007">
        <ele>259.004932</ele>
        <time>2022-03-12T12:40:14.332Z</time>
      </trkpt>
      <trkpt lat="44.99041" lon="5.10998">
        <ele>258.888533</ele>
        <time>2022-03-12T12:40:16.331Z</time>
      </trkpt>
      <trkpt lat="44.99032" lon="5.10989">
        <ele>258.770572</ele>
        <time>2022-03-12T12:40:18.325Z</time>
      </trkpt>
      <trkpt lat="44.99024" lon="5.10979">
        <ele>258.653449</ele>
        <time>2022-03-12T12:40:20.335Z</time>
      </trkpt>
      <trkpt lat="44.99016" lon="5.10969">
        <ele>258.538322</ele>
        <time>2022-03-12T12:40:22.327Z</time>
      </trkpt>
      <trkpt lat="44.99008" lon="5.10959">
        <ele>258.42279</ele>
        <time>2022-03-12T12:40:24.320Z</time>
      </trkpt>
      <trkpt lat="44.99" lon="5.10949">
        <ele>258.307475</ele>
        <time>2022-03-12T12:40:26.327Z</time>
      </trkpt>
      <trkpt lat="44.98992" lon="5.10939">
        <ele>258.192218</ele>
        <time>2022-03-12T12:40:28.342Z</time>
      </trkpt>
      <trkpt lat="44.98984" lon="5.10928">
        <ele>258.075913</ele>
        <time>2022-03-12T12:40:30.332Z</time>
      </trkpt>
      <trkpt lat="44.98976" lon="5.10917">
        <ele>258.070319</ele>
        <time>2022-03-12T12:40:32.329Z</time>
      </trkpt>
      <trkpt lat="44.98969" lon="5.10906">
        <ele>258.139528</ele>
        <time>2022-03-12T12:40:34.327Z</time>
      </trkpt>
      <trkpt lat="44.98961" lon="5.10895">
        <ele>258.208609</ele>
        <time>2022-03-12T12:40:36.334Z</time>
      </trkpt>
      <trkpt lat="44.98953" lon="5.10885">
        <ele>258.275053</ele>
        <time>2022-03-12T12:40:38.334Z</time>
      </trkpt>
      <trkpt lat="44.98946" lon="5.10876">
        <ele>258.336665</ele>
        <time>2022-03-12T12:40:40.331Z</time>
      </trkpt>
      <trkpt lat="44.98939" lon="5.10867">
        <ele>258.395791</ele>
        <time>2022-03-12T12:40:42.323Z</time>
      </trkpt>
      <trkpt lat="44.98933" lon="5.10857">
        <ele>258.453653</ele>
        <time>2022-03-12T12:40:44.329Z</time>
      </trkpt>
      <trkpt lat="44.98926" lon="5.10848">
        <ele>258.512629</ele>
        <time>2022-03-12T12:40:46.324Z</time>
      </trkpt>
      <trkpt lat="44.98919" lon="5.10839">
        <ele>258.569619</ele>
        <time>2022-03-12T12:40:48.327Z</time>
      </trkpt>
      <trkpt lat="44.98912" lon="5.1083">
        <ele>258.629659</ele>
        <time>2022-03-12T12:40:50.328Z</time>
      </trkpt>
      <trkpt lat="44.98905" lon="5.10821">
        <ele>258.689699</ele>
        <time>2022-03-12T12:40:52.327Z</time>
      </trkpt>
      <trkpt lat="44.98898" lon="5.10812">
        <ele>258.750964</ele>
        <time>2022-03-12T12:40:54.320Z</time>
      </trkpt>
      <trkpt lat="44.98891" lon="5.10802">
        <ele>258.812539</ele>
        <time>2022-03-12T12:40:56.324Z</time>
      </trkpt>
      <trkpt lat="44.98884" lon="5.10792">
        <ele>258.878223</ele>
        <time>2022-03-12T12:40:58.330Z</time>
      </trkpt>
      <trkpt lat="44.98876" lon="5.10781">
        <ele>258.944279</ele>
        <time>2022-03-12T12:41:00.330Z</time>
      </trkpt>
      <trkpt lat="44.98869" lon="5.1077">
        <ele>259.011793</ele>
        <time>2022-03-12T12:41:02.330Z</time>
      </trkpt>
      <trkpt lat="44.98861" lon="5.1076">
        <ele>259.077788</ele>
        <time>2022-03-12T12:41:04.329Z</time>
      </trkpt>
      <trkpt lat="44.98854" lon="5.10749">
        <ele>259.143088</ele>
        <time>2022-03-12T12:41:06.331Z</time>
      </trkpt>
      <trkpt lat="44.98847" lon="5.10738">
        <ele>259.24194</ele>
        <time>2022-03-12T12:41:08.328Z</time>
      </trkpt>
      <trkpt lat="44.98841" lon="5.10728">
        <ele>259.346058</ele>
        <time>2022-03-12T12:41:10.326Z</time>
      </trkpt>
      <trkpt lat="44.98835" lon="5.10716">
        <ele>259.451148</ele>
        <time>2022-03-12T12:41:12.338Z</time>
      </trkpt>
      <trkpt lat="44.98829" lon="5.10704">
        <ele>259.557497</ele>
        <time>2022-03-12T12:41:14.322Z</time>
      </trkpt>
      <trkpt lat="44.98824" lon="5.10692">
        <ele>259.665353</ele>
        <time>2022-03-12T12:41:16.327Z</time>
      </trkpt>
      <trkpt lat="44.98819" lon="5.10679">
        <ele>259.770151</ele>
        <time>2022-03-12T12:41:18.326Z</time>
      </trkpt>
      <trkpt lat="44.98814" lon="5.10667">
        <ele>259.875792</ele>
        <time>2022-03-12T12:41:20.329Z</time>
      </trkpt>
      <trkpt lat="44.9881" lon="5.10655">
        <ele>259.976</ele>
        <time>2022-03-12T12:41:22.335Z</time>
      </trkpt>
      <trkpt lat="44.98805" lon="5.10644">
        <ele>260.073748</ele>
        <time>2022-03-12T12:41:24.315Z</time>
      </trkpt>
      <trkpt lat="44.98801" lon="5.10632">
        <ele>260.169549</ele>
        <time>2022-03-12T12:41:26.322Z</time>
      </trkpt>
      <trkpt lat="44.98797" lon="5.10621">
        <ele>260.265073</ele>
        <time>2022-03-12T12:41:28.321Z</time>
      </trkpt>
      <trkpt lat="44.98793" lon="5.10609">
        <ele>260.360191</ele>
        <time>2022-03-12T12:41:30.327Z</time>
      </trkpt>
      <trkpt lat="44.98788" lon="5.10594">
        <ele>260.488454</ele>
        <time>2022-03-12T12:41:33.327Z</time>
      </trkpt>
      <trkpt lat="44.98783" lon="5.10579">
        <ele>260.608872</ele>
        <time>2022-03-12T12:41:36.323Z</time>
      </trkpt>
      <trkpt lat="44.98778" lon="5.10566">
        <ele>260.720895</ele>
        <time>2022-03-12T12:41:39.325Z</time>
      </trkpt>
      <trkpt lat="44.98773" lon="5.10553">
        <ele>260.828998</ele>
        <time>2022-03-12T12:41:42.331Z</time>
      </trkpt>
      <trkpt lat="44.98771" lon="5.10538">
        <ele>260.940195</ele>
        <time>2022-03-12T12:41:45.334Z</time>
      </trkpt>
      <trkpt lat="44.98778" lon="5.10523">
        <ele>260.992512</ele>
        <time>2022-03-12T12:41:48.330Z</time>
      </trkpt>
      <trkpt lat="44.98784" lon="5.10513">
        <ele>260.716281</ele>
        <time>2022-03-12T12:41:50.344Z</time>
      </trkpt>
      <trkpt lat="44.9879" lon="5.10502">
        <ele>260.429056</ele>
        <time>2022-03-12T12:41:52.327Z</time>
      </trkpt>
      <trkpt lat="44.98796" lon="5.1049">
        <ele>260.130619</ele>
        <time>2022-03-12T12:41:54.333Z</time>
      </trkpt>
      <trkpt lat="44.98803" lon="5.10477">
        <ele>259.818981</ele>
        <time>2022-03-12T12:41:56.328Z</time>
      </trkpt>
      <trkpt lat="44.98809" lon="5.10464">
        <ele>259.492505</ele>
        <time>2022-03-12T12:41:58.335Z</time>
      </trkpt>
      <trkpt lat="44.98816" lon="5.1045">
        <ele>259.155867</ele>
        <time>2022-03-12T12:42:00.331Z</time>
      </trkpt>
      <trkpt lat="44.98823" lon="5.10436">
        <ele>258.799663</ele>
        <time>2022-03-12T12:42:02.325Z</time>
      </trkpt>
      <trkpt lat="44.98831" lon="5.10421">
        <ele>258.425385</ele>
        <time>2022-03-12T12:42:04.328Z</time>
      </trkpt>
      <trkpt lat="44.98839" lon="5.10405">
        <ele>258.037882</ele>
        <time>2022-03-12T12:42:06.329Z</time>
      </trkpt>
      <trkpt lat="44.98847" lon="5.10389">
        <ele>257.633909</ele>
        <time>2022-03-12T12:42:08.332Z</time>
      </trkpt>
      <trkpt lat="44.98855" lon="5.10372">
        <ele>257.225014</ele>
        <time>2022-03-12T12:42:10.326Z</time>
      </trkpt>
      <trkpt lat="44.98864" lon="5.10356">
        <ele>256.804523</ele>
        <time>2022-03-12T12:42:12.337Z</time>
      </trkpt>
      <trkpt lat="44.98873" lon="5.10338">
        <ele>256.372449</ele>
        <time>2022-03-12T12:42:14.324Z</time>
      </trkpt>
      <trkpt lat="44.98882" lon="5.10321">
        <ele>255.938751</ele>
        <time>2022-03-12T12:42:16.325Z</time>
      </trkpt>
      <trkpt lat="44.98891" lon="5.10303">
        <ele>255.457688</ele>
        <time>2022-03-12T12:42:18.330Z</time>
      </trkpt>
      <trkpt lat="44.989" lon="5.10286">
        <ele>254.972071</ele>
        <time>2022-03-12T12:42:20.325Z</time>
      </trkpt>
      <trkpt lat="44.98909" lon="5.10269">
        <ele>254.50264</ele>
        <time>2022-03-12T12:42:22.326Z</time>
      </trkpt>
      <trkpt lat="44.9892" lon="5.10256">
        <ele>254.047699</ele>
        <time>2022-03-12T12:42:24.334Z</time>
      </trkpt>
      <trkpt lat="44.98934" lon="5.10251">
        <ele>253.589479</ele>
        <time>2022-03-12T12:42:26.334Z</time>
      </trkpt>
      <trkpt lat="44.98949" lon="5.10251">
        <ele>253.119826</ele>
        <time>2022-03-12T12:42:28.322Z</time>
      </trkpt>
      <trkpt lat="44.98964" lon="5.10251">
        <ele>252.634223</ele>
        <time>2022-03-12T12:42:30.325Z</time>
      </trkpt>
      <trkpt lat="44.98979" lon="5.10248">
        <ele>252.156306</ele>
        <time>2022-03-12T12:42:32.330Z</time>
      </trkpt>
      <trkpt lat="44.98994" lon="5.10244">
        <ele>251.677287</ele>
        <time>2022-03-12T12:42:34.323Z</time>
      </trkpt>
      <trkpt lat="44.99008" lon="5.1024">
        <ele>251.208478</ele>
        <time>2022-03-12T12:42:36.335Z</time>
      </trkpt>
      <trkpt lat="44.99023" lon="5.10235">
        <ele>250.738334</ele>
        <time>2022-03-12T12:42:38.332Z</time>
      </trkpt>
      <trkpt lat="44.99037" lon="5.10231">
        <ele>250.273928</ele>
        <time>2022-03-12T12:42:40.324Z</time>
      </trkpt>
      <trkpt lat="44.99051" lon="5.10226">
        <ele>249.805889</ele>
        <time>2022-03-12T12:42:42.324Z</time>
      </trkpt>
      <trkpt lat="44.99066" lon="5.10222">
        <ele>249.332202</ele>
        <time>2022-03-12T12:42:44.326Z</time>
      </trkpt>
      <trkpt lat="44.99081" lon="5.10217">
        <ele>248.862157</ele>
        <time>2022-03-12T12:42:46.340Z</time>
      </trkpt>
      <trkpt lat="44.99095" lon="5.10212">
        <ele>248.38847</ele>
        <time>2022-03-12T12:42:48.336Z</time>
      </trkpt>
      <trkpt lat="44.9911" lon="5.10208">
        <ele>247.91946</ele>
        <time>2022-03-12T12:42:50.333Z</time>
      </trkpt>
      <trkpt lat="44.99125" lon="5.10203">
        <ele>247.443611</ele>
        <time>2022-03-12T12:42:52.330Z</time>
      </trkpt>
      <trkpt lat="44.99139" lon="5.10198">
        <ele>246.973566</ele>
        <time>2022-03-12T12:42:54.326Z</time>
      </trkpt>
      <trkpt lat="44.99154" lon="5.10193">
        <ele>246.495237</ele>
        <time>2022-03-12T12:42:56.325Z</time>
      </trkpt>
      <trkpt lat="44.99168" lon="5.10187">
        <ele>246.02352</ele>
        <time>2022-03-12T12:42:58.338Z</time>
      </trkpt>
      <trkpt lat="44.99183" lon="5.10178">
        <ele>245.530858</ele>
        <time>2022-03-12T12:43:00.334Z</time>
      </trkpt>
      <trkpt lat="44.99197" lon="5.10169">
        <ele>245.039857</ele>
        <time>2022-03-12T12:43:02.333Z</time>
      </trkpt>
      <trkpt lat="44.9921" lon="5.10157">
        <ele>244.537482</ele>
        <time>2022-03-12T12:43:04.333Z</time>
      </trkpt>
      <trkpt lat="44.99224" lon="5.10146">
        <ele>244.194431</ele>
        <time>2022-03-12T12:43:06.328Z</time>
      </trkpt>
      <trkpt lat="44.99238" lon="5.10135">
        <ele>243.851251</ele>
        <time>2022-03-12T12:43:08.328Z</time>
      </trkpt>
      <trkpt lat="44.99252" lon="5.10123">
        <ele>243.498701</ele>
        <time>2022-03-12T12:43:10.320Z</time>
      </trkpt>
      <trkpt lat="44.99265" lon="5.10111">
        <ele>243.147542</ele>
        <time>2022-03-12T12:43:12.329Z</time>
      </trkpt>
      <trkpt lat="44.99279" lon="5.101">
        <ele>242.80296</ele>
        <time>2022-03-12T12:43:14.331Z</time>
      </trkpt>
      <trkpt lat="44.99292" lon="5.10089">
        <ele>242.469765</ele>
        <time>2022-03-12T12:43:16.327Z</time>
      </trkpt>
      <trkpt lat="44.99305" lon="5.10079">
        <ele>242.15097</ele>
        <time>2022-03-12T12:43:18.328Z</time>
      </trkpt>
      <trkpt lat="44.99317" lon="5.10069">
        <ele>241.843552</ele>
        <time>2022-03-12T12:43:20.326Z</time>
      </trkpt>
      <trkpt lat="44.9933" lon="5.1006">
        <ele>241.536463</ele>
        <time>2022-03-12T12:43:22.328Z</time>
      </trkpt>
      <trkpt lat="44.99342" lon="5.1005">
        <ele>241.237003</ele>
        <time>2022-03-12T12:43:24.326Z</time>
      </trkpt>
      <trkpt lat="44.99354" lon="5.10041">
        <ele>240.937543</ele>
        <time>2022-03-12T12:43:26.324Z</time>
      </trkpt>
      <trkpt lat="44.99366" lon="5.10031">
        <ele>240.629367</ele>
        <time>2022-03-12T12:43:28.339Z</time>
      </trkpt>
      <trkpt lat="44.99378" lon="5.10021">
        <ele>240.336869</ele>
        <time>2022-03-12T12:43:30.330Z</time>
      </trkpt>
      <trkpt lat="44.9939" lon="5.10011">
        <ele>240.04634</ele>
        <time>2022-03-12T12:43:32.335Z</time>
      </trkpt>
      <trkpt lat="44.99402" lon="5.10001">
        <ele>239.757598</ele>
        <time>2022-03-12T12:43:34.325Z</time>
      </trkpt>
      <trkpt lat="44.99415" lon="5.09991">
        <ele>239.463124</ele>
        <time>2022-03-12T12:43:36.326Z</time>
      </trkpt>
      <trkpt lat="44.99427" lon="5.09981">
        <ele>239.172595</ele>
        <time>2022-03-12T12:43:38.322Z</time>
      </trkpt>
      <trkpt lat="44.99439" lon="5.09971">
        <ele>238.878044</ele>
        <time>2022-03-12T12:43:40.326Z</time>
      </trkpt>
      <trkpt lat="44.99452" lon="5.09961">
        <ele>238.581046</ele>
        <time>2022-03-12T12:43:42.320Z</time>
      </trkpt>
      <trkpt lat="44.99464" lon="5.09951">
        <ele>238.283329</ele>
        <time>2022-03-12T12:43:44.332Z</time>
      </trkpt>
      <trkpt lat="44.99476" lon="5.09941">
        <ele>237.989213</ele>
        <time>2022-03-12T12:43:46.327Z</time>
      </trkpt>
      <trkpt lat="44.99489" lon="5.09931">
        <ele>237.691096</ele>
        <time>2022-03-12T12:43:48.328Z</time>
      </trkpt>
      <trkpt lat="44.99501" lon="5.0992">
        <ele>237.400856</ele>
        <time>2022-03-12T12:43:50.322Z</time>
      </trkpt>
      <trkpt lat="44.99513" lon="5.0991">
        <ele>237.108084</ele>
        <time>2022-03-12T12:43:52.328Z</time>
      </trkpt>
      <trkpt lat="44.99525" lon="5.099">
        <ele>236.802753</ele>
        <time>2022-03-12T12:43:54.340Z</time>
      </trkpt>
      <trkpt lat="44.99537" lon="5.0989">
        <ele>236.473562</ele>
        <time>2022-03-12T12:43:56.325Z</time>
      </trkpt>
      <trkpt lat="44.99549" lon="5.09879">
        <ele>236.140668</ele>
        <time>2022-03-12T12:43:58.324Z</time>
      </trkpt>
      <trkpt lat="44.99562" lon="5.09868">
        <ele>235.798705</ele>
        <time>2022-03-12T12:44:00.331Z</time>
      </trkpt>
      <trkpt lat="44.99574" lon="5.09857">
        <ele>235.457222</ele>
        <time>2022-03-12T12:44:02.325Z</time>
      </trkpt>
      <trkpt lat="44.99587" lon="5.09846">
        <ele>235.10249</ele>
        <time>2022-03-12T12:44:04.329Z</time>
      </trkpt>
      <trkpt lat="44.996" lon="5.09834">
        <ele>234.743076</ele>
        <time>2022-03-12T12:44:06.332Z</time>
      </trkpt>
      <trkpt lat="44.99613" lon="5.09822">
        <ele>234.375623</ele>
        <time>2022-03-12T12:44:08.325Z</time>
      </trkpt>
      <trkpt lat="44.99626" lon="5.0981">
        <ele>234.00837</ele>
        <time>2022-03-12T12:44:10.331Z</time>
      </trkpt>
      <trkpt lat="44.99639" lon="5.09798">
        <ele>233.641794</ele>
        <time>2022-03-12T12:44:12.330Z</time>
      </trkpt>
      <trkpt lat="44.99653" lon="5.09786">
        <ele>233.271834</ele>
        <time>2022-03-12T12:44:14.328Z</time>
      </trkpt>
      <trkpt lat="44.99666" lon="5.09774">
        <ele>232.901275</ele>
        <time>2022-03-12T12:44:16.315Z</time>
      </trkpt>
      <trkpt lat="44.99679" lon="5.09763">
        <ele>232.576859</ele>
        <time>2022-03-12T12:44:18.335Z</time>
      </trkpt>
      <trkpt lat="44.99693" lon="5.09752">
        <ele>232.312625</ele>
        <time>2022-03-12T12:44:20.320Z</time>
      </trkpt>
      <trkpt lat="44.99707" lon="5.09742">
        <ele>232.047094</ele>
        <time>2022-03-12T12:44:22.327Z</time>
      </trkpt>
      <trkpt lat="44.9972" lon="5.09732">
        <ele>231.78116</ele>
        <time>2022-03-12T12:44:24.332Z</time>
      </trkpt>
      <trkpt lat="44.99734" lon="5.09722">
        <ele>231.520911</ele>
        <time>2022-03-12T12:44:26.332Z</time>
      </trkpt>
      <trkpt lat="44.99748" lon="5.09713">
        <ele>231.256153</ele>
        <time>2022-03-12T12:44:28.328Z</time>
      </trkpt>
      <trkpt lat="44.99762" lon="5.09704">
        <ele>230.988783</ele>
        <time>2022-03-12T12:44:30.332Z</time>
      </trkpt>
      <trkpt lat="44.99777" lon="5.09694">
        <ele>230.715223</ele>
        <time>2022-03-12T12:44:32.323Z</time>
      </trkpt>
      <trkpt lat="44.99791" lon="5.09685">
        <ele>230.438929</ele>
        <time>2022-03-12T12:44:34.322Z</time>
      </trkpt>
      <trkpt lat="44.99806" lon="5.09677">
        <ele>230.16042</ele>
        <time>2022-03-12T12:44:36.345Z</time>
      </trkpt>
      <trkpt lat="44.99821" lon="5.09668">
        <ele>229.887126</ele>
        <time>2022-03-12T12:44:38.324Z</time>
      </trkpt>
      <trkpt lat="44.99836" lon="5.0966">
        <ele>229.616996</ele>
        <time>2022-03-12T12:44:40.328Z</time>
      </trkpt>
      <trkpt lat="44.9985" lon="5.09653">
        <ele>229.274019</ele>
        <time>2022-03-12T12:44:42.335Z</time>
      </trkpt>
      <trkpt lat="44.99865" lon="5.09648">
        <ele>228.930513</ele>
        <time>2022-03-12T12:44:44.329Z</time>
      </trkpt>
      <trkpt lat="44.99879" lon="5.09643">
        <ele>228.597506</ele>
        <time>2022-03-12T12:44:46.326Z</time>
      </trkpt>
      <trkpt lat="44.99893" lon="5.09637">
        <ele>228.266296</ele>
        <time>2022-03-12T12:44:48.329Z</time>
      </trkpt>
      <trkpt lat="44.99907" lon="5.09631">
        <ele>227.938538</ele>
        <time>2022-03-12T12:44:50.326Z</time>
      </trkpt>
      <trkpt lat="44.9992" lon="5.09624">
        <ele>227.601629</ele>
        <time>2022-03-12T12:44:52.326Z</time>
      </trkpt>
      <trkpt lat="44.99934" lon="5.09615">
        <ele>227.26312</ele>
        <time>2022-03-12T12:44:54.333Z</time>
      </trkpt>
      <trkpt lat="44.99947" lon="5.09606">
        <ele>226.934784</ele>
        <time>2022-03-12T12:44:56.330Z</time>
      </trkpt>
      <trkpt lat="44.99959" lon="5.09596">
        <ele>226.610896</ele>
        <time>2022-03-12T12:44:58.322Z</time>
      </trkpt>
      <trkpt lat="44.99971" lon="5.09585">
        <ele>226.27864</ele>
        <time>2022-03-12T12:45:00.324Z</time>
      </trkpt>
      <trkpt lat="44.99984" lon="5.09574">
        <ele>225.938837</ele>
        <time>2022-03-12T12:45:02.324Z</time>
      </trkpt>
      <trkpt lat="44.99997" lon="5.09563">
        <ele>225.601526</ele>
        <time>2022-03-12T12:45:04.328Z</time>
      </trkpt>
      <trkpt lat="45.00009" lon="5.09552">
        <ele>225.310757</ele>
        <time>2022-03-12T12:45:06.316Z</time>
      </trkpt>
      <trkpt lat="45.00022" lon="5.09542">
        <ele>225.04748</ele>
        <time>2022-03-12T12:45:08.326Z</time>
      </trkpt>
      <trkpt lat="45.00034" lon="5.09533">
        <ele>224.789933</ele>
        <time>2022-03-12T12:45:10.331Z</time>
      </trkpt>
      <trkpt lat="45.00046" lon="5.09523">
        <ele>224.53012</ele>
        <time>2022-03-12T12:45:12.324Z</time>
      </trkpt>
      <trkpt lat="45.00058" lon="5.09512">
        <ele>224.270306</ele>
        <time>2022-03-12T12:45:14.327Z</time>
      </trkpt>
      <trkpt lat="45.0007" lon="5.09502">
        <ele>224.010057</ele>
        <time>2022-03-12T12:45:16.332Z</time>
      </trkpt>
      <trkpt lat="45.00082" lon="5.09492">
        <ele>223.752723</ele>
        <time>2022-03-12T12:45:18.330Z</time>
      </trkpt>
      <trkpt lat="45.00094" lon="5.09481">
        <ele>223.496954</ele>
        <time>2022-03-12T12:45:20.329Z</time>
      </trkpt>
      <trkpt lat="45.00106" lon="5.09471">
        <ele>223.246547</ele>
        <time>2022-03-12T12:45:22.323Z</time>
      </trkpt>
      <trkpt lat="45.00117" lon="5.09461">
        <ele>223.000411</ele>
        <time>2022-03-12T12:45:24.324Z</time>
      </trkpt>
      <trkpt lat="45.00128" lon="5.09452">
        <ele>222.762767</ele>
        <time>2022-03-12T12:45:26.327Z</time>
      </trkpt>
      <trkpt lat="45.0014" lon="5.09442">
        <ele>222.523348</ele>
        <time>2022-03-12T12:45:28.328Z</time>
      </trkpt>
      <trkpt lat="45.00151" lon="5.09433">
        <ele>222.282356</ele>
        <time>2022-03-12T12:45:30.333Z</time>
      </trkpt>
      <trkpt lat="45.00162" lon="5.09423">
        <ele>222.113844</ele>
        <time>2022-03-12T12:45:32.328Z</time>
      </trkpt>
      <trkpt lat="45.00174" lon="5.09412">
        <ele>221.987016</ele>
        <time>2022-03-12T12:45:34.326Z</time>
      </trkpt>
      <trkpt lat="45.00185" lon="5.09402">
        <ele>221.860339</ele>
        <time>2022-03-12T12:45:36.327Z</time>
      </trkpt>
      <trkpt lat="45.00197" lon="5.09391">
        <ele>221.729597</ele>
        <time>2022-03-12T12:45:38.324Z</time>
      </trkpt>
      <trkpt lat="45.00208" lon="5.0938">
        <ele>221.598544</ele>
        <time>2022-03-12T12:45:40.340Z</time>
      </trkpt>
      <trkpt lat="45.0022" lon="5.09369">
        <ele>221.466342</ele>
        <time>2022-03-12T12:45:42.328Z</time>
      </trkpt>
      <trkpt lat="45.00232" lon="5.09358">
        <ele>221.334091</ele>
        <time>2022-03-12T12:45:44.337Z</time>
      </trkpt>
      <trkpt lat="45.00244" lon="5.09348">
        <ele>221.202476</ele>
        <time>2022-03-12T12:45:46.323Z</time>
      </trkpt>
      <trkpt lat="45.00255" lon="5.09339">
        <ele>221.077354</ele>
        <time>2022-03-12T12:45:48.331Z</time>
      </trkpt>
      <trkpt lat="45.00268" lon="5.09331">
        <ele>220.950803</ele>
        <time>2022-03-12T12:45:50.324Z</time>
      </trkpt>
      <trkpt lat="45.00281" lon="5.09327">
        <ele>220.820457</ele>
        <time>2022-03-12T12:45:52.330Z</time>
      </trkpt>
      <trkpt lat="45.00294" lon="5.09319">
        <ele>220.693421</ele>
        <time>2022-03-12T12:45:54.320Z</time>
      </trkpt>
      <trkpt lat="45.00304" lon="5.09305">
        <ele>220.559118</ele>
        <time>2022-03-12T12:45:56.325Z</time>
      </trkpt>
      <trkpt lat="45.00316" lon="5.09293">
        <ele>220.280913</ele>
        <time>2022-03-12T12:45:58.323Z</time>
      </trkpt>
      <trkpt lat="45.0033" lon="5.09284">
        <ele>219.91453</ele>
        <time>2022-03-12T12:46:00.329Z</time>
      </trkpt>
      <trkpt lat="45.00344" lon="5.09275">
        <ele>219.547945</ele>
        <time>2022-03-12T12:46:02.326Z</time>
      </trkpt>
      <trkpt lat="45.00359" lon="5.09268">
        <ele>219.174188</ele>
        <time>2022-03-12T12:46:04.327Z</time>
      </trkpt>
      <trkpt lat="45.00373" lon="5.09261">
        <ele>218.8027</ele>
        <time>2022-03-12T12:46:06.332Z</time>
      </trkpt>
      <trkpt lat="45.00387" lon="5.09253">
        <ele>218.440236</ele>
        <time>2022-03-12T12:46:08.332Z</time>
      </trkpt>
      <trkpt lat="45.00401" lon="5.09244">
        <ele>218.070914</ele>
        <time>2022-03-12T12:46:10.328Z</time>
      </trkpt>
      <trkpt lat="45.00415" lon="5.09235">
        <ele>217.700891</ele>
        <time>2022-03-12T12:46:12.328Z</time>
      </trkpt>
      <trkpt lat="45.00429" lon="5.09226">
        <ele>217.330869</ele>
        <time>2022-03-12T12:46:14.319Z</time>
      </trkpt>
      <trkpt lat="45.00443" lon="5.09217">
        <ele>216.96014</ele>
        <time>2022-03-12T12:46:16.338Z</time>
      </trkpt>
      <trkpt lat="45.00457" lon="5.09208">
        <ele>216.58725</ele>
        <time>2022-03-12T12:46:18.329Z</time>
      </trkpt>
      <trkpt lat="45.00471" lon="5.09197">
        <ele>216.212373</ele>
        <time>2022-03-12T12:46:20.320Z</time>
      </trkpt>
      <trkpt lat="45.00484" lon="5.09185">
        <ele>216.006256</ele>
        <time>2022-03-12T12:46:22.334Z</time>
      </trkpt>
      <trkpt lat="45.00498" lon="5.09173">
        <ele>215.810802</ele>
        <time>2022-03-12T12:46:24.325Z</time>
      </trkpt>
      <trkpt lat="45.00512" lon="5.09162">
        <ele>215.618268</ele>
        <time>2022-03-12T12:46:26.331Z</time>
      </trkpt>
      <trkpt lat="45.00526" lon="5.09152">
        <ele>215.42924</ele>
        <time>2022-03-12T12:46:28.326Z</time>
      </trkpt>
      <trkpt lat="45.00539" lon="5.09143">
        <ele>215.245348</ele>
        <time>2022-03-12T12:46:30.324Z</time>
      </trkpt>
      <trkpt lat="45.00553" lon="5.09134">
        <ele>215.066528</ele>
        <time>2022-03-12T12:46:32.322Z</time>
      </trkpt>
      <trkpt lat="45.00566" lon="5.09126">
        <ele>214.889848</ele>
        <time>2022-03-12T12:46:34.323Z</time>
      </trkpt>
      <trkpt lat="45.00579" lon="5.09119">
        <ele>214.724423</ele>
        <time>2022-03-12T12:46:36.324Z</time>
      </trkpt>
      <trkpt lat="45.00591" lon="5.09111">
        <ele>214.5602</ele>
        <time>2022-03-12T12:46:38.342Z</time>
      </trkpt>
      <trkpt lat="45.00603" lon="5.09104">
        <ele>214.401347</ele>
        <time>2022-03-12T12:46:40.331Z</time>
      </trkpt>
      <trkpt lat="45.00616" lon="5.09096">
        <ele>214.238815</ele>
        <time>2022-03-12T12:46:42.324Z</time>
      </trkpt>
      <trkpt lat="45.00628" lon="5.09089">
        <ele>214.08094</ele>
        <time>2022-03-12T12:46:44.327Z</time>
      </trkpt>
      <trkpt lat="45.0064" lon="5.09082">
        <ele>214.00318</ele>
        <time>2022-03-12T12:46:46.332Z</time>
      </trkpt>
      <trkpt lat="45.00653" lon="5.09076">
        <ele>214.00318</ele>
        <time>2022-03-12T12:46:48.331Z</time>
      </trkpt>
      <trkpt lat="45.00665" lon="5.09071">
        <ele>214.00318</ele>
        <time>2022-03-12T12:46:50.334Z</time>
      </trkpt>
      <trkpt lat="45.00677" lon="5.09066">
        <ele>214.00318</ele>
        <time>2022-03-12T12:46:52.325Z</time>
      </trkpt>
      <trkpt lat="45.00688" lon="5.09068">
        <ele>214.00318</ele>
        <time>2022-03-12T12:46:54.321Z</time>
      </trkpt>
      <trkpt lat="45.00694" lon="5.09084">
        <ele>214.00318</ele>
        <time>2022-03-12T12:46:56.336Z</time>
      </trkpt>
      <trkpt lat="45.00698" lon="5.09099">
        <ele>214.00318</ele>
        <time>2022-03-12T12:46:58.325Z</time>
      </trkpt>
      <trkpt lat="45.00704" lon="5.09112">
        <ele>214.00318</ele>
        <time>2022-03-12T12:47:00.324Z</time>
      </trkpt>
      <trkpt lat="45.00712" lon="5.09122">
        <ele>214.00318</ele>
        <time>2022-03-12T12:47:02.322Z</time>
      </trkpt>
      <trkpt lat="45.00721" lon="5.09132">
        <ele>214.00318</ele>
        <time>2022-03-12T12:47:04.322Z</time>
      </trkpt>
      <trkpt lat="45.00727" lon="5.09144">
        <ele>214.00318</ele>
        <time>2022-03-12T12:47:06.338Z</time>
      </trkpt>
      <trkpt lat="45.00732" lon="5.09156">
        <ele>214.00318</ele>
        <time>2022-03-12T12:47:08.323Z</time>
      </trkpt>
      <trkpt lat="45.00739" lon="5.09171">
        <ele>214.00318</ele>
        <time>2022-03-12T12:47:11.324Z</time>
      </trkpt>
      <trkpt lat="45.00746" lon="5.09183">
        <ele>214.00318</ele>
        <time>2022-03-12T12:47:14.335Z</time>
      </trkpt>
      <trkpt lat="45.00756" lon="5.09188">
        <ele>214.00318</ele>
        <time>2022-03-12T12:47:17.325Z</time>
      </trkpt>
      <trkpt lat="45.00766" lon="5.09191">
        <ele>214.00318</ele>
        <time>2022-03-12T12:47:20.331Z</time>
      </trkpt>
      <trkpt lat="45.00776" lon="5.09188">
        <ele>214.00318</ele>
        <time>2022-03-12T12:47:23.328Z</time>
      </trkpt>
      <trkpt lat="45.00783" lon="5.09178">
        <ele>214.00318</ele>
        <time>2022-03-12T12:47:26.323Z</time>
      </trkpt>
      <trkpt lat="45.00776" lon="5.0917">
        <ele>214.00318</ele>
        <time>2022-03-12T12:47:29.328Z</time>
      </trkpt>
      <trkpt lat="45.00774" lon="5.09171">
        <ele>214.00318</ele>
        <time>2022-03-12T12:47:54.383Z</time>
      </trkpt>
    </trkseg>
  </trk>
</gpx>